<?xml version='1.0' encoding='UTF-8'?><gpx version="1.1" creator="JPX - https://github.com/jenetics/jpx" xmlns="http://www.topografix.com/GPX/1/1"><trk><trkseg><trkpt lat="43.3757806" lon="11.7879896"><ele>272.0</ele><time>2026-04-27T14:02:17.574Z</time></trkpt><trkpt lat="43.3758476" lon="11.7879841"><ele>272.0</ele><time>2026-04-27T14:02:25.549Z</time></trkpt><trkpt lat="43.375955" lon="11.7879617"><ele>272.0</ele><time>2026-04-27T14:02:29.474Z</time></trkpt><trkpt lat="43.37599" lon="11.78787"><ele>272.0</ele><time>2026-04-27T14:04:17.476Z</time></trkpt><trkpt lat="43.376055" lon="11.787835"><ele>272.0</ele><time>2026-04-27T14:04:23.476Z</time></trkpt><trkpt lat="43.3760267" lon="11.787745"><ele>272.0</ele><time>2026-04-27T14:04:31.473Z</time></trkpt><trkpt lat="43.3759633" lon="11.787735"><ele>271.99999999999994</ele><time>2026-04-27T14:04:39.478Z</time></trkpt><trkpt lat="43.375895" lon="11.78773"><ele>272.0</ele><time>2026-04-27T14:04:47.475Z</time></trkpt><trkpt lat="43.3758317" lon="11.78771"><ele>272.0</ele><time>2026-04-27T14:04:54.481Z</time></trkpt><trkpt lat="43.3757617" lon="11.7877167"><ele>272.0</ele><time>2026-04-27T14:05:03.477Z</time></trkpt><trkpt lat="43.3756983" lon="11.787695"><ele>272.0</ele><time>2026-04-27T14:05:09.477Z</time></trkpt><trkpt lat="43.3756967" lon="11.7878333"><ele>271.99999999999994</ele><time>2026-04-27T14:06:39.475Z</time></trkpt><trkpt lat="43.3756917" lon="11.7877283"><ele>272.0</ele><time>2026-04-27T14:06:45.474Z</time></trkpt><trkpt lat="43.37563" lon="11.7876817"><ele>272.1666666666667</ele><time>2026-04-27T14:06:50.474Z</time></trkpt><trkpt lat="43.3755933" lon="11.7876"><ele>272.33333333333337</ele><time>2026-04-27T14:06:55.471Z</time></trkpt><trkpt lat="43.3755117" lon="11.7875533"><ele>272.5</ele><time>2026-04-27T14:07:17.476Z</time></trkpt><trkpt lat="43.3754917" lon="11.7874483"><ele>272.6666666666667</ele><time>2026-04-27T14:07:22.473Z</time></trkpt><trkpt lat="43.3754883" lon="11.78734"><ele>272.8333333333333</ele><time>2026-04-27T14:07:26.473Z</time></trkpt><trkpt lat="43.3754817" lon="11.7872533"><ele>273.0</ele><time>2026-04-27T14:07:29.48Z</time></trkpt><trkpt lat="43.3754733" lon="11.7871533"><ele>273.0</ele><time>2026-04-27T14:07:32.478Z</time></trkpt><trkpt lat="43.3754783" lon="11.787065"><ele>273.0</ele><time>2026-04-27T14:07:35.474Z</time></trkpt><trkpt lat="43.3754783" lon="11.7869783"><ele>273.0</ele><time>2026-04-27T14:07:38.475Z</time></trkpt><trkpt lat="43.3754683" lon="11.78689"><ele>273.0</ele><time>2026-04-27T14:07:41.472Z</time></trkpt><trkpt lat="43.3754683" lon="11.7868033"><ele>273.0</ele><time>2026-04-27T14:07:44.474Z</time></trkpt><trkpt lat="43.3754633" lon="11.7867083"><ele>273.0</ele><time>2026-04-27T14:07:48.479Z</time></trkpt><trkpt lat="43.375485" lon="11.7866217"><ele>273.0</ele><time>2026-04-27T14:07:52.473Z</time></trkpt><trkpt lat="43.3755417" lon="11.7865617"><ele>273.0</ele><time>2026-04-27T14:07:56.475Z</time></trkpt><trkpt lat="43.3755917" lon="11.7864917"><ele>273.0</ele><time>2026-04-27T14:08:00.477Z</time></trkpt><trkpt lat="43.3756533" lon="11.78642"><ele>273.0</ele><time>2026-04-27T14:08:03.473Z</time></trkpt><trkpt lat="43.3757217" lon="11.7863517"><ele>273.0</ele><time>2026-04-27T14:08:06.475Z</time></trkpt><trkpt lat="43.3757883" lon="11.786275"><ele>273.0</ele><time>2026-04-27T14:08:09.473Z</time></trkpt><trkpt lat="43.3758467" lon="11.7862"><ele>273.0</ele><time>2026-04-27T14:08:12.478Z</time></trkpt><trkpt lat="43.3759067" lon="11.786135"><ele>273.0</ele><time>2026-04-27T14:08:15.473Z</time></trkpt><trkpt lat="43.375955" lon="11.7860733"><ele>273.0</ele><time>2026-04-27T14:08:18.476Z</time></trkpt><trkpt lat="43.37602" lon="11.7859967"><ele>273.0</ele><time>2026-04-27T14:08:22.473Z</time></trkpt><trkpt lat="43.3760883" lon="11.7859167"><ele>273.0</ele><time>2026-04-27T14:08:25.477Z</time></trkpt><trkpt lat="43.37616" lon="11.7858283"><ele>273.0</ele><time>2026-04-27T14:08:28.477Z</time></trkpt><trkpt lat="43.3762233" lon="11.7857417"><ele>273.0</ele><time>2026-04-27T14:08:31.475Z</time></trkpt><trkpt lat="43.3762833" lon="11.7856617"><ele>273.3333333333333</ele><time>2026-04-27T14:08:34.48Z</time></trkpt><trkpt lat="43.3763433" lon="11.7855783"><ele>273.6666666666667</ele><time>2026-04-27T14:08:37.476Z</time></trkpt><trkpt lat="43.3764033" lon="11.785495"><ele>274.0</ele><time>2026-04-27T14:08:40.473Z</time></trkpt><trkpt lat="43.3764483" lon="11.7854333"><ele>274.33333333333337</ele><time>2026-04-27T14:08:42.474Z</time></trkpt><trkpt lat="43.376505" lon="11.7853517"><ele>274.6666666666667</ele><time>2026-04-27T14:08:45.473Z</time></trkpt><trkpt lat="43.3765567" lon="11.785285"><ele>275.0</ele><time>2026-04-27T14:08:49.475Z</time></trkpt><trkpt lat="43.3766033" lon="11.785225"><ele>275.33333333333337</ele><time>2026-04-27T14:08:53.475Z</time></trkpt><trkpt lat="43.3766567" lon="11.7851383"><ele>275.6666666666667</ele><time>2026-04-27T14:08:58.474Z</time></trkpt><trkpt lat="43.376705" lon="11.785035"><ele>276.0</ele><time>2026-04-27T14:09:01.477Z</time></trkpt><trkpt lat="43.37674" lon="11.78495"><ele>276.3333333333333</ele><time>2026-04-27T14:09:03.474Z</time></trkpt><trkpt lat="43.376775" lon="11.784875"><ele>276.66666666666663</ele><time>2026-04-27T14:09:05.474Z</time></trkpt><trkpt lat="43.376815" lon="11.7847817"><ele>277.0</ele><time>2026-04-27T14:09:07.477Z</time></trkpt><trkpt lat="43.3768517" lon="11.78468"><ele>277.0</ele><time>2026-04-27T14:09:09.473Z</time></trkpt><trkpt lat="43.376885" lon="11.7845883"><ele>277.0</ele><time>2026-04-27T14:09:11.475Z</time></trkpt><trkpt lat="43.3769133" lon="11.7845017"><ele>277.0</ele><time>2026-04-27T14:09:13.473Z</time></trkpt><trkpt lat="43.3769467" lon="11.7844133"><ele>277.0</ele><time>2026-04-27T14:09:15.474Z</time></trkpt><trkpt lat="43.37698" lon="11.7843267"><ele>277.0</ele><time>2026-04-27T14:09:17.474Z</time></trkpt><trkpt lat="43.3770367" lon="11.784205"><ele>277.0</ele><time>2026-04-27T14:09:20.477Z</time></trkpt><trkpt lat="43.3770983" lon="11.7840783"><ele>276.8</ele><time>2026-04-27T14:09:22.476Z</time></trkpt><trkpt lat="43.377135" lon="11.7839867"><ele>276.6</ele><time>2026-04-27T14:09:24.477Z</time></trkpt><trkpt lat="43.3771783" lon="11.7838517"><ele>276.40000000000003</ele><time>2026-04-27T14:09:26.473Z</time></trkpt><trkpt lat="43.3772167" lon="11.7837483"><ele>276.2</ele><time>2026-04-27T14:09:27.476Z</time></trkpt><trkpt lat="43.3772583" lon="11.7836267"><ele>276.0</ele><time>2026-04-27T14:09:28.475Z</time></trkpt><trkpt lat="43.3773067" lon="11.7834633"><ele>275.0</ele><time>2026-04-27T14:09:30.478Z</time></trkpt><trkpt lat="43.3773367" lon="11.7833683"><ele>274.0</ele><time>2026-04-27T14:09:31.473Z</time></trkpt><trkpt lat="43.377365" lon="11.7832583"><ele>273.0</ele><time>2026-04-27T14:09:32.477Z</time></trkpt><trkpt lat="43.3774333" lon="11.783105"><ele>272.0</ele><time>2026-04-27T14:09:33.474Z</time></trkpt><trkpt lat="43.37749" lon="11.782965"><ele>271.0</ele><time>2026-04-27T14:09:34.471Z</time></trkpt><trkpt lat="43.3775383" lon="11.782845"><ele>271.0</ele><time>2026-04-27T14:09:35.471Z</time></trkpt><trkpt lat="43.3775767" lon="11.7827283"><ele>271.0</ele><time>2026-04-27T14:09:36.475Z</time></trkpt><trkpt lat="43.377615" lon="11.7826183"><ele>271.0</ele><time>2026-04-27T14:09:37.472Z</time></trkpt><trkpt lat="43.37765" lon="11.7825117"><ele>271.0</ele><time>2026-04-27T14:09:38.475Z</time></trkpt><trkpt lat="43.3776833" lon="11.782415"><ele>271.0</ele><time>2026-04-27T14:09:39.475Z</time></trkpt><trkpt lat="43.3777117" lon="11.7823233"><ele>271.0</ele><time>2026-04-27T14:09:40.476Z</time></trkpt><trkpt lat="43.37774" lon="11.782235"><ele>270.6</ele><time>2026-04-27T14:09:41.475Z</time></trkpt><trkpt lat="43.3777683" lon="11.7821467"><ele>270.20000000000005</ele><time>2026-04-27T14:09:42.474Z</time></trkpt><trkpt lat="43.37782" lon="11.7820017"><ele>269.79999999999995</ele><time>2026-04-27T14:09:44.474Z</time></trkpt><trkpt lat="43.3778667" lon="11.781875"><ele>269.4</ele><time>2026-04-27T14:09:46.474Z</time></trkpt><trkpt lat="43.3779083" lon="11.7817567"><ele>269.0</ele><time>2026-04-27T14:09:48.476Z</time></trkpt><trkpt lat="43.3779467" lon="11.7816517"><ele>268.8571428571429</ele><time>2026-04-27T14:09:50.478Z</time></trkpt><trkpt lat="43.3779783" lon="11.78156"><ele>268.7142857142857</ele><time>2026-04-27T14:09:52.477Z</time></trkpt><trkpt lat="43.3780083" lon="11.78147"><ele>268.57142857142856</ele><time>2026-04-27T14:09:54.475Z</time></trkpt><trkpt lat="43.37804" lon="11.781385"><ele>268.42857142857144</ele><time>2026-04-27T14:09:56.478Z</time></trkpt><trkpt lat="43.378065" lon="11.7813"><ele>268.2857142857143</ele><time>2026-04-27T14:09:58.474Z</time></trkpt><trkpt lat="43.3781067" lon="11.78119"><ele>268.14285714285717</ele><time>2026-04-27T14:10:01.473Z</time></trkpt><trkpt lat="43.3781367" lon="11.7810917"><ele>268.0</ele><time>2026-04-27T14:10:04.47Z</time></trkpt><trkpt lat="43.3781633" lon="11.7810033"><ele>267.7142857142857</ele><time>2026-04-27T14:10:07.475Z</time></trkpt><trkpt lat="43.3781917" lon="11.7809133"><ele>267.42857142857144</ele><time>2026-04-27T14:10:10.475Z</time></trkpt><trkpt lat="43.3782267" lon="11.7808267"><ele>267.1428571428571</ele><time>2026-04-27T14:10:13.473Z</time></trkpt><trkpt lat="43.3782483" lon="11.780735"><ele>266.8571428571429</ele><time>2026-04-27T14:10:16.473Z</time></trkpt><trkpt lat="43.37828" lon="11.7806383"><ele>266.57142857142856</ele><time>2026-04-27T14:10:20.476Z</time></trkpt><trkpt lat="43.37831" lon="11.7805467"><ele>266.2857142857143</ele><time>2026-04-27T14:10:24.474Z</time></trkpt><trkpt lat="43.3783417" lon="11.7804567"><ele>266.0</ele><time>2026-04-27T14:10:28.475Z</time></trkpt><trkpt lat="43.3783817" lon="11.7803567"><ele>266.0</ele><time>2026-04-27T14:10:32.477Z</time></trkpt><trkpt lat="43.3784167" lon="11.7802567"><ele>266.0</ele><time>2026-04-27T14:10:36.473Z</time></trkpt><trkpt lat="43.3784517" lon="11.780165"><ele>266.0</ele><time>2026-04-27T14:10:40.474Z</time></trkpt><trkpt lat="43.3784833" lon="11.7800783"><ele>266.0</ele><time>2026-04-27T14:10:44.473Z</time></trkpt><trkpt lat="43.3785167" lon="11.77997"><ele>266.0</ele><time>2026-04-27T14:10:48.475Z</time></trkpt><trkpt lat="43.3785433" lon="11.779875"><ele>266.0</ele><time>2026-04-27T14:10:51.475Z</time></trkpt><trkpt lat="43.378575" lon="11.77976"><ele>266.2857142857143</ele><time>2026-04-27T14:10:54.475Z</time></trkpt><trkpt lat="43.3786" lon="11.7796783"><ele>266.57142857142856</ele><time>2026-04-27T14:10:56.474Z</time></trkpt><trkpt lat="43.3786283" lon="11.7795983"><ele>266.8571428571429</ele><time>2026-04-27T14:10:58.476Z</time></trkpt><trkpt lat="43.3786617" lon="11.7795067"><ele>267.1428571428571</ele><time>2026-04-27T14:11:00.472Z</time></trkpt><trkpt lat="43.3786917" lon="11.77942"><ele>267.42857142857144</ele><time>2026-04-27T14:11:02.475Z</time></trkpt><trkpt lat="43.378725" lon="11.7793267"><ele>267.7142857142857</ele><time>2026-04-27T14:11:04.473Z</time></trkpt><trkpt lat="43.3787567" lon="11.7792333"><ele>268.0</ele><time>2026-04-27T14:11:06.473Z</time></trkpt><trkpt lat="43.3787883" lon="11.77914"><ele>268.2857142857143</ele><time>2026-04-27T14:11:08.472Z</time></trkpt><trkpt lat="43.3788183" lon="11.7790467"><ele>268.57142857142856</ele><time>2026-04-27T14:11:10.472Z</time></trkpt><trkpt lat="43.3788517" lon="11.7789583"><ele>268.85714285714283</ele><time>2026-04-27T14:11:12.475Z</time></trkpt><trkpt lat="43.37888" lon="11.7788683"><ele>269.1428571428571</ele><time>2026-04-27T14:11:14.476Z</time></trkpt><trkpt lat="43.3789083" lon="11.778785"><ele>269.4285714285714</ele><time>2026-04-27T14:11:16.474Z</time></trkpt><trkpt lat="43.3789383" lon="11.7786967"><ele>269.7142857142857</ele><time>2026-04-27T14:11:18.473Z</time></trkpt><trkpt lat="43.3789667" lon="11.77861"><ele>270.0</ele><time>2026-04-27T14:11:20.478Z</time></trkpt><trkpt lat="43.3789983" lon="11.778515"><ele>270.57142857142856</ele><time>2026-04-27T14:11:22.472Z</time></trkpt><trkpt lat="43.3790317" lon="11.7784167"><ele>271.1428571428571</ele><time>2026-04-27T14:11:24.476Z</time></trkpt><trkpt lat="43.379065" lon="11.7783217"><ele>271.7142857142857</ele><time>2026-04-27T14:11:26.476Z</time></trkpt><trkpt lat="43.3790967" lon="11.7782283"><ele>272.2857142857143</ele><time>2026-04-27T14:11:28.473Z</time></trkpt><trkpt lat="43.379125" lon="11.7781333"><ele>272.8571428571429</ele><time>2026-04-27T14:11:30.472Z</time></trkpt><trkpt lat="43.3791533" lon="11.7780433"><ele>273.42857142857144</ele><time>2026-04-27T14:11:32.475Z</time></trkpt><trkpt lat="43.37918" lon="11.777955"><ele>274.0</ele><time>2026-04-27T14:11:34.473Z</time></trkpt><trkpt lat="43.37921" lon="11.77787"><ele>274.00000000000006</ele><time>2026-04-27T14:11:36.472Z</time></trkpt><trkpt lat="43.3792433" lon="11.7777783"><ele>274.0</ele><time>2026-04-27T14:11:38.475Z</time></trkpt><trkpt lat="43.3792767" lon="11.7776983"><ele>274.0</ele><time>2026-04-27T14:11:40.475Z</time></trkpt><trkpt lat="43.3793133" lon="11.7776133"><ele>274.0</ele><time>2026-04-27T14:11:42.473Z</time></trkpt><trkpt lat="43.379345" lon="11.7775283"><ele>274.0</ele><time>2026-04-27T14:11:44.473Z</time></trkpt><trkpt lat="43.3793783" lon="11.77744"><ele>274.00000000000006</ele><time>2026-04-27T14:11:46.48Z</time></trkpt><trkpt lat="43.3794133" lon="11.7773483"><ele>274.0</ele><time>2026-04-27T14:11:48.475Z</time></trkpt><trkpt lat="43.3794433" lon="11.777255"><ele>274.3333333333333</ele><time>2026-04-27T14:11:50.476Z</time></trkpt><trkpt lat="43.3794733" lon="11.7771583"><ele>274.66666666666663</ele><time>2026-04-27T14:11:52.473Z</time></trkpt><trkpt lat="43.3795" lon="11.777065"><ele>275.0</ele><time>2026-04-27T14:11:54.471Z</time></trkpt><trkpt lat="43.379525" lon="11.776975"><ele>275.3333333333333</ele><time>2026-04-27T14:11:56.478Z</time></trkpt><trkpt lat="43.37955" lon="11.7768883"><ele>275.6666666666667</ele><time>2026-04-27T14:11:58.471Z</time></trkpt><trkpt lat="43.379585" lon="11.77677"><ele>276.0</ele><time>2026-04-27T14:12:01.472Z</time></trkpt><trkpt lat="43.3796217" lon="11.776655"><ele>276.1666666666667</ele><time>2026-04-27T14:12:04.471Z</time></trkpt><trkpt lat="43.3796617" lon="11.776535"><ele>276.3333333333333</ele><time>2026-04-27T14:12:07.474Z</time></trkpt><trkpt lat="43.3796917" lon="11.776445"><ele>276.5</ele><time>2026-04-27T14:12:09.475Z</time></trkpt><trkpt lat="43.37972" lon="11.77635"><ele>276.66666666666663</ele><time>2026-04-27T14:12:11.472Z</time></trkpt><trkpt lat="43.3797467" lon="11.77626"><ele>276.8333333333333</ele><time>2026-04-27T14:12:13.474Z</time></trkpt><trkpt lat="43.3797783" lon="11.77616"><ele>277.0</ele><time>2026-04-27T14:12:15.471Z</time></trkpt><trkpt lat="43.3798117" lon="11.77606"><ele>277.0</ele><time>2026-04-27T14:12:17.473Z</time></trkpt><trkpt lat="43.3798433" lon="11.7759633"><ele>277.0</ele><time>2026-04-27T14:12:19.476Z</time></trkpt><trkpt lat="43.3798733" lon="11.775865"><ele>277.0</ele><time>2026-04-27T14:12:21.474Z</time></trkpt><trkpt lat="43.3799083" lon="11.7757733"><ele>277.0</ele><time>2026-04-27T14:12:23.478Z</time></trkpt><trkpt lat="43.3799383" lon="11.7756817"><ele>277.0</ele><time>2026-04-27T14:12:25.474Z</time></trkpt><trkpt lat="43.37997" lon="11.7755917"><ele>277.0</ele><time>2026-04-27T14:12:27.475Z</time></trkpt><trkpt lat="43.3799983" lon="11.7755"><ele>277.0</ele><time>2026-04-27T14:12:29.475Z</time></trkpt><trkpt lat="43.3800283" lon="11.7754217"><ele>277.0</ele><time>2026-04-27T14:12:31.476Z</time></trkpt><trkpt lat="43.3800517" lon="11.7753367"><ele>277.0</ele><time>2026-04-27T14:12:33.474Z</time></trkpt><trkpt lat="43.380075" lon="11.7752533"><ele>277.0</ele><time>2026-04-27T14:12:35.476Z</time></trkpt><trkpt lat="43.3801" lon="11.77517"><ele>277.0</ele><time>2026-04-27T14:12:37.474Z</time></trkpt><trkpt lat="43.3801317" lon="11.7750867"><ele>277.0</ele><time>2026-04-27T14:12:39.474Z</time></trkpt><trkpt lat="43.3801567" lon="11.7749933"><ele>277.0</ele><time>2026-04-27T14:12:41.473Z</time></trkpt><trkpt lat="43.3801867" lon="11.7749083"><ele>277.0</ele><time>2026-04-27T14:12:43.478Z</time></trkpt><trkpt lat="43.3802117" lon="11.7748183"><ele>277.1428571428571</ele><time>2026-04-27T14:12:45.474Z</time></trkpt><trkpt lat="43.3802367" lon="11.77473"><ele>277.2857142857143</ele><time>2026-04-27T14:12:47.473Z</time></trkpt><trkpt lat="43.3802633" lon="11.774645"><ele>277.42857142857144</ele><time>2026-04-27T14:12:49.473Z</time></trkpt><trkpt lat="43.3802933" lon="11.7745617"><ele>277.57142857142856</ele><time>2026-04-27T14:12:51.474Z</time></trkpt><trkpt lat="43.38032" lon="11.7744783"><ele>277.7142857142857</ele><time>2026-04-27T14:12:53.472Z</time></trkpt><trkpt lat="43.3803533" lon="11.77437"><ele>277.85714285714283</ele><time>2026-04-27T14:12:56.473Z</time></trkpt><trkpt lat="43.3803917" lon="11.7742633"><ele>278.0</ele><time>2026-04-27T14:12:59.473Z</time></trkpt><trkpt lat="43.3804283" lon="11.7741567"><ele>278.1428571428571</ele><time>2026-04-27T14:13:02.474Z</time></trkpt><trkpt lat="43.380455" lon="11.7740767"><ele>278.2857142857143</ele><time>2026-04-27T14:13:04.475Z</time></trkpt><trkpt lat="43.3804917" lon="11.7739733"><ele>278.42857142857144</ele><time>2026-04-27T14:13:07.475Z</time></trkpt><trkpt lat="43.380525" lon="11.7738767"><ele>278.57142857142856</ele><time>2026-04-27T14:13:10.475Z</time></trkpt><trkpt lat="43.380555" lon="11.7737967"><ele>278.7142857142857</ele><time>2026-04-27T14:13:13.475Z</time></trkpt><trkpt lat="43.380585" lon="11.7737183"><ele>278.85714285714283</ele><time>2026-04-27T14:13:16.474Z</time></trkpt><trkpt lat="43.3806233" lon="11.7736"><ele>279.0</ele><time>2026-04-27T14:13:19.475Z</time></trkpt><trkpt lat="43.380655" lon="11.7735217"><ele>279.1666666666667</ele><time>2026-04-27T14:13:21.475Z</time></trkpt><trkpt lat="43.3806933" lon="11.7734467"><ele>279.3333333333333</ele><time>2026-04-27T14:13:23.475Z</time></trkpt><trkpt lat="43.3807317" lon="11.7733767"><ele>279.5</ele><time>2026-04-27T14:13:25.475Z</time></trkpt><trkpt lat="43.3807767" lon="11.773265"><ele>279.66666666666663</ele><time>2026-04-27T14:13:28.474Z</time></trkpt><trkpt lat="43.3808067" lon="11.7731367"><ele>279.8333333333333</ele><time>2026-04-27T14:13:31.474Z</time></trkpt><trkpt lat="43.3808233" lon="11.7730433"><ele>280.0</ele><time>2026-04-27T14:13:33.475Z</time></trkpt><trkpt lat="43.3808417" lon="11.7729533"><ele>280.0</ele><time>2026-04-27T14:13:35.477Z</time></trkpt><trkpt lat="43.3808683" lon="11.7728617"><ele>280.0</ele><time>2026-04-27T14:13:37.472Z</time></trkpt><trkpt lat="43.3809017" lon="11.7727733"><ele>280.0</ele><time>2026-04-27T14:13:39.478Z</time></trkpt><trkpt lat="43.380935" lon="11.7726833"><ele>280.0</ele><time>2026-04-27T14:13:41.476Z</time></trkpt><trkpt lat="43.3809733" lon="11.7726"><ele>280.0</ele><time>2026-04-27T14:13:43.475Z</time></trkpt><trkpt lat="43.38101" lon="11.7725167"><ele>280.0</ele><time>2026-04-27T14:13:45.477Z</time></trkpt><trkpt lat="43.3810467" lon="11.7724267"><ele>280.0</ele><time>2026-04-27T14:13:47.475Z</time></trkpt><trkpt lat="43.3810817" lon="11.7723433"><ele>280.0</ele><time>2026-04-27T14:13:49.473Z</time></trkpt><trkpt lat="43.3811167" lon="11.7722583"><ele>280.0</ele><time>2026-04-27T14:13:51.472Z</time></trkpt><trkpt lat="43.3811517" lon="11.7721717"><ele>280.0</ele><time>2026-04-27T14:13:53.478Z</time></trkpt><trkpt lat="43.3811883" lon="11.7720833"><ele>280.0</ele><time>2026-04-27T14:13:55.473Z</time></trkpt><trkpt lat="43.3812267" lon="11.7719967"><ele>280.0</ele><time>2026-04-27T14:13:57.475Z</time></trkpt><trkpt lat="43.3812683" lon="11.7719033"><ele>280.0</ele><time>2026-04-27T14:13:59.477Z</time></trkpt><trkpt lat="43.381305" lon="11.7718017"><ele>280.0</ele><time>2026-04-27T14:14:01.475Z</time></trkpt><trkpt lat="43.38134" lon="11.7717017"><ele>280.0</ele><time>2026-04-27T14:14:03.473Z</time></trkpt><trkpt lat="43.3813833" lon="11.7716067"><ele>280.0</ele><time>2026-04-27T14:14:05.474Z</time></trkpt><trkpt lat="43.3814233" lon="11.7715067"><ele>280.0</ele><time>2026-04-27T14:14:07.472Z</time></trkpt><trkpt lat="43.3814617" lon="11.7714"><ele>280.0</ele><time>2026-04-27T14:14:09.478Z</time></trkpt><trkpt lat="43.3814967" lon="11.7712983"><ele>280.0</ele><time>2026-04-27T14:14:11.473Z</time></trkpt><trkpt lat="43.3815333" lon="11.77119"><ele>279.8</ele><time>2026-04-27T14:14:13.475Z</time></trkpt><trkpt lat="43.381575" lon="11.77109"><ele>279.6</ele><time>2026-04-27T14:14:15.474Z</time></trkpt><trkpt lat="43.3816183" lon="11.77099"><ele>279.4</ele><time>2026-04-27T14:14:17.474Z</time></trkpt><trkpt lat="43.3816617" lon="11.77088"><ele>279.2</ele><time>2026-04-27T14:14:19.477Z</time></trkpt><trkpt lat="43.3817117" lon="11.7707717"><ele>279.0</ele><time>2026-04-27T14:14:21.473Z</time></trkpt><trkpt lat="43.3817633" lon="11.7706567"><ele>278.8</ele><time>2026-04-27T14:14:23.474Z</time></trkpt><trkpt lat="43.381815" lon="11.77054"><ele>278.59999999999997</ele><time>2026-04-27T14:14:25.474Z</time></trkpt><trkpt lat="43.3818667" lon="11.7704217"><ele>278.4</ele><time>2026-04-27T14:14:27.476Z</time></trkpt><trkpt lat="43.3819233" lon="11.7703"><ele>278.2</ele><time>2026-04-27T14:14:29.476Z</time></trkpt><trkpt lat="43.3819733" lon="11.77018"><ele>278.0</ele><time>2026-04-27T14:14:31.475Z</time></trkpt><trkpt lat="43.3820183" lon="11.770065"><ele>277.8</ele><time>2026-04-27T14:14:33.474Z</time></trkpt><trkpt lat="43.3820633" lon="11.76995"><ele>277.6</ele><time>2026-04-27T14:14:35.475Z</time></trkpt><trkpt lat="43.3821067" lon="11.7698383"><ele>277.4</ele><time>2026-04-27T14:14:37.474Z</time></trkpt><trkpt lat="43.382155" lon="11.7697233"><ele>277.2</ele><time>2026-04-27T14:14:39.473Z</time></trkpt><trkpt lat="43.382205" lon="11.76962"><ele>277.0</ele><time>2026-04-27T14:14:41.476Z</time></trkpt><trkpt lat="43.3822533" lon="11.7695167"><ele>277.3333333333333</ele><time>2026-04-27T14:14:43.473Z</time></trkpt><trkpt lat="43.3823017" lon="11.7694217"><ele>277.66666666666663</ele><time>2026-04-27T14:14:45.475Z</time></trkpt><trkpt lat="43.38235" lon="11.7693333"><ele>278.0</ele><time>2026-04-27T14:14:47.473Z</time></trkpt><trkpt lat="43.3824133" lon="11.7692617"><ele>278.3333333333333</ele><time>2026-04-27T14:14:49.474Z</time></trkpt><trkpt lat="43.3824783" lon="11.7692033"><ele>278.6666666666667</ele><time>2026-04-27T14:14:51.472Z</time></trkpt><trkpt lat="43.382535" lon="11.7691483"><ele>279.0</ele><time>2026-04-27T14:14:53.476Z</time></trkpt><trkpt lat="43.3825933" lon="11.769105"><ele>279.0</ele><time>2026-04-27T14:14:55.472Z</time></trkpt><trkpt lat="43.3826733" lon="11.76906"><ele>279.0</ele><time>2026-04-27T14:14:58.474Z</time></trkpt><trkpt lat="43.3827483" lon="11.7689917"><ele>279.0</ele><time>2026-04-27T14:15:01.476Z</time></trkpt><trkpt lat="43.382805" lon="11.7689333"><ele>279.0</ele><time>2026-04-27T14:15:03.472Z</time></trkpt><trkpt lat="43.382875" lon="11.7688433"><ele>279.0</ele><time>2026-04-27T14:15:06.474Z</time></trkpt><trkpt lat="43.3829283" lon="11.7687883"><ele>279.0</ele><time>2026-04-27T14:15:08.474Z</time></trkpt><trkpt lat="43.3829817" lon="11.7687383"><ele>279.2857142857143</ele><time>2026-04-27T14:15:10.473Z</time></trkpt><trkpt lat="43.383035" lon="11.7686767"><ele>279.57142857142856</ele><time>2026-04-27T14:15:12.472Z</time></trkpt><trkpt lat="43.38309" lon="11.7686067"><ele>279.8571428571429</ele><time>2026-04-27T14:15:14.474Z</time></trkpt><trkpt lat="43.3831433" lon="11.76855"><ele>280.1428571428571</ele><time>2026-04-27T14:15:16.473Z</time></trkpt><trkpt lat="43.3832033" lon="11.7684917"><ele>280.42857142857144</ele><time>2026-04-27T14:15:18.475Z</time></trkpt><trkpt lat="43.3832633" lon="11.7684233"><ele>280.7142857142857</ele><time>2026-04-27T14:15:20.475Z</time></trkpt><trkpt lat="43.3833217" lon="11.76836"><ele>281.0</ele><time>2026-04-27T14:15:22.473Z</time></trkpt><trkpt lat="43.3833817" lon="11.7682983"><ele>281.1666666666667</ele><time>2026-04-27T14:15:24.476Z</time></trkpt><trkpt lat="43.38344" lon="11.7682317"><ele>281.33333333333337</ele><time>2026-04-27T14:15:26.475Z</time></trkpt><trkpt lat="43.3835" lon="11.76817"><ele>281.5</ele><time>2026-04-27T14:15:28.475Z</time></trkpt><trkpt lat="43.383565" lon="11.76811"><ele>281.6666666666667</ele><time>2026-04-27T14:15:30.474Z</time></trkpt><trkpt lat="43.3836317" lon="11.7680433"><ele>281.8333333333333</ele><time>2026-04-27T14:15:32.474Z</time></trkpt><trkpt lat="43.3836983" lon="11.7679783"><ele>282.0</ele><time>2026-04-27T14:15:34.472Z</time></trkpt><trkpt lat="43.3837633" lon="11.7679083"><ele>282.0</ele><time>2026-04-27T14:15:36.474Z</time></trkpt><trkpt lat="43.3838233" lon="11.76784"><ele>282.0</ele><time>2026-04-27T14:15:38.475Z</time></trkpt><trkpt lat="43.383885" lon="11.7677667"><ele>282.0</ele><time>2026-04-27T14:15:40.474Z</time></trkpt><trkpt lat="43.38394" lon="11.7677033"><ele>282.0</ele><time>2026-04-27T14:15:42.472Z</time></trkpt><trkpt lat="43.3840033" lon="11.767635"><ele>282.0</ele><time>2026-04-27T14:15:44.473Z</time></trkpt><trkpt lat="43.384065" lon="11.7675683"><ele>282.0</ele><time>2026-04-27T14:15:46.472Z</time></trkpt><trkpt lat="43.3841483" lon="11.7674883"><ele>281.6</ele><time>2026-04-27T14:15:48.475Z</time></trkpt><trkpt lat="43.38423" lon="11.7674033"><ele>281.2</ele><time>2026-04-27T14:15:50.474Z</time></trkpt><trkpt lat="43.384325" lon="11.767315"><ele>280.8</ele><time>2026-04-27T14:15:52.473Z</time></trkpt><trkpt lat="43.3844217" lon="11.7672283"><ele>280.4</ele><time>2026-04-27T14:15:54.473Z</time></trkpt><trkpt lat="43.384515" lon="11.7671383"><ele>280.0</ele><time>2026-04-27T14:15:56.473Z</time></trkpt><trkpt lat="43.3846117" lon="11.7670433"><ele>279.8</ele><time>2026-04-27T14:15:58.471Z</time></trkpt><trkpt lat="43.3846967" lon="11.7669467"><ele>279.6</ele><time>2026-04-27T14:16:00.473Z</time></trkpt><trkpt lat="43.3847833" lon="11.7668517"><ele>279.4</ele><time>2026-04-27T14:16:02.473Z</time></trkpt><trkpt lat="43.3848683" lon="11.7667567"><ele>279.2</ele><time>2026-04-27T14:16:04.473Z</time></trkpt><trkpt lat="43.3849467" lon="11.766675"><ele>279.0</ele><time>2026-04-27T14:16:06.477Z</time></trkpt><trkpt lat="43.3850217" lon="11.7665917"><ele>279.0</ele><time>2026-04-27T14:16:08.476Z</time></trkpt><trkpt lat="43.3851017" lon="11.76651"><ele>279.0</ele><time>2026-04-27T14:16:10.473Z</time></trkpt><trkpt lat="43.3851733" lon="11.766425"><ele>279.0</ele><time>2026-04-27T14:16:12.473Z</time></trkpt><trkpt lat="43.3852433" lon="11.7663533"><ele>279.0</ele><time>2026-04-27T14:16:14.474Z</time></trkpt><trkpt lat="43.3853117" lon="11.7662867"><ele>279.0</ele><time>2026-04-27T14:16:16.475Z</time></trkpt><trkpt lat="43.3853817" lon="11.7662183"><ele>279.0</ele><time>2026-04-27T14:16:18.475Z</time></trkpt><trkpt lat="43.3854517" lon="11.7661433"><ele>279.0</ele><time>2026-04-27T14:16:20.479Z</time></trkpt><trkpt lat="43.38552" lon="11.7660633"><ele>279.0</ele><time>2026-04-27T14:16:22.474Z</time></trkpt><trkpt lat="43.3855933" lon="11.76599"><ele>279.0</ele><time>2026-04-27T14:16:24.475Z</time></trkpt><trkpt lat="43.3856667" lon="11.7659117"><ele>279.0</ele><time>2026-04-27T14:16:26.476Z</time></trkpt><trkpt lat="43.3857417" lon="11.7658383"><ele>279.0</ele><time>2026-04-27T14:16:28.478Z</time></trkpt><trkpt lat="43.3858167" lon="11.76576"><ele>279.0</ele><time>2026-04-27T14:16:30.473Z</time></trkpt><trkpt lat="43.38589" lon="11.76568"><ele>279.0</ele><time>2026-04-27T14:16:32.477Z</time></trkpt><trkpt lat="43.3859633" lon="11.7656117"><ele>279.0</ele><time>2026-04-27T14:16:34.475Z</time></trkpt><trkpt lat="43.3860283" lon="11.7655367"><ele>279.0</ele><time>2026-04-27T14:16:36.473Z</time></trkpt><trkpt lat="43.3860917" lon="11.7654583"><ele>279.0</ele><time>2026-04-27T14:16:38.477Z</time></trkpt><trkpt lat="43.38616" lon="11.765385"><ele>279.0</ele><time>2026-04-27T14:16:40.475Z</time></trkpt><trkpt lat="43.38622" lon="11.7653117"><ele>279.0</ele><time>2026-04-27T14:16:42.477Z</time></trkpt><trkpt lat="43.386275" lon="11.76524"><ele>279.0</ele><time>2026-04-27T14:16:44.479Z</time></trkpt><trkpt lat="43.3863283" lon="11.7651683"><ele>279.0</ele><time>2026-04-27T14:16:46.475Z</time></trkpt><trkpt lat="43.3863783" lon="11.7650833"><ele>279.0</ele><time>2026-04-27T14:16:48.474Z</time></trkpt><trkpt lat="43.38643" lon="11.765"><ele>279.0</ele><time>2026-04-27T14:16:50.476Z</time></trkpt><trkpt lat="43.3864833" lon="11.764925"><ele>279.2</ele><time>2026-04-27T14:16:52.473Z</time></trkpt><trkpt lat="43.3865383" lon="11.7648383"><ele>279.4</ele><time>2026-04-27T14:16:54.478Z</time></trkpt><trkpt lat="43.3865867" lon="11.7647583"><ele>279.6</ele><time>2026-04-27T14:16:56.477Z</time></trkpt><trkpt lat="43.38665" lon="11.7646567"><ele>279.8</ele><time>2026-04-27T14:16:58.475Z</time></trkpt><trkpt lat="43.3867133" lon="11.7645533"><ele>280.0</ele><time>2026-04-27T14:17:00.473Z</time></trkpt><trkpt lat="43.3867717" lon="11.7644483"><ele>280.0</ele><time>2026-04-27T14:17:02.472Z</time></trkpt><trkpt lat="43.38684" lon="11.76435"><ele>280.0</ele><time>2026-04-27T14:17:04.476Z</time></trkpt><trkpt lat="43.3869083" lon="11.7642467"><ele>280.0</ele><time>2026-04-27T14:17:06.471Z</time></trkpt><trkpt lat="43.3869817" lon="11.7641367"><ele>280.0</ele><time>2026-04-27T14:17:08.474Z</time></trkpt><trkpt lat="43.3870517" lon="11.764025"><ele>280.0</ele><time>2026-04-27T14:17:10.474Z</time></trkpt><trkpt lat="43.3871183" lon="11.7639233"><ele>279.6</ele><time>2026-04-27T14:17:12.471Z</time></trkpt><trkpt lat="43.3871867" lon="11.763815"><ele>279.2</ele><time>2026-04-27T14:17:14.476Z</time></trkpt><trkpt lat="43.387255" lon="11.7637083"><ele>278.8</ele><time>2026-04-27T14:17:16.477Z</time></trkpt><trkpt lat="43.3873267" lon="11.763595"><ele>278.4</ele><time>2026-04-27T14:17:18.472Z</time></trkpt><trkpt lat="43.3874017" lon="11.7634817"><ele>278.0</ele><time>2026-04-27T14:17:20.478Z</time></trkpt><trkpt lat="43.3874783" lon="11.7633683"><ele>278.0</ele><time>2026-04-27T14:17:22.476Z</time></trkpt><trkpt lat="43.387555" lon="11.76325"><ele>278.0</ele><time>2026-04-27T14:17:24.475Z</time></trkpt><trkpt lat="43.3876317" lon="11.7631233"><ele>278.0</ele><time>2026-04-27T14:17:26.474Z</time></trkpt><trkpt lat="43.387705" lon="11.7630067"><ele>278.0</ele><time>2026-04-27T14:17:28.475Z</time></trkpt><trkpt lat="43.3877817" lon="11.7628883"><ele>278.0</ele><time>2026-04-27T14:17:30.473Z</time></trkpt><trkpt lat="43.3878583" lon="11.762775"><ele>278.0</ele><time>2026-04-27T14:17:32.476Z</time></trkpt><trkpt lat="43.3879333" lon="11.7626517"><ele>278.0</ele><time>2026-04-27T14:17:34.475Z</time></trkpt><trkpt lat="43.3880117" lon="11.7625317"><ele>278.0</ele><time>2026-04-27T14:17:36.472Z</time></trkpt><trkpt lat="43.3880883" lon="11.7624083"><ele>277.8</ele><time>2026-04-27T14:17:38.476Z</time></trkpt><trkpt lat="43.38817" lon="11.7622783"><ele>277.6</ele><time>2026-04-27T14:17:40.474Z</time></trkpt><trkpt lat="43.3882417" lon="11.7621583"><ele>277.4</ele><time>2026-04-27T14:17:42.474Z</time></trkpt><trkpt lat="43.3883133" lon="11.7620517"><ele>277.2</ele><time>2026-04-27T14:17:44.48Z</time></trkpt><trkpt lat="43.3883817" lon="11.76195"><ele>277.0</ele><time>2026-04-27T14:17:46.476Z</time></trkpt><trkpt lat="43.3884533" lon="11.7618567"><ele>277.0</ele><time>2026-04-27T14:17:48.476Z</time></trkpt><trkpt lat="43.3885183" lon="11.76176"><ele>277.0</ele><time>2026-04-27T14:17:50.475Z</time></trkpt><trkpt lat="43.3885783" lon="11.7616717"><ele>277.0</ele><time>2026-04-27T14:17:52.474Z</time></trkpt><trkpt lat="43.3886267" lon="11.76158"><ele>277.0</ele><time>2026-04-27T14:17:54.475Z</time></trkpt><trkpt lat="43.388685" lon="11.76149"><ele>277.0</ele><time>2026-04-27T14:17:56.475Z</time></trkpt><trkpt lat="43.3887383" lon="11.7614033"><ele>277.0</ele><time>2026-04-27T14:17:58.472Z</time></trkpt><trkpt lat="43.3887983" lon="11.7613117"><ele>277.0</ele><time>2026-04-27T14:18:00.473Z</time></trkpt><trkpt lat="43.3888567" lon="11.761225"><ele>277.0</ele><time>2026-04-27T14:18:02.475Z</time></trkpt><trkpt lat="43.3889167" lon="11.76113"><ele>277.0</ele><time>2026-04-27T14:18:04.475Z</time></trkpt><trkpt lat="43.3889783" lon="11.7610333"><ele>277.0</ele><time>2026-04-27T14:18:06.475Z</time></trkpt><trkpt lat="43.3890417" lon="11.7609383"><ele>277.0</ele><time>2026-04-27T14:18:08.475Z</time></trkpt><trkpt lat="43.3891017" lon="11.7608467"><ele>277.5</ele><time>2026-04-27T14:18:10.477Z</time></trkpt><trkpt lat="43.3891633" lon="11.7607583"><ele>278.0</ele><time>2026-04-27T14:18:12.473Z</time></trkpt><trkpt lat="43.3892217" lon="11.7606683"><ele>278.5</ele><time>2026-04-27T14:18:14.474Z</time></trkpt><trkpt lat="43.3892767" lon="11.7605783"><ele>279.0</ele><time>2026-04-27T14:18:16.48Z</time></trkpt><trkpt lat="43.3893317" lon="11.76049"><ele>279.5</ele><time>2026-04-27T14:18:18.474Z</time></trkpt><trkpt lat="43.3893867" lon="11.7604"><ele>280.0</ele><time>2026-04-27T14:18:20.471Z</time></trkpt><trkpt lat="43.3894383" lon="11.76031"><ele>280.0</ele><time>2026-04-27T14:18:22.472Z</time></trkpt><trkpt lat="43.38949" lon="11.760225"><ele>280.0</ele><time>2026-04-27T14:18:24.473Z</time></trkpt><trkpt lat="43.3895433" lon="11.760145"><ele>280.0</ele><time>2026-04-27T14:18:26.478Z</time></trkpt><trkpt lat="43.389595" lon="11.7600667"><ele>280.0</ele><time>2026-04-27T14:18:28.473Z</time></trkpt><trkpt lat="43.3896467" lon="11.7599883"><ele>280.0</ele><time>2026-04-27T14:18:30.479Z</time></trkpt><trkpt lat="43.389695" lon="11.75991"><ele>280.0</ele><time>2026-04-27T14:18:32.473Z</time></trkpt><trkpt lat="43.3897383" lon="11.759835"><ele>280.0</ele><time>2026-04-27T14:18:34.475Z</time></trkpt><trkpt lat="43.3897883" lon="11.7597667"><ele>280.0</ele><time>2026-04-27T14:18:36.476Z</time></trkpt><trkpt lat="43.38984" lon="11.759685"><ele>280.0</ele><time>2026-04-27T14:18:38.474Z</time></trkpt><trkpt lat="43.3898867" lon="11.7596017"><ele>280.0</ele><time>2026-04-27T14:18:40.472Z</time></trkpt><trkpt lat="43.3899483" lon="11.75953"><ele>280.0</ele><time>2026-04-27T14:18:42.473Z</time></trkpt><trkpt lat="43.3900017" lon="11.7594433"><ele>280.0</ele><time>2026-04-27T14:18:44.475Z</time></trkpt><trkpt lat="43.39004" lon="11.759325"><ele>280.4</ele><time>2026-04-27T14:18:46.473Z</time></trkpt><trkpt lat="43.39001" lon="11.759195"><ele>280.8</ele><time>2026-04-27T14:18:48.475Z</time></trkpt><trkpt lat="43.389945" lon="11.7590983"><ele>281.2</ele><time>2026-04-27T14:18:50.476Z</time></trkpt><trkpt lat="43.3898917" lon="11.7589983"><ele>281.6</ele><time>2026-04-27T14:18:52.473Z</time></trkpt><trkpt lat="43.3898383" lon="11.7589"><ele>282.0</ele><time>2026-04-27T14:18:54.474Z</time></trkpt><trkpt lat="43.38979" lon="11.75881"><ele>282.0</ele><time>2026-04-27T14:18:56.476Z</time></trkpt><trkpt lat="43.389745" lon="11.7587283"><ele>282.0</ele><time>2026-04-27T14:18:58.473Z</time></trkpt><trkpt lat="43.3896967" lon="11.7586517"><ele>282.0</ele><time>2026-04-27T14:19:00.475Z</time></trkpt><trkpt lat="43.38964" lon="11.7585433"><ele>282.0</ele><time>2026-04-27T14:19:03.474Z</time></trkpt><trkpt lat="43.38959" lon="11.75845"><ele>282.0</ele><time>2026-04-27T14:19:06.473Z</time></trkpt><trkpt lat="43.38954" lon="11.758345"><ele>282.0</ele><time>2026-04-27T14:19:09.475Z</time></trkpt><trkpt lat="43.3895083" lon="11.7582683"><ele>282.2857142857143</ele><time>2026-04-27T14:19:11.474Z</time></trkpt><trkpt lat="43.3894717" lon="11.758175"><ele>282.57142857142856</ele><time>2026-04-27T14:19:14.476Z</time></trkpt><trkpt lat="43.3894317" lon="11.7580967"><ele>282.85714285714283</ele><time>2026-04-27T14:19:17.473Z</time></trkpt><trkpt lat="43.389395" lon="11.7580117"><ele>283.1428571428571</ele><time>2026-04-27T14:19:20.473Z</time></trkpt><trkpt lat="43.3893567" lon="11.7579267"><ele>283.4285714285714</ele><time>2026-04-27T14:19:23.472Z</time></trkpt><trkpt lat="43.3893183" lon="11.75785"><ele>283.7142857142857</ele><time>2026-04-27T14:19:27.476Z</time></trkpt><trkpt lat="43.3892717" lon="11.757755"><ele>284.0</ele><time>2026-04-27T14:19:30.475Z</time></trkpt><trkpt lat="43.38923" lon="11.7576617"><ele>284.0</ele><time>2026-04-27T14:19:33.474Z</time></trkpt><trkpt lat="43.3891933" lon="11.7575583"><ele>284.0</ele><time>2026-04-27T14:19:36.474Z</time></trkpt><trkpt lat="43.38917" lon="11.7574483"><ele>284.0</ele><time>2026-04-27T14:19:39.474Z</time></trkpt><trkpt lat="43.3891433" lon="11.757345"><ele>284.0</ele><time>2026-04-27T14:19:42.476Z</time></trkpt><trkpt lat="43.3891283" lon="11.7572467"><ele>284.0</ele><time>2026-04-27T14:19:45.475Z</time></trkpt><trkpt lat="43.3891167" lon="11.7571517"><ele>284.0</ele><time>2026-04-27T14:19:48.477Z</time></trkpt><trkpt lat="43.3891067" lon="11.7570483"><ele>284.0</ele><time>2026-04-27T14:19:51.475Z</time></trkpt><trkpt lat="43.3891067" lon="11.7569517"><ele>284.0</ele><time>2026-04-27T14:19:54.475Z</time></trkpt><trkpt lat="43.3891067" lon="11.7568583"><ele>284.0</ele><time>2026-04-27T14:19:57.473Z</time></trkpt><trkpt lat="43.3891083" lon="11.75675"><ele>284.0</ele><time>2026-04-27T14:20:01.475Z</time></trkpt><trkpt lat="43.3891083" lon="11.75666"><ele>284.0</ele><time>2026-04-27T14:20:03.474Z</time></trkpt><trkpt lat="43.3891067" lon="11.7565717"><ele>284.0</ele><time>2026-04-27T14:20:05.475Z</time></trkpt><trkpt lat="43.3891083" lon="11.7564717"><ele>284.0</ele><time>2026-04-27T14:20:07.473Z</time></trkpt><trkpt lat="43.389105" lon="11.7563567"><ele>284.2</ele><time>2026-04-27T14:20:09.475Z</time></trkpt><trkpt lat="43.3891017" lon="11.75623"><ele>284.4</ele><time>2026-04-27T14:20:11.473Z</time></trkpt><trkpt lat="43.3890983" lon="11.7560917"><ele>284.6</ele><time>2026-04-27T14:20:13.477Z</time></trkpt><trkpt lat="43.3891067" lon="11.75596"><ele>284.8</ele><time>2026-04-27T14:20:15.476Z</time></trkpt><trkpt lat="43.389145" lon="11.755835"><ele>285.0</ele><time>2026-04-27T14:20:17.476Z</time></trkpt><trkpt lat="43.3892067" lon="11.755715"><ele>285.0</ele><time>2026-04-27T14:20:19.472Z</time></trkpt><trkpt lat="43.3892983" lon="11.75562"><ele>285.0</ele><time>2026-04-27T14:20:21.475Z</time></trkpt><trkpt lat="43.3894133" lon="11.7555567"><ele>285.0</ele><time>2026-04-27T14:20:23.475Z</time></trkpt><trkpt lat="43.3895383" lon="11.755545"><ele>285.0</ele><time>2026-04-27T14:20:25.473Z</time></trkpt><trkpt lat="43.3896067" lon="11.755555"><ele>285.0</ele><time>2026-04-27T14:20:26.474Z</time></trkpt><trkpt lat="43.389675" lon="11.7555733"><ele>284.7142857142857</ele><time>2026-04-27T14:20:27.483Z</time></trkpt><trkpt lat="43.3897433" lon="11.7555917"><ele>284.42857142857144</ele><time>2026-04-27T14:20:28.474Z</time></trkpt><trkpt lat="43.3898117" lon="11.7556133"><ele>284.14285714285717</ele><time>2026-04-27T14:20:29.477Z</time></trkpt><trkpt lat="43.389885" lon="11.7556283"><ele>283.8571428571429</ele><time>2026-04-27T14:20:30.475Z</time></trkpt><trkpt lat="43.389955" lon="11.7556467"><ele>283.5714285714286</ele><time>2026-04-27T14:20:31.473Z</time></trkpt><trkpt lat="43.39003" lon="11.755665"><ele>283.2857142857143</ele><time>2026-04-27T14:20:32.474Z</time></trkpt><trkpt lat="43.390105" lon="11.755685"><ele>283.0</ele><time>2026-04-27T14:20:33.476Z</time></trkpt><trkpt lat="43.3901833" lon="11.7557017"><ele>283.0</ele><time>2026-04-27T14:20:34.477Z</time></trkpt><trkpt lat="43.3902633" lon="11.75572"><ele>283.0</ele><time>2026-04-27T14:20:35.475Z</time></trkpt><trkpt lat="43.3903433" lon="11.75574"><ele>283.0</ele><time>2026-04-27T14:20:36.479Z</time></trkpt><trkpt lat="43.3904233" lon="11.75576"><ele>283.0</ele><time>2026-04-27T14:20:37.473Z</time></trkpt><trkpt lat="43.390505" lon="11.75578"><ele>283.0</ele><time>2026-04-27T14:20:38.475Z</time></trkpt><trkpt lat="43.390585" lon="11.7558"><ele>283.0</ele><time>2026-04-27T14:20:39.478Z</time></trkpt><trkpt lat="43.3906667" lon="11.7558233"><ele>283.3333333333333</ele><time>2026-04-27T14:20:40.477Z</time></trkpt><trkpt lat="43.3907467" lon="11.7558433"><ele>283.66666666666663</ele><time>2026-04-27T14:20:41.473Z</time></trkpt><trkpt lat="43.3908233" lon="11.7558617"><ele>284.0</ele><time>2026-04-27T14:20:42.476Z</time></trkpt><trkpt lat="43.3908983" lon="11.7558783"><ele>284.3333333333333</ele><time>2026-04-27T14:20:43.476Z</time></trkpt><trkpt lat="43.3909717" lon="11.7558983"><ele>284.6666666666667</ele><time>2026-04-27T14:20:44.473Z</time></trkpt><trkpt lat="43.3910433" lon="11.7559133"><ele>285.0</ele><time>2026-04-27T14:20:45.475Z</time></trkpt><trkpt lat="43.3911117" lon="11.7559283"><ele>285.0</ele><time>2026-04-27T14:20:46.476Z</time></trkpt><trkpt lat="43.3911783" lon="11.755945"><ele>285.0</ele><time>2026-04-27T14:20:47.476Z</time></trkpt><trkpt lat="43.391245" lon="11.7559633"><ele>285.0</ele><time>2026-04-27T14:20:48.475Z</time></trkpt><trkpt lat="43.3913083" lon="11.7559817"><ele>285.0</ele><time>2026-04-27T14:20:49.472Z</time></trkpt><trkpt lat="43.3913733" lon="11.756"><ele>285.0</ele><time>2026-04-27T14:20:50.475Z</time></trkpt><trkpt lat="43.3914383" lon="11.7560117"><ele>285.0</ele><time>2026-04-27T14:20:51.473Z</time></trkpt><trkpt lat="43.3915033" lon="11.756025"><ele>285.0</ele><time>2026-04-27T14:20:52.475Z</time></trkpt><trkpt lat="43.3915683" lon="11.7560467"><ele>285.0</ele><time>2026-04-27T14:20:53.474Z</time></trkpt><trkpt lat="43.3916333" lon="11.7560667"><ele>285.0</ele><time>2026-04-27T14:20:54.474Z</time></trkpt><trkpt lat="43.3916967" lon="11.7560817"><ele>285.0</ele><time>2026-04-27T14:20:55.475Z</time></trkpt><trkpt lat="43.39176" lon="11.7560983"><ele>285.0</ele><time>2026-04-27T14:20:56.472Z</time></trkpt><trkpt lat="43.391825" lon="11.7561117"><ele>285.0</ele><time>2026-04-27T14:20:57.476Z</time></trkpt><trkpt lat="43.3919467" lon="11.75614"><ele>285.0</ele><time>2026-04-27T14:20:59.475Z</time></trkpt><trkpt lat="43.3920683" lon="11.75617"><ele>284.75</ele><time>2026-04-27T14:21:01.474Z</time></trkpt><trkpt lat="43.3921917" lon="11.7562033"><ele>284.5</ele><time>2026-04-27T14:21:03.474Z</time></trkpt><trkpt lat="43.3923133" lon="11.756235"><ele>284.25</ele><time>2026-04-27T14:21:05.477Z</time></trkpt><trkpt lat="43.3924333" lon="11.756265"><ele>284.0</ele><time>2026-04-27T14:21:07.474Z</time></trkpt><trkpt lat="43.3925533" lon="11.7562883"><ele>284.0</ele><time>2026-04-27T14:21:09.473Z</time></trkpt><trkpt lat="43.3926183" lon="11.7563067"><ele>284.0</ele><time>2026-04-27T14:21:10.472Z</time></trkpt><trkpt lat="43.3926833" lon="11.7563183"><ele>284.0</ele><time>2026-04-27T14:21:11.474Z</time></trkpt><trkpt lat="43.392805" lon="11.7563433"><ele>284.0</ele><time>2026-04-27T14:21:13.473Z</time></trkpt><trkpt lat="43.3929283" lon="11.7563633"><ele>284.0</ele><time>2026-04-27T14:21:15.475Z</time></trkpt><trkpt lat="43.3930517" lon="11.7563783"><ele>284.25</ele><time>2026-04-27T14:21:17.475Z</time></trkpt><trkpt lat="43.3931717" lon="11.7563933"><ele>284.5</ele><time>2026-04-27T14:21:19.473Z</time></trkpt><trkpt lat="43.393295" lon="11.7563933"><ele>284.75</ele><time>2026-04-27T14:21:21.475Z</time></trkpt><trkpt lat="43.3934233" lon="11.7563933"><ele>285.0</ele><time>2026-04-27T14:21:23.476Z</time></trkpt><trkpt lat="43.3935483" lon="11.7563817"><ele>285.0</ele><time>2026-04-27T14:21:25.473Z</time></trkpt><trkpt lat="43.3936117" lon="11.7563717"><ele>285.0</ele><time>2026-04-27T14:21:26.473Z</time></trkpt><trkpt lat="43.393675" lon="11.75636"><ele>285.0</ele><time>2026-04-27T14:21:27.473Z</time></trkpt><trkpt lat="43.3937383" lon="11.7563483"><ele>285.0</ele><time>2026-04-27T14:21:28.475Z</time></trkpt><trkpt lat="43.3938017" lon="11.7563367"><ele>285.0</ele><time>2026-04-27T14:21:29.474Z</time></trkpt><trkpt lat="43.3938667" lon="11.7563217"><ele>285.0</ele><time>2026-04-27T14:21:30.475Z</time></trkpt><trkpt lat="43.3939767" lon="11.75624"><ele>285.0</ele><time>2026-04-27T14:21:32.473Z</time></trkpt><trkpt lat="43.3940317" lon="11.7561917"><ele>285.0</ele><time>2026-04-27T14:21:33.473Z</time></trkpt><trkpt lat="43.3940833" lon="11.7561383"><ele>285.0</ele><time>2026-04-27T14:21:34.473Z</time></trkpt><trkpt lat="43.394135" lon="11.756085"><ele>285.0</ele><time>2026-04-27T14:21:35.473Z</time></trkpt><trkpt lat="43.3941867" lon="11.7560283"><ele>285.0</ele><time>2026-04-27T14:21:36.472Z</time></trkpt><trkpt lat="43.3942867" lon="11.7559233"><ele>285.0</ele><time>2026-04-27T14:21:38.474Z</time></trkpt><trkpt lat="43.3943417" lon="11.7558733"><ele>285.0</ele><time>2026-04-27T14:21:39.472Z</time></trkpt><trkpt lat="43.3944467" lon="11.75578"><ele>285.0</ele><time>2026-04-27T14:21:41.473Z</time></trkpt><trkpt lat="43.3945" lon="11.7557333"><ele>285.0</ele><time>2026-04-27T14:21:42.475Z</time></trkpt><trkpt lat="43.3945533" lon="11.7556867"><ele>285.0</ele><time>2026-04-27T14:21:43.476Z</time></trkpt><trkpt lat="43.3946067" lon="11.75564"><ele>285.0</ele><time>2026-04-27T14:21:44.474Z</time></trkpt><trkpt lat="43.3947117" lon="11.75555"><ele>285.0</ele><time>2026-04-27T14:21:46.474Z</time></trkpt><trkpt lat="43.3948183" lon="11.755465"><ele>285.0</ele><time>2026-04-27T14:21:48.479Z</time></trkpt><trkpt lat="43.394925" lon="11.7553817"><ele>285.0</ele><time>2026-04-27T14:21:50.473Z</time></trkpt><trkpt lat="43.3950317" lon="11.7553017"><ele>285.0</ele><time>2026-04-27T14:21:52.476Z</time></trkpt><trkpt lat="43.3950867" lon="11.7552533"><ele>285.0</ele><time>2026-04-27T14:21:53.474Z</time></trkpt><trkpt lat="43.3951917" lon="11.7551783"><ele>285.0</ele><time>2026-04-27T14:21:55.475Z</time></trkpt><trkpt lat="43.3952967" lon="11.7551033"><ele>285.0</ele><time>2026-04-27T14:21:57.476Z</time></trkpt><trkpt lat="43.3953983" lon="11.7550333"><ele>285.0</ele><time>2026-04-27T14:21:59.473Z</time></trkpt><trkpt lat="43.3955033" lon="11.7549583"><ele>285.0</ele><time>2026-04-27T14:22:01.472Z</time></trkpt><trkpt lat="43.3956117" lon="11.754875"><ele>285.0</ele><time>2026-04-27T14:22:03.474Z</time></trkpt><trkpt lat="43.39567" lon="11.7548317"><ele>285.0</ele><time>2026-04-27T14:22:04.476Z</time></trkpt><trkpt lat="43.39578" lon="11.754745"><ele>285.0</ele><time>2026-04-27T14:22:06.474Z</time></trkpt><trkpt lat="43.3958383" lon="11.7546983"><ele>285.0</ele><time>2026-04-27T14:22:07.474Z</time></trkpt><trkpt lat="43.395895" lon="11.754655"><ele>285.0</ele><time>2026-04-27T14:22:08.473Z</time></trkpt><trkpt lat="43.3959517" lon="11.7546133"><ele>285.0</ele><time>2026-04-27T14:22:09.472Z</time></trkpt><trkpt lat="43.39601" lon="11.75457"><ele>285.0</ele><time>2026-04-27T14:22:10.475Z</time></trkpt><trkpt lat="43.3960683" lon="11.754525"><ele>285.0</ele><time>2026-04-27T14:22:11.473Z</time></trkpt><trkpt lat="43.3961233" lon="11.7544783"><ele>285.0</ele><time>2026-04-27T14:22:12.473Z</time></trkpt><trkpt lat="43.3961833" lon="11.7544333"><ele>285.0</ele><time>2026-04-27T14:22:13.473Z</time></trkpt><trkpt lat="43.39624" lon="11.754385"><ele>285.0</ele><time>2026-04-27T14:22:14.475Z</time></trkpt><trkpt lat="43.3963" lon="11.7543333"><ele>285.0</ele><time>2026-04-27T14:22:15.476Z</time></trkpt><trkpt lat="43.39636" lon="11.7542833"><ele>285.0</ele><time>2026-04-27T14:22:16.475Z</time></trkpt><trkpt lat="43.3964233" lon="11.7542367"><ele>285.0</ele><time>2026-04-27T14:22:17.475Z</time></trkpt><trkpt lat="43.3964883" lon="11.7541833"><ele>285.0</ele><time>2026-04-27T14:22:18.476Z</time></trkpt><trkpt lat="43.3965533" lon="11.7541267"><ele>285.0</ele><time>2026-04-27T14:22:19.473Z</time></trkpt><trkpt lat="43.3966167" lon="11.7540733"><ele>285.0</ele><time>2026-04-27T14:22:20.475Z</time></trkpt><trkpt lat="43.3966817" lon="11.7540117"><ele>285.0</ele><time>2026-04-27T14:22:21.473Z</time></trkpt><trkpt lat="43.3967467" lon="11.7539583"><ele>285.0</ele><time>2026-04-27T14:22:22.477Z</time></trkpt><trkpt lat="43.3968133" lon="11.7539033"><ele>285.0</ele><time>2026-04-27T14:22:23.475Z</time></trkpt><trkpt lat="43.396875" lon="11.7538483"><ele>285.0</ele><time>2026-04-27T14:22:24.475Z</time></trkpt><trkpt lat="43.3969367" lon="11.7537967"><ele>285.0</ele><time>2026-04-27T14:22:25.474Z</time></trkpt><trkpt lat="43.3969983" lon="11.7537417"><ele>285.0</ele><time>2026-04-27T14:22:26.478Z</time></trkpt><trkpt lat="43.3970583" lon="11.75369"><ele>285.0</ele><time>2026-04-27T14:22:27.475Z</time></trkpt><trkpt lat="43.3971183" lon="11.7536383"><ele>284.1428571428571</ele><time>2026-04-27T14:22:28.475Z</time></trkpt><trkpt lat="43.3971767" lon="11.7535867"><ele>283.2857142857143</ele><time>2026-04-27T14:22:29.472Z</time></trkpt><trkpt lat="43.3972367" lon="11.7535317"><ele>282.42857142857144</ele><time>2026-04-27T14:22:30.473Z</time></trkpt><trkpt lat="43.3972967" lon="11.7534833"><ele>281.57142857142856</ele><time>2026-04-27T14:22:31.469Z</time></trkpt><trkpt lat="43.3973533" lon="11.7534367"><ele>280.7142857142857</ele><time>2026-04-27T14:22:32.474Z</time></trkpt><trkpt lat="43.3974117" lon="11.75339"><ele>279.85714285714283</ele><time>2026-04-27T14:22:33.474Z</time></trkpt><trkpt lat="43.3974667" lon="11.7533467"><ele>279.0</ele><time>2026-04-27T14:22:34.476Z</time></trkpt><trkpt lat="43.3975233" lon="11.753295"><ele>278.99999999999994</ele><time>2026-04-27T14:22:35.473Z</time></trkpt><trkpt lat="43.39758" lon="11.7532433"><ele>279.0</ele><time>2026-04-27T14:22:36.472Z</time></trkpt><trkpt lat="43.3976367" lon="11.753195"><ele>279.0</ele><time>2026-04-27T14:22:37.471Z</time></trkpt><trkpt lat="43.397695" lon="11.753145"><ele>279.0</ele><time>2026-04-27T14:22:38.473Z</time></trkpt><trkpt lat="43.3977533" lon="11.7530983"><ele>279.0</ele><time>2026-04-27T14:22:39.48Z</time></trkpt><trkpt lat="43.3978117" lon="11.753045"><ele>278.99999999999994</ele><time>2026-04-27T14:22:40.476Z</time></trkpt><trkpt lat="43.39787" lon="11.7529933"><ele>279.0</ele><time>2026-04-27T14:22:41.474Z</time></trkpt><trkpt lat="43.39793" lon="11.7529417"><ele>279.0</ele><time>2026-04-27T14:22:42.473Z</time></trkpt><trkpt lat="43.3979883" lon="11.752895"><ele>279.0</ele><time>2026-04-27T14:22:43.474Z</time></trkpt><trkpt lat="43.3980417" lon="11.7528483"><ele>279.0</ele><time>2026-04-27T14:22:44.474Z</time></trkpt><trkpt lat="43.398095" lon="11.7528"><ele>279.0</ele><time>2026-04-27T14:22:45.473Z</time></trkpt><trkpt lat="43.3981933" lon="11.752705"><ele>279.0</ele><time>2026-04-27T14:22:47.475Z</time></trkpt><trkpt lat="43.398285" lon="11.7526217"><ele>279.0</ele><time>2026-04-27T14:22:49.475Z</time></trkpt><trkpt lat="43.3983717" lon="11.7525433"><ele>280.2</ele><time>2026-04-27T14:22:51.474Z</time></trkpt><trkpt lat="43.3984533" lon="11.7524767"><ele>281.4</ele><time>2026-04-27T14:22:53.475Z</time></trkpt><trkpt lat="43.398535" lon="11.7524167"><ele>282.6</ele><time>2026-04-27T14:22:55.475Z</time></trkpt><trkpt lat="43.398615" lon="11.7523517"><ele>283.8</ele><time>2026-04-27T14:22:57.475Z</time></trkpt><trkpt lat="43.3986917" lon="11.7522767"><ele>285.0</ele><time>2026-04-27T14:22:59.474Z</time></trkpt><trkpt lat="43.3987717" lon="11.7522167"><ele>285.0</ele><time>2026-04-27T14:23:01.471Z</time></trkpt><trkpt lat="43.3988567" lon="11.752165"><ele>285.0</ele><time>2026-04-27T14:23:03.472Z</time></trkpt><trkpt lat="43.3989317" lon="11.7520983"><ele>285.0</ele><time>2026-04-27T14:23:05.471Z</time></trkpt><trkpt lat="43.3990067" lon="11.75205"><ele>285.0</ele><time>2026-04-27T14:23:07.473Z</time></trkpt><trkpt lat="43.39908" lon="11.7519983"><ele>285.0</ele><time>2026-04-27T14:23:09.475Z</time></trkpt><trkpt lat="43.3991517" lon="11.7519517"><ele>285.0</ele><time>2026-04-27T14:23:11.475Z</time></trkpt><trkpt lat="43.3992133" lon="11.751895"><ele>285.0</ele><time>2026-04-27T14:23:13.474Z</time></trkpt><trkpt lat="43.3992733" lon="11.7518467"><ele>285.0</ele><time>2026-04-27T14:23:15.472Z</time></trkpt><trkpt lat="43.39934" lon="11.7518117"><ele>285.0</ele><time>2026-04-27T14:23:17.476Z</time></trkpt><trkpt lat="43.3994217" lon="11.7517733"><ele>285.0</ele><time>2026-04-27T14:23:19.472Z</time></trkpt><trkpt lat="43.3995033" lon="11.7517433"><ele>285.0</ele><time>2026-04-27T14:23:21.471Z</time></trkpt><trkpt lat="43.3995817" lon="11.75171"><ele>285.0</ele><time>2026-04-27T14:23:23.474Z</time></trkpt><trkpt lat="43.3996583" lon="11.75168"><ele>285.0</ele><time>2026-04-27T14:23:25.472Z</time></trkpt><trkpt lat="43.3997383" lon="11.7516433"><ele>285.0</ele><time>2026-04-27T14:23:27.472Z</time></trkpt><trkpt lat="43.39982" lon="11.7515983"><ele>285.0</ele><time>2026-04-27T14:23:29.472Z</time></trkpt><trkpt lat="43.3999017" lon="11.7515567"><ele>285.0</ele><time>2026-04-27T14:23:31.475Z</time></trkpt><trkpt lat="43.39998" lon="11.7515117"><ele>285.0</ele><time>2026-04-27T14:23:33.473Z</time></trkpt><trkpt lat="43.4000583" lon="11.7514733"><ele>285.0</ele><time>2026-04-27T14:23:35.475Z</time></trkpt><trkpt lat="43.4001383" lon="11.7514367"><ele>285.0</ele><time>2026-04-27T14:23:37.472Z</time></trkpt><trkpt lat="43.400215" lon="11.751405"><ele>285.0</ele><time>2026-04-27T14:23:39.472Z</time></trkpt><trkpt lat="43.4002917" lon="11.7513683"><ele>285.0</ele><time>2026-04-27T14:23:41.474Z</time></trkpt><trkpt lat="43.4003667" lon="11.7513317"><ele>285.0</ele><time>2026-04-27T14:23:43.471Z</time></trkpt><trkpt lat="43.4004433" lon="11.7512967"><ele>285.0</ele><time>2026-04-27T14:23:45.475Z</time></trkpt><trkpt lat="43.40052" lon="11.7512617"><ele>285.0</ele><time>2026-04-27T14:23:47.474Z</time></trkpt><trkpt lat="43.4005933" lon="11.75123"><ele>285.0</ele><time>2026-04-27T14:23:49.472Z</time></trkpt><trkpt lat="43.4006683" lon="11.7511933"><ele>285.0</ele><time>2026-04-27T14:23:51.474Z</time></trkpt><trkpt lat="43.400745" lon="11.7511617"><ele>285.0</ele><time>2026-04-27T14:23:53.475Z</time></trkpt><trkpt lat="43.40082" lon="11.7511267"><ele>285.0</ele><time>2026-04-27T14:23:55.474Z</time></trkpt><trkpt lat="43.4008917" lon="11.7510983"><ele>285.0</ele><time>2026-04-27T14:23:57.473Z</time></trkpt><trkpt lat="43.4009683" lon="11.75106"><ele>285.0</ele><time>2026-04-27T14:23:59.474Z</time></trkpt><trkpt lat="43.4010467" lon="11.751025"><ele>285.5</ele><time>2026-04-27T14:24:01.473Z</time></trkpt><trkpt lat="43.4011233" lon="11.7509867"><ele>286.0</ele><time>2026-04-27T14:24:03.478Z</time></trkpt><trkpt lat="43.4012033" lon="11.75095"><ele>286.5</ele><time>2026-04-27T14:24:05.473Z</time></trkpt><trkpt lat="43.4012817" lon="11.750915"><ele>287.0</ele><time>2026-04-27T14:24:07.473Z</time></trkpt><trkpt lat="43.40136" lon="11.7508833"><ele>287.5</ele><time>2026-04-27T14:24:09.475Z</time></trkpt><trkpt lat="43.40143" lon="11.7508483"><ele>288.0</ele><time>2026-04-27T14:24:11.474Z</time></trkpt><trkpt lat="43.4015017" lon="11.7508167"><ele>288.42857142857144</ele><time>2026-04-27T14:24:13.477Z</time></trkpt><trkpt lat="43.4015767" lon="11.7507833"><ele>288.8571428571429</ele><time>2026-04-27T14:24:15.472Z</time></trkpt><trkpt lat="43.4016483" lon="11.75075"><ele>289.2857142857143</ele><time>2026-04-27T14:24:17.473Z</time></trkpt><trkpt lat="43.40172" lon="11.7507233"><ele>289.7142857142857</ele><time>2026-04-27T14:24:19.476Z</time></trkpt><trkpt lat="43.4017883" lon="11.750695"><ele>290.1428571428571</ele><time>2026-04-27T14:24:21.473Z</time></trkpt><trkpt lat="43.4018567" lon="11.7506633"><ele>290.57142857142856</ele><time>2026-04-27T14:24:23.476Z</time></trkpt><trkpt lat="43.40192" lon="11.7506367"><ele>291.0</ele><time>2026-04-27T14:24:25.473Z</time></trkpt><trkpt lat="43.4019833" lon="11.750605"><ele>291.0</ele><time>2026-04-27T14:24:27.474Z</time></trkpt><trkpt lat="43.4020433" lon="11.750575"><ele>291.0</ele><time>2026-04-27T14:24:29.472Z</time></trkpt><trkpt lat="43.4021033" lon="11.750545"><ele>291.0</ele><time>2026-04-27T14:24:31.475Z</time></trkpt><trkpt lat="43.4021933" lon="11.7505017"><ele>291.0</ele><time>2026-04-27T14:24:34.471Z</time></trkpt><trkpt lat="43.4022533" lon="11.750465"><ele>291.0</ele><time>2026-04-27T14:24:36.474Z</time></trkpt><trkpt lat="43.4023167" lon="11.7504333"><ele>291.0</ele><time>2026-04-27T14:24:38.475Z</time></trkpt><trkpt lat="43.4023817" lon="11.7504033"><ele>291.0</ele><time>2026-04-27T14:24:40.472Z</time></trkpt><trkpt lat="43.40245" lon="11.75037"><ele>291.1666666666667</ele><time>2026-04-27T14:24:42.473Z</time></trkpt><trkpt lat="43.4025167" lon="11.7503367"><ele>291.3333333333333</ele><time>2026-04-27T14:24:44.474Z</time></trkpt><trkpt lat="43.40259" lon="11.75031"><ele>291.5</ele><time>2026-04-27T14:24:46.474Z</time></trkpt><trkpt lat="43.402665" lon="11.750275"><ele>291.66666666666663</ele><time>2026-04-27T14:24:48.472Z</time></trkpt><trkpt lat="43.4027417" lon="11.75025"><ele>291.8333333333333</ele><time>2026-04-27T14:24:50.477Z</time></trkpt><trkpt lat="43.4028167" lon="11.7502183"><ele>292.0</ele><time>2026-04-27T14:24:52.472Z</time></trkpt><trkpt lat="43.4028983" lon="11.7501883"><ele>292.2</ele><time>2026-04-27T14:24:54.476Z</time></trkpt><trkpt lat="43.402995" lon="11.7501583"><ele>292.4</ele><time>2026-04-27T14:24:56.474Z</time></trkpt><trkpt lat="43.403095" lon="11.7501317"><ele>292.6</ele><time>2026-04-27T14:24:58.474Z</time></trkpt><trkpt lat="43.4031917" lon="11.7501183"><ele>292.8</ele><time>2026-04-27T14:25:00.474Z</time></trkpt><trkpt lat="43.4032867" lon="11.7500967"><ele>293.0</ele><time>2026-04-27T14:25:02.475Z</time></trkpt><trkpt lat="43.40339" lon="11.7500683"><ele>293.0</ele><time>2026-04-27T14:25:04.479Z</time></trkpt><trkpt lat="43.403495" lon="11.7500433"><ele>293.0</ele><time>2026-04-27T14:25:06.476Z</time></trkpt><trkpt lat="43.4036" lon="11.7500067"><ele>293.0</ele><time>2026-04-27T14:25:08.479Z</time></trkpt><trkpt lat="43.4037083" lon="11.7499633"><ele>293.0</ele><time>2026-04-27T14:25:10.474Z</time></trkpt><trkpt lat="43.4038133" lon="11.7499317"><ele>293.0</ele><time>2026-04-27T14:25:12.476Z</time></trkpt><trkpt lat="43.4039117" lon="11.7499"><ele>293.33333333333337</ele><time>2026-04-27T14:25:14.476Z</time></trkpt><trkpt lat="43.404" lon="11.7498683"><ele>293.6666666666667</ele><time>2026-04-27T14:25:16.479Z</time></trkpt><trkpt lat="43.4040883" lon="11.74984"><ele>294.0</ele><time>2026-04-27T14:25:18.477Z</time></trkpt><trkpt lat="43.40418" lon="11.74981"><ele>294.3333333333333</ele><time>2026-04-27T14:25:20.474Z</time></trkpt><trkpt lat="43.4042617" lon="11.74978"><ele>294.66666666666663</ele><time>2026-04-27T14:25:22.476Z</time></trkpt><trkpt lat="43.4043367" lon="11.74974"><ele>295.0</ele><time>2026-04-27T14:25:24.476Z</time></trkpt><trkpt lat="43.4044067" lon="11.7497283"><ele>295.00000000000006</ele><time>2026-04-27T14:25:26.475Z</time></trkpt><trkpt lat="43.4044733" lon="11.7497117"><ele>295.0</ele><time>2026-04-27T14:25:28.476Z</time></trkpt><trkpt lat="43.4045367" lon="11.7496867"><ele>295.0</ele><time>2026-04-27T14:25:30.472Z</time></trkpt><trkpt lat="43.4046083" lon="11.749675"><ele>295.0</ele><time>2026-04-27T14:25:32.474Z</time></trkpt><trkpt lat="43.4046783" lon="11.7496583"><ele>295.0</ele><time>2026-04-27T14:25:34.475Z</time></trkpt><trkpt lat="43.404755" lon="11.7496383"><ele>295.00000000000006</ele><time>2026-04-27T14:25:36.475Z</time></trkpt><trkpt lat="43.40483" lon="11.7496117"><ele>295.0</ele><time>2026-04-27T14:25:38.476Z</time></trkpt><trkpt lat="43.4049083" lon="11.74959"><ele>295.28571428571433</ele><time>2026-04-27T14:25:40.477Z</time></trkpt><trkpt lat="43.4049867" lon="11.749565"><ele>295.57142857142856</ele><time>2026-04-27T14:25:42.476Z</time></trkpt><trkpt lat="43.4050633" lon="11.7495517"><ele>295.8571428571429</ele><time>2026-04-27T14:25:44.476Z</time></trkpt><trkpt lat="43.4051317" lon="11.7495467"><ele>296.14285714285717</ele><time>2026-04-27T14:25:46.473Z</time></trkpt><trkpt lat="43.4051983" lon="11.7495367"><ele>296.42857142857144</ele><time>2026-04-27T14:25:48.477Z</time></trkpt><trkpt lat="43.4052717" lon="11.7495383"><ele>296.7142857142857</ele><time>2026-04-27T14:25:50.476Z</time></trkpt><trkpt lat="43.405345" lon="11.7495367"><ele>297.0</ele><time>2026-04-27T14:25:52.475Z</time></trkpt><trkpt lat="43.4054133" lon="11.7495467"><ele>297.0</ele><time>2026-04-27T14:25:54.474Z</time></trkpt><trkpt lat="43.4054783" lon="11.7495533"><ele>297.0</ele><time>2026-04-27T14:25:56.474Z</time></trkpt><trkpt lat="43.405575" lon="11.7495717"><ele>297.0</ele><time>2026-04-27T14:25:59.475Z</time></trkpt><trkpt lat="43.40564" lon="11.7495833"><ele>297.0</ele><time>2026-04-27T14:26:01.475Z</time></trkpt><trkpt lat="43.4057083" lon="11.7495933"><ele>297.0</ele><time>2026-04-27T14:26:03.473Z</time></trkpt><trkpt lat="43.4058" lon="11.74961"><ele>297.0</ele><time>2026-04-27T14:26:06.477Z</time></trkpt><trkpt lat="43.40588" lon="11.7496217"><ele>297.5</ele><time>2026-04-27T14:26:08.477Z</time></trkpt><trkpt lat="43.4059633" lon="11.7496267"><ele>298.0</ele><time>2026-04-27T14:26:10.475Z</time></trkpt><trkpt lat="43.4060467" lon="11.7496367"><ele>298.5</ele><time>2026-04-27T14:26:12.475Z</time></trkpt><trkpt lat="43.4061167" lon="11.749645"><ele>299.0</ele><time>2026-04-27T14:26:14.473Z</time></trkpt><trkpt lat="43.4061833" lon="11.7496583"><ele>299.5</ele><time>2026-04-27T14:26:16.473Z</time></trkpt><trkpt lat="43.4062517" lon="11.7496733"><ele>300.0</ele><time>2026-04-27T14:26:18.477Z</time></trkpt><trkpt lat="43.4063267" lon="11.74969"><ele>300.6666666666667</ele><time>2026-04-27T14:26:20.473Z</time></trkpt><trkpt lat="43.4063967" lon="11.749715"><ele>301.3333333333333</ele><time>2026-04-27T14:26:22.475Z</time></trkpt><trkpt lat="43.4064683" lon="11.7497417"><ele>302.0</ele><time>2026-04-27T14:26:24.473Z</time></trkpt><trkpt lat="43.40654" lon="11.74976"><ele>302.66666666666663</ele><time>2026-04-27T14:26:26.474Z</time></trkpt><trkpt lat="43.4066283" lon="11.74979"><ele>303.3333333333333</ele><time>2026-04-27T14:26:29.473Z</time></trkpt><trkpt lat="43.4067" lon="11.7498133"><ele>304.0</ele><time>2026-04-27T14:26:32.478Z</time></trkpt><trkpt lat="43.4067633" lon="11.74984"><ele>304.0</ele><time>2026-04-27T14:26:34.472Z</time></trkpt><trkpt lat="43.4068483" lon="11.7498833"><ele>304.0</ele><time>2026-04-27T14:26:37.474Z</time></trkpt><trkpt lat="43.4069317" lon="11.749945"><ele>304.0</ele><time>2026-04-27T14:26:40.474Z</time></trkpt><trkpt lat="43.40699" lon="11.7499967"><ele>304.0</ele><time>2026-04-27T14:26:42.474Z</time></trkpt><trkpt lat="43.40705" lon="11.7500417"><ele>304.0</ele><time>2026-04-27T14:26:44.478Z</time></trkpt><trkpt lat="43.4071217" lon="11.7500867"><ele>304.0</ele><time>2026-04-27T14:26:46.473Z</time></trkpt><trkpt lat="43.407185" lon="11.750115"><ele>304.0</ele><time>2026-04-27T14:26:48.476Z</time></trkpt><trkpt lat="43.40725" lon="11.7501517"><ele>304.0</ele><time>2026-04-27T14:26:50.476Z</time></trkpt><trkpt lat="43.4073183" lon="11.7501833"><ele>304.0</ele><time>2026-04-27T14:26:52.475Z</time></trkpt><trkpt lat="43.4073917" lon="11.750205"><ele>304.0</ele><time>2026-04-27T14:26:54.474Z</time></trkpt><trkpt lat="43.4074617" lon="11.7502217"><ele>304.0</ele><time>2026-04-27T14:26:56.475Z</time></trkpt><trkpt lat="43.407535" lon="11.75022"><ele>304.0</ele><time>2026-04-27T14:26:58.473Z</time></trkpt><trkpt lat="43.40761" lon="11.7502083"><ele>304.0</ele><time>2026-04-27T14:27:00.475Z</time></trkpt><trkpt lat="43.4076817" lon="11.7501817"><ele>304.4285714285714</ele><time>2026-04-27T14:27:02.474Z</time></trkpt><trkpt lat="43.4077483" lon="11.750135"><ele>304.8571428571429</ele><time>2026-04-27T14:27:04.473Z</time></trkpt><trkpt lat="43.4078133" lon="11.7500783"><ele>305.2857142857143</ele><time>2026-04-27T14:27:06.476Z</time></trkpt><trkpt lat="43.4078717" lon="11.7500233"><ele>305.71428571428567</ele><time>2026-04-27T14:27:08.476Z</time></trkpt><trkpt lat="43.40793" lon="11.7499683"><ele>306.1428571428571</ele><time>2026-04-27T14:27:10.475Z</time></trkpt><trkpt lat="43.40799" lon="11.7499133"><ele>306.57142857142856</ele><time>2026-04-27T14:27:12.473Z</time></trkpt><trkpt lat="43.408055" lon="11.7498783"><ele>307.0</ele><time>2026-04-27T14:27:14.475Z</time></trkpt><trkpt lat="43.4081233" lon="11.7498317"><ele>307.2857142857143</ele><time>2026-04-27T14:27:16.472Z</time></trkpt><trkpt lat="43.408185" lon="11.7497867"><ele>307.57142857142856</ele><time>2026-04-27T14:27:18.475Z</time></trkpt><trkpt lat="43.40825" lon="11.74974"><ele>307.8571428571429</ele><time>2026-04-27T14:27:20.477Z</time></trkpt><trkpt lat="43.4083117" lon="11.7496967"><ele>308.1428571428571</ele><time>2026-04-27T14:27:22.473Z</time></trkpt><trkpt lat="43.40837" lon="11.7496567"><ele>308.42857142857144</ele><time>2026-04-27T14:27:24.475Z</time></trkpt><trkpt lat="43.4084567" lon="11.749595"><ele>308.7142857142857</ele><time>2026-04-27T14:27:27.477Z</time></trkpt><trkpt lat="43.408515" lon="11.7495567"><ele>309.0</ele><time>2026-04-27T14:27:29.472Z</time></trkpt><trkpt lat="43.4085733" lon="11.7495"><ele>309.00000000000006</ele><time>2026-04-27T14:27:31.476Z</time></trkpt><trkpt lat="43.408635" lon="11.749455"><ele>309.0</ele><time>2026-04-27T14:27:33.474Z</time></trkpt><trkpt lat="43.4087" lon="11.7494117"><ele>309.0</ele><time>2026-04-27T14:27:35.475Z</time></trkpt><trkpt lat="43.4087667" lon="11.7493667"><ele>309.0</ele><time>2026-04-27T14:27:37.474Z</time></trkpt><trkpt lat="43.40883" lon="11.7493233"><ele>309.0</ele><time>2026-04-27T14:27:39.476Z</time></trkpt><trkpt lat="43.4088967" lon="11.7492767"><ele>309.00000000000006</ele><time>2026-04-27T14:27:41.476Z</time></trkpt><trkpt lat="43.40896" lon="11.7492333"><ele>309.0</ele><time>2026-04-27T14:27:43.475Z</time></trkpt><trkpt lat="43.40903" lon="11.7491867"><ele>309.28571428571433</ele><time>2026-04-27T14:27:45.474Z</time></trkpt><trkpt lat="43.4090917" lon="11.7491417"><ele>309.57142857142856</ele><time>2026-04-27T14:27:47.473Z</time></trkpt><trkpt lat="43.40915" lon="11.7491017"><ele>309.8571428571429</ele><time>2026-04-27T14:27:49.475Z</time></trkpt><trkpt lat="43.40921" lon="11.7490667"><ele>310.14285714285717</ele><time>2026-04-27T14:27:51.474Z</time></trkpt><trkpt lat="43.4092933" lon="11.74901"><ele>310.42857142857144</ele><time>2026-04-27T14:27:54.476Z</time></trkpt><trkpt lat="43.40936" lon="11.7489733"><ele>310.7142857142857</ele><time>2026-04-27T14:27:56.476Z</time></trkpt><trkpt lat="43.4094417" lon="11.7489483"><ele>311.0</ele><time>2026-04-27T14:27:59.476Z</time></trkpt><trkpt lat="43.4095133" lon="11.7489233"><ele>311.0</ele><time>2026-04-27T14:28:02.48Z</time></trkpt><trkpt lat="43.4096017" lon="11.74892"><ele>311.0</ele><time>2026-04-27T14:28:06.475Z</time></trkpt><trkpt lat="43.4096267" lon="11.7488367"><ele>311.0</ele><time>2026-04-27T14:28:08.475Z</time></trkpt><trkpt lat="43.409605" lon="11.7487133"><ele>311.0</ele><time>2026-04-27T14:28:11.478Z</time></trkpt><trkpt lat="43.40959" lon="11.7485883"><ele>311.0</ele><time>2026-04-27T14:28:14.476Z</time></trkpt><trkpt lat="43.4095733" lon="11.7484717"><ele>311.0</ele><time>2026-04-27T14:28:17.474Z</time></trkpt><trkpt lat="43.4095633" lon="11.7483583"><ele>311.6666666666667</ele><time>2026-04-27T14:28:20.476Z</time></trkpt><trkpt lat="43.409575" lon="11.7482183"><ele>312.33333333333337</ele><time>2026-04-27T14:28:24.475Z</time></trkpt><trkpt lat="43.4095883" lon="11.74811"><ele>313.0</ele><time>2026-04-27T14:28:27.477Z</time></trkpt><trkpt lat="43.4096033" lon="11.7480067"><ele>313.6666666666667</ele><time>2026-04-27T14:28:30.473Z</time></trkpt><trkpt lat="43.4096133" lon="11.7479083"><ele>314.3333333333333</ele><time>2026-04-27T14:28:33.475Z</time></trkpt><trkpt lat="43.409625" lon="11.7478117"><ele>315.0</ele><time>2026-04-27T14:28:36.472Z</time></trkpt><trkpt lat="43.4096417" lon="11.7477017"><ele>315.1666666666667</ele><time>2026-04-27T14:28:39.475Z</time></trkpt><trkpt lat="43.4096567" lon="11.74759"><ele>315.3333333333333</ele><time>2026-04-27T14:28:42.473Z</time></trkpt><trkpt lat="43.4096683" lon="11.7475"><ele>315.5</ele><time>2026-04-27T14:28:45.475Z</time></trkpt><trkpt lat="43.4096867" lon="11.7473933"><ele>315.66666666666663</ele><time>2026-04-27T14:28:48.475Z</time></trkpt><trkpt lat="43.4097" lon="11.747275"><ele>315.8333333333333</ele><time>2026-04-27T14:28:51.474Z</time></trkpt><trkpt lat="43.4097167" lon="11.74716"><ele>316.0</ele><time>2026-04-27T14:28:54.474Z</time></trkpt><trkpt lat="43.4097333" lon="11.7470633"><ele>317.16666666666663</ele><time>2026-04-27T14:28:57.475Z</time></trkpt><trkpt lat="43.409745" lon="11.7469667"><ele>318.3333333333333</ele><time>2026-04-27T14:29:00.478Z</time></trkpt><trkpt lat="43.409755" lon="11.746875"><ele>319.5</ele><time>2026-04-27T14:29:03.476Z</time></trkpt><trkpt lat="43.40977" lon="11.7467633"><ele>320.6666666666667</ele><time>2026-04-27T14:29:07.476Z</time></trkpt><trkpt lat="43.4097867" lon="11.7466483"><ele>321.83333333333337</ele><time>2026-04-27T14:29:10.475Z</time></trkpt><trkpt lat="43.409805" lon="11.74653"><ele>323.0</ele><time>2026-04-27T14:29:13.474Z</time></trkpt><trkpt lat="43.4098183" lon="11.7464183"><ele>323.5714285714286</ele><time>2026-04-27T14:29:16.474Z</time></trkpt><trkpt lat="43.4098317" lon="11.74632"><ele>324.14285714285717</ele><time>2026-04-27T14:29:19.473Z</time></trkpt><trkpt lat="43.4098467" lon="11.7462067"><ele>324.7142857142857</ele><time>2026-04-27T14:29:23.475Z</time></trkpt><trkpt lat="43.40986" lon="11.7461033"><ele>325.28571428571433</ele><time>2026-04-27T14:29:26.476Z</time></trkpt><trkpt lat="43.4098767" lon="11.7460167"><ele>325.8571428571429</ele><time>2026-04-27T14:29:29.475Z</time></trkpt><trkpt lat="43.409885" lon="11.7459233"><ele>326.42857142857144</ele><time>2026-04-27T14:29:32.475Z</time></trkpt><trkpt lat="43.4099017" lon="11.7458283"><ele>327.0</ele><time>2026-04-27T14:29:35.474Z</time></trkpt><trkpt lat="43.4099133" lon="11.7457317"><ele>327.2857142857143</ele><time>2026-04-27T14:29:38.477Z</time></trkpt><trkpt lat="43.4099283" lon="11.7456333"><ele>327.57142857142856</ele><time>2026-04-27T14:29:41.476Z</time></trkpt><trkpt lat="43.4099367" lon="11.745535"><ele>327.8571428571429</ele><time>2026-04-27T14:29:44.478Z</time></trkpt><trkpt lat="43.4099517" lon="11.7454383"><ele>328.1428571428571</ele><time>2026-04-27T14:29:47.476Z</time></trkpt><trkpt lat="43.40997" lon="11.7453383"><ele>328.42857142857144</ele><time>2026-04-27T14:29:50.478Z</time></trkpt><trkpt lat="43.4099783" lon="11.7452383"><ele>328.7142857142857</ele><time>2026-04-27T14:29:53.476Z</time></trkpt><trkpt lat="43.40999" lon="11.7451383"><ele>329.0</ele><time>2026-04-27T14:29:56.476Z</time></trkpt><trkpt lat="43.410005" lon="11.7450533"><ele>329.42857142857144</ele><time>2026-04-27T14:29:59.477Z</time></trkpt><trkpt lat="43.41002" lon="11.7449433"><ele>329.8571428571429</ele><time>2026-04-27T14:30:03.479Z</time></trkpt><trkpt lat="43.4100367" lon="11.7448533"><ele>330.2857142857143</ele><time>2026-04-27T14:30:06.476Z</time></trkpt><trkpt lat="43.4100517" lon="11.744765"><ele>330.7142857142857</ele><time>2026-04-27T14:30:09.476Z</time></trkpt><trkpt lat="43.410075" lon="11.7446567"><ele>331.14285714285717</ele><time>2026-04-27T14:30:13.474Z</time></trkpt><trkpt lat="43.410085" lon="11.74457"><ele>331.57142857142856</ele><time>2026-04-27T14:30:16.476Z</time></trkpt><trkpt lat="43.4101067" lon="11.7444567"><ele>332.0</ele><time>2026-04-27T14:30:20.476Z</time></trkpt><trkpt lat="43.4101117" lon="11.7443633"><ele>332.57142857142856</ele><time>2026-04-27T14:30:23.476Z</time></trkpt><trkpt lat="43.41012" lon="11.74427"><ele>333.14285714285717</ele><time>2026-04-27T14:30:26.474Z</time></trkpt><trkpt lat="43.4101417" lon="11.7441817"><ele>333.7142857142857</ele><time>2026-04-27T14:30:29.473Z</time></trkpt><trkpt lat="43.4101567" lon="11.74408"><ele>334.2857142857143</ele><time>2026-04-27T14:30:32.474Z</time></trkpt><trkpt lat="43.41017" lon="11.74398"><ele>334.8571428571429</ele><time>2026-04-27T14:30:35.479Z</time></trkpt><trkpt lat="43.4102" lon="11.7438783"><ele>335.42857142857144</ele><time>2026-04-27T14:30:38.476Z</time></trkpt><trkpt lat="43.4102217" lon="11.743785"><ele>336.0</ele><time>2026-04-27T14:30:41.474Z</time></trkpt><trkpt lat="43.4102433" lon="11.7436917"><ele>336.0</ele><time>2026-04-27T14:30:44.474Z</time></trkpt><trkpt lat="43.41027" lon="11.7435933"><ele>336.0</ele><time>2026-04-27T14:30:47.476Z</time></trkpt><trkpt lat="43.410295" lon="11.7434967"><ele>336.0</ele><time>2026-04-27T14:30:50.475Z</time></trkpt><trkpt lat="43.4103283" lon="11.7433967"><ele>336.0</ele><time>2026-04-27T14:30:53.474Z</time></trkpt><trkpt lat="43.4103667" lon="11.743295"><ele>336.0</ele><time>2026-04-27T14:30:56.473Z</time></trkpt><trkpt lat="43.410415" lon="11.7431883"><ele>336.0</ele><time>2026-04-27T14:30:59.472Z</time></trkpt><trkpt lat="43.410455" lon="11.7431083"><ele>336.7142857142857</ele><time>2026-04-27T14:31:01.475Z</time></trkpt><trkpt lat="43.4104933" lon="11.74303"><ele>337.42857142857144</ele><time>2026-04-27T14:31:03.475Z</time></trkpt><trkpt lat="43.4105333" lon="11.7429483"><ele>338.1428571428571</ele><time>2026-04-27T14:31:05.478Z</time></trkpt><trkpt lat="43.4105733" lon="11.7428717"><ele>338.8571428571429</ele><time>2026-04-27T14:31:07.479Z</time></trkpt><trkpt lat="43.4106133" lon="11.7427933"><ele>339.57142857142856</ele><time>2026-04-27T14:31:09.478Z</time></trkpt><trkpt lat="43.410655" lon="11.7427217"><ele>340.2857142857143</ele><time>2026-04-27T14:31:11.471Z</time></trkpt><trkpt lat="43.410695" lon="11.7426467"><ele>341.0</ele><time>2026-04-27T14:31:13.475Z</time></trkpt><trkpt lat="43.4107333" lon="11.742575"><ele>341.0</ele><time>2026-04-27T14:31:15.476Z</time></trkpt><trkpt lat="43.410775" lon="11.74251"><ele>341.0</ele><time>2026-04-27T14:31:17.477Z</time></trkpt><trkpt lat="43.4108317" lon="11.7424117"><ele>341.0</ele><time>2026-04-27T14:31:20.474Z</time></trkpt><trkpt lat="43.4108933" lon="11.742315"><ele>341.0</ele><time>2026-04-27T14:31:23.473Z</time></trkpt><trkpt lat="43.4109317" lon="11.7422417"><ele>341.0</ele><time>2026-04-27T14:31:25.474Z</time></trkpt><trkpt lat="43.4109833" lon="11.7421633"><ele>341.0</ele><time>2026-04-27T14:31:27.475Z</time></trkpt><trkpt lat="43.4110317" lon="11.7420817"><ele>341.0</ele><time>2026-04-27T14:31:29.477Z</time></trkpt><trkpt lat="43.411075" lon="11.7420017"><ele>341.0</ele><time>2026-04-27T14:31:31.475Z</time></trkpt><trkpt lat="43.4111167" lon="11.7419133"><ele>341.0</ele><time>2026-04-27T14:31:33.477Z</time></trkpt><trkpt lat="43.411155" lon="11.741825"><ele>341.0</ele><time>2026-04-27T14:31:35.472Z</time></trkpt><trkpt lat="43.4111983" lon="11.7417417"><ele>341.0</ele><time>2026-04-27T14:31:37.472Z</time></trkpt><trkpt lat="43.411255" lon="11.741655"><ele>341.0</ele><time>2026-04-27T14:31:39.474Z</time></trkpt><trkpt lat="43.4113133" lon="11.7415517"><ele>340.0</ele><time>2026-04-27T14:31:41.477Z</time></trkpt><trkpt lat="43.4113783" lon="11.741445"><ele>339.0</ele><time>2026-04-27T14:31:43.475Z</time></trkpt><trkpt lat="43.411445" lon="11.7413317"><ele>338.0</ele><time>2026-04-27T14:31:45.472Z</time></trkpt><trkpt lat="43.41151" lon="11.7412117"><ele>337.0</ele><time>2026-04-27T14:31:47.474Z</time></trkpt><trkpt lat="43.4115783" lon="11.741085"><ele>336.0</ele><time>2026-04-27T14:31:49.474Z</time></trkpt><trkpt lat="43.41165" lon="11.7409417"><ele>336.0</ele><time>2026-04-27T14:31:51.476Z</time></trkpt><trkpt lat="43.4116867" lon="11.74087"><ele>336.0</ele><time>2026-04-27T14:31:52.472Z</time></trkpt><trkpt lat="43.4117267" lon="11.740795"><ele>336.0</ele><time>2026-04-27T14:31:53.474Z</time></trkpt><trkpt lat="43.4117633" lon="11.7407183"><ele>336.0</ele><time>2026-04-27T14:31:54.475Z</time></trkpt><trkpt lat="43.411805" lon="11.7406483"><ele>336.0</ele><time>2026-04-27T14:31:55.474Z</time></trkpt><trkpt lat="43.411845" lon="11.740575"><ele>336.0</ele><time>2026-04-27T14:31:56.478Z</time></trkpt><trkpt lat="43.41188" lon="11.7405017"><ele>336.0</ele><time>2026-04-27T14:31:57.478Z</time></trkpt><trkpt lat="43.41192" lon="11.7404283"><ele>336.0</ele><time>2026-04-27T14:31:58.475Z</time></trkpt><trkpt lat="43.41196" lon="11.74035"><ele>336.0</ele><time>2026-04-27T14:31:59.475Z</time></trkpt><trkpt lat="43.4120033" lon="11.740275"><ele>336.0</ele><time>2026-04-27T14:32:00.475Z</time></trkpt><trkpt lat="43.4120467" lon="11.7401983"><ele>336.0</ele><time>2026-04-27T14:32:01.477Z</time></trkpt><trkpt lat="43.41209" lon="11.7401183"><ele>336.0</ele><time>2026-04-27T14:32:02.474Z</time></trkpt><trkpt lat="43.41213" lon="11.7400433"><ele>336.0</ele><time>2026-04-27T14:32:03.478Z</time></trkpt><trkpt lat="43.4121683" lon="11.7399717"><ele>336.0</ele><time>2026-04-27T14:32:04.475Z</time></trkpt><trkpt lat="43.4122067" lon="11.739895"><ele>336.1666666666667</ele><time>2026-04-27T14:32:05.475Z</time></trkpt><trkpt lat="43.412245" lon="11.7398217"><ele>336.3333333333333</ele><time>2026-04-27T14:32:06.476Z</time></trkpt><trkpt lat="43.4122883" lon="11.7397483"><ele>336.5</ele><time>2026-04-27T14:32:07.474Z</time></trkpt><trkpt lat="43.4123333" lon="11.7396767"><ele>336.66666666666663</ele><time>2026-04-27T14:32:08.473Z</time></trkpt><trkpt lat="43.4123717" lon="11.739605"><ele>336.8333333333333</ele><time>2026-04-27T14:32:09.482Z</time></trkpt><trkpt lat="43.4124517" lon="11.7394683"><ele>337.0</ele><time>2026-04-27T14:32:11.475Z</time></trkpt><trkpt lat="43.41249" lon="11.7393967"><ele>335.5</ele><time>2026-04-27T14:32:12.474Z</time></trkpt><trkpt lat="43.4125617" lon="11.7392467"><ele>334.0</ele><time>2026-04-27T14:32:14.476Z</time></trkpt><trkpt lat="43.4125967" lon="11.7391683"><ele>332.5</ele><time>2026-04-27T14:32:15.474Z</time></trkpt><trkpt lat="43.412635" lon="11.739095"><ele>331.0</ele><time>2026-04-27T14:32:16.474Z</time></trkpt><trkpt lat="43.41268" lon="11.7390283"><ele>329.5</ele><time>2026-04-27T14:32:17.474Z</time></trkpt><trkpt lat="43.4127233" lon="11.7389617"><ele>328.0</ele><time>2026-04-27T14:32:18.474Z</time></trkpt><trkpt lat="43.4127783" lon="11.7389067"><ele>327.99999999999994</ele><time>2026-04-27T14:32:19.47Z</time></trkpt><trkpt lat="43.4128317" lon="11.7388483"><ele>328.0</ele><time>2026-04-27T14:32:20.476Z</time></trkpt><trkpt lat="43.4128917" lon="11.7387933"><ele>328.0</ele><time>2026-04-27T14:32:21.476Z</time></trkpt><trkpt lat="43.4129483" lon="11.7387283"><ele>328.0</ele><time>2026-04-27T14:32:22.476Z</time></trkpt><trkpt lat="43.41301" lon="11.7386683"><ele>328.0</ele><time>2026-04-27T14:32:23.475Z</time></trkpt><trkpt lat="43.41307" lon="11.7385983"><ele>327.99999999999994</ele><time>2026-04-27T14:32:24.479Z</time></trkpt><trkpt lat="43.4131317" lon="11.7385333"><ele>328.0</ele><time>2026-04-27T14:32:25.474Z</time></trkpt><trkpt lat="43.4131933" lon="11.7384633"><ele>327.3333333333333</ele><time>2026-04-27T14:32:26.477Z</time></trkpt><trkpt lat="43.413255" lon="11.73839"><ele>326.66666666666663</ele><time>2026-04-27T14:32:27.476Z</time></trkpt><trkpt lat="43.4133217" lon="11.738315"><ele>326.0</ele><time>2026-04-27T14:32:28.473Z</time></trkpt><trkpt lat="43.4133883" lon="11.7382367"><ele>325.3333333333333</ele><time>2026-04-27T14:32:29.473Z</time></trkpt><trkpt lat="43.413455" lon="11.7381533"><ele>324.6666666666667</ele><time>2026-04-27T14:32:30.472Z</time></trkpt><trkpt lat="43.41352" lon="11.7380717"><ele>324.0</ele><time>2026-04-27T14:32:31.478Z</time></trkpt><trkpt lat="43.4135867" lon="11.73799"><ele>324.0</ele><time>2026-04-27T14:32:32.472Z</time></trkpt><trkpt lat="43.4136583" lon="11.7379033"><ele>324.0</ele><time>2026-04-27T14:32:33.473Z</time></trkpt><trkpt lat="43.4137233" lon="11.737825"><ele>324.0</ele><time>2026-04-27T14:32:34.472Z</time></trkpt><trkpt lat="43.41379" lon="11.7377433"><ele>324.0</ele><time>2026-04-27T14:32:35.475Z</time></trkpt><trkpt lat="43.4138583" lon="11.7376617"><ele>324.0</ele><time>2026-04-27T14:32:36.474Z</time></trkpt><trkpt lat="43.413925" lon="11.73758"><ele>324.2</ele><time>2026-04-27T14:32:37.477Z</time></trkpt><trkpt lat="43.4139917" lon="11.7375017"><ele>324.4</ele><time>2026-04-27T14:32:38.475Z</time></trkpt><trkpt lat="43.4140583" lon="11.7374233"><ele>324.6</ele><time>2026-04-27T14:32:39.473Z</time></trkpt><trkpt lat="43.4141267" lon="11.7373517"><ele>324.8</ele><time>2026-04-27T14:32:40.476Z</time></trkpt><trkpt lat="43.4142617" lon="11.7372133"><ele>325.0</ele><time>2026-04-27T14:32:42.479Z</time></trkpt><trkpt lat="43.414335" lon="11.73715"><ele>325.0</ele><time>2026-04-27T14:32:43.474Z</time></trkpt><trkpt lat="43.4144067" lon="11.7370867"><ele>325.0</ele><time>2026-04-27T14:32:44.475Z</time></trkpt><trkpt lat="43.4144783" lon="11.737025"><ele>325.0</ele><time>2026-04-27T14:32:45.477Z</time></trkpt><trkpt lat="43.4145517" lon="11.736965"><ele>325.0</ele><time>2026-04-27T14:32:46.476Z</time></trkpt><trkpt lat="43.414625" lon="11.736905"><ele>325.0</ele><time>2026-04-27T14:32:47.477Z</time></trkpt><trkpt lat="43.4147" lon="11.7368467"><ele>325.0</ele><time>2026-04-27T14:32:48.475Z</time></trkpt><trkpt lat="43.4147733" lon="11.7367867"><ele>324.5</ele><time>2026-04-27T14:32:49.474Z</time></trkpt><trkpt lat="43.4148483" lon="11.7367267"><ele>324.0</ele><time>2026-04-27T14:32:50.479Z</time></trkpt><trkpt lat="43.41492" lon="11.736665"><ele>323.5</ele><time>2026-04-27T14:32:51.475Z</time></trkpt><trkpt lat="43.4149917" lon="11.7366017"><ele>323.0</ele><time>2026-04-27T14:32:52.473Z</time></trkpt><trkpt lat="43.4150617" lon="11.7365433"><ele>322.5</ele><time>2026-04-27T14:32:53.474Z</time></trkpt><trkpt lat="43.4151333" lon="11.7364833"><ele>322.0</ele><time>2026-04-27T14:32:54.479Z</time></trkpt><trkpt lat="43.415205" lon="11.7364217"><ele>322.0</ele><time>2026-04-27T14:32:55.475Z</time></trkpt><trkpt lat="43.4152767" lon="11.7363633"><ele>322.0</ele><time>2026-04-27T14:32:56.479Z</time></trkpt><trkpt lat="43.4153383" lon="11.7363017"><ele>322.0</ele><time>2026-04-27T14:32:57.476Z</time></trkpt><trkpt lat="43.4153967" lon="11.7362467"><ele>322.0</ele><time>2026-04-27T14:32:58.473Z</time></trkpt><trkpt lat="43.4154517" lon="11.7361967"><ele>322.0</ele><time>2026-04-27T14:32:59.474Z</time></trkpt><trkpt lat="43.415505" lon="11.7361467"><ele>322.0</ele><time>2026-04-27T14:33:00.472Z</time></trkpt><trkpt lat="43.4155983" lon="11.7360617"><ele>321.8333333333333</ele><time>2026-04-27T14:33:02.476Z</time></trkpt><trkpt lat="43.4156717" lon="11.7359917"><ele>321.66666666666663</ele><time>2026-04-27T14:33:04.474Z</time></trkpt><trkpt lat="43.4157333" lon="11.7359383"><ele>321.5</ele><time>2026-04-27T14:33:06.475Z</time></trkpt><trkpt lat="43.4158117" lon="11.735875"><ele>321.3333333333333</ele><time>2026-04-27T14:33:09.475Z</time></trkpt><trkpt lat="43.41587" lon="11.735805"><ele>321.1666666666667</ele><time>2026-04-27T14:33:12.472Z</time></trkpt><trkpt lat="43.415925" lon="11.7357383"><ele>321.0</ele><time>2026-04-27T14:33:16.473Z</time></trkpt><trkpt lat="43.4159983" lon="11.7356067"><ele>320.99999999999994</ele><time>2026-04-27T14:33:23.475Z</time></trkpt><trkpt lat="43.416025" lon="11.7355133"><ele>321.0</ele><time>2026-04-27T14:33:26.477Z</time></trkpt><trkpt lat="43.4160533" lon="11.7354217"><ele>321.0</ele><time>2026-04-27T14:33:29.472Z</time></trkpt><trkpt lat="43.41608" lon="11.7353283"><ele>321.0</ele><time>2026-04-27T14:33:32.472Z</time></trkpt><trkpt lat="43.4160917" lon="11.735225"><ele>321.0</ele><time>2026-04-27T14:33:35.474Z</time></trkpt><trkpt lat="43.4160967" lon="11.7351233"><ele>320.99999999999994</ele><time>2026-04-27T14:33:38.475Z</time></trkpt><trkpt lat="43.4160883" lon="11.7350283"><ele>321.0</ele><time>2026-04-27T14:33:41.474Z</time></trkpt><trkpt lat="43.4160817" lon="11.734935"><ele>321.4285714285714</ele><time>2026-04-27T14:33:44.476Z</time></trkpt><trkpt lat="43.4160783" lon="11.734845"><ele>321.85714285714283</ele><time>2026-04-27T14:33:47.475Z</time></trkpt><trkpt lat="43.4160783" lon="11.7347467"><ele>322.2857142857143</ele><time>2026-04-27T14:33:50.475Z</time></trkpt><trkpt lat="43.41608" lon="11.7346383"><ele>322.71428571428567</ele><time>2026-04-27T14:33:53.477Z</time></trkpt><trkpt lat="43.41609" lon="11.7345283"><ele>323.1428571428571</ele><time>2026-04-27T14:33:56.477Z</time></trkpt><trkpt lat="43.4160667" lon="11.7344317"><ele>323.57142857142856</ele><time>2026-04-27T14:33:59.474Z</time></trkpt><trkpt lat="43.4160383" lon="11.734335"><ele>324.0</ele><time>2026-04-27T14:34:03.474Z</time></trkpt><trkpt lat="43.4159733" lon="11.73428"><ele>324.0</ele><time>2026-04-27T14:34:10.472Z</time></trkpt><trkpt lat="43.41589" lon="11.734295"><ele>324.0</ele><time>2026-04-27T14:34:13.476Z</time></trkpt><trkpt lat="43.415825" lon="11.734315"><ele>324.0</ele><time>2026-04-27T14:34:16.473Z</time></trkpt><trkpt lat="43.415755" lon="11.7343433"><ele>324.0</ele><time>2026-04-27T14:34:19.476Z</time></trkpt><trkpt lat="43.4156717" lon="11.7343633"><ele>324.0</ele><time>2026-04-27T14:34:22.474Z</time></trkpt><trkpt lat="43.4155967" lon="11.734395"><ele>324.0</ele><time>2026-04-27T14:34:25.474Z</time></trkpt><trkpt lat="43.4155317" lon="11.7344367"><ele>324.3333333333333</ele><time>2026-04-27T14:34:28.471Z</time></trkpt><trkpt lat="43.4154567" lon="11.7344717"><ele>324.6666666666667</ele><time>2026-04-27T14:34:32.479Z</time></trkpt><trkpt lat="43.41539" lon="11.7345067"><ele>325.0</ele><time>2026-04-27T14:34:35.475Z</time></trkpt><trkpt lat="43.4153267" lon="11.7345383"><ele>325.33333333333337</ele><time>2026-04-27T14:34:38.476Z</time></trkpt><trkpt lat="43.4152517" lon="11.734575"><ele>325.6666666666667</ele><time>2026-04-27T14:34:42.476Z</time></trkpt><trkpt lat="43.4151883" lon="11.7345917"><ele>326.0</ele><time>2026-04-27T14:34:46.477Z</time></trkpt><trkpt lat="43.4150817" lon="11.734655"><ele>326.0</ele><time>2026-04-27T14:34:50.475Z</time></trkpt><trkpt lat="43.41502" lon="11.7346883"><ele>326.0</ele><time>2026-04-27T14:34:52.475Z</time></trkpt><trkpt lat="43.4149417" lon="11.734725"><ele>326.0</ele><time>2026-04-27T14:34:54.473Z</time></trkpt><trkpt lat="43.414825" lon="11.73476"><ele>326.0</ele><time>2026-04-27T14:34:56.474Z</time></trkpt><trkpt lat="43.4147533" lon="11.73477"><ele>326.0</ele><time>2026-04-27T14:34:57.473Z</time></trkpt><trkpt lat="43.41468" lon="11.7347817"><ele>326.0</ele><time>2026-04-27T14:34:58.473Z</time></trkpt><trkpt lat="43.4146033" lon="11.7347917"><ele>325.5</ele><time>2026-04-27T14:34:59.477Z</time></trkpt><trkpt lat="43.4145167" lon="11.7348033"><ele>325.0</ele><time>2026-04-27T14:35:00.479Z</time></trkpt><trkpt lat="43.4144267" lon="11.73482"><ele>324.5</ele><time>2026-04-27T14:35:01.477Z</time></trkpt><trkpt lat="43.4143383" lon="11.7348183"><ele>324.0</ele><time>2026-04-27T14:35:02.476Z</time></trkpt><trkpt lat="43.414255" lon="11.73481"><ele>323.5</ele><time>2026-04-27T14:35:03.474Z</time></trkpt><trkpt lat="43.4141717" lon="11.7347983"><ele>323.0</ele><time>2026-04-27T14:35:04.472Z</time></trkpt><trkpt lat="43.414095" lon="11.7347783"><ele>323.0</ele><time>2026-04-27T14:35:05.474Z</time></trkpt><trkpt lat="43.4140167" lon="11.73476"><ele>323.0</ele><time>2026-04-27T14:35:06.476Z</time></trkpt><trkpt lat="43.413935" lon="11.7347433"><ele>323.0</ele><time>2026-04-27T14:35:07.474Z</time></trkpt><trkpt lat="43.4138483" lon="11.7347233"><ele>323.0</ele><time>2026-04-27T14:35:08.474Z</time></trkpt><trkpt lat="43.413755" lon="11.7347267"><ele>323.0</ele><time>2026-04-27T14:35:09.474Z</time></trkpt><trkpt lat="43.4136617" lon="11.7347383"><ele>323.0</ele><time>2026-04-27T14:35:10.474Z</time></trkpt><trkpt lat="43.4135617" lon="11.7347583"><ele>321.0</ele><time>2026-04-27T14:35:11.475Z</time></trkpt><trkpt lat="43.4134617" lon="11.7347917"><ele>319.0</ele><time>2026-04-27T14:35:12.475Z</time></trkpt><trkpt lat="43.4133683" lon="11.7348267"><ele>317.0</ele><time>2026-04-27T14:35:13.475Z</time></trkpt><trkpt lat="43.41327" lon="11.7348683"><ele>315.0</ele><time>2026-04-27T14:35:14.474Z</time></trkpt><trkpt lat="43.413175" lon="11.7349067"><ele>313.0</ele><time>2026-04-27T14:35:15.474Z</time></trkpt><trkpt lat="43.4130783" lon="11.7349433"><ele>311.0</ele><time>2026-04-27T14:35:16.475Z</time></trkpt><trkpt lat="43.4129817" lon="11.7349833"><ele>309.0</ele><time>2026-04-27T14:35:17.477Z</time></trkpt><trkpt lat="43.412885" lon="11.73502"><ele>307.0</ele><time>2026-04-27T14:35:18.476Z</time></trkpt><trkpt lat="43.4127967" lon="11.7350533"><ele>305.0</ele><time>2026-04-27T14:35:19.473Z</time></trkpt><trkpt lat="43.4126983" lon="11.73509"><ele>303.0</ele><time>2026-04-27T14:35:20.474Z</time></trkpt><trkpt lat="43.412595" lon="11.7351267"><ele>303.0</ele><time>2026-04-27T14:35:21.478Z</time></trkpt><trkpt lat="43.4124833" lon="11.7351517"><ele>303.0</ele><time>2026-04-27T14:35:22.474Z</time></trkpt><trkpt lat="43.4123667" lon="11.73518"><ele>303.0</ele><time>2026-04-27T14:35:23.474Z</time></trkpt><trkpt lat="43.412255" lon="11.735225"><ele>303.0</ele><time>2026-04-27T14:35:24.476Z</time></trkpt><trkpt lat="43.4121433" lon="11.735285"><ele>302.75</ele><time>2026-04-27T14:35:25.478Z</time></trkpt><trkpt lat="43.4120283" lon="11.735355"><ele>302.5</ele><time>2026-04-27T14:35:26.474Z</time></trkpt><trkpt lat="43.4119167" lon="11.7354267"><ele>302.25</ele><time>2026-04-27T14:35:27.475Z</time></trkpt><trkpt lat="43.411805" lon="11.7355"><ele>302.0</ele><time>2026-04-27T14:35:28.477Z</time></trkpt><trkpt lat="43.4117" lon="11.7355783"><ele>302.0</ele><time>2026-04-27T14:35:29.477Z</time></trkpt><trkpt lat="43.411595" lon="11.735655"><ele>302.0</ele><time>2026-04-27T14:35:30.476Z</time></trkpt><trkpt lat="43.4114917" lon="11.7357217"><ele>302.0</ele><time>2026-04-27T14:35:31.476Z</time></trkpt><trkpt lat="43.4113883" lon="11.735785"><ele>302.0</ele><time>2026-04-27T14:35:32.478Z</time></trkpt><trkpt lat="43.4112883" lon="11.7358417"><ele>301.6</ele><time>2026-04-27T14:35:33.473Z</time></trkpt><trkpt lat="43.4111883" lon="11.7358967"><ele>301.2</ele><time>2026-04-27T14:35:34.475Z</time></trkpt><trkpt lat="43.4110883" lon="11.7359483"><ele>300.8</ele><time>2026-04-27T14:35:35.477Z</time></trkpt><trkpt lat="43.410985" lon="11.735995"><ele>300.4</ele><time>2026-04-27T14:35:36.474Z</time></trkpt><trkpt lat="43.4108817" lon="11.7360367"><ele>300.0</ele><time>2026-04-27T14:35:37.474Z</time></trkpt><trkpt lat="43.4107817" lon="11.7360767"><ele>300.0</ele><time>2026-04-27T14:35:38.473Z</time></trkpt><trkpt lat="43.4106867" lon="11.7361267"><ele>300.0</ele><time>2026-04-27T14:35:39.472Z</time></trkpt><trkpt lat="43.4105883" lon="11.7361833"><ele>300.0</ele><time>2026-04-27T14:35:40.474Z</time></trkpt><trkpt lat="43.4104917" lon="11.7362417"><ele>300.0</ele><time>2026-04-27T14:35:41.475Z</time></trkpt><trkpt lat="43.4103983" lon="11.7362983"><ele>300.0</ele><time>2026-04-27T14:35:42.474Z</time></trkpt><trkpt lat="43.410305" lon="11.7363633"><ele>299.4</ele><time>2026-04-27T14:35:43.475Z</time></trkpt><trkpt lat="43.410215" lon="11.73643"><ele>298.8</ele><time>2026-04-27T14:35:44.476Z</time></trkpt><trkpt lat="43.410125" lon="11.736495"><ele>298.2</ele><time>2026-04-27T14:35:45.471Z</time></trkpt><trkpt lat="43.4100383" lon="11.73656"><ele>297.6</ele><time>2026-04-27T14:35:46.474Z</time></trkpt><trkpt lat="43.4099533" lon="11.7366183"><ele>297.0</ele><time>2026-04-27T14:35:47.478Z</time></trkpt><trkpt lat="43.40987" lon="11.7366717"><ele>297.0</ele><time>2026-04-27T14:35:48.475Z</time></trkpt><trkpt lat="43.40979" lon="11.7367183"><ele>297.0</ele><time>2026-04-27T14:35:49.475Z</time></trkpt><trkpt lat="43.4097083" lon="11.7367683"><ele>297.0</ele><time>2026-04-27T14:35:50.476Z</time></trkpt><trkpt lat="43.4096267" lon="11.7368167"><ele>297.0</ele><time>2026-04-27T14:35:51.478Z</time></trkpt><trkpt lat="43.409545" lon="11.7368667"><ele>297.0</ele><time>2026-04-27T14:35:52.474Z</time></trkpt><trkpt lat="43.4094633" lon="11.7369167"><ele>297.0</ele><time>2026-04-27T14:35:53.475Z</time></trkpt><trkpt lat="43.4093817" lon="11.7369683"><ele>296.8</ele><time>2026-04-27T14:35:54.479Z</time></trkpt><trkpt lat="43.4093017" lon="11.7370217"><ele>296.6</ele><time>2026-04-27T14:35:55.473Z</time></trkpt><trkpt lat="43.4092217" lon="11.7370783"><ele>296.40000000000003</ele><time>2026-04-27T14:35:56.477Z</time></trkpt><trkpt lat="43.4091433" lon="11.737135"><ele>296.2</ele><time>2026-04-27T14:35:57.472Z</time></trkpt><trkpt lat="43.409065" lon="11.7371967"><ele>296.0</ele><time>2026-04-27T14:35:58.473Z</time></trkpt><trkpt lat="43.408985" lon="11.73726"><ele>296.0</ele><time>2026-04-27T14:35:59.477Z</time></trkpt><trkpt lat="43.408905" lon="11.73732"><ele>296.0</ele><time>2026-04-27T14:36:00.478Z</time></trkpt><trkpt lat="43.4088267" lon="11.7373817"><ele>296.0</ele><time>2026-04-27T14:36:01.476Z</time></trkpt><trkpt lat="43.40875" lon="11.7374433"><ele>296.0</ele><time>2026-04-27T14:36:02.477Z</time></trkpt><trkpt lat="43.4086717" lon="11.7375067"><ele>296.0</ele><time>2026-04-27T14:36:03.474Z</time></trkpt><trkpt lat="43.4085933" lon="11.7375667"><ele>296.0</ele><time>2026-04-27T14:36:04.475Z</time></trkpt><trkpt lat="43.4085167" lon="11.7376267"><ele>296.0</ele><time>2026-04-27T14:36:05.476Z</time></trkpt><trkpt lat="43.4084417" lon="11.7376833"><ele>296.0</ele><time>2026-04-27T14:36:06.474Z</time></trkpt><trkpt lat="43.408365" lon="11.7377417"><ele>296.0</ele><time>2026-04-27T14:36:07.473Z</time></trkpt><trkpt lat="43.4082867" lon="11.737795"><ele>296.0</ele><time>2026-04-27T14:36:08.48Z</time></trkpt><trkpt lat="43.4082117" lon="11.7378483"><ele>296.0</ele><time>2026-04-27T14:36:09.477Z</time></trkpt><trkpt lat="43.408135" lon="11.7378967"><ele>296.0</ele><time>2026-04-27T14:36:10.477Z</time></trkpt><trkpt lat="43.40806" lon="11.7379483"><ele>296.0</ele><time>2026-04-27T14:36:11.476Z</time></trkpt><trkpt lat="43.4079817" lon="11.738"><ele>296.0</ele><time>2026-04-27T14:36:12.476Z</time></trkpt><trkpt lat="43.407905" lon="11.738055"><ele>296.0</ele><time>2026-04-27T14:36:13.478Z</time></trkpt><trkpt lat="43.4078283" lon="11.7381133"><ele>296.0</ele><time>2026-04-27T14:36:14.475Z</time></trkpt><trkpt lat="43.4077533" lon="11.7381717"><ele>296.0</ele><time>2026-04-27T14:36:15.477Z</time></trkpt><trkpt lat="43.4076783" lon="11.7382267"><ele>295.5</ele><time>2026-04-27T14:36:16.473Z</time></trkpt><trkpt lat="43.4076067" lon="11.7382833"><ele>295.0</ele><time>2026-04-27T14:36:17.473Z</time></trkpt><trkpt lat="43.4075333" lon="11.7383383"><ele>294.5</ele><time>2026-04-27T14:36:18.478Z</time></trkpt><trkpt lat="43.40746" lon="11.738395"><ele>294.0</ele><time>2026-04-27T14:36:19.474Z</time></trkpt><trkpt lat="43.4073883" lon="11.7384483"><ele>293.5</ele><time>2026-04-27T14:36:20.474Z</time></trkpt><trkpt lat="43.4073167" lon="11.738505"><ele>293.0</ele><time>2026-04-27T14:36:21.478Z</time></trkpt><trkpt lat="43.407245" lon="11.7385633"><ele>293.0</ele><time>2026-04-27T14:36:22.476Z</time></trkpt><trkpt lat="43.407175" lon="11.73862"><ele>293.0</ele><time>2026-04-27T14:36:23.474Z</time></trkpt><trkpt lat="43.407105" lon="11.7386783"><ele>293.0</ele><time>2026-04-27T14:36:24.476Z</time></trkpt><trkpt lat="43.4070333" lon="11.738735"><ele>293.0</ele><time>2026-04-27T14:36:25.477Z</time></trkpt><trkpt lat="43.406965" lon="11.7387883"><ele>293.0</ele><time>2026-04-27T14:36:26.473Z</time></trkpt><trkpt lat="43.4068967" lon="11.7388433"><ele>293.0</ele><time>2026-04-27T14:36:27.474Z</time></trkpt><trkpt lat="43.4068267" lon="11.7389033"><ele>292.6666666666667</ele><time>2026-04-27T14:36:28.473Z</time></trkpt><trkpt lat="43.4067567" lon="11.7389633"><ele>292.33333333333337</ele><time>2026-04-27T14:36:29.472Z</time></trkpt><trkpt lat="43.4066883" lon="11.7390217"><ele>292.0</ele><time>2026-04-27T14:36:30.474Z</time></trkpt><trkpt lat="43.40662" lon="11.7390817"><ele>291.6666666666667</ele><time>2026-04-27T14:36:31.476Z</time></trkpt><trkpt lat="43.4065483" lon="11.7391383"><ele>291.3333333333333</ele><time>2026-04-27T14:36:32.474Z</time></trkpt><trkpt lat="43.4064783" lon="11.7391917"><ele>291.0</ele><time>2026-04-27T14:36:33.474Z</time></trkpt><trkpt lat="43.4064083" lon="11.73925"><ele>291.0</ele><time>2026-04-27T14:36:34.475Z</time></trkpt><trkpt lat="43.4063383" lon="11.7393117"><ele>291.0</ele><time>2026-04-27T14:36:35.476Z</time></trkpt><trkpt lat="43.4062683" lon="11.7393717"><ele>291.0</ele><time>2026-04-27T14:36:36.475Z</time></trkpt><trkpt lat="43.4061967" lon="11.73943"><ele>291.0</ele><time>2026-04-27T14:36:37.474Z</time></trkpt><trkpt lat="43.406125" lon="11.73949"><ele>291.0</ele><time>2026-04-27T14:36:38.477Z</time></trkpt><trkpt lat="43.406055" lon="11.7395467"><ele>291.0</ele><time>2026-04-27T14:36:39.475Z</time></trkpt><trkpt lat="43.405985" lon="11.7396017"><ele>290.5</ele><time>2026-04-27T14:36:40.475Z</time></trkpt><trkpt lat="43.4059133" lon="11.7396633"><ele>290.0</ele><time>2026-04-27T14:36:41.475Z</time></trkpt><trkpt lat="43.4058417" lon="11.7397217"><ele>289.5</ele><time>2026-04-27T14:36:42.475Z</time></trkpt><trkpt lat="43.4057683" lon="11.7397833"><ele>289.0</ele><time>2026-04-27T14:36:43.477Z</time></trkpt><trkpt lat="43.4056967" lon="11.7398467"><ele>288.5</ele><time>2026-04-27T14:36:44.479Z</time></trkpt><trkpt lat="43.4056233" lon="11.7399033"><ele>288.0</ele><time>2026-04-27T14:36:45.473Z</time></trkpt><trkpt lat="43.4055517" lon="11.7399617"><ele>288.1666666666667</ele><time>2026-04-27T14:36:46.476Z</time></trkpt><trkpt lat="43.4054817" lon="11.7400217"><ele>288.3333333333333</ele><time>2026-04-27T14:36:47.477Z</time></trkpt><trkpt lat="43.4054133" lon="11.7400867"><ele>288.5</ele><time>2026-04-27T14:36:48.477Z</time></trkpt><trkpt lat="43.405345" lon="11.7401467"><ele>288.66666666666663</ele><time>2026-04-27T14:36:49.472Z</time></trkpt><trkpt lat="43.4052767" lon="11.7402067"><ele>288.8333333333333</ele><time>2026-04-27T14:36:50.477Z</time></trkpt><trkpt lat="43.4052083" lon="11.7402633"><ele>289.0</ele><time>2026-04-27T14:36:51.475Z</time></trkpt><trkpt lat="43.40514" lon="11.740325"><ele>289.0</ele><time>2026-04-27T14:36:52.475Z</time></trkpt><trkpt lat="43.405075" lon="11.74038"><ele>289.0</ele><time>2026-04-27T14:36:53.474Z</time></trkpt><trkpt lat="43.40501" lon="11.74043"><ele>289.0</ele><time>2026-04-27T14:36:54.474Z</time></trkpt><trkpt lat="43.4049433" lon="11.74048"><ele>289.0</ele><time>2026-04-27T14:36:55.474Z</time></trkpt><trkpt lat="43.4048817" lon="11.7405333"><ele>289.0</ele><time>2026-04-27T14:36:56.474Z</time></trkpt><trkpt lat="43.404825" lon="11.7405833"><ele>289.0</ele><time>2026-04-27T14:36:57.472Z</time></trkpt><trkpt lat="43.4047717" lon="11.740635"><ele>289.0</ele><time>2026-04-27T14:36:58.472Z</time></trkpt><trkpt lat="43.4047183" lon="11.7406833"><ele>289.0</ele><time>2026-04-27T14:36:59.474Z</time></trkpt><trkpt lat="43.4046117" lon="11.7407017"><ele>289.0</ele><time>2026-04-27T14:37:01.475Z</time></trkpt><trkpt lat="43.4045567" lon="11.7406017"><ele>289.0</ele><time>2026-04-27T14:37:03.475Z</time></trkpt><trkpt lat="43.4045783" lon="11.7404717"><ele>289.0</ele><time>2026-04-27T14:37:05.476Z</time></trkpt><trkpt lat="43.4046217" lon="11.740345"><ele>289.0</ele><time>2026-04-27T14:37:07.473Z</time></trkpt><trkpt lat="43.40465" lon="11.740205"><ele>289.0</ele><time>2026-04-27T14:37:09.474Z</time></trkpt><trkpt lat="43.4046683" lon="11.740055"><ele>289.0</ele><time>2026-04-27T14:37:11.474Z</time></trkpt><trkpt lat="43.40467" lon="11.7399117"><ele>289.0</ele><time>2026-04-27T14:37:13.476Z</time></trkpt><trkpt lat="43.4046617" lon="11.7397733"><ele>289.0</ele><time>2026-04-27T14:37:15.476Z</time></trkpt><trkpt lat="43.4046483" lon="11.7396417"><ele>289.0</ele><time>2026-04-27T14:37:17.48Z</time></trkpt><trkpt lat="43.4046233" lon="11.7395117"><ele>289.59999999999997</ele><time>2026-04-27T14:37:19.477Z</time></trkpt><trkpt lat="43.4045683" lon="11.7393833"><ele>290.2</ele><time>2026-04-27T14:37:21.474Z</time></trkpt><trkpt lat="43.4044767" lon="11.7393117"><ele>290.79999999999995</ele><time>2026-04-27T14:37:23.474Z</time></trkpt><trkpt lat="43.4043683" lon="11.7392833"><ele>291.4</ele><time>2026-04-27T14:37:25.476Z</time></trkpt><trkpt lat="43.4042633" lon="11.7392983"><ele>292.0</ele><time>2026-04-27T14:37:27.476Z</time></trkpt><trkpt lat="43.4041617" lon="11.73934"><ele>291.5</ele><time>2026-04-27T14:37:29.481Z</time></trkpt><trkpt lat="43.4040717" lon="11.7394167"><ele>291.0</ele><time>2026-04-27T14:37:31.475Z</time></trkpt><trkpt lat="43.4039783" lon="11.7395117"><ele>290.5</ele><time>2026-04-27T14:37:33.473Z</time></trkpt><trkpt lat="43.4038833" lon="11.7396067"><ele>290.0</ele><time>2026-04-27T14:37:35.474Z</time></trkpt><trkpt lat="43.40378" lon="11.7397"><ele>290.0</ele><time>2026-04-27T14:37:37.474Z</time></trkpt><trkpt lat="43.403725" lon="11.7397483"><ele>290.0</ele><time>2026-04-27T14:37:38.475Z</time></trkpt><trkpt lat="43.40367" lon="11.7397967"><ele>290.0</ele><time>2026-04-27T14:37:39.474Z</time></trkpt><trkpt lat="43.4036133" lon="11.7398417"><ele>290.0</ele><time>2026-04-27T14:37:40.475Z</time></trkpt><trkpt lat="43.4035533" lon="11.7398783"><ele>290.0</ele><time>2026-04-27T14:37:41.473Z</time></trkpt><trkpt lat="43.403495" lon="11.739915"><ele>290.0</ele><time>2026-04-27T14:37:42.475Z</time></trkpt><trkpt lat="43.403435" lon="11.73995"><ele>290.0</ele><time>2026-04-27T14:37:43.474Z</time></trkpt><trkpt lat="43.4033767" lon="11.7399883"><ele>290.0</ele><time>2026-04-27T14:37:44.473Z</time></trkpt><trkpt lat="43.4033167" lon="11.740025"><ele>290.0</ele><time>2026-04-27T14:37:45.475Z</time></trkpt><trkpt lat="43.4032583" lon="11.74006"><ele>290.0</ele><time>2026-04-27T14:37:46.477Z</time></trkpt><trkpt lat="43.4031967" lon="11.7400917"><ele>290.0</ele><time>2026-04-27T14:37:47.477Z</time></trkpt><trkpt lat="43.4031367" lon="11.740125"><ele>290.0</ele><time>2026-04-27T14:37:48.475Z</time></trkpt><trkpt lat="43.403075" lon="11.7401583"><ele>290.0</ele><time>2026-04-27T14:37:49.476Z</time></trkpt><trkpt lat="43.4030167" lon="11.7401933"><ele>290.0</ele><time>2026-04-27T14:37:50.474Z</time></trkpt><trkpt lat="43.4029583" lon="11.7402283"><ele>289.6</ele><time>2026-04-27T14:37:51.474Z</time></trkpt><trkpt lat="43.4029" lon="11.740265"><ele>289.2</ele><time>2026-04-27T14:37:52.474Z</time></trkpt><trkpt lat="43.4027833" lon="11.7403233"><ele>288.8</ele><time>2026-04-27T14:37:54.48Z</time></trkpt><trkpt lat="43.402665" lon="11.7403817"><ele>288.4</ele><time>2026-04-27T14:37:56.475Z</time></trkpt><trkpt lat="43.4026033" lon="11.7404083"><ele>288.0</ele><time>2026-04-27T14:37:57.475Z</time></trkpt><trkpt lat="43.4024817" lon="11.7404533"><ele>288.00000000000006</ele><time>2026-04-27T14:37:59.474Z</time></trkpt><trkpt lat="43.40242" lon="11.7404733"><ele>288.0</ele><time>2026-04-27T14:38:00.477Z</time></trkpt><trkpt lat="43.4023583" lon="11.7404983"><ele>288.0</ele><time>2026-04-27T14:38:01.47Z</time></trkpt><trkpt lat="43.4022983" lon="11.740525"><ele>288.0</ele><time>2026-04-27T14:38:02.474Z</time></trkpt><trkpt lat="43.4022367" lon="11.740555"><ele>288.0</ele><time>2026-04-27T14:38:03.473Z</time></trkpt><trkpt lat="43.402115" lon="11.7406017"><ele>288.00000000000006</ele><time>2026-04-27T14:38:05.471Z</time></trkpt><trkpt lat="43.4020533" lon="11.740625"><ele>288.0</ele><time>2026-04-27T14:38:06.474Z</time></trkpt><trkpt lat="43.4019917" lon="11.74065"><ele>288.0</ele><time>2026-04-27T14:38:07.472Z</time></trkpt><trkpt lat="43.4019317" lon="11.7406783"><ele>288.0</ele><time>2026-04-27T14:38:08.477Z</time></trkpt><trkpt lat="43.40187" lon="11.7407033"><ele>288.0</ele><time>2026-04-27T14:38:09.474Z</time></trkpt><trkpt lat="43.4018083" lon="11.7407217"><ele>288.0</ele><time>2026-04-27T14:38:10.472Z</time></trkpt><trkpt lat="43.4016867" lon="11.7407633"><ele>288.0</ele><time>2026-04-27T14:38:12.475Z</time></trkpt><trkpt lat="43.4016233" lon="11.7407933"><ele>288.0</ele><time>2026-04-27T14:38:13.469Z</time></trkpt><trkpt lat="43.4015217" lon="11.740815"><ele>288.0</ele><time>2026-04-27T14:38:15.472Z</time></trkpt><trkpt lat="43.4014117" lon="11.7408483"><ele>288.0</ele><time>2026-04-27T14:38:17.479Z</time></trkpt><trkpt lat="43.4013483" lon="11.7408533"><ele>288.0</ele><time>2026-04-27T14:38:18.475Z</time></trkpt><trkpt lat="43.4012267" lon="11.7408633"><ele>288.0</ele><time>2026-04-27T14:38:20.477Z</time></trkpt><trkpt lat="43.4011033" lon="11.740855"><ele>288.0</ele><time>2026-04-27T14:38:22.476Z</time></trkpt><trkpt lat="43.4009833" lon="11.74084"><ele>288.0</ele><time>2026-04-27T14:38:24.474Z</time></trkpt><trkpt lat="43.40086" lon="11.7408267"><ele>288.0</ele><time>2026-04-27T14:38:26.477Z</time></trkpt><trkpt lat="43.400795" lon="11.740815"><ele>288.0</ele><time>2026-04-27T14:38:27.478Z</time></trkpt><trkpt lat="43.4006783" lon="11.7408067"><ele>288.0</ele><time>2026-04-27T14:38:29.475Z</time></trkpt><trkpt lat="43.40056" lon="11.74081"><ele>288.0</ele><time>2026-04-27T14:38:31.477Z</time></trkpt><trkpt lat="43.4004417" lon="11.7408217"><ele>288.0</ele><time>2026-04-27T14:38:33.473Z</time></trkpt><trkpt lat="43.4003183" lon="11.7408233"><ele>288.0</ele><time>2026-04-27T14:38:35.477Z</time></trkpt><trkpt lat="43.4002" lon="11.7408217"><ele>288.0</ele><time>2026-04-27T14:38:37.478Z</time></trkpt><trkpt lat="43.400085" lon="11.7408067"><ele>288.0</ele><time>2026-04-27T14:38:39.475Z</time></trkpt><trkpt lat="43.3999717" lon="11.740785"><ele>288.0</ele><time>2026-04-27T14:38:41.476Z</time></trkpt><trkpt lat="43.3998617" lon="11.7407617"><ele>288.0</ele><time>2026-04-27T14:38:43.477Z</time></trkpt><trkpt lat="43.3997517" lon="11.7407333"><ele>288.0</ele><time>2026-04-27T14:38:45.475Z</time></trkpt><trkpt lat="43.39965" lon="11.7407133"><ele>288.0</ele><time>2026-04-27T14:38:47.473Z</time></trkpt><trkpt lat="43.3995517" lon="11.7407"><ele>288.0</ele><time>2026-04-27T14:38:49.478Z</time></trkpt><trkpt lat="43.3994567" lon="11.7406917"><ele>288.6</ele><time>2026-04-27T14:38:51.475Z</time></trkpt><trkpt lat="43.39937" lon="11.740695"><ele>289.20000000000005</ele><time>2026-04-27T14:38:53.479Z</time></trkpt><trkpt lat="43.3992783" lon="11.7407167"><ele>289.8</ele><time>2026-04-27T14:38:55.477Z</time></trkpt><trkpt lat="43.3991867" lon="11.740745"><ele>290.40000000000003</ele><time>2026-04-27T14:38:57.475Z</time></trkpt><trkpt lat="43.39909" lon="11.7407767"><ele>291.0</ele><time>2026-04-27T14:38:59.48Z</time></trkpt><trkpt lat="43.3989867" lon="11.7408167"><ele>291.0</ele><time>2026-04-27T14:39:01.477Z</time></trkpt><trkpt lat="43.3988883" lon="11.7408567"><ele>291.0</ele><time>2026-04-27T14:39:03.478Z</time></trkpt><trkpt lat="43.3987883" lon="11.74089"><ele>291.0</ele><time>2026-04-27T14:39:05.474Z</time></trkpt><trkpt lat="43.3986817" lon="11.74093"><ele>291.0</ele><time>2026-04-27T14:39:07.476Z</time></trkpt><trkpt lat="43.3985667" lon="11.7409617"><ele>291.0</ele><time>2026-04-27T14:39:09.476Z</time></trkpt><trkpt lat="43.3984533" lon="11.7410033"><ele>290.40000000000003</ele><time>2026-04-27T14:39:11.473Z</time></trkpt><trkpt lat="43.39834" lon="11.7410517"><ele>289.8</ele><time>2026-04-27T14:39:13.476Z</time></trkpt><trkpt lat="43.398225" lon="11.7410983"><ele>289.20000000000005</ele><time>2026-04-27T14:39:15.479Z</time></trkpt><trkpt lat="43.3981067" lon="11.7411433"><ele>288.6</ele><time>2026-04-27T14:39:17.475Z</time></trkpt><trkpt lat="43.398045" lon="11.7411667"><ele>288.0</ele><time>2026-04-27T14:39:18.477Z</time></trkpt><trkpt lat="43.3979283" lon="11.7412117"><ele>288.0</ele><time>2026-04-27T14:39:20.478Z</time></trkpt><trkpt lat="43.3978117" lon="11.7412567"><ele>288.0</ele><time>2026-04-27T14:39:22.473Z</time></trkpt><trkpt lat="43.3976983" lon="11.7412933"><ele>288.0</ele><time>2026-04-27T14:39:24.478Z</time></trkpt><trkpt lat="43.3975833" lon="11.7413317"><ele>288.0</ele><time>2026-04-27T14:39:26.479Z</time></trkpt><trkpt lat="43.397485" lon="11.7413733"><ele>288.0</ele><time>2026-04-27T14:39:28.474Z</time></trkpt><trkpt lat="43.3973817" lon="11.7414233"><ele>288.0</ele><time>2026-04-27T14:39:30.478Z</time></trkpt><trkpt lat="43.39728" lon="11.741495"><ele>288.0</ele><time>2026-04-27T14:39:32.479Z</time></trkpt><trkpt lat="43.3971717" lon="11.7415667"><ele>288.0</ele><time>2026-04-27T14:39:34.473Z</time></trkpt><trkpt lat="43.39707" lon="11.74164"><ele>288.0</ele><time>2026-04-27T14:39:36.477Z</time></trkpt><trkpt lat="43.3969717" lon="11.74172"><ele>288.0</ele><time>2026-04-27T14:39:38.476Z</time></trkpt><trkpt lat="43.3968767" lon="11.7417933"><ele>288.0</ele><time>2026-04-27T14:39:40.473Z</time></trkpt><trkpt lat="43.3967783" lon="11.7418667"><ele>288.0</ele><time>2026-04-27T14:39:42.477Z</time></trkpt><trkpt lat="43.3966817" lon="11.741945"><ele>288.0</ele><time>2026-04-27T14:39:44.476Z</time></trkpt><trkpt lat="43.3965833" lon="11.7420383"><ele>287.8</ele><time>2026-04-27T14:39:46.476Z</time></trkpt><trkpt lat="43.396485" lon="11.7421133"><ele>287.6</ele><time>2026-04-27T14:39:48.476Z</time></trkpt><trkpt lat="43.3963833" lon="11.7421933"><ele>287.4</ele><time>2026-04-27T14:39:50.477Z</time></trkpt><trkpt lat="43.3962767" lon="11.742275"><ele>287.2</ele><time>2026-04-27T14:39:52.477Z</time></trkpt><trkpt lat="43.3962233" lon="11.7423217"><ele>287.0</ele><time>2026-04-27T14:39:53.474Z</time></trkpt><trkpt lat="43.3961717" lon="11.742375"><ele>287.0</ele><time>2026-04-27T14:39:54.477Z</time></trkpt><trkpt lat="43.39612" lon="11.7424283"><ele>287.0</ele><time>2026-04-27T14:39:55.477Z</time></trkpt><trkpt lat="43.3960683" lon="11.742485"><ele>287.0</ele><time>2026-04-27T14:39:56.475Z</time></trkpt><trkpt lat="43.3960183" lon="11.7425483"><ele>287.0</ele><time>2026-04-27T14:39:57.477Z</time></trkpt><trkpt lat="43.39597" lon="11.7426133"><ele>287.0</ele><time>2026-04-27T14:39:58.476Z</time></trkpt><trkpt lat="43.3959233" lon="11.7426817"><ele>287.0</ele><time>2026-04-27T14:39:59.479Z</time></trkpt><trkpt lat="43.3958783" lon="11.7427567"><ele>287.0</ele><time>2026-04-27T14:40:00.475Z</time></trkpt><trkpt lat="43.39583" lon="11.74283"><ele>286.7142857142857</ele><time>2026-04-27T14:40:01.473Z</time></trkpt><trkpt lat="43.3957817" lon="11.742905"><ele>286.42857142857144</ele><time>2026-04-27T14:40:02.476Z</time></trkpt><trkpt lat="43.395735" lon="11.742985"><ele>286.1428571428571</ele><time>2026-04-27T14:40:03.477Z</time></trkpt><trkpt lat="43.3956883" lon="11.74306"><ele>285.8571428571429</ele><time>2026-04-27T14:40:04.477Z</time></trkpt><trkpt lat="43.39564" lon="11.74314"><ele>285.57142857142856</ele><time>2026-04-27T14:40:05.475Z</time></trkpt><trkpt lat="43.3955917" lon="11.7432183"><ele>285.2857142857143</ele><time>2026-04-27T14:40:06.473Z</time></trkpt><trkpt lat="43.3955417" lon="11.7433033"><ele>285.0</ele><time>2026-04-27T14:40:07.475Z</time></trkpt><trkpt lat="43.39549" lon="11.7433833"><ele>284.8333333333333</ele><time>2026-04-27T14:40:08.48Z</time></trkpt><trkpt lat="43.3954383" lon="11.7434633"><ele>284.6666666666667</ele><time>2026-04-27T14:40:09.477Z</time></trkpt><trkpt lat="43.3953883" lon="11.7435433"><ele>284.5</ele><time>2026-04-27T14:40:10.473Z</time></trkpt><trkpt lat="43.395335" lon="11.7436167"><ele>284.33333333333337</ele><time>2026-04-27T14:40:11.476Z</time></trkpt><trkpt lat="43.39528" lon="11.7436933"><ele>284.1666666666667</ele><time>2026-04-27T14:40:12.475Z</time></trkpt><trkpt lat="43.3952267" lon="11.7437633"><ele>284.0</ele><time>2026-04-27T14:40:13.473Z</time></trkpt><trkpt lat="43.3951767" lon="11.7438433"><ele>283.6666666666667</ele><time>2026-04-27T14:40:14.474Z</time></trkpt><trkpt lat="43.3951267" lon="11.7439267"><ele>283.33333333333337</ele><time>2026-04-27T14:40:15.472Z</time></trkpt><trkpt lat="43.3950783" lon="11.744015"><ele>283.0</ele><time>2026-04-27T14:40:16.476Z</time></trkpt><trkpt lat="43.3950333" lon="11.744105"><ele>282.6666666666667</ele><time>2026-04-27T14:40:17.476Z</time></trkpt><trkpt lat="43.3949883" lon="11.7441917"><ele>282.3333333333333</ele><time>2026-04-27T14:40:18.474Z</time></trkpt><trkpt lat="43.3949483" lon="11.74428"><ele>282.0</ele><time>2026-04-27T14:40:19.476Z</time></trkpt><trkpt lat="43.39491" lon="11.7443633"><ele>281.8</ele><time>2026-04-27T14:40:20.473Z</time></trkpt><trkpt lat="43.3948683" lon="11.7444283"><ele>281.6</ele><time>2026-04-27T14:40:21.474Z</time></trkpt><trkpt lat="43.3947667" lon="11.7444767"><ele>281.40000000000003</ele><time>2026-04-27T14:40:23.474Z</time></trkpt><trkpt lat="43.3946783" lon="11.7444"><ele>281.2</ele><time>2026-04-27T14:40:25.473Z</time></trkpt><trkpt lat="43.394625" lon="11.74428"><ele>281.0</ele><time>2026-04-27T14:40:27.475Z</time></trkpt><trkpt lat="43.3945517" lon="11.7441833"><ele>281.40000000000003</ele><time>2026-04-27T14:40:29.474Z</time></trkpt><trkpt lat="43.3944667" lon="11.7441167"><ele>281.8</ele><time>2026-04-27T14:40:31.473Z</time></trkpt><trkpt lat="43.3943767" lon="11.744075"><ele>282.20000000000005</ele><time>2026-04-27T14:40:33.473Z</time></trkpt><trkpt lat="43.3942867" lon="11.7440367"><ele>282.6</ele><time>2026-04-27T14:40:35.474Z</time></trkpt><trkpt lat="43.3941933" lon="11.744005"><ele>283.0</ele><time>2026-04-27T14:40:37.476Z</time></trkpt><trkpt lat="43.3940967" lon="11.7439733"><ele>283.0</ele><time>2026-04-27T14:40:39.478Z</time></trkpt><trkpt lat="43.39401" lon="11.7439417"><ele>283.0</ele><time>2026-04-27T14:40:41.476Z</time></trkpt><trkpt lat="43.39392" lon="11.7439067"><ele>283.0</ele><time>2026-04-27T14:40:43.476Z</time></trkpt><trkpt lat="43.393825" lon="11.743875"><ele>283.0</ele><time>2026-04-27T14:40:45.476Z</time></trkpt><trkpt lat="43.3937367" lon="11.7438433"><ele>283.0</ele><time>2026-04-27T14:40:47.478Z</time></trkpt><trkpt lat="43.3936483" lon="11.7438167"><ele>283.0</ele><time>2026-04-27T14:40:49.472Z</time></trkpt><trkpt lat="43.3935533" lon="11.7437867"><ele>283.0</ele><time>2026-04-27T14:40:51.477Z</time></trkpt><trkpt lat="43.3934617" lon="11.7437583"><ele>283.0</ele><time>2026-04-27T14:40:53.474Z</time></trkpt><trkpt lat="43.393365" lon="11.74373"><ele>283.0</ele><time>2026-04-27T14:40:55.475Z</time></trkpt><trkpt lat="43.3932683" lon="11.7437"><ele>283.0</ele><time>2026-04-27T14:40:57.476Z</time></trkpt><trkpt lat="43.3931767" lon="11.7436683"><ele>283.0</ele><time>2026-04-27T14:40:59.477Z</time></trkpt><trkpt lat="43.3930833" lon="11.7436367"><ele>283.0</ele><time>2026-04-27T14:41:01.475Z</time></trkpt><trkpt lat="43.3929917" lon="11.7436067"><ele>283.0</ele><time>2026-04-27T14:41:03.476Z</time></trkpt><trkpt lat="43.3929017" lon="11.7435833"><ele>283.0</ele><time>2026-04-27T14:41:05.477Z</time></trkpt><trkpt lat="43.3928083" lon="11.7435533"><ele>283.0</ele><time>2026-04-27T14:41:07.477Z</time></trkpt><trkpt lat="43.392715" lon="11.7435267"><ele>283.4</ele><time>2026-04-27T14:41:09.477Z</time></trkpt><trkpt lat="43.3926233" lon="11.7434933"><ele>283.8</ele><time>2026-04-27T14:41:11.475Z</time></trkpt><trkpt lat="43.3925317" lon="11.7434583"><ele>284.2</ele><time>2026-04-27T14:41:13.477Z</time></trkpt><trkpt lat="43.3924367" lon="11.74343"><ele>284.6</ele><time>2026-04-27T14:41:15.474Z</time></trkpt><trkpt lat="43.392335" lon="11.7434017"><ele>285.0</ele><time>2026-04-27T14:41:17.477Z</time></trkpt><trkpt lat="43.3922333" lon="11.743375"><ele>285.2</ele><time>2026-04-27T14:41:19.478Z</time></trkpt><trkpt lat="43.3921367" lon="11.743345"><ele>285.4</ele><time>2026-04-27T14:41:21.476Z</time></trkpt><trkpt lat="43.39204" lon="11.7433117"><ele>285.6</ele><time>2026-04-27T14:41:23.478Z</time></trkpt><trkpt lat="43.391945" lon="11.7432867"><ele>285.8</ele><time>2026-04-27T14:41:25.477Z</time></trkpt><trkpt lat="43.3918383" lon="11.74326"><ele>286.0</ele><time>2026-04-27T14:41:27.478Z</time></trkpt><trkpt lat="43.3917533" lon="11.7432367"><ele>286.0</ele><time>2026-04-27T14:41:29.474Z</time></trkpt><trkpt lat="43.3916583" lon="11.743205"><ele>286.0</ele><time>2026-04-27T14:41:31.477Z</time></trkpt><trkpt lat="43.3915717" lon="11.7431717"><ele>286.0</ele><time>2026-04-27T14:41:33.476Z</time></trkpt><trkpt lat="43.3914783" lon="11.7431467"><ele>286.0</ele><time>2026-04-27T14:41:35.474Z</time></trkpt><trkpt lat="43.3913867" lon="11.743125"><ele>286.0</ele><time>2026-04-27T14:41:37.475Z</time></trkpt><trkpt lat="43.3912983" lon="11.7431117"><ele>286.0</ele><time>2026-04-27T14:41:39.476Z</time></trkpt><trkpt lat="43.3912067" lon="11.7430917"><ele>286.0</ele><time>2026-04-27T14:41:41.475Z</time></trkpt><trkpt lat="43.391125" lon="11.7430633"><ele>286.0</ele><time>2026-04-27T14:41:43.474Z</time></trkpt><trkpt lat="43.3910417" lon="11.7430433"><ele>286.0</ele><time>2026-04-27T14:41:45.474Z</time></trkpt><trkpt lat="43.3909683" lon="11.743025"><ele>286.0</ele><time>2026-04-27T14:41:47.474Z</time></trkpt><trkpt lat="43.3908883" lon="11.7430117"><ele>286.0</ele><time>2026-04-27T14:41:49.474Z</time></trkpt><trkpt lat="43.3908083" lon="11.7429867"><ele>286.0</ele><time>2026-04-27T14:41:51.473Z</time></trkpt><trkpt lat="43.3907267" lon="11.7429667"><ele>286.0</ele><time>2026-04-27T14:41:53.473Z</time></trkpt><trkpt lat="43.3906433" lon="11.7429583"><ele>286.0</ele><time>2026-04-27T14:41:55.474Z</time></trkpt><trkpt lat="43.39055" lon="11.7429533"><ele>286.0</ele><time>2026-04-27T14:41:57.475Z</time></trkpt><trkpt lat="43.39046" lon="11.7429433"><ele>286.0</ele><time>2026-04-27T14:41:59.474Z</time></trkpt><trkpt lat="43.39037" lon="11.7429317"><ele>286.0</ele><time>2026-04-27T14:42:01.476Z</time></trkpt><trkpt lat="43.3902783" lon="11.742925"><ele>286.5</ele><time>2026-04-27T14:42:03.477Z</time></trkpt><trkpt lat="43.3901917" lon="11.7429167"><ele>287.0</ele><time>2026-04-27T14:42:05.477Z</time></trkpt><trkpt lat="43.3901033" lon="11.7429117"><ele>287.5</ele><time>2026-04-27T14:42:07.474Z</time></trkpt><trkpt lat="43.39002" lon="11.7429033"><ele>288.0</ele><time>2026-04-27T14:42:09.477Z</time></trkpt><trkpt lat="43.3899317" lon="11.742895"><ele>288.5</ele><time>2026-04-27T14:42:11.475Z</time></trkpt><trkpt lat="43.3898317" lon="11.7428833"><ele>289.0</ele><time>2026-04-27T14:42:13.475Z</time></trkpt><trkpt lat="43.3897333" lon="11.74286"><ele>288.59999999999997</ele><time>2026-04-27T14:42:15.475Z</time></trkpt><trkpt lat="43.3896417" lon="11.742835"><ele>288.2</ele><time>2026-04-27T14:42:17.475Z</time></trkpt><trkpt lat="43.389545" lon="11.7428117"><ele>287.79999999999995</ele><time>2026-04-27T14:42:19.475Z</time></trkpt><trkpt lat="43.3894483" lon="11.7427933"><ele>287.4</ele><time>2026-04-27T14:42:21.484Z</time></trkpt><trkpt lat="43.3893467" lon="11.7427717"><ele>287.0</ele><time>2026-04-27T14:42:23.474Z</time></trkpt><trkpt lat="43.389235" lon="11.7427567"><ele>287.0</ele><time>2026-04-27T14:42:25.475Z</time></trkpt><trkpt lat="43.389115" lon="11.742765"><ele>287.0</ele><time>2026-04-27T14:42:27.478Z</time></trkpt><trkpt lat="43.3890483" lon="11.742775"><ele>287.0</ele><time>2026-04-27T14:42:28.473Z</time></trkpt><trkpt lat="43.3889783" lon="11.74278"><ele>287.0</ele><time>2026-04-27T14:42:29.474Z</time></trkpt><trkpt lat="43.3889067" lon="11.742785"><ele>287.0</ele><time>2026-04-27T14:42:30.475Z</time></trkpt><trkpt lat="43.3888333" lon="11.7427883"><ele>287.0</ele><time>2026-04-27T14:42:31.477Z</time></trkpt><trkpt lat="43.388755" lon="11.7427933"><ele>286.5</ele><time>2026-04-27T14:42:32.475Z</time></trkpt><trkpt lat="43.3886733" lon="11.7427983"><ele>286.0</ele><time>2026-04-27T14:42:33.475Z</time></trkpt><trkpt lat="43.3885917" lon="11.742805"><ele>285.5</ele><time>2026-04-27T14:42:34.476Z</time></trkpt><trkpt lat="43.38851" lon="11.74281"><ele>285.0</ele><time>2026-04-27T14:42:35.476Z</time></trkpt><trkpt lat="43.3884217" lon="11.742815"><ele>284.5</ele><time>2026-04-27T14:42:36.474Z</time></trkpt><trkpt lat="43.388335" lon="11.7428217"><ele>284.0</ele><time>2026-04-27T14:42:37.475Z</time></trkpt><trkpt lat="43.388245" lon="11.742825"><ele>284.0</ele><time>2026-04-27T14:42:38.48Z</time></trkpt><trkpt lat="43.3881517" lon="11.7428283"><ele>284.0</ele><time>2026-04-27T14:42:39.476Z</time></trkpt><trkpt lat="43.3880633" lon="11.7428283"><ele>284.0</ele><time>2026-04-27T14:42:40.476Z</time></trkpt><trkpt lat="43.3879733" lon="11.742825"><ele>284.0</ele><time>2026-04-27T14:42:41.472Z</time></trkpt><trkpt lat="43.38788" lon="11.742815"><ele>284.0</ele><time>2026-04-27T14:42:42.475Z</time></trkpt><trkpt lat="43.3877867" lon="11.74281"><ele>283.83333333333337</ele><time>2026-04-27T14:42:43.475Z</time></trkpt><trkpt lat="43.3876983" lon="11.7428017"><ele>283.6666666666667</ele><time>2026-04-27T14:42:44.478Z</time></trkpt><trkpt lat="43.38761" lon="11.742795"><ele>283.5</ele><time>2026-04-27T14:42:45.474Z</time></trkpt><trkpt lat="43.387525" lon="11.74279"><ele>283.3333333333333</ele><time>2026-04-27T14:42:46.481Z</time></trkpt><trkpt lat="43.3874467" lon="11.7427817"><ele>283.16666666666663</ele><time>2026-04-27T14:42:47.477Z</time></trkpt><trkpt lat="43.387375" lon="11.7427717"><ele>283.0</ele><time>2026-04-27T14:42:48.476Z</time></trkpt><trkpt lat="43.3873017" lon="11.7427633"><ele>283.0</ele><time>2026-04-27T14:42:49.475Z</time></trkpt><trkpt lat="43.3872317" lon="11.7427533"><ele>283.0</ele><time>2026-04-27T14:42:50.475Z</time></trkpt><trkpt lat="43.3871683" lon="11.7427367"><ele>283.0</ele><time>2026-04-27T14:42:51.475Z</time></trkpt><trkpt lat="43.3870567" lon="11.7427133"><ele>283.0</ele><time>2026-04-27T14:42:53.473Z</time></trkpt><trkpt lat="43.3869417" lon="11.7427"><ele>283.0</ele><time>2026-04-27T14:42:55.48Z</time></trkpt><trkpt lat="43.38684" lon="11.742685"><ele>284.0</ele><time>2026-04-27T14:42:57.477Z</time></trkpt><trkpt lat="43.3867433" lon="11.74268"><ele>285.0</ele><time>2026-04-27T14:42:59.475Z</time></trkpt><trkpt lat="43.3866533" lon="11.7426683"><ele>286.0</ele><time>2026-04-27T14:43:01.477Z</time></trkpt><trkpt lat="43.3865767" lon="11.742655"><ele>287.0</ele><time>2026-04-27T14:43:03.474Z</time></trkpt><trkpt lat="43.3864983" lon="11.7426417"><ele>288.0</ele><time>2026-04-27T14:43:05.475Z</time></trkpt><trkpt lat="43.3864117" lon="11.7426267"><ele>289.0</ele><time>2026-04-27T14:43:07.476Z</time></trkpt><trkpt lat="43.3863283" lon="11.742605"><ele>290.0</ele><time>2026-04-27T14:43:09.475Z</time></trkpt><trkpt lat="43.386245" lon="11.7425917"><ele>291.0</ele><time>2026-04-27T14:43:11.477Z</time></trkpt><trkpt lat="43.38616" lon="11.7425767"><ele>292.0</ele><time>2026-04-27T14:43:13.478Z</time></trkpt><trkpt lat="43.3860817" lon="11.7425633"><ele>293.0</ele><time>2026-04-27T14:43:15.476Z</time></trkpt><trkpt lat="43.38599" lon="11.7425467"><ele>294.0</ele><time>2026-04-27T14:43:17.476Z</time></trkpt><trkpt lat="43.3859133" lon="11.7425167"><ele>295.0</ele><time>2026-04-27T14:43:19.473Z</time></trkpt><trkpt lat="43.385825" lon="11.742495"><ele>295.0</ele><time>2026-04-27T14:43:21.478Z</time></trkpt><trkpt lat="43.3857517" lon="11.7424617"><ele>295.0</ele><time>2026-04-27T14:43:23.474Z</time></trkpt><trkpt lat="43.3856667" lon="11.7424183"><ele>295.0</ele><time>2026-04-27T14:43:26.475Z</time></trkpt><trkpt lat="43.385595" lon="11.7423667"><ele>295.0</ele><time>2026-04-27T14:43:29.474Z</time></trkpt><trkpt lat="43.385525" lon="11.7423217"><ele>295.0</ele><time>2026-04-27T14:43:32.474Z</time></trkpt><trkpt lat="43.3854533" lon="11.7422717"><ele>295.0</ele><time>2026-04-27T14:43:35.473Z</time></trkpt><trkpt lat="43.38538" lon="11.7422367"><ele>295.7142857142857</ele><time>2026-04-27T14:43:38.475Z</time></trkpt><trkpt lat="43.3853167" lon="11.7422"><ele>296.42857142857144</ele><time>2026-04-27T14:43:41.476Z</time></trkpt><trkpt lat="43.38525" lon="11.742165"><ele>297.1428571428571</ele><time>2026-04-27T14:43:44.475Z</time></trkpt><trkpt lat="43.385175" lon="11.74214"><ele>297.8571428571429</ele><time>2026-04-27T14:43:47.478Z</time></trkpt><trkpt lat="43.3851033" lon="11.742105"><ele>298.57142857142856</ele><time>2026-04-27T14:43:50.476Z</time></trkpt><trkpt lat="43.38504" lon="11.74205"><ele>299.2857142857143</ele><time>2026-04-27T14:43:54.475Z</time></trkpt><trkpt lat="43.3849733" lon="11.7420033"><ele>300.0</ele><time>2026-04-27T14:43:58.474Z</time></trkpt><trkpt lat="43.384915" lon="11.74196"><ele>299.99999999999994</ele><time>2026-04-27T14:44:01.475Z</time></trkpt><trkpt lat="43.38486" lon="11.74191"><ele>300.0</ele><time>2026-04-27T14:44:04.478Z</time></trkpt><trkpt lat="43.384805" lon="11.7418617"><ele>300.0</ele><time>2026-04-27T14:44:07.475Z</time></trkpt><trkpt lat="43.3847333" lon="11.741795"><ele>300.0</ele><time>2026-04-27T14:44:11.475Z</time></trkpt><trkpt lat="43.384675" lon="11.741735"><ele>300.0</ele><time>2026-04-27T14:44:14.474Z</time></trkpt><trkpt lat="43.3846117" lon="11.7416767"><ele>299.99999999999994</ele><time>2026-04-27T14:44:17.475Z</time></trkpt><trkpt lat="43.384545" lon="11.7416367"><ele>300.0</ele><time>2026-04-27T14:44:20.475Z</time></trkpt><trkpt lat="43.38448" lon="11.74159"><ele>300.2</ele><time>2026-04-27T14:44:24.477Z</time></trkpt><trkpt lat="43.3843967" lon="11.741595"><ele>300.4</ele><time>2026-04-27T14:44:28.475Z</time></trkpt><trkpt lat="43.3843233" lon="11.7416333"><ele>300.6</ele><time>2026-04-27T14:44:31.476Z</time></trkpt><trkpt lat="43.38425" lon="11.7417083"><ele>300.8</ele><time>2026-04-27T14:44:34.476Z</time></trkpt><trkpt lat="43.384175" lon="11.7417867"><ele>301.0</ele><time>2026-04-27T14:44:37.472Z</time></trkpt><trkpt lat="43.3840883" lon="11.7418733"><ele>300.8333333333333</ele><time>2026-04-27T14:44:40.475Z</time></trkpt><trkpt lat="43.3840333" lon="11.7419233"><ele>300.66666666666663</ele><time>2026-04-27T14:44:41.476Z</time></trkpt><trkpt lat="43.3839267" lon="11.7419983"><ele>300.5</ele><time>2026-04-27T14:44:43.477Z</time></trkpt><trkpt lat="43.3838717" lon="11.7420467"><ele>300.3333333333333</ele><time>2026-04-27T14:44:44.478Z</time></trkpt><trkpt lat="43.383815" lon="11.7420933"><ele>300.1666666666667</ele><time>2026-04-27T14:44:45.475Z</time></trkpt><trkpt lat="43.3837617" lon="11.7421433"><ele>300.0</ele><time>2026-04-27T14:44:46.474Z</time></trkpt><trkpt lat="43.383705" lon="11.7422017"><ele>299.5</ele><time>2026-04-27T14:44:47.473Z</time></trkpt><trkpt lat="43.3836533" lon="11.74227"><ele>299.0</ele><time>2026-04-27T14:44:48.473Z</time></trkpt><trkpt lat="43.3836017" lon="11.74234"><ele>298.5</ele><time>2026-04-27T14:44:49.473Z</time></trkpt><trkpt lat="43.3835483" lon="11.7424183"><ele>298.0</ele><time>2026-04-27T14:44:50.472Z</time></trkpt><trkpt lat="43.383495" lon="11.742495"><ele>297.5</ele><time>2026-04-27T14:44:51.477Z</time></trkpt><trkpt lat="43.3834433" lon="11.7425767"><ele>297.0</ele><time>2026-04-27T14:44:52.48Z</time></trkpt><trkpt lat="43.38339" lon="11.7426583"><ele>296.3333333333333</ele><time>2026-04-27T14:44:53.472Z</time></trkpt><trkpt lat="43.3833367" lon="11.7427317"><ele>295.6666666666667</ele><time>2026-04-27T14:44:54.472Z</time></trkpt><trkpt lat="43.3832867" lon="11.7428017"><ele>295.0</ele><time>2026-04-27T14:44:55.474Z</time></trkpt><trkpt lat="43.3832383" lon="11.742865"><ele>294.33333333333337</ele><time>2026-04-27T14:44:56.473Z</time></trkpt><trkpt lat="43.3831583" lon="11.7429567"><ele>293.6666666666667</ele><time>2026-04-27T14:44:58.475Z</time></trkpt><trkpt lat="43.3830667" lon="11.7430533"><ele>293.0</ele><time>2026-04-27T14:45:00.474Z</time></trkpt><trkpt lat="43.3830167" lon="11.74311"><ele>292.4285714285714</ele><time>2026-04-27T14:45:01.478Z</time></trkpt><trkpt lat="43.3829617" lon="11.7431633"><ele>291.85714285714283</ele><time>2026-04-27T14:45:02.476Z</time></trkpt><trkpt lat="43.3829" lon="11.7432217"><ele>291.2857142857143</ele><time>2026-04-27T14:45:03.476Z</time></trkpt><trkpt lat="43.3828417" lon="11.74328"><ele>290.71428571428567</ele><time>2026-04-27T14:45:04.474Z</time></trkpt><trkpt lat="43.3827767" lon="11.7433367"><ele>290.1428571428571</ele><time>2026-04-27T14:45:05.476Z</time></trkpt><trkpt lat="43.3827133" lon="11.7433883"><ele>289.57142857142856</ele><time>2026-04-27T14:45:06.474Z</time></trkpt><trkpt lat="43.38265" lon="11.7434317"><ele>289.0</ele><time>2026-04-27T14:45:07.474Z</time></trkpt><trkpt lat="43.3825883" lon="11.7434683"><ele>289.0</ele><time>2026-04-27T14:45:08.474Z</time></trkpt><trkpt lat="43.3825267" lon="11.7435017"><ele>289.0</ele><time>2026-04-27T14:45:09.474Z</time></trkpt><trkpt lat="43.3824083" lon="11.7435433"><ele>289.0</ele><time>2026-04-27T14:45:11.476Z</time></trkpt><trkpt lat="43.3823017" lon="11.7435917"><ele>289.0</ele><time>2026-04-27T14:45:13.473Z</time></trkpt><trkpt lat="43.3822183" lon="11.7436133"><ele>289.0</ele><time>2026-04-27T14:45:15.473Z</time></trkpt><trkpt lat="43.38214" lon="11.7435817"><ele>287.66666666666663</ele><time>2026-04-27T14:45:18.474Z</time></trkpt><trkpt lat="43.3821017" lon="11.743495"><ele>286.3333333333333</ele><time>2026-04-27T14:45:21.473Z</time></trkpt><trkpt lat="43.3820633" lon="11.7434167"><ele>285.0</ele><time>2026-04-27T14:45:23.472Z</time></trkpt><trkpt lat="43.3820167" lon="11.7433183"><ele>283.6666666666667</ele><time>2026-04-27T14:45:25.473Z</time></trkpt><trkpt lat="43.381965" lon="11.7432"><ele>282.33333333333337</ele><time>2026-04-27T14:45:27.479Z</time></trkpt><trkpt lat="43.3818983" lon="11.7430717"><ele>281.0</ele><time>2026-04-27T14:45:29.475Z</time></trkpt><trkpt lat="43.3818433" lon="11.7429367"><ele>281.0</ele><time>2026-04-27T14:45:31.476Z</time></trkpt><trkpt lat="43.3817883" lon="11.7428083"><ele>281.0</ele><time>2026-04-27T14:45:33.479Z</time></trkpt><trkpt lat="43.38173" lon="11.7426867"><ele>281.0</ele><time>2026-04-27T14:45:35.476Z</time></trkpt><trkpt lat="43.3816767" lon="11.742575"><ele>281.0</ele><time>2026-04-27T14:45:37.475Z</time></trkpt><trkpt lat="43.381625" lon="11.7424667"><ele>281.0</ele><time>2026-04-27T14:45:39.476Z</time></trkpt><trkpt lat="43.3815717" lon="11.74236"><ele>281.2</ele><time>2026-04-27T14:45:41.474Z</time></trkpt><trkpt lat="43.3815167" lon="11.7422483"><ele>281.40000000000003</ele><time>2026-04-27T14:45:43.474Z</time></trkpt><trkpt lat="43.3814633" lon="11.7421317"><ele>281.6</ele><time>2026-04-27T14:45:45.475Z</time></trkpt><trkpt lat="43.3814067" lon="11.7420117"><ele>281.8</ele><time>2026-04-27T14:45:47.471Z</time></trkpt><trkpt lat="43.3813517" lon="11.74189"><ele>282.0</ele><time>2026-04-27T14:45:49.473Z</time></trkpt><trkpt lat="43.3812917" lon="11.7417733"><ele>282.0</ele><time>2026-04-27T14:45:51.475Z</time></trkpt><trkpt lat="43.3812333" lon="11.7416583"><ele>282.0</ele><time>2026-04-27T14:45:53.473Z</time></trkpt><trkpt lat="43.38117" lon="11.7415433"><ele>282.0</ele><time>2026-04-27T14:45:55.476Z</time></trkpt><trkpt lat="43.3811217" lon="11.74144"><ele>282.0</ele><time>2026-04-27T14:45:57.473Z</time></trkpt><trkpt lat="43.3810717" lon="11.7413383"><ele>282.0</ele><time>2026-04-27T14:45:59.476Z</time></trkpt><trkpt lat="43.3810183" lon="11.74123"><ele>282.0</ele><time>2026-04-27T14:46:01.473Z</time></trkpt><trkpt lat="43.3809783" lon="11.7411217"><ele>282.0</ele><time>2026-04-27T14:46:03.475Z</time></trkpt><trkpt lat="43.3809217" lon="11.7410067"><ele>282.0</ele><time>2026-04-27T14:46:05.474Z</time></trkpt><trkpt lat="43.380855" lon="11.74089"><ele>282.0</ele><time>2026-04-27T14:46:07.475Z</time></trkpt><trkpt lat="43.3807883" lon="11.74076"><ele>282.0</ele><time>2026-04-27T14:46:09.473Z</time></trkpt><trkpt lat="43.38072" lon="11.7406317"><ele>282.0</ele><time>2026-04-27T14:46:11.474Z</time></trkpt><trkpt lat="43.3806617" lon="11.740505"><ele>282.0</ele><time>2026-04-27T14:46:13.475Z</time></trkpt><trkpt lat="43.3805933" lon="11.7403683"><ele>282.0</ele><time>2026-04-27T14:46:15.478Z</time></trkpt><trkpt lat="43.38052" lon="11.7402417"><ele>282.0</ele><time>2026-04-27T14:46:17.472Z</time></trkpt><trkpt lat="43.3804533" lon="11.7401167"><ele>281.8</ele><time>2026-04-27T14:46:19.473Z</time></trkpt><trkpt lat="43.3803867" lon="11.7399967"><ele>281.6</ele><time>2026-04-27T14:46:21.473Z</time></trkpt><trkpt lat="43.3803167" lon="11.73988"><ele>281.40000000000003</ele><time>2026-04-27T14:46:23.473Z</time></trkpt><trkpt lat="43.3802517" lon="11.7397567"><ele>281.2</ele><time>2026-04-27T14:46:25.472Z</time></trkpt><trkpt lat="43.3801867" lon="11.7396367"><ele>281.0</ele><time>2026-04-27T14:46:27.472Z</time></trkpt><trkpt lat="43.38012" lon="11.7395217"><ele>281.0</ele><time>2026-04-27T14:46:29.474Z</time></trkpt><trkpt lat="43.3800567" lon="11.7394"><ele>281.0</ele><time>2026-04-27T14:46:31.475Z</time></trkpt><trkpt lat="43.3799933" lon="11.7392767"><ele>281.0</ele><time>2026-04-27T14:46:33.473Z</time></trkpt><trkpt lat="43.3799217" lon="11.7391567"><ele>281.0</ele><time>2026-04-27T14:46:35.473Z</time></trkpt><trkpt lat="43.3798567" lon="11.73904"><ele>281.0</ele><time>2026-04-27T14:46:37.473Z</time></trkpt><trkpt lat="43.3797867" lon="11.7389283"><ele>281.0</ele><time>2026-04-27T14:46:39.473Z</time></trkpt><trkpt lat="43.3797267" lon="11.7388133"><ele>281.0</ele><time>2026-04-27T14:46:41.473Z</time></trkpt><trkpt lat="43.3796683" lon="11.7386983"><ele>281.0</ele><time>2026-04-27T14:46:43.472Z</time></trkpt><trkpt lat="43.3796183" lon="11.7385867"><ele>281.0</ele><time>2026-04-27T14:46:45.476Z</time></trkpt><trkpt lat="43.379565" lon="11.7384817"><ele>281.0</ele><time>2026-04-27T14:46:47.476Z</time></trkpt><trkpt lat="43.3795117" lon="11.7383733"><ele>281.1666666666667</ele><time>2026-04-27T14:46:49.475Z</time></trkpt><trkpt lat="43.379455" lon="11.7382767"><ele>281.33333333333337</ele><time>2026-04-27T14:46:51.473Z</time></trkpt><trkpt lat="43.3793983" lon="11.738175"><ele>281.5</ele><time>2026-04-27T14:46:53.473Z</time></trkpt><trkpt lat="43.3793433" lon="11.7380767"><ele>281.6666666666667</ele><time>2026-04-27T14:46:55.473Z</time></trkpt><trkpt lat="43.3792883" lon="11.7379833"><ele>281.8333333333333</ele><time>2026-04-27T14:46:57.475Z</time></trkpt><trkpt lat="43.3792367" lon="11.7378917"><ele>282.0</ele><time>2026-04-27T14:46:59.474Z</time></trkpt><trkpt lat="43.379195" lon="11.73781"><ele>282.0</ele><time>2026-04-27T14:47:01.474Z</time></trkpt><trkpt lat="43.3791483" lon="11.737735"><ele>282.0</ele><time>2026-04-27T14:47:03.472Z</time></trkpt><trkpt lat="43.3791083" lon="11.7376567"><ele>282.0</ele><time>2026-04-27T14:47:05.477Z</time></trkpt><trkpt lat="43.3790683" lon="11.7375817"><ele>282.0</ele><time>2026-04-27T14:47:07.474Z</time></trkpt><trkpt lat="43.3790317" lon="11.7374933"><ele>282.0</ele><time>2026-04-27T14:47:09.477Z</time></trkpt><trkpt lat="43.379" lon="11.7374167"><ele>282.0</ele><time>2026-04-27T14:47:11.474Z</time></trkpt><trkpt lat="43.3789617" lon="11.7373433"><ele>282.0</ele><time>2026-04-27T14:47:13.474Z</time></trkpt><trkpt lat="43.3789033" lon="11.7372383"><ele>282.2857142857143</ele><time>2026-04-27T14:47:16.475Z</time></trkpt><trkpt lat="43.3788617" lon="11.7371667"><ele>282.57142857142856</ele><time>2026-04-27T14:47:18.473Z</time></trkpt><trkpt lat="43.378825" lon="11.7370917"><ele>282.85714285714283</ele><time>2026-04-27T14:47:20.478Z</time></trkpt><trkpt lat="43.3787717" lon="11.7369883"><ele>283.1428571428571</ele><time>2026-04-27T14:47:23.478Z</time></trkpt><trkpt lat="43.3787167" lon="11.73692"><ele>283.4285714285714</ele><time>2026-04-27T14:47:26.476Z</time></trkpt><trkpt lat="43.37867" lon="11.736845"><ele>283.7142857142857</ele><time>2026-04-27T14:47:29.475Z</time></trkpt><trkpt lat="43.3786267" lon="11.736775"><ele>284.0</ele><time>2026-04-27T14:47:32.473Z</time></trkpt><trkpt lat="43.3785683" lon="11.7366967"><ele>284.6666666666667</ele><time>2026-04-27T14:47:35.474Z</time></trkpt><trkpt lat="43.3785317" lon="11.7366167"><ele>285.33333333333337</ele><time>2026-04-27T14:47:38.475Z</time></trkpt><trkpt lat="43.3784833" lon="11.736545"><ele>286.0</ele><time>2026-04-27T14:47:41.474Z</time></trkpt><trkpt lat="43.378405" lon="11.73649"><ele>286.6666666666667</ele><time>2026-04-27T14:47:44.474Z</time></trkpt><trkpt lat="43.378305" lon="11.7365283"><ele>287.3333333333333</ele><time>2026-04-27T14:47:47.472Z</time></trkpt><trkpt lat="43.378245" lon="11.7365817"><ele>288.0</ele><time>2026-04-27T14:47:49.475Z</time></trkpt><trkpt lat="43.3781817" lon="11.7366367"><ele>288.0</ele><time>2026-04-27T14:47:51.474Z</time></trkpt><trkpt lat="43.3781167" lon="11.73669"><ele>288.0</ele><time>2026-04-27T14:47:53.473Z</time></trkpt><trkpt lat="43.3780533" lon="11.7367517"><ele>288.0</ele><time>2026-04-27T14:47:55.473Z</time></trkpt><trkpt lat="43.3779933" lon="11.7368117"><ele>288.0</ele><time>2026-04-27T14:47:57.474Z</time></trkpt><trkpt lat="43.3779383" lon="11.7368683"><ele>288.0</ele><time>2026-04-27T14:47:59.474Z</time></trkpt><trkpt lat="43.377855" lon="11.73696"><ele>288.0</ele><time>2026-04-27T14:48:02.474Z</time></trkpt><trkpt lat="43.3777967" lon="11.737025"><ele>288.28571428571433</ele><time>2026-04-27T14:48:04.475Z</time></trkpt><trkpt lat="43.3777383" lon="11.737075"><ele>288.57142857142856</ele><time>2026-04-27T14:48:06.478Z</time></trkpt><trkpt lat="43.3776833" lon="11.73713"><ele>288.8571428571429</ele><time>2026-04-27T14:48:08.475Z</time></trkpt><trkpt lat="43.3776283" lon="11.7371867"><ele>289.14285714285717</ele><time>2026-04-27T14:48:10.477Z</time></trkpt><trkpt lat="43.3775683" lon="11.737235"><ele>289.42857142857144</ele><time>2026-04-27T14:48:12.477Z</time></trkpt><trkpt lat="43.3775117" lon="11.7372917"><ele>289.7142857142857</ele><time>2026-04-27T14:48:14.477Z</time></trkpt><trkpt lat="43.3774583" lon="11.7373467"><ele>290.0</ele><time>2026-04-27T14:48:16.473Z</time></trkpt><trkpt lat="43.3774083" lon="11.7374033"><ele>290.0</ele><time>2026-04-27T14:48:18.474Z</time></trkpt><trkpt lat="43.3773317" lon="11.7374767"><ele>290.0</ele><time>2026-04-27T14:48:21.478Z</time></trkpt><trkpt lat="43.37728" lon="11.73753"><ele>290.0</ele><time>2026-04-27T14:48:23.472Z</time></trkpt><trkpt lat="43.377205" lon="11.737615"><ele>290.0</ele><time>2026-04-27T14:48:26.473Z</time></trkpt><trkpt lat="43.3771517" lon="11.7376733"><ele>290.0</ele><time>2026-04-27T14:48:28.473Z</time></trkpt><trkpt lat="43.3771017" lon="11.7377333"><ele>290.0</ele><time>2026-04-27T14:48:30.475Z</time></trkpt><trkpt lat="43.3770483" lon="11.7377967"><ele>290.42857142857144</ele><time>2026-04-27T14:48:32.475Z</time></trkpt><trkpt lat="43.3769967" lon="11.7378517"><ele>290.8571428571429</ele><time>2026-04-27T14:48:34.474Z</time></trkpt><trkpt lat="43.3769433" lon="11.7379067"><ele>291.2857142857143</ele><time>2026-04-27T14:48:36.473Z</time></trkpt><trkpt lat="43.37689" lon="11.7379683"><ele>291.7142857142857</ele><time>2026-04-27T14:48:38.479Z</time></trkpt><trkpt lat="43.3768383" lon="11.73803"><ele>292.1428571428571</ele><time>2026-04-27T14:48:40.476Z</time></trkpt><trkpt lat="43.3767917" lon="11.7380967"><ele>292.57142857142856</ele><time>2026-04-27T14:48:42.474Z</time></trkpt><trkpt lat="43.37674" lon="11.7381683"><ele>293.0</ele><time>2026-04-27T14:48:44.475Z</time></trkpt><trkpt lat="43.3766833" lon="11.738245"><ele>293.0</ele><time>2026-04-27T14:48:46.479Z</time></trkpt><trkpt lat="43.37662" lon="11.7383033"><ele>293.0</ele><time>2026-04-27T14:48:48.476Z</time></trkpt><trkpt lat="43.3765617" lon="11.738375"><ele>293.0</ele><time>2026-04-27T14:48:50.479Z</time></trkpt><trkpt lat="43.3765017" lon="11.738445"><ele>293.0</ele><time>2026-04-27T14:48:52.472Z</time></trkpt><trkpt lat="43.3764467" lon="11.7385267"><ele>293.0</ele><time>2026-04-27T14:48:54.473Z</time></trkpt><trkpt lat="43.3763983" lon="11.7386033"><ele>293.0</ele><time>2026-04-27T14:48:56.474Z</time></trkpt><trkpt lat="43.3763433" lon="11.7386833"><ele>293.33333333333337</ele><time>2026-04-27T14:48:58.474Z</time></trkpt><trkpt lat="43.376285" lon="11.7387517"><ele>293.6666666666667</ele><time>2026-04-27T14:49:00.475Z</time></trkpt><trkpt lat="43.376225" lon="11.7388267"><ele>294.0</ele><time>2026-04-27T14:49:02.478Z</time></trkpt><trkpt lat="43.376165" lon="11.7389083"><ele>294.3333333333333</ele><time>2026-04-27T14:49:04.474Z</time></trkpt><trkpt lat="43.3761" lon="11.7389883"><ele>294.66666666666663</ele><time>2026-04-27T14:49:06.475Z</time></trkpt><trkpt lat="43.3760383" lon="11.7390683"><ele>295.0</ele><time>2026-04-27T14:49:08.472Z</time></trkpt><trkpt lat="43.3759733" lon="11.7391333"><ele>295.0</ele><time>2026-04-27T14:49:10.475Z</time></trkpt><trkpt lat="43.3759117" lon="11.7392117"><ele>295.0</ele><time>2026-04-27T14:49:12.474Z</time></trkpt><trkpt lat="43.3758533" lon="11.7393017"><ele>295.0</ele><time>2026-04-27T14:49:14.479Z</time></trkpt><trkpt lat="43.3757933" lon="11.7393833"><ele>295.0</ele><time>2026-04-27T14:49:16.475Z</time></trkpt><trkpt lat="43.3757333" lon="11.739465"><ele>295.0</ele><time>2026-04-27T14:49:18.481Z</time></trkpt><trkpt lat="43.3756767" lon="11.73955"><ele>295.0</ele><time>2026-04-27T14:49:20.475Z</time></trkpt><trkpt lat="43.3756217" lon="11.7396317"><ele>295.0</ele><time>2026-04-27T14:49:22.472Z</time></trkpt><trkpt lat="43.3755733" lon="11.7397217"><ele>295.0</ele><time>2026-04-27T14:49:24.476Z</time></trkpt><trkpt lat="43.3755267" lon="11.7398183"><ele>295.0</ele><time>2026-04-27T14:49:26.47Z</time></trkpt><trkpt lat="43.3754783" lon="11.7399183"><ele>295.0</ele><time>2026-04-27T14:49:28.47Z</time></trkpt><trkpt lat="43.3754233" lon="11.7400217"><ele>295.0</ele><time>2026-04-27T14:49:30.472Z</time></trkpt><trkpt lat="43.375375" lon="11.7401417"><ele>295.0</ele><time>2026-04-27T14:49:32.474Z</time></trkpt><trkpt lat="43.37533" lon="11.7402567"><ele>294.6</ele><time>2026-04-27T14:49:34.472Z</time></trkpt><trkpt lat="43.375275" lon="11.74037"><ele>294.2</ele><time>2026-04-27T14:49:36.471Z</time></trkpt><trkpt lat="43.3752067" lon="11.7404817"><ele>293.8</ele><time>2026-04-27T14:49:38.471Z</time></trkpt><trkpt lat="43.3751233" lon="11.7405833"><ele>293.4</ele><time>2026-04-27T14:49:40.475Z</time></trkpt><trkpt lat="43.3750333" lon="11.7406683"><ele>293.0</ele><time>2026-04-27T14:49:42.474Z</time></trkpt><trkpt lat="43.3749483" lon="11.7407567"><ele>293.0</ele><time>2026-04-27T14:49:44.475Z</time></trkpt><trkpt lat="43.3748733" lon="11.740835"><ele>293.0</ele><time>2026-04-27T14:49:46.476Z</time></trkpt><trkpt lat="43.3747917" lon="11.7409033"><ele>293.0</ele><time>2026-04-27T14:49:48.473Z</time></trkpt><trkpt lat="43.3747183" lon="11.7409617"><ele>293.0</ele><time>2026-04-27T14:49:50.475Z</time></trkpt><trkpt lat="43.374645" lon="11.741035"><ele>293.0</ele><time>2026-04-27T14:49:52.472Z</time></trkpt><trkpt lat="43.3745617" lon="11.7411133"><ele>293.2</ele><time>2026-04-27T14:49:54.477Z</time></trkpt><trkpt lat="43.37448" lon="11.741185"><ele>293.4</ele><time>2026-04-27T14:49:56.482Z</time></trkpt><trkpt lat="43.374395" lon="11.7412733"><ele>293.59999999999997</ele><time>2026-04-27T14:49:58.479Z</time></trkpt><trkpt lat="43.3743167" lon="11.7413683"><ele>293.8</ele><time>2026-04-27T14:50:00.474Z</time></trkpt><trkpt lat="43.374235" lon="11.74145"><ele>294.0</ele><time>2026-04-27T14:50:02.476Z</time></trkpt><trkpt lat="43.374155" lon="11.7415417"><ele>294.0</ele><time>2026-04-27T14:50:04.474Z</time></trkpt><trkpt lat="43.374075" lon="11.7416283"><ele>294.0</ele><time>2026-04-27T14:50:06.481Z</time></trkpt><trkpt lat="43.3739967" lon="11.7417283"><ele>294.0</ele><time>2026-04-27T14:50:08.473Z</time></trkpt><trkpt lat="43.373915" lon="11.7418117"><ele>294.0</ele><time>2026-04-27T14:50:10.479Z</time></trkpt><trkpt lat="43.37383" lon="11.7418883"><ele>294.0</ele><time>2026-04-27T14:50:12.48Z</time></trkpt><trkpt lat="43.3737517" lon="11.7419667"><ele>294.0</ele><time>2026-04-27T14:50:14.474Z</time></trkpt><trkpt lat="43.37367" lon="11.74205"><ele>294.0</ele><time>2026-04-27T14:50:16.476Z</time></trkpt><trkpt lat="43.3735883" lon="11.7421317"><ele>294.0</ele><time>2026-04-27T14:50:18.475Z</time></trkpt><trkpt lat="43.3735083" lon="11.7422133"><ele>294.0</ele><time>2026-04-27T14:50:20.474Z</time></trkpt><trkpt lat="43.3734233" lon="11.7422983"><ele>294.0</ele><time>2026-04-27T14:50:22.475Z</time></trkpt><trkpt lat="43.37334" lon="11.74238"><ele>294.0</ele><time>2026-04-27T14:50:24.474Z</time></trkpt><trkpt lat="43.3732533" lon="11.742455"><ele>294.0</ele><time>2026-04-27T14:50:26.476Z</time></trkpt><trkpt lat="43.37317" lon="11.74254"><ele>294.0</ele><time>2026-04-27T14:50:28.477Z</time></trkpt><trkpt lat="43.3730817" lon="11.74262"><ele>294.0</ele><time>2026-04-27T14:50:30.479Z</time></trkpt><trkpt lat="43.373" lon="11.742695"><ele>294.0</ele><time>2026-04-27T14:50:32.476Z</time></trkpt><trkpt lat="43.3729183" lon="11.7427683"><ele>294.2</ele><time>2026-04-27T14:50:34.474Z</time></trkpt><trkpt lat="43.3728317" lon="11.7428533"><ele>294.4</ele><time>2026-04-27T14:50:36.473Z</time></trkpt><trkpt lat="43.37275" lon="11.7429217"><ele>294.6</ele><time>2026-04-27T14:50:38.477Z</time></trkpt><trkpt lat="43.3726667" lon="11.7429883"><ele>294.8</ele><time>2026-04-27T14:50:40.474Z</time></trkpt><trkpt lat="43.3725783" lon="11.7430533"><ele>295.0</ele><time>2026-04-27T14:50:42.474Z</time></trkpt><trkpt lat="43.3724883" lon="11.74312"><ele>295.0</ele><time>2026-04-27T14:50:44.475Z</time></trkpt><trkpt lat="43.3724233" lon="11.7431867"><ele>295.0</ele><time>2026-04-27T14:50:46.476Z</time></trkpt><trkpt lat="43.3723367" lon="11.7432433"><ele>295.0</ele><time>2026-04-27T14:50:48.476Z</time></trkpt><trkpt lat="43.372255" lon="11.7433033"><ele>295.0</ele><time>2026-04-27T14:50:50.478Z</time></trkpt><trkpt lat="43.3721683" lon="11.7433617"><ele>295.0</ele><time>2026-04-27T14:50:52.472Z</time></trkpt><trkpt lat="43.3720733" lon="11.743425"><ele>294.4</ele><time>2026-04-27T14:50:54.475Z</time></trkpt><trkpt lat="43.3719733" lon="11.7434817"><ele>293.8</ele><time>2026-04-27T14:50:56.475Z</time></trkpt><trkpt lat="43.37187" lon="11.7435383"><ele>293.2</ele><time>2026-04-27T14:50:58.473Z</time></trkpt><trkpt lat="43.3717667" lon="11.7435967"><ele>292.6</ele><time>2026-04-27T14:51:00.474Z</time></trkpt><trkpt lat="43.3716617" lon="11.743655"><ele>292.0</ele><time>2026-04-27T14:51:02.476Z</time></trkpt><trkpt lat="43.3715517" lon="11.7437183"><ele>292.16666666666663</ele><time>2026-04-27T14:51:04.477Z</time></trkpt><trkpt lat="43.3714617" lon="11.743775"><ele>292.3333333333333</ele><time>2026-04-27T14:51:06.479Z</time></trkpt><trkpt lat="43.3713983" lon="11.7438533"><ele>292.5</ele><time>2026-04-27T14:51:08.475Z</time></trkpt><trkpt lat="43.371335" lon="11.7439183"><ele>292.6666666666667</ele><time>2026-04-27T14:51:10.475Z</time></trkpt><trkpt lat="43.3712683" lon="11.743975"><ele>292.83333333333337</ele><time>2026-04-27T14:51:12.476Z</time></trkpt><trkpt lat="43.37121" lon="11.74405"><ele>293.0</ele><time>2026-04-27T14:51:14.474Z</time></trkpt><trkpt lat="43.37121" lon="11.7441583"><ele>293.0</ele><time>2026-04-27T14:51:16.473Z</time></trkpt><trkpt lat="43.3712683" lon="11.7442833"><ele>293.0</ele><time>2026-04-27T14:51:18.477Z</time></trkpt><trkpt lat="43.3713467" lon="11.7444067"><ele>293.0</ele><time>2026-04-27T14:51:20.475Z</time></trkpt><trkpt lat="43.3714167" lon="11.7445267"><ele>293.0</ele><time>2026-04-27T14:51:22.476Z</time></trkpt><trkpt lat="43.3714717" lon="11.7446433"><ele>293.0</ele><time>2026-04-27T14:51:24.476Z</time></trkpt><trkpt lat="43.3715217" lon="11.7447633"><ele>293.0</ele><time>2026-04-27T14:51:26.475Z</time></trkpt><trkpt lat="43.3715633" lon="11.74488"><ele>293.0</ele><time>2026-04-27T14:51:28.476Z</time></trkpt><trkpt lat="43.3715817" lon="11.74501"><ele>293.0</ele><time>2026-04-27T14:51:30.474Z</time></trkpt><trkpt lat="43.3715767" lon="11.7451367"><ele>293.0</ele><time>2026-04-27T14:51:32.478Z</time></trkpt><trkpt lat="43.37156" lon="11.74527"><ele>293.0</ele><time>2026-04-27T14:51:34.477Z</time></trkpt><trkpt lat="43.37151" lon="11.7453767"><ele>293.0</ele><time>2026-04-27T14:51:36.475Z</time></trkpt><trkpt lat="43.37144" lon="11.74545"><ele>293.0</ele><time>2026-04-27T14:51:38.477Z</time></trkpt><trkpt lat="43.371365" lon="11.7455133"><ele>293.0</ele><time>2026-04-27T14:51:40.477Z</time></trkpt><trkpt lat="43.3713017" lon="11.7455767"><ele>293.0</ele><time>2026-04-27T14:51:42.475Z</time></trkpt><trkpt lat="43.3712383" lon="11.7456417"><ele>293.0</ele><time>2026-04-27T14:51:44.474Z</time></trkpt><trkpt lat="43.371175" lon="11.7456883"><ele>293.0</ele><time>2026-04-27T14:51:46.477Z</time></trkpt><trkpt lat="43.37112" lon="11.7457533"><ele>293.5</ele><time>2026-04-27T14:51:48.475Z</time></trkpt><trkpt lat="43.3710783" lon="11.7458367"><ele>294.0</ele><time>2026-04-27T14:51:50.476Z</time></trkpt><trkpt lat="43.37103" lon="11.7459167"><ele>294.5</ele><time>2026-04-27T14:51:52.476Z</time></trkpt><trkpt lat="43.3709833" lon="11.7460117"><ele>295.0</ele><time>2026-04-27T14:51:54.476Z</time></trkpt><trkpt lat="43.370935" lon="11.7461017"><ele>295.5</ele><time>2026-04-27T14:51:56.477Z</time></trkpt><trkpt lat="43.3708817" lon="11.7461717"><ele>296.0</ele><time>2026-04-27T14:51:58.473Z</time></trkpt><trkpt lat="43.3708333" lon="11.7462517"><ele>296.0</ele><time>2026-04-27T14:52:00.475Z</time></trkpt><trkpt lat="43.3707883" lon="11.7463517"><ele>296.0</ele><time>2026-04-27T14:52:02.474Z</time></trkpt><trkpt lat="43.37074" lon="11.7464367"><ele>296.0</ele><time>2026-04-27T14:52:04.474Z</time></trkpt><trkpt lat="43.3706917" lon="11.7465417"><ele>296.0</ele><time>2026-04-27T14:52:06.475Z</time></trkpt><trkpt lat="43.3706467" lon="11.7466533"><ele>296.0</ele><time>2026-04-27T14:52:08.475Z</time></trkpt><trkpt lat="43.3705983" lon="11.7467667"><ele>296.0</ele><time>2026-04-27T14:52:10.475Z</time></trkpt><trkpt lat="43.3705517" lon="11.74688"><ele>295.6</ele><time>2026-04-27T14:52:12.473Z</time></trkpt><trkpt lat="43.3705083" lon="11.7469983"><ele>295.20000000000005</ele><time>2026-04-27T14:52:14.477Z</time></trkpt><trkpt lat="43.37047" lon="11.7471333"><ele>294.79999999999995</ele><time>2026-04-27T14:52:16.478Z</time></trkpt><trkpt lat="43.370435" lon="11.74727"><ele>294.4</ele><time>2026-04-27T14:52:18.479Z</time></trkpt><trkpt lat="43.3703983" lon="11.7474"><ele>294.0</ele><time>2026-04-27T14:52:20.476Z</time></trkpt><trkpt lat="43.370355" lon="11.7475117"><ele>294.0</ele><time>2026-04-27T14:52:22.474Z</time></trkpt><trkpt lat="43.3703117" lon="11.747635"><ele>294.0</ele><time>2026-04-27T14:52:24.478Z</time></trkpt><trkpt lat="43.370265" lon="11.7477567"><ele>294.0</ele><time>2026-04-27T14:52:26.475Z</time></trkpt><trkpt lat="43.3702183" lon="11.74788"><ele>294.0</ele><time>2026-04-27T14:52:28.474Z</time></trkpt><trkpt lat="43.37016" lon="11.7480017"><ele>294.0</ele><time>2026-04-27T14:52:30.474Z</time></trkpt><trkpt lat="43.3701033" lon="11.7481267"><ele>294.2</ele><time>2026-04-27T14:52:32.479Z</time></trkpt><trkpt lat="43.3700417" lon="11.7482483"><ele>294.4</ele><time>2026-04-27T14:52:34.476Z</time></trkpt><trkpt lat="43.3699783" lon="11.7483633"><ele>294.6</ele><time>2026-04-27T14:52:36.476Z</time></trkpt><trkpt lat="43.3699167" lon="11.7484783"><ele>294.8</ele><time>2026-04-27T14:52:38.476Z</time></trkpt><trkpt lat="43.36986" lon="11.7486217"><ele>295.0</ele><time>2026-04-27T14:52:40.474Z</time></trkpt><trkpt lat="43.3698067" lon="11.748765"><ele>295.0</ele><time>2026-04-27T14:52:42.474Z</time></trkpt><trkpt lat="43.369745" lon="11.7488983"><ele>295.0</ele><time>2026-04-27T14:52:44.475Z</time></trkpt><trkpt lat="43.36968" lon="11.7490333"><ele>295.0</ele><time>2026-04-27T14:52:46.473Z</time></trkpt><trkpt lat="43.3696133" lon="11.7491617"><ele>295.0</ele><time>2026-04-27T14:52:48.477Z</time></trkpt><trkpt lat="43.3695617" lon="11.7492883"><ele>294.8</ele><time>2026-04-27T14:52:50.476Z</time></trkpt><trkpt lat="43.369515" lon="11.7494067"><ele>294.6</ele><time>2026-04-27T14:52:52.473Z</time></trkpt><trkpt lat="43.3694617" lon="11.749515"><ele>294.4</ele><time>2026-04-27T14:52:54.478Z</time></trkpt><trkpt lat="43.3694017" lon="11.7495917"><ele>294.2</ele><time>2026-04-27T14:52:56.479Z</time></trkpt><trkpt lat="43.36935" lon="11.7496933"><ele>294.0</ele><time>2026-04-27T14:52:58.475Z</time></trkpt><trkpt lat="43.3692867" lon="11.7497833"><ele>294.0</ele><time>2026-04-27T14:53:00.476Z</time></trkpt><trkpt lat="43.3692217" lon="11.7498783"><ele>294.0</ele><time>2026-04-27T14:53:02.476Z</time></trkpt><trkpt lat="43.3691633" lon="11.74996"><ele>294.0</ele><time>2026-04-27T14:53:04.475Z</time></trkpt><trkpt lat="43.3691" lon="11.750045"><ele>294.0</ele><time>2026-04-27T14:53:06.478Z</time></trkpt><trkpt lat="43.3690333" lon="11.7501233"><ele>294.0</ele><time>2026-04-27T14:53:08.475Z</time></trkpt><trkpt lat="43.3689667" lon="11.7501967"><ele>294.0</ele><time>2026-04-27T14:53:10.476Z</time></trkpt><trkpt lat="43.3689017" lon="11.7502667"><ele>294.2</ele><time>2026-04-27T14:53:12.476Z</time></trkpt><trkpt lat="43.36883" lon="11.7503417"><ele>294.4</ele><time>2026-04-27T14:53:14.473Z</time></trkpt><trkpt lat="43.3687517" lon="11.7504117"><ele>294.6</ele><time>2026-04-27T14:53:16.472Z</time></trkpt><trkpt lat="43.3686767" lon="11.7504867"><ele>294.8</ele><time>2026-04-27T14:53:18.478Z</time></trkpt><trkpt lat="43.368605" lon="11.7505867"><ele>295.0</ele><time>2026-04-27T14:53:20.478Z</time></trkpt><trkpt lat="43.36853" lon="11.75069"><ele>295.0</ele><time>2026-04-27T14:53:22.474Z</time></trkpt><trkpt lat="43.36846" lon="11.750785"><ele>295.0</ele><time>2026-04-27T14:53:24.477Z</time></trkpt><trkpt lat="43.3683983" lon="11.750875"><ele>295.0</ele><time>2026-04-27T14:53:26.473Z</time></trkpt><trkpt lat="43.3683417" lon="11.7509583"><ele>295.0</ele><time>2026-04-27T14:53:28.475Z</time></trkpt><trkpt lat="43.36828" lon="11.7510383"><ele>295.0</ele><time>2026-04-27T14:53:30.474Z</time></trkpt><trkpt lat="43.3682267" lon="11.751115"><ele>295.0</ele><time>2026-04-27T14:53:32.474Z</time></trkpt><trkpt lat="43.36817" lon="11.7511883"><ele>294.66666666666663</ele><time>2026-04-27T14:53:34.478Z</time></trkpt><trkpt lat="43.36811" lon="11.75126"><ele>294.3333333333333</ele><time>2026-04-27T14:53:36.475Z</time></trkpt><trkpt lat="43.3680517" lon="11.7513317"><ele>294.0</ele><time>2026-04-27T14:53:38.475Z</time></trkpt><trkpt lat="43.3679917" lon="11.7513933"><ele>293.6666666666667</ele><time>2026-04-27T14:53:40.479Z</time></trkpt><trkpt lat="43.36793" lon="11.75146"><ele>293.33333333333337</ele><time>2026-04-27T14:53:42.474Z</time></trkpt><trkpt lat="43.3678683" lon="11.751525"><ele>293.0</ele><time>2026-04-27T14:53:44.479Z</time></trkpt><trkpt lat="43.367805" lon="11.7515967"><ele>293.0</ele><time>2026-04-27T14:53:46.475Z</time></trkpt><trkpt lat="43.3677383" lon="11.7516783"><ele>293.0</ele><time>2026-04-27T14:53:48.477Z</time></trkpt><trkpt lat="43.3676633" lon="11.7517767"><ele>293.0</ele><time>2026-04-27T14:53:50.475Z</time></trkpt><trkpt lat="43.36758" lon="11.7518833"><ele>293.0</ele><time>2026-04-27T14:53:52.475Z</time></trkpt><trkpt lat="43.3675067" lon="11.7519767"><ele>293.0</ele><time>2026-04-27T14:53:54.478Z</time></trkpt><trkpt lat="43.3674417" lon="11.752075"><ele>293.0</ele><time>2026-04-27T14:53:56.474Z</time></trkpt><trkpt lat="43.3673783" lon="11.7521633"><ele>293.0</ele><time>2026-04-27T14:53:58.475Z</time></trkpt><trkpt lat="43.36732" lon="11.7522517"><ele>293.0</ele><time>2026-04-27T14:54:00.476Z</time></trkpt><trkpt lat="43.367255" lon="11.7523467"><ele>293.0</ele><time>2026-04-27T14:54:02.477Z</time></trkpt><trkpt lat="43.3671833" lon="11.752435"><ele>293.0</ele><time>2026-04-27T14:54:04.477Z</time></trkpt><trkpt lat="43.3671017" lon="11.75253"><ele>292.4</ele><time>2026-04-27T14:54:06.476Z</time></trkpt><trkpt lat="43.3670167" lon="11.7526167"><ele>291.8</ele><time>2026-04-27T14:54:08.476Z</time></trkpt><trkpt lat="43.3669367" lon="11.7527"><ele>291.2</ele><time>2026-04-27T14:54:10.482Z</time></trkpt><trkpt lat="43.3668683" lon="11.7527867"><ele>290.6</ele><time>2026-04-27T14:54:12.477Z</time></trkpt><trkpt lat="43.3667967" lon="11.7528667"><ele>290.0</ele><time>2026-04-27T14:54:14.474Z</time></trkpt><trkpt lat="43.36673" lon="11.7529417"><ele>290.0</ele><time>2026-04-27T14:54:16.475Z</time></trkpt><trkpt lat="43.3666583" lon="11.75302"><ele>290.0</ele><time>2026-04-27T14:54:18.477Z</time></trkpt><trkpt lat="43.3665833" lon="11.7531067"><ele>290.0</ele><time>2026-04-27T14:54:20.478Z</time></trkpt><trkpt lat="43.36651" lon="11.7531933"><ele>290.0</ele><time>2026-04-27T14:54:22.475Z</time></trkpt><trkpt lat="43.3664283" lon="11.7532817"><ele>290.0</ele><time>2026-04-27T14:54:24.475Z</time></trkpt><trkpt lat="43.3663533" lon="11.75337"><ele>290.0</ele><time>2026-04-27T14:54:26.475Z</time></trkpt><trkpt lat="43.3662867" lon="11.753465"><ele>290.0</ele><time>2026-04-27T14:54:28.478Z</time></trkpt><trkpt lat="43.3662317" lon="11.753555"><ele>290.0</ele><time>2026-04-27T14:54:30.478Z</time></trkpt><trkpt lat="43.3661833" lon="11.7536233"><ele>290.0</ele><time>2026-04-27T14:54:32.474Z</time></trkpt><trkpt lat="43.3661183" lon="11.7537167"><ele>290.0</ele><time>2026-04-27T14:54:35.477Z</time></trkpt><trkpt lat="43.3660617" lon="11.7537983"><ele>290.0</ele><time>2026-04-27T14:54:37.475Z</time></trkpt><trkpt lat="43.3660117" lon="11.7538883"><ele>290.0</ele><time>2026-04-27T14:54:39.475Z</time></trkpt><trkpt lat="43.365965" lon="11.75397"><ele>290.0</ele><time>2026-04-27T14:54:41.477Z</time></trkpt><trkpt lat="43.365915" lon="11.7540483"><ele>290.0</ele><time>2026-04-27T14:54:43.477Z</time></trkpt><trkpt lat="43.3658583" lon="11.7541383"><ele>290.0</ele><time>2026-04-27T14:54:45.475Z</time></trkpt><trkpt lat="43.3657983" lon="11.75423"><ele>290.0</ele><time>2026-04-27T14:54:47.476Z</time></trkpt><trkpt lat="43.36574" lon="11.7543183"><ele>290.0</ele><time>2026-04-27T14:54:49.476Z</time></trkpt><trkpt lat="43.3656783" lon="11.7544083"><ele>290.0</ele><time>2026-04-27T14:54:51.475Z</time></trkpt><trkpt lat="43.3656267" lon="11.754495"><ele>290.0</ele><time>2026-04-27T14:54:53.476Z</time></trkpt><trkpt lat="43.3655783" lon="11.7545767"><ele>290.0</ele><time>2026-04-27T14:54:55.475Z</time></trkpt><trkpt lat="43.3655367" lon="11.7546467"><ele>290.0</ele><time>2026-04-27T14:54:57.477Z</time></trkpt><trkpt lat="43.3654883" lon="11.7547233"><ele>290.0</ele><time>2026-04-27T14:54:59.474Z</time></trkpt><trkpt lat="43.3654333" lon="11.75481"><ele>290.0</ele><time>2026-04-27T14:55:01.475Z</time></trkpt><trkpt lat="43.3653733" lon="11.754915"><ele>290.2</ele><time>2026-04-27T14:55:03.478Z</time></trkpt><trkpt lat="43.3653167" lon="11.7550183"><ele>290.4</ele><time>2026-04-27T14:55:05.476Z</time></trkpt><trkpt lat="43.3652667" lon="11.7551217"><ele>290.6</ele><time>2026-04-27T14:55:07.472Z</time></trkpt><trkpt lat="43.365215" lon="11.755255"><ele>290.8</ele><time>2026-04-27T14:55:09.479Z</time></trkpt><trkpt lat="43.3651583" lon="11.75536"><ele>291.0</ele><time>2026-04-27T14:55:11.474Z</time></trkpt><trkpt lat="43.365105" lon="11.755465"><ele>291.0</ele><time>2026-04-27T14:55:13.475Z</time></trkpt><trkpt lat="43.36505" lon="11.755565"><ele>291.0</ele><time>2026-04-27T14:55:15.478Z</time></trkpt><trkpt lat="43.3649917" lon="11.75566"><ele>291.0</ele><time>2026-04-27T14:55:17.475Z</time></trkpt><trkpt lat="43.364935" lon="11.7557583"><ele>291.0</ele><time>2026-04-27T14:55:19.474Z</time></trkpt><trkpt lat="43.3648733" lon="11.7558583"><ele>291.0</ele><time>2026-04-27T14:55:21.474Z</time></trkpt><trkpt lat="43.3648083" lon="11.75596"><ele>290.6</ele><time>2026-04-27T14:55:23.474Z</time></trkpt><trkpt lat="43.36474" lon="11.75606"><ele>290.20000000000005</ele><time>2026-04-27T14:55:25.478Z</time></trkpt><trkpt lat="43.3646733" lon="11.756165"><ele>289.79999999999995</ele><time>2026-04-27T14:55:27.476Z</time></trkpt><trkpt lat="43.3646167" lon="11.7562733"><ele>289.4</ele><time>2026-04-27T14:55:29.479Z</time></trkpt><trkpt lat="43.3645583" lon="11.7563783"><ele>289.0</ele><time>2026-04-27T14:55:31.479Z</time></trkpt><trkpt lat="43.3644967" lon="11.756475"><ele>289.0</ele><time>2026-04-27T14:55:33.48Z</time></trkpt><trkpt lat="43.3644333" lon="11.75657"><ele>289.0</ele><time>2026-04-27T14:55:35.475Z</time></trkpt><trkpt lat="43.3643633" lon="11.756665"><ele>289.0</ele><time>2026-04-27T14:55:37.478Z</time></trkpt><trkpt lat="43.3643017" lon="11.7567717"><ele>289.0</ele><time>2026-04-27T14:55:39.475Z</time></trkpt><trkpt lat="43.3642417" lon="11.756885"><ele>289.0</ele><time>2026-04-27T14:55:41.48Z</time></trkpt><trkpt lat="43.3641683" lon="11.757"><ele>288.59999999999997</ele><time>2026-04-27T14:55:43.477Z</time></trkpt><trkpt lat="43.3640867" lon="11.757125"><ele>288.2</ele><time>2026-04-27T14:55:45.476Z</time></trkpt><trkpt lat="43.3639967" lon="11.7572383"><ele>287.79999999999995</ele><time>2026-04-27T14:55:47.477Z</time></trkpt><trkpt lat="43.3639517" lon="11.7573083"><ele>287.4</ele><time>2026-04-27T14:55:48.476Z</time></trkpt><trkpt lat="43.36391" lon="11.757395"><ele>287.0</ele><time>2026-04-27T14:55:49.475Z</time></trkpt><trkpt lat="43.3638683" lon="11.7574767"><ele>286.5</ele><time>2026-04-27T14:55:50.474Z</time></trkpt><trkpt lat="43.3638267" lon="11.757545"><ele>286.0</ele><time>2026-04-27T14:55:51.474Z</time></trkpt><trkpt lat="43.3637517" lon="11.75767"><ele>285.5</ele><time>2026-04-27T14:55:53.475Z</time></trkpt><trkpt lat="43.3636867" lon="11.7577667"><ele>285.0</ele><time>2026-04-27T14:55:55.476Z</time></trkpt><trkpt lat="43.363635" lon="11.7578417"><ele>284.5</ele><time>2026-04-27T14:55:57.475Z</time></trkpt><trkpt lat="43.3635633" lon="11.7578633"><ele>284.0</ele><time>2026-04-27T14:56:00.473Z</time></trkpt><trkpt lat="43.3635017" lon="11.7578417"><ele>284.0</ele><time>2026-04-27T14:56:02.473Z</time></trkpt><trkpt lat="43.363435" lon="11.7578467"><ele>284.0</ele><time>2026-04-27T14:56:04.475Z</time></trkpt><trkpt lat="43.3634" lon="11.7579617"><ele>284.0</ele><time>2026-04-27T14:56:07.472Z</time></trkpt><trkpt lat="43.3634033" lon="11.7580567"><ele>284.0</ele><time>2026-04-27T14:56:09.476Z</time></trkpt><trkpt lat="43.3633917" lon="11.7581733"><ele>284.0</ele><time>2026-04-27T14:56:11.473Z</time></trkpt><trkpt lat="43.3633667" lon="11.7582933"><ele>284.0</ele><time>2026-04-27T14:56:13.475Z</time></trkpt><trkpt lat="43.3633467" lon="11.75843"><ele>284.2</ele><time>2026-04-27T14:56:15.476Z</time></trkpt><trkpt lat="43.3633267" lon="11.758565"><ele>284.4</ele><time>2026-04-27T14:56:17.477Z</time></trkpt><trkpt lat="43.363305" lon="11.7587033"><ele>284.6</ele><time>2026-04-27T14:56:19.472Z</time></trkpt><trkpt lat="43.3632833" lon="11.7588367"><ele>284.8</ele><time>2026-04-27T14:56:21.474Z</time></trkpt><trkpt lat="43.36326" lon="11.75898"><ele>285.0</ele><time>2026-04-27T14:56:23.475Z</time></trkpt><trkpt lat="43.3632417" lon="11.7591383"><ele>285.0</ele><time>2026-04-27T14:56:25.476Z</time></trkpt><trkpt lat="43.3632217" lon="11.7593067"><ele>285.0</ele><time>2026-04-27T14:56:27.474Z</time></trkpt><trkpt lat="43.363215" lon="11.7593967"><ele>285.0</ele><time>2026-04-27T14:56:28.474Z</time></trkpt><trkpt lat="43.3632067" lon="11.7594867"><ele>285.0</ele><time>2026-04-27T14:56:29.477Z</time></trkpt><trkpt lat="43.3631983" lon="11.7595833"><ele>285.0</ele><time>2026-04-27T14:56:30.473Z</time></trkpt><trkpt lat="43.3631867" lon="11.7596833"><ele>285.0</ele><time>2026-04-27T14:56:31.477Z</time></trkpt><trkpt lat="43.3631733" lon="11.7597817"><ele>284.2857142857143</ele><time>2026-04-27T14:56:32.474Z</time></trkpt><trkpt lat="43.3631583" lon="11.75988"><ele>283.57142857142856</ele><time>2026-04-27T14:56:33.474Z</time></trkpt><trkpt lat="43.36314" lon="11.7599767"><ele>282.8571428571429</ele><time>2026-04-27T14:56:34.48Z</time></trkpt><trkpt lat="43.3631183" lon="11.760075"><ele>282.1428571428571</ele><time>2026-04-27T14:56:35.476Z</time></trkpt><trkpt lat="43.363095" lon="11.7601733"><ele>281.42857142857144</ele><time>2026-04-27T14:56:36.474Z</time></trkpt><trkpt lat="43.363065" lon="11.76027"><ele>280.7142857142857</ele><time>2026-04-27T14:56:37.475Z</time></trkpt><trkpt lat="43.3630383" lon="11.760365"><ele>280.0</ele><time>2026-04-27T14:56:38.474Z</time></trkpt><trkpt lat="43.3630133" lon="11.7604633"><ele>279.42857142857144</ele><time>2026-04-27T14:56:39.473Z</time></trkpt><trkpt lat="43.36299" lon="11.7605617"><ele>278.8571428571429</ele><time>2026-04-27T14:56:40.474Z</time></trkpt><trkpt lat="43.362965" lon="11.7606583"><ele>278.2857142857143</ele><time>2026-04-27T14:56:41.475Z</time></trkpt><trkpt lat="43.36294" lon="11.760755"><ele>277.7142857142857</ele><time>2026-04-27T14:56:42.472Z</time></trkpt><trkpt lat="43.3629133" lon="11.76085"><ele>277.14285714285717</ele><time>2026-04-27T14:56:43.475Z</time></trkpt><trkpt lat="43.3628933" lon="11.760945"><ele>276.57142857142856</ele><time>2026-04-27T14:56:44.472Z</time></trkpt><trkpt lat="43.3628783" lon="11.7610417"><ele>276.0</ele><time>2026-04-27T14:56:45.478Z</time></trkpt><trkpt lat="43.3628717" lon="11.7611317"><ele>275.25</ele><time>2026-04-27T14:56:46.475Z</time></trkpt><trkpt lat="43.3628933" lon="11.7613"><ele>274.5</ele><time>2026-04-27T14:56:48.474Z</time></trkpt><trkpt lat="43.36293" lon="11.7614667"><ele>273.75</ele><time>2026-04-27T14:56:50.477Z</time></trkpt><trkpt lat="43.36297" lon="11.7616067"><ele>273.0</ele><time>2026-04-27T14:56:52.475Z</time></trkpt><trkpt lat="43.3630067" lon="11.7617417"><ele>272.3333333333333</ele><time>2026-04-27T14:56:54.472Z</time></trkpt><trkpt lat="43.3630433" lon="11.76187"><ele>271.6666666666667</ele><time>2026-04-27T14:56:56.475Z</time></trkpt><trkpt lat="43.3630517" lon="11.762"><ele>271.0</ele><time>2026-04-27T14:56:58.484Z</time></trkpt><trkpt lat="43.3629883" lon="11.76213"><ele>270.33333333333337</ele><time>2026-04-27T14:57:00.479Z</time></trkpt><trkpt lat="43.3629367" lon="11.762185"><ele>269.6666666666667</ele><time>2026-04-27T14:57:01.473Z</time></trkpt><trkpt lat="43.3628783" lon="11.7622233"><ele>269.0</ele><time>2026-04-27T14:57:02.478Z</time></trkpt><trkpt lat="43.3628117" lon="11.7622567"><ele>269.0</ele><time>2026-04-27T14:57:03.474Z</time></trkpt><trkpt lat="43.36274" lon="11.76228"><ele>269.0</ele><time>2026-04-27T14:57:04.473Z</time></trkpt><trkpt lat="43.362665" lon="11.762295"><ele>269.0</ele><time>2026-04-27T14:57:05.475Z</time></trkpt><trkpt lat="43.3625867" lon="11.7623167"><ele>269.0</ele><time>2026-04-27T14:57:06.474Z</time></trkpt><trkpt lat="43.3625017" lon="11.7623383"><ele>269.0</ele><time>2026-04-27T14:57:07.473Z</time></trkpt><trkpt lat="43.3624167" lon="11.762355"><ele>269.0</ele><time>2026-04-27T14:57:08.473Z</time></trkpt><trkpt lat="43.3623267" lon="11.7623717"><ele>269.0</ele><time>2026-04-27T14:57:09.474Z</time></trkpt><trkpt lat="43.3622367" lon="11.76239"><ele>269.0</ele><time>2026-04-27T14:57:10.474Z</time></trkpt><trkpt lat="43.3621467" lon="11.7624183"><ele>269.0</ele><time>2026-04-27T14:57:11.475Z</time></trkpt><trkpt lat="43.3620583" lon="11.7624583"><ele>269.0</ele><time>2026-04-27T14:57:12.474Z</time></trkpt><trkpt lat="43.361975" lon="11.76251"><ele>269.0</ele><time>2026-04-27T14:57:13.476Z</time></trkpt><trkpt lat="43.3618983" lon="11.76257"><ele>269.1666666666667</ele><time>2026-04-27T14:57:14.476Z</time></trkpt><trkpt lat="43.3618267" lon="11.7626333"><ele>269.33333333333337</ele><time>2026-04-27T14:57:15.479Z</time></trkpt><trkpt lat="43.3617567" lon="11.7626867"><ele>269.5</ele><time>2026-04-27T14:57:16.473Z</time></trkpt><trkpt lat="43.3616883" lon="11.76274"><ele>269.6666666666667</ele><time>2026-04-27T14:57:17.475Z</time></trkpt><trkpt lat="43.3616233" lon="11.7628"><ele>269.8333333333333</ele><time>2026-04-27T14:57:18.477Z</time></trkpt><trkpt lat="43.36156" lon="11.7628567"><ele>270.0</ele><time>2026-04-27T14:57:19.472Z</time></trkpt><trkpt lat="43.3614983" lon="11.76291"><ele>269.57142857142856</ele><time>2026-04-27T14:57:20.477Z</time></trkpt><trkpt lat="43.3614317" lon="11.7629517"><ele>269.1428571428571</ele><time>2026-04-27T14:57:21.474Z</time></trkpt><trkpt lat="43.361365" lon="11.76299"><ele>268.7142857142857</ele><time>2026-04-27T14:57:22.473Z</time></trkpt><trkpt lat="43.3613033" lon="11.7630383"><ele>268.2857142857143</ele><time>2026-04-27T14:57:23.474Z</time></trkpt><trkpt lat="43.3612433" lon="11.763085"><ele>267.8571428571429</ele><time>2026-04-27T14:57:24.475Z</time></trkpt><trkpt lat="43.3611867" lon="11.7631317"><ele>267.42857142857144</ele><time>2026-04-27T14:57:25.474Z</time></trkpt><trkpt lat="43.36113" lon="11.7631817"><ele>267.0</ele><time>2026-04-27T14:57:26.476Z</time></trkpt><trkpt lat="43.3610733" lon="11.7632267"><ele>267.0</ele><time>2026-04-27T14:57:27.474Z</time></trkpt><trkpt lat="43.3609583" lon="11.7632967"><ele>267.0</ele><time>2026-04-27T14:57:29.477Z</time></trkpt><trkpt lat="43.3608417" lon="11.76335"><ele>267.0</ele><time>2026-04-27T14:57:31.473Z</time></trkpt><trkpt lat="43.36078" lon="11.7633733"><ele>267.0</ele><time>2026-04-27T14:57:32.478Z</time></trkpt><trkpt lat="43.3607167" lon="11.7633967"><ele>267.0</ele><time>2026-04-27T14:57:33.476Z</time></trkpt><trkpt lat="43.3606533" lon="11.76342"><ele>267.0</ele><time>2026-04-27T14:57:34.476Z</time></trkpt><trkpt lat="43.3605917" lon="11.76344"><ele>267.4</ele><time>2026-04-27T14:57:35.475Z</time></trkpt><trkpt lat="43.360475" lon="11.7634817"><ele>267.79999999999995</ele><time>2026-04-27T14:57:37.475Z</time></trkpt><trkpt lat="43.3604133" lon="11.7635017"><ele>268.2</ele><time>2026-04-27T14:57:38.481Z</time></trkpt><trkpt lat="43.3602983" lon="11.7635383"><ele>268.59999999999997</ele><time>2026-04-27T14:57:40.471Z</time></trkpt><trkpt lat="43.3601817" lon="11.7635783"><ele>269.0</ele><time>2026-04-27T14:57:42.475Z</time></trkpt><trkpt lat="43.360065" lon="11.7636167"><ele>268.5</ele><time>2026-04-27T14:57:44.472Z</time></trkpt><trkpt lat="43.3599483" lon="11.7636533"><ele>268.0</ele><time>2026-04-27T14:57:46.474Z</time></trkpt><trkpt lat="43.359835" lon="11.7636967"><ele>267.5</ele><time>2026-04-27T14:57:48.475Z</time></trkpt><trkpt lat="43.359725" lon="11.7637333"><ele>267.0</ele><time>2026-04-27T14:57:50.477Z</time></trkpt><trkpt lat="43.3596167" lon="11.7637683"><ele>267.0</ele><time>2026-04-27T14:57:52.474Z</time></trkpt><trkpt lat="43.359505" lon="11.7638117"><ele>267.0</ele><time>2026-04-27T14:57:54.475Z</time></trkpt><trkpt lat="43.3594017" lon="11.76385"><ele>267.0</ele><time>2026-04-27T14:57:56.476Z</time></trkpt><trkpt lat="43.3593017" lon="11.7638917"><ele>267.0</ele><time>2026-04-27T14:57:58.476Z</time></trkpt><trkpt lat="43.35919" lon="11.763935"><ele>267.0</ele><time>2026-04-27T14:58:00.478Z</time></trkpt><trkpt lat="43.3590833" lon="11.7639767"><ele>267.0</ele><time>2026-04-27T14:58:02.477Z</time></trkpt><trkpt lat="43.3589783" lon="11.764015"><ele>267.0</ele><time>2026-04-27T14:58:04.474Z</time></trkpt><trkpt lat="43.35887" lon="11.7640583"><ele>267.0</ele><time>2026-04-27T14:58:06.473Z</time></trkpt><trkpt lat="43.3587633" lon="11.7641"><ele>267.0</ele><time>2026-04-27T14:58:08.477Z</time></trkpt><trkpt lat="43.35866" lon="11.7641433"><ele>267.0</ele><time>2026-04-27T14:58:10.474Z</time></trkpt><trkpt lat="43.3585583" lon="11.7641883"><ele>267.4</ele><time>2026-04-27T14:58:12.476Z</time></trkpt><trkpt lat="43.3584533" lon="11.7642283"><ele>267.79999999999995</ele><time>2026-04-27T14:58:14.474Z</time></trkpt><trkpt lat="43.3583533" lon="11.7642617"><ele>268.2</ele><time>2026-04-27T14:58:16.473Z</time></trkpt><trkpt lat="43.3582517" lon="11.764285"><ele>268.59999999999997</ele><time>2026-04-27T14:58:18.473Z</time></trkpt><trkpt lat="43.3581433" lon="11.764305"><ele>269.0</ele><time>2026-04-27T14:58:20.478Z</time></trkpt><trkpt lat="43.3580667" lon="11.764335"><ele>267.83333333333337</ele><time>2026-04-27T14:58:22.475Z</time></trkpt><trkpt lat="43.35796" lon="11.7644317"><ele>266.6666666666667</ele><time>2026-04-27T14:58:24.474Z</time></trkpt><trkpt lat="43.3578567" lon="11.7645033"><ele>265.5</ele><time>2026-04-27T14:58:26.476Z</time></trkpt><trkpt lat="43.3577917" lon="11.76453"><ele>264.3333333333333</ele><time>2026-04-27T14:58:27.473Z</time></trkpt><trkpt lat="43.3577283" lon="11.764555"><ele>263.16666666666663</ele><time>2026-04-27T14:58:28.474Z</time></trkpt><trkpt lat="43.35767" lon="11.7645883"><ele>262.0</ele><time>2026-04-27T14:58:29.476Z</time></trkpt><trkpt lat="43.3575567" lon="11.7646417"><ele>262.0</ele><time>2026-04-27T14:58:31.474Z</time></trkpt><trkpt lat="43.3574417" lon="11.7646717"><ele>262.0</ele><time>2026-04-27T14:58:33.479Z</time></trkpt><trkpt lat="43.3573267" lon="11.7646967"><ele>262.0</ele><time>2026-04-27T14:58:35.476Z</time></trkpt><trkpt lat="43.3572217" lon="11.764725"><ele>262.0</ele><time>2026-04-27T14:58:37.475Z</time></trkpt><trkpt lat="43.35712" lon="11.7647533"><ele>262.0</ele><time>2026-04-27T14:58:39.473Z</time></trkpt><trkpt lat="43.357015" lon="11.7647767"><ele>262.0</ele><time>2026-04-27T14:58:41.474Z</time></trkpt><trkpt lat="43.35691" lon="11.7647933"><ele>262.0</ele><time>2026-04-27T14:58:43.474Z</time></trkpt><trkpt lat="43.356795" lon="11.7648333"><ele>262.0</ele><time>2026-04-27T14:58:45.477Z</time></trkpt><trkpt lat="43.356685" lon="11.7648667"><ele>262.0</ele><time>2026-04-27T14:58:47.476Z</time></trkpt><trkpt lat="43.356575" lon="11.7648883"><ele>262.0</ele><time>2026-04-27T14:58:49.472Z</time></trkpt><trkpt lat="43.3564683" lon="11.7649067"><ele>262.0</ele><time>2026-04-27T14:58:51.475Z</time></trkpt><trkpt lat="43.3564" lon="11.764865"><ele>262.0</ele><time>2026-04-27T14:58:54.477Z</time></trkpt><trkpt lat="43.3563933" lon="11.7647767"><ele>262.0</ele><time>2026-04-27T14:58:56.474Z</time></trkpt><trkpt lat="43.3563733" lon="11.7646867"><ele>262.0</ele><time>2026-04-27T14:58:58.475Z</time></trkpt><trkpt lat="43.3564017" lon="11.7649317"><ele>262.0</ele><time>2026-04-27T14:58:59.478Z</time></trkpt><trkpt lat="43.3563633" lon="11.7646717"><ele>261.8</ele><time>2026-04-27T14:59:05.476Z</time></trkpt><trkpt lat="43.3563417" lon="11.7645183"><ele>261.6</ele><time>2026-04-27T14:59:06.475Z</time></trkpt><trkpt lat="43.3563283" lon="11.76443"><ele>261.40000000000003</ele><time>2026-04-27T14:59:07.477Z</time></trkpt><trkpt lat="43.3562967" lon="11.7642733"><ele>261.2</ele><time>2026-04-27T14:59:09.476Z</time></trkpt><trkpt lat="43.3562683" lon="11.7641867"><ele>261.0</ele><time>2026-04-27T14:59:10.474Z</time></trkpt><trkpt lat="43.3562167" lon="11.76405"><ele>261.0</ele><time>2026-04-27T14:59:12.476Z</time></trkpt><trkpt lat="43.3561967" lon="11.7639667"><ele>261.0</ele><time>2026-04-27T14:59:13.472Z</time></trkpt><trkpt lat="43.3561433" lon="11.7638683"><ele>261.0</ele><time>2026-04-27T14:59:15.474Z</time></trkpt><trkpt lat="43.3560933" lon="11.763785"><ele>261.0</ele><time>2026-04-27T14:59:17.473Z</time></trkpt><trkpt lat="43.35604" lon="11.763705"><ele>261.0</ele><time>2026-04-27T14:59:19.476Z</time></trkpt><trkpt lat="43.3559817" lon="11.763635"><ele>261.0</ele><time>2026-04-27T14:59:21.476Z</time></trkpt><trkpt lat="43.355925" lon="11.763565"><ele>261.6666666666667</ele><time>2026-04-27T14:59:23.473Z</time></trkpt><trkpt lat="43.3558667" lon="11.7635017"><ele>262.3333333333333</ele><time>2026-04-27T14:59:25.474Z</time></trkpt><trkpt lat="43.3558033" lon="11.763435"><ele>263.0</ele><time>2026-04-27T14:59:27.476Z</time></trkpt><trkpt lat="43.3557483" lon="11.7633667"><ele>263.66666666666663</ele><time>2026-04-27T14:59:29.472Z</time></trkpt><trkpt lat="43.3556867" lon="11.7633"><ele>264.3333333333333</ele><time>2026-04-27T14:59:31.473Z</time></trkpt><trkpt lat="43.3556283" lon="11.7632333"><ele>265.0</ele><time>2026-04-27T14:59:33.477Z</time></trkpt><trkpt lat="43.3555667" lon="11.76316"><ele>264.16666666666663</ele><time>2026-04-27T14:59:35.473Z</time></trkpt><trkpt lat="43.3555017" lon="11.7630883"><ele>263.3333333333333</ele><time>2026-04-27T14:59:37.474Z</time></trkpt><trkpt lat="43.3554383" lon="11.76302"><ele>262.5</ele><time>2026-04-27T14:59:39.473Z</time></trkpt><trkpt lat="43.3553833" lon="11.7629517"><ele>261.6666666666667</ele><time>2026-04-27T14:59:41.471Z</time></trkpt><trkpt lat="43.3553283" lon="11.7628883"><ele>260.83333333333337</ele><time>2026-04-27T14:59:43.475Z</time></trkpt><trkpt lat="43.355265" lon="11.76282"><ele>260.0</ele><time>2026-04-27T14:59:45.472Z</time></trkpt><trkpt lat="43.3552117" lon="11.7627483"><ele>260.33333333333337</ele><time>2026-04-27T14:59:47.475Z</time></trkpt><trkpt lat="43.355155" lon="11.7626783"><ele>260.6666666666667</ele><time>2026-04-27T14:59:49.473Z</time></trkpt><trkpt lat="43.3550967" lon="11.762615"><ele>261.0</ele><time>2026-04-27T14:59:51.477Z</time></trkpt><trkpt lat="43.35504" lon="11.7625517"><ele>261.3333333333333</ele><time>2026-04-27T14:59:53.472Z</time></trkpt><trkpt lat="43.3549833" lon="11.762485"><ele>261.66666666666663</ele><time>2026-04-27T14:59:55.474Z</time></trkpt><trkpt lat="43.3549217" lon="11.7624167"><ele>262.0</ele><time>2026-04-27T14:59:57.472Z</time></trkpt><trkpt lat="43.3548583" lon="11.7623483"><ele>262.0</ele><time>2026-04-27T14:59:59.473Z</time></trkpt><trkpt lat="43.3547967" lon="11.76228"><ele>262.0</ele><time>2026-04-27T15:00:01.474Z</time></trkpt><trkpt lat="43.3547417" lon="11.762215"><ele>262.0</ele><time>2026-04-27T15:00:03.473Z</time></trkpt><trkpt lat="43.3546833" lon="11.76215"><ele>262.0</ele><time>2026-04-27T15:00:05.477Z</time></trkpt><trkpt lat="43.3546183" lon="11.7620817"><ele>262.0</ele><time>2026-04-27T15:00:07.475Z</time></trkpt><trkpt lat="43.3545567" lon="11.762005"><ele>262.0</ele><time>2026-04-27T15:00:09.475Z</time></trkpt><trkpt lat="43.3544933" lon="11.7619333"><ele>262.3333333333333</ele><time>2026-04-27T15:00:11.477Z</time></trkpt><trkpt lat="43.35443" lon="11.7618567"><ele>262.66666666666663</ele><time>2026-04-27T15:00:13.477Z</time></trkpt><trkpt lat="43.3543717" lon="11.76179"><ele>263.0</ele><time>2026-04-27T15:00:15.475Z</time></trkpt><trkpt lat="43.3543117" lon="11.7617117"><ele>263.3333333333333</ele><time>2026-04-27T15:00:17.474Z</time></trkpt><trkpt lat="43.3542517" lon="11.761645"><ele>263.6666666666667</ele><time>2026-04-27T15:00:19.474Z</time></trkpt><trkpt lat="43.3541767" lon="11.761605"><ele>264.0</ele><time>2026-04-27T15:00:21.473Z</time></trkpt><trkpt lat="43.3541017" lon="11.761595"><ele>264.0</ele><time>2026-04-27T15:00:23.475Z</time></trkpt><trkpt lat="43.3540217" lon="11.7616183"><ele>264.0</ele><time>2026-04-27T15:00:25.476Z</time></trkpt><trkpt lat="43.3539517" lon="11.7616533"><ele>264.0</ele><time>2026-04-27T15:00:27.475Z</time></trkpt><trkpt lat="43.353875" lon="11.7616983"><ele>264.0</ele><time>2026-04-27T15:00:29.476Z</time></trkpt><trkpt lat="43.3538017" lon="11.7617433"><ele>264.0</ele><time>2026-04-27T15:00:31.477Z</time></trkpt><trkpt lat="43.353725" lon="11.76179"><ele>264.0</ele><time>2026-04-27T15:00:33.476Z</time></trkpt><trkpt lat="43.3536533" lon="11.7618317"><ele>264.0</ele><time>2026-04-27T15:00:35.478Z</time></trkpt><trkpt lat="43.3535783" lon="11.7618667"><ele>264.0</ele><time>2026-04-27T15:00:37.476Z</time></trkpt><trkpt lat="43.3535" lon="11.76188"><ele>264.0</ele><time>2026-04-27T15:00:39.473Z</time></trkpt><trkpt lat="43.3534233" lon="11.7618917"><ele>264.0</ele><time>2026-04-27T15:00:41.473Z</time></trkpt><trkpt lat="43.35335" lon="11.7619017"><ele>264.0</ele><time>2026-04-27T15:00:43.479Z</time></trkpt><trkpt lat="43.3532783" lon="11.761895"><ele>264.0</ele><time>2026-04-27T15:00:45.472Z</time></trkpt><trkpt lat="43.3532083" lon="11.7618933"><ele>264.0</ele><time>2026-04-27T15:00:47.474Z</time></trkpt><trkpt lat="43.3531417" lon="11.76189"><ele>264.0</ele><time>2026-04-27T15:00:49.475Z</time></trkpt><trkpt lat="43.3530783" lon="11.76188"><ele>264.0</ele><time>2026-04-27T15:00:51.474Z</time></trkpt><trkpt lat="43.353015" lon="11.7618783"><ele>264.0</ele><time>2026-04-27T15:00:53.474Z</time></trkpt><trkpt lat="43.3529283" lon="11.761875"><ele>264.0</ele><time>2026-04-27T15:00:56.474Z</time></trkpt><trkpt lat="43.3528433" lon="11.761865"><ele>264.0</ele><time>2026-04-27T15:00:59.475Z</time></trkpt><trkpt lat="43.3527667" lon="11.7618483"><ele>264.0</ele><time>2026-04-27T15:01:02.476Z</time></trkpt><trkpt lat="43.3526917" lon="11.7618383"><ele>264.57142857142856</ele><time>2026-04-27T15:01:05.476Z</time></trkpt><trkpt lat="43.3526167" lon="11.7618283"><ele>265.14285714285717</ele><time>2026-04-27T15:01:08.474Z</time></trkpt><trkpt lat="43.352545" lon="11.7618217"><ele>265.7142857142857</ele><time>2026-04-27T15:01:11.478Z</time></trkpt><trkpt lat="43.352475" lon="11.76183"><ele>266.2857142857143</ele><time>2026-04-27T15:01:14.475Z</time></trkpt><trkpt lat="43.3524067" lon="11.7618567"><ele>266.85714285714283</ele><time>2026-04-27T15:01:17.474Z</time></trkpt><trkpt lat="43.3523367" lon="11.7618767"><ele>267.42857142857144</ele><time>2026-04-27T15:01:20.475Z</time></trkpt><trkpt lat="43.3522733" lon="11.7619"><ele>268.0</ele><time>2026-04-27T15:01:23.476Z</time></trkpt><trkpt lat="43.352205" lon="11.7619383"><ele>268.8571428571429</ele><time>2026-04-27T15:01:26.474Z</time></trkpt><trkpt lat="43.35213" lon="11.761985"><ele>269.7142857142857</ele><time>2026-04-27T15:01:29.477Z</time></trkpt><trkpt lat="43.3520683" lon="11.7620233"><ele>270.57142857142856</ele><time>2026-04-27T15:01:32.478Z</time></trkpt><trkpt lat="43.352005" lon="11.762055"><ele>271.42857142857144</ele><time>2026-04-27T15:01:35.477Z</time></trkpt><trkpt lat="43.35194" lon="11.7620917"><ele>272.2857142857143</ele><time>2026-04-27T15:01:39.475Z</time></trkpt><trkpt lat="43.3518783" lon="11.7621283"><ele>273.14285714285717</ele><time>2026-04-27T15:01:43.478Z</time></trkpt><trkpt lat="43.3518033" lon="11.7621583"><ele>274.0</ele><time>2026-04-27T15:01:47.476Z</time></trkpt><trkpt lat="43.351725" lon="11.7621883"><ele>274.0</ele><time>2026-04-27T15:01:51.475Z</time></trkpt><trkpt lat="43.351655" lon="11.7622117"><ele>274.0</ele><time>2026-04-27T15:01:55.476Z</time></trkpt><trkpt lat="43.3515783" lon="11.762235"><ele>274.0</ele><time>2026-04-27T15:01:59.475Z</time></trkpt><trkpt lat="43.3515083" lon="11.7622617"><ele>274.0</ele><time>2026-04-27T15:02:03.475Z</time></trkpt><trkpt lat="43.35144" lon="11.762285"><ele>274.0</ele><time>2026-04-27T15:02:06.474Z</time></trkpt><trkpt lat="43.3513433" lon="11.7623133"><ele>274.0</ele><time>2026-04-27T15:02:09.476Z</time></trkpt><trkpt lat="43.3512617" lon="11.7623333"><ele>274.0</ele><time>2026-04-27T15:02:11.476Z</time></trkpt><trkpt lat="43.3511583" lon="11.76236"><ele>274.0</ele><time>2026-04-27T15:02:13.477Z</time></trkpt><trkpt lat="43.3510567" lon="11.7623733"><ele>274.0</ele><time>2026-04-27T15:02:15.476Z</time></trkpt><trkpt lat="43.3509533" lon="11.76237"><ele>274.0</ele><time>2026-04-27T15:02:17.473Z</time></trkpt><trkpt lat="43.3508633" lon="11.7623683"><ele>274.0</ele><time>2026-04-27T15:02:19.474Z</time></trkpt><trkpt lat="43.350775" lon="11.76235"><ele>274.0</ele><time>2026-04-27T15:02:21.475Z</time></trkpt><trkpt lat="43.35069" lon="11.762345"><ele>274.0</ele><time>2026-04-27T15:02:23.472Z</time></trkpt><trkpt lat="43.3506167" lon="11.76233"><ele>274.0</ele><time>2026-04-27T15:02:25.472Z</time></trkpt><trkpt lat="43.3505383" lon="11.7623083"><ele>274.0</ele><time>2026-04-27T15:02:27.476Z</time></trkpt><trkpt lat="43.3504583" lon="11.7622967"><ele>274.0</ele><time>2026-04-27T15:02:29.474Z</time></trkpt><trkpt lat="43.3503917" lon="11.7622867"><ele>274.0</ele><time>2026-04-27T15:02:31.475Z</time></trkpt><trkpt lat="43.3503083" lon="11.7622617"><ele>274.14285714285717</ele><time>2026-04-27T15:02:34.474Z</time></trkpt><trkpt lat="43.3502383" lon="11.7622417"><ele>274.2857142857143</ele><time>2026-04-27T15:02:37.478Z</time></trkpt><trkpt lat="43.3501633" lon="11.762225"><ele>274.42857142857144</ele><time>2026-04-27T15:02:40.475Z</time></trkpt><trkpt lat="43.35009" lon="11.762205"><ele>274.57142857142856</ele><time>2026-04-27T15:02:43.474Z</time></trkpt><trkpt lat="43.350025" lon="11.7621783"><ele>274.7142857142857</ele><time>2026-04-27T15:02:46.475Z</time></trkpt><trkpt lat="43.3499617" lon="11.76217"><ele>274.8571428571429</ele><time>2026-04-27T15:02:49.475Z</time></trkpt><trkpt lat="43.3498817" lon="11.7621767"><ele>275.0</ele><time>2026-04-27T15:02:53.474Z</time></trkpt><trkpt lat="43.3498117" lon="11.7621983"><ele>275.0</ele><time>2026-04-27T15:02:56.476Z</time></trkpt><trkpt lat="43.3497283" lon="11.762215"><ele>275.0</ele><time>2026-04-27T15:02:59.477Z</time></trkpt><trkpt lat="43.3496633" lon="11.7622367"><ele>275.0</ele><time>2026-04-27T15:03:01.476Z</time></trkpt><trkpt lat="43.3496" lon="11.7622783"><ele>275.0</ele><time>2026-04-27T15:03:03.477Z</time></trkpt><trkpt lat="43.349545" lon="11.7623433"><ele>275.0</ele><time>2026-04-27T15:03:05.476Z</time></trkpt><trkpt lat="43.3494983" lon="11.7624167"><ele>275.0</ele><time>2026-04-27T15:03:07.472Z</time></trkpt><trkpt lat="43.3494517" lon="11.7624933"><ele>275.0</ele><time>2026-04-27T15:03:09.474Z</time></trkpt><trkpt lat="43.3494" lon="11.7625667"><ele>275.0</ele><time>2026-04-27T15:03:11.476Z</time></trkpt><trkpt lat="43.349345" lon="11.7626267"><ele>275.0</ele><time>2026-04-27T15:03:13.476Z</time></trkpt><trkpt lat="43.349275" lon="11.7626867"><ele>275.0</ele><time>2026-04-27T15:03:15.475Z</time></trkpt><trkpt lat="43.349195" lon="11.7627433"><ele>275.0</ele><time>2026-04-27T15:03:17.474Z</time></trkpt><trkpt lat="43.3491017" lon="11.7627833"><ele>275.0</ele><time>2026-04-27T15:03:19.474Z</time></trkpt><trkpt lat="43.3489883" lon="11.7627983"><ele>274.1666666666667</ele><time>2026-04-27T15:03:21.474Z</time></trkpt><trkpt lat="43.3489217" lon="11.7627983"><ele>273.33333333333337</ele><time>2026-04-27T15:03:22.475Z</time></trkpt><trkpt lat="43.3488517" lon="11.762795"><ele>272.5</ele><time>2026-04-27T15:03:23.475Z</time></trkpt><trkpt lat="43.348775" lon="11.762795"><ele>271.6666666666667</ele><time>2026-04-27T15:03:24.475Z</time></trkpt><trkpt lat="43.3486917" lon="11.7627967"><ele>270.8333333333333</ele><time>2026-04-27T15:03:25.474Z</time></trkpt><trkpt lat="43.348605" lon="11.7627983"><ele>270.0</ele><time>2026-04-27T15:03:26.474Z</time></trkpt><trkpt lat="43.3485133" lon="11.7628"><ele>269.2</ele><time>2026-04-27T15:03:27.477Z</time></trkpt><trkpt lat="43.3484183" lon="11.7628017"><ele>268.4</ele><time>2026-04-27T15:03:28.475Z</time></trkpt><trkpt lat="43.3483217" lon="11.762805"><ele>267.6</ele><time>2026-04-27T15:03:29.477Z</time></trkpt><trkpt lat="43.3482217" lon="11.762805"><ele>266.8</ele><time>2026-04-27T15:03:30.478Z</time></trkpt><trkpt lat="43.34812" lon="11.762805"><ele>266.0</ele><time>2026-04-27T15:03:31.475Z</time></trkpt><trkpt lat="43.3480167" lon="11.7628067"><ele>265.2</ele><time>2026-04-27T15:03:32.479Z</time></trkpt><trkpt lat="43.347915" lon="11.762805"><ele>264.40000000000003</ele><time>2026-04-27T15:03:33.473Z</time></trkpt><trkpt lat="43.347815" lon="11.7628033"><ele>263.6</ele><time>2026-04-27T15:03:34.478Z</time></trkpt><trkpt lat="43.3477183" lon="11.7628017"><ele>262.8</ele><time>2026-04-27T15:03:35.476Z</time></trkpt><trkpt lat="43.3476233" lon="11.7627983"><ele>262.0</ele><time>2026-04-27T15:03:36.475Z</time></trkpt><trkpt lat="43.3475317" lon="11.762795"><ele>262.0</ele><time>2026-04-27T15:03:37.472Z</time></trkpt><trkpt lat="43.3474417" lon="11.76279"><ele>262.0</ele><time>2026-04-27T15:03:38.477Z</time></trkpt><trkpt lat="43.3473533" lon="11.762785"><ele>262.0</ele><time>2026-04-27T15:03:39.475Z</time></trkpt><trkpt lat="43.3472667" lon="11.7627767"><ele>262.0</ele><time>2026-04-27T15:03:40.473Z</time></trkpt><trkpt lat="43.3471833" lon="11.7627633"><ele>262.0</ele><time>2026-04-27T15:03:41.474Z</time></trkpt><trkpt lat="43.3471033" lon="11.7627483"><ele>262.0</ele><time>2026-04-27T15:03:42.476Z</time></trkpt><trkpt lat="43.3470283" lon="11.7627267"><ele>262.0</ele><time>2026-04-27T15:03:43.476Z</time></trkpt><trkpt lat="43.3469567" lon="11.7627017"><ele>262.0</ele><time>2026-04-27T15:03:44.477Z</time></trkpt><trkpt lat="43.3468883" lon="11.7626733"><ele>262.0</ele><time>2026-04-27T15:03:45.475Z</time></trkpt><trkpt lat="43.3468233" lon="11.762645"><ele>262.0</ele><time>2026-04-27T15:03:46.476Z</time></trkpt><trkpt lat="43.3467083" lon="11.7625933"><ele>262.0</ele><time>2026-04-27T15:03:48.476Z</time></trkpt><trkpt lat="43.3466067" lon="11.7625483"><ele>262.0</ele><time>2026-04-27T15:03:50.475Z</time></trkpt><trkpt lat="43.3465133" lon="11.7625133"><ele>262.0</ele><time>2026-04-27T15:03:52.475Z</time></trkpt><trkpt lat="43.3464233" lon="11.7624767"><ele>262.0</ele><time>2026-04-27T15:03:54.476Z</time></trkpt><trkpt lat="43.346345" lon="11.7624517"><ele>262.0</ele><time>2026-04-27T15:03:56.477Z</time></trkpt><trkpt lat="43.34627" lon="11.7624283"><ele>262.0</ele><time>2026-04-27T15:03:58.477Z</time></trkpt><trkpt lat="43.3461933" lon="11.76241"><ele>262.0</ele><time>2026-04-27T15:04:00.48Z</time></trkpt><trkpt lat="43.3461117" lon="11.7623867"><ele>262.0</ele><time>2026-04-27T15:04:02.477Z</time></trkpt><trkpt lat="43.3460317" lon="11.762365"><ele>262.14285714285717</ele><time>2026-04-27T15:04:04.472Z</time></trkpt><trkpt lat="43.3459517" lon="11.76235"><ele>262.28571428571433</ele><time>2026-04-27T15:04:06.477Z</time></trkpt><trkpt lat="43.34588" lon="11.7623383"><ele>262.42857142857144</ele><time>2026-04-27T15:04:08.48Z</time></trkpt><trkpt lat="43.345805" lon="11.7623233"><ele>262.57142857142856</ele><time>2026-04-27T15:04:10.479Z</time></trkpt><trkpt lat="43.34573" lon="11.7623117"><ele>262.71428571428567</ele><time>2026-04-27T15:04:12.474Z</time></trkpt><trkpt lat="43.34566" lon="11.7623033"><ele>262.85714285714283</ele><time>2026-04-27T15:04:14.474Z</time></trkpt><trkpt lat="43.3455883" lon="11.762305"><ele>263.0</ele><time>2026-04-27T15:04:17.475Z</time></trkpt><trkpt lat="43.34552" lon="11.7623133"><ele>263.0</ele><time>2026-04-27T15:04:23.476Z</time></trkpt><trkpt lat="43.34549" lon="11.7623967"><ele>263.0</ele><time>2026-04-27T15:04:32.475Z</time></trkpt><trkpt lat="43.3455267" lon="11.7624867"><ele>263.0</ele><time>2026-04-27T15:04:35.473Z</time></trkpt><trkpt lat="43.3455767" lon="11.762595"><ele>263.0</ele><time>2026-04-27T15:04:38.475Z</time></trkpt><trkpt lat="43.3456217" lon="11.7626733"><ele>263.0</ele><time>2026-04-27T15:04:40.48Z</time></trkpt><trkpt lat="43.345665" lon="11.7627567"><ele>263.0</ele><time>2026-04-27T15:04:42.477Z</time></trkpt><trkpt lat="43.3457033" lon="11.7628333"><ele>263.0</ele><time>2026-04-27T15:04:44.478Z</time></trkpt><trkpt lat="43.3457417" lon="11.7629133"><ele>263.0</ele><time>2026-04-27T15:04:46.475Z</time></trkpt><trkpt lat="43.3457767" lon="11.7629917"><ele>263.0</ele><time>2026-04-27T15:04:48.475Z</time></trkpt><trkpt lat="43.34581" lon="11.7630717"><ele>263.0</ele><time>2026-04-27T15:04:50.478Z</time></trkpt><trkpt lat="43.3458317" lon="11.763155"><ele>263.0</ele><time>2026-04-27T15:04:52.481Z</time></trkpt><trkpt lat="43.34585" lon="11.7632383"><ele>263.0</ele><time>2026-04-27T15:04:54.477Z</time></trkpt><trkpt lat="43.345855" lon="11.7633683"><ele>263.0</ele><time>2026-04-27T15:04:57.475Z</time></trkpt><trkpt lat="43.3458533" lon="11.7634917"><ele>262.6666666666667</ele><time>2026-04-27T15:05:00.478Z</time></trkpt><trkpt lat="43.3458433" lon="11.7636167"><ele>262.33333333333337</ele><time>2026-04-27T15:05:03.474Z</time></trkpt><trkpt lat="43.3458283" lon="11.7637433"><ele>262.0</ele><time>2026-04-27T15:05:06.476Z</time></trkpt><trkpt lat="43.3458117" lon="11.7638617"><ele>261.6666666666667</ele><time>2026-04-27T15:05:09.476Z</time></trkpt><trkpt lat="43.34581" lon="11.7639533"><ele>261.3333333333333</ele><time>2026-04-27T15:05:11.48Z</time></trkpt><trkpt lat="43.3458083" lon="11.7640517"><ele>261.0</ele><time>2026-04-27T15:05:13.474Z</time></trkpt><trkpt lat="43.345805" lon="11.7641517"><ele>261.0</ele><time>2026-04-27T15:05:15.475Z</time></trkpt><trkpt lat="43.3458033" lon="11.76426"><ele>261.0</ele><time>2026-04-27T15:05:17.474Z</time></trkpt><trkpt lat="43.3458" lon="11.7643733"><ele>261.0</ele><time>2026-04-27T15:05:19.474Z</time></trkpt><trkpt lat="43.3457967" lon="11.764505"><ele>261.0</ele><time>2026-04-27T15:05:21.475Z</time></trkpt><trkpt lat="43.3457917" lon="11.764645"><ele>261.0</ele><time>2026-04-27T15:05:23.474Z</time></trkpt><trkpt lat="43.34579" lon="11.7648017"><ele>260.8571428571429</ele><time>2026-04-27T15:05:25.473Z</time></trkpt><trkpt lat="43.3457817" lon="11.7649667"><ele>260.7142857142857</ele><time>2026-04-27T15:05:27.473Z</time></trkpt><trkpt lat="43.345775" lon="11.7650533"><ele>260.57142857142856</ele><time>2026-04-27T15:05:28.476Z</time></trkpt><trkpt lat="43.34577" lon="11.76514"><ele>260.42857142857144</ele><time>2026-04-27T15:05:29.474Z</time></trkpt><trkpt lat="43.345765" lon="11.7652283"><ele>260.2857142857143</ele><time>2026-04-27T15:05:30.478Z</time></trkpt><trkpt lat="43.3457633" lon="11.7653167"><ele>260.14285714285717</ele><time>2026-04-27T15:05:31.476Z</time></trkpt><trkpt lat="43.34576" lon="11.7654067"><ele>260.0</ele><time>2026-04-27T15:05:32.474Z</time></trkpt><trkpt lat="43.3457583" lon="11.7654983"><ele>260.00000000000006</ele><time>2026-04-27T15:05:33.474Z</time></trkpt><trkpt lat="43.345755" lon="11.76559"><ele>260.0</ele><time>2026-04-27T15:05:34.474Z</time></trkpt><trkpt lat="43.3457517" lon="11.765685"><ele>260.0</ele><time>2026-04-27T15:05:35.474Z</time></trkpt><trkpt lat="43.34575" lon="11.7657767"><ele>260.0</ele><time>2026-04-27T15:05:36.484Z</time></trkpt><trkpt lat="43.34575" lon="11.7658717"><ele>260.0</ele><time>2026-04-27T15:05:37.475Z</time></trkpt><trkpt lat="43.3457533" lon="11.765965"><ele>260.00000000000006</ele><time>2026-04-27T15:05:38.475Z</time></trkpt><trkpt lat="43.3457583" lon="11.7660583"><ele>260.0</ele><time>2026-04-27T15:05:39.475Z</time></trkpt><trkpt lat="43.3457683" lon="11.7661567"><ele>260.00000000000006</ele><time>2026-04-27T15:05:40.473Z</time></trkpt><trkpt lat="43.3457733" lon="11.7662567"><ele>260.0</ele><time>2026-04-27T15:05:41.475Z</time></trkpt><trkpt lat="43.34578" lon="11.7663567"><ele>260.0</ele><time>2026-04-27T15:05:42.474Z</time></trkpt><trkpt lat="43.345785" lon="11.7664567"><ele>260.0</ele><time>2026-04-27T15:05:43.477Z</time></trkpt><trkpt lat="43.34579" lon="11.766555"><ele>260.0</ele><time>2026-04-27T15:05:44.479Z</time></trkpt><trkpt lat="43.345795" lon="11.7666517"><ele>260.00000000000006</ele><time>2026-04-27T15:05:45.473Z</time></trkpt><trkpt lat="43.3458033" lon="11.7667517"><ele>260.0</ele><time>2026-04-27T15:05:46.476Z</time></trkpt><trkpt lat="43.34581" lon="11.7668533"><ele>260.00000000000006</ele><time>2026-04-27T15:05:47.476Z</time></trkpt><trkpt lat="43.345815" lon="11.7669517"><ele>260.0</ele><time>2026-04-27T15:05:48.474Z</time></trkpt><trkpt lat="43.3458217" lon="11.7670533"><ele>260.0</ele><time>2026-04-27T15:05:49.476Z</time></trkpt><trkpt lat="43.345825" lon="11.7671517"><ele>260.0</ele><time>2026-04-27T15:05:50.481Z</time></trkpt><trkpt lat="43.345825" lon="11.7672517"><ele>260.0</ele><time>2026-04-27T15:05:51.475Z</time></trkpt><trkpt lat="43.34583" lon="11.7673533"><ele>260.00000000000006</ele><time>2026-04-27T15:05:52.473Z</time></trkpt><trkpt lat="43.3458383" lon="11.767455"><ele>260.0</ele><time>2026-04-27T15:05:53.476Z</time></trkpt><trkpt lat="43.3458417" lon="11.7675533"><ele>260.0</ele><time>2026-04-27T15:05:54.474Z</time></trkpt><trkpt lat="43.3458467" lon="11.7676483"><ele>260.0</ele><time>2026-04-27T15:05:55.475Z</time></trkpt><trkpt lat="43.34585" lon="11.76774"><ele>260.0</ele><time>2026-04-27T15:05:56.473Z</time></trkpt><trkpt lat="43.3458517" lon="11.7678333"><ele>260.0</ele><time>2026-04-27T15:05:57.475Z</time></trkpt><trkpt lat="43.3458567" lon="11.76792"><ele>260.0</ele><time>2026-04-27T15:05:58.477Z</time></trkpt><trkpt lat="43.3458683" lon="11.768085"><ele>260.0</ele><time>2026-04-27T15:06:00.475Z</time></trkpt><trkpt lat="43.34588" lon="11.76824"><ele>260.0</ele><time>2026-04-27T15:06:02.474Z</time></trkpt><trkpt lat="43.345895" lon="11.7683867"><ele>260.0</ele><time>2026-04-27T15:06:04.474Z</time></trkpt><trkpt lat="43.3459117" lon="11.7685283"><ele>260.0</ele><time>2026-04-27T15:06:06.475Z</time></trkpt><trkpt lat="43.3459217" lon="11.7686633"><ele>260.0</ele><time>2026-04-27T15:06:08.476Z</time></trkpt><trkpt lat="43.3459283" lon="11.76879"><ele>260.0</ele><time>2026-04-27T15:06:10.474Z</time></trkpt><trkpt lat="43.345925" lon="11.7689167"><ele>259.83333333333337</ele><time>2026-04-27T15:06:12.475Z</time></trkpt><trkpt lat="43.345915" lon="11.7690433"><ele>259.6666666666667</ele><time>2026-04-27T15:06:14.474Z</time></trkpt><trkpt lat="43.3459" lon="11.7691583"><ele>259.5</ele><time>2026-04-27T15:06:16.473Z</time></trkpt><trkpt lat="43.3458867" lon="11.7692717"><ele>259.3333333333333</ele><time>2026-04-27T15:06:18.478Z</time></trkpt><trkpt lat="43.345875" lon="11.7693933"><ele>259.16666666666663</ele><time>2026-04-27T15:06:20.474Z</time></trkpt><trkpt lat="43.3458533" lon="11.7695017"><ele>259.0</ele><time>2026-04-27T15:06:22.474Z</time></trkpt><trkpt lat="43.3458283" lon="11.7695983"><ele>259.3333333333333</ele><time>2026-04-27T15:06:24.478Z</time></trkpt><trkpt lat="43.3458067" lon="11.7696983"><ele>259.66666666666663</ele><time>2026-04-27T15:06:26.475Z</time></trkpt><trkpt lat="43.34578" lon="11.7698017"><ele>260.0</ele><time>2026-04-27T15:06:28.475Z</time></trkpt><trkpt lat="43.345745" lon="11.769895"><ele>260.3333333333333</ele><time>2026-04-27T15:06:30.473Z</time></trkpt><trkpt lat="43.3457033" lon="11.7699883"><ele>260.6666666666667</ele><time>2026-04-27T15:06:32.475Z</time></trkpt><trkpt lat="43.345655" lon="11.77008"><ele>261.0</ele><time>2026-04-27T15:06:34.476Z</time></trkpt><trkpt lat="43.345605" lon="11.77016"><ele>261.42857142857144</ele><time>2026-04-27T15:06:36.471Z</time></trkpt><trkpt lat="43.34556" lon="11.77023"><ele>261.85714285714283</ele><time>2026-04-27T15:06:38.476Z</time></trkpt><trkpt lat="43.34552" lon="11.77031"><ele>262.2857142857143</ele><time>2026-04-27T15:06:40.476Z</time></trkpt><trkpt lat="43.3454833" lon="11.7703917"><ele>262.7142857142857</ele><time>2026-04-27T15:06:42.477Z</time></trkpt><trkpt lat="43.3454483" lon="11.77047"><ele>263.14285714285717</ele><time>2026-04-27T15:06:44.475Z</time></trkpt><trkpt lat="43.345415" lon="11.7705667"><ele>263.57142857142856</ele><time>2026-04-27T15:06:46.474Z</time></trkpt><trkpt lat="43.3453833" lon="11.7706617"><ele>264.0</ele><time>2026-04-27T15:06:48.474Z</time></trkpt><trkpt lat="43.3453533" lon="11.7707583"><ele>264.3333333333333</ele><time>2026-04-27T15:06:50.475Z</time></trkpt><trkpt lat="43.34533" lon="11.7708533"><ele>264.6666666666667</ele><time>2026-04-27T15:06:52.477Z</time></trkpt><trkpt lat="43.3453033" lon="11.7709383"><ele>265.0</ele><time>2026-04-27T15:06:54.473Z</time></trkpt><trkpt lat="43.3452833" lon="11.7710317"><ele>265.33333333333337</ele><time>2026-04-27T15:06:56.474Z</time></trkpt><trkpt lat="43.345255" lon="11.7711467"><ele>265.6666666666667</ele><time>2026-04-27T15:06:59.472Z</time></trkpt><trkpt lat="43.34523" lon="11.7712667"><ele>266.0</ele><time>2026-04-27T15:07:02.475Z</time></trkpt><trkpt lat="43.34521" lon="11.7713517"><ele>266.33333333333337</ele><time>2026-04-27T15:07:04.474Z</time></trkpt><trkpt lat="43.3451933" lon="11.7714367"><ele>266.6666666666667</ele><time>2026-04-27T15:07:06.473Z</time></trkpt><trkpt lat="43.34517" lon="11.7715533"><ele>267.0</ele><time>2026-04-27T15:07:09.478Z</time></trkpt><trkpt lat="43.34514" lon="11.7716617"><ele>267.3333333333333</ele><time>2026-04-27T15:07:12.472Z</time></trkpt><trkpt lat="43.3451133" lon="11.7717667"><ele>267.66666666666663</ele><time>2026-04-27T15:07:15.475Z</time></trkpt><trkpt lat="43.3450967" lon="11.7718683"><ele>268.0</ele><time>2026-04-27T15:07:19.474Z</time></trkpt><trkpt lat="43.345075" lon="11.7719633"><ele>268.0</ele><time>2026-04-27T15:10:09.475Z</time></trkpt><trkpt lat="43.3450567" lon="11.7720633"><ele>268.0</ele><time>2026-04-27T15:10:13.472Z</time></trkpt><trkpt lat="43.3450317" lon="11.772175"><ele>268.0</ele><time>2026-04-27T15:10:16.478Z</time></trkpt><trkpt lat="43.345015" lon="11.7722667"><ele>268.0</ele><time>2026-04-27T15:10:18.474Z</time></trkpt><trkpt lat="43.3449967" lon="11.7723717"><ele>268.0</ele><time>2026-04-27T15:10:20.476Z</time></trkpt><trkpt lat="43.3449683" lon="11.7724783"><ele>268.0</ele><time>2026-04-27T15:10:22.473Z</time></trkpt><trkpt lat="43.3449417" lon="11.7726233"><ele>267.4</ele><time>2026-04-27T15:10:24.474Z</time></trkpt><trkpt lat="43.3449117" lon="11.772775"><ele>266.8</ele><time>2026-04-27T15:10:26.478Z</time></trkpt><trkpt lat="43.3448817" lon="11.772935"><ele>266.2</ele><time>2026-04-27T15:10:28.472Z</time></trkpt><trkpt lat="43.3448683" lon="11.7730233"><ele>265.6</ele><time>2026-04-27T15:10:29.476Z</time></trkpt><trkpt lat="43.3448317" lon="11.7731917"><ele>265.0</ele><time>2026-04-27T15:10:31.475Z</time></trkpt><trkpt lat="43.34481" lon="11.773275"><ele>265.0</ele><time>2026-04-27T15:10:32.48Z</time></trkpt><trkpt lat="43.3447917" lon="11.77336"><ele>265.0</ele><time>2026-04-27T15:10:33.473Z</time></trkpt><trkpt lat="43.3447683" lon="11.773445"><ele>265.0</ele><time>2026-04-27T15:10:34.475Z</time></trkpt><trkpt lat="43.3447517" lon="11.77353"><ele>265.0</ele><time>2026-04-27T15:10:35.477Z</time></trkpt><trkpt lat="43.3447183" lon="11.7737"><ele>265.0</ele><time>2026-04-27T15:10:37.473Z</time></trkpt><trkpt lat="43.3447017" lon="11.7737883"><ele>265.0</ele><time>2026-04-27T15:10:38.476Z</time></trkpt><trkpt lat="43.344685" lon="11.7738767"><ele>264.85714285714283</ele><time>2026-04-27T15:10:39.475Z</time></trkpt><trkpt lat="43.344665" lon="11.773965"><ele>264.7142857142857</ele><time>2026-04-27T15:10:40.473Z</time></trkpt><trkpt lat="43.3446467" lon="11.7740533"><ele>264.57142857142856</ele><time>2026-04-27T15:10:41.477Z</time></trkpt><trkpt lat="43.3446283" lon="11.77414"><ele>264.42857142857144</ele><time>2026-04-27T15:10:42.474Z</time></trkpt><trkpt lat="43.34461" lon="11.7742267"><ele>264.2857142857143</ele><time>2026-04-27T15:10:43.475Z</time></trkpt><trkpt lat="43.3445917" lon="11.77431"><ele>264.1428571428571</ele><time>2026-04-27T15:10:44.475Z</time></trkpt><trkpt lat="43.344575" lon="11.7743967"><ele>264.0</ele><time>2026-04-27T15:10:45.473Z</time></trkpt><trkpt lat="43.3445483" lon="11.77456"><ele>264.0</ele><time>2026-04-27T15:10:47.474Z</time></trkpt><trkpt lat="43.3445317" lon="11.7747217"><ele>264.0</ele><time>2026-04-27T15:10:49.475Z</time></trkpt><trkpt lat="43.3445233" lon="11.774875"><ele>264.0</ele><time>2026-04-27T15:10:51.477Z</time></trkpt><trkpt lat="43.344525" lon="11.7750083"><ele>264.0</ele><time>2026-04-27T15:10:53.474Z</time></trkpt><trkpt lat="43.3445383" lon="11.7751383"><ele>264.0</ele><time>2026-04-27T15:10:55.475Z</time></trkpt><trkpt lat="43.3445517" lon="11.77527"><ele>264.0</ele><time>2026-04-27T15:10:57.475Z</time></trkpt><trkpt lat="43.3445733" lon="11.7753983"><ele>264.0</ele><time>2026-04-27T15:10:59.476Z</time></trkpt><trkpt lat="43.344595" lon="11.7755167"><ele>264.0</ele><time>2026-04-27T15:11:01.474Z</time></trkpt><trkpt lat="43.344625" lon="11.7756233"><ele>264.0</ele><time>2026-04-27T15:11:03.473Z</time></trkpt><trkpt lat="43.3446617" lon="11.7757283"><ele>264.0</ele><time>2026-04-27T15:11:05.475Z</time></trkpt><trkpt lat="43.3447067" lon="11.7758317"><ele>264.0</ele><time>2026-04-27T15:11:07.476Z</time></trkpt><trkpt lat="43.3447533" lon="11.7759317"><ele>264.3333333333333</ele><time>2026-04-27T15:11:09.472Z</time></trkpt><trkpt lat="43.3448017" lon="11.7760333"><ele>264.6666666666667</ele><time>2026-04-27T15:11:11.475Z</time></trkpt><trkpt lat="43.34485" lon="11.77613"><ele>265.0</ele><time>2026-04-27T15:11:13.475Z</time></trkpt><trkpt lat="43.3449" lon="11.776225"><ele>265.33333333333337</ele><time>2026-04-27T15:11:15.473Z</time></trkpt><trkpt lat="43.3449483" lon="11.7763133"><ele>265.6666666666667</ele><time>2026-04-27T15:11:17.477Z</time></trkpt><trkpt lat="43.3450067" lon="11.776405"><ele>266.0</ele><time>2026-04-27T15:11:19.477Z</time></trkpt><trkpt lat="43.3450617" lon="11.77649"><ele>266.0</ele><time>2026-04-27T15:11:21.476Z</time></trkpt><trkpt lat="43.3451183" lon="11.7765733"><ele>266.0</ele><time>2026-04-27T15:11:23.476Z</time></trkpt><trkpt lat="43.345165" lon="11.776655"><ele>266.0</ele><time>2026-04-27T15:11:25.473Z</time></trkpt><trkpt lat="43.345205" lon="11.7767383"><ele>266.0</ele><time>2026-04-27T15:11:27.474Z</time></trkpt><trkpt lat="43.3452483" lon="11.7768233"><ele>266.0</ele><time>2026-04-27T15:11:29.476Z</time></trkpt><trkpt lat="43.34529" lon="11.7769067"><ele>266.0</ele><time>2026-04-27T15:11:31.474Z</time></trkpt><trkpt lat="43.345335" lon="11.7770033"><ele>265.83333333333337</ele><time>2026-04-27T15:11:33.474Z</time></trkpt><trkpt lat="43.3453833" lon="11.7771067"><ele>265.6666666666667</ele><time>2026-04-27T15:11:35.476Z</time></trkpt><trkpt lat="43.345425" lon="11.7772133"><ele>265.5</ele><time>2026-04-27T15:11:37.472Z</time></trkpt><trkpt lat="43.3454633" lon="11.7773167"><ele>265.3333333333333</ele><time>2026-04-27T15:11:39.472Z</time></trkpt><trkpt lat="43.3455017" lon="11.7774283"><ele>265.16666666666663</ele><time>2026-04-27T15:11:41.475Z</time></trkpt><trkpt lat="43.3455467" lon="11.7775417"><ele>265.0</ele><time>2026-04-27T15:11:43.474Z</time></trkpt><trkpt lat="43.3455933" lon="11.77766"><ele>265.5</ele><time>2026-04-27T15:11:45.475Z</time></trkpt><trkpt lat="43.3456367" lon="11.7777667"><ele>266.0</ele><time>2026-04-27T15:11:47.477Z</time></trkpt><trkpt lat="43.3456733" lon="11.7778717"><ele>266.5</ele><time>2026-04-27T15:11:49.473Z</time></trkpt><trkpt lat="43.3457067" lon="11.7779783"><ele>267.0</ele><time>2026-04-27T15:11:51.474Z</time></trkpt><trkpt lat="43.3457267" lon="11.77809"><ele>267.5</ele><time>2026-04-27T15:11:53.474Z</time></trkpt><trkpt lat="43.3457433" lon="11.778195"><ele>268.0</ele><time>2026-04-27T15:11:55.477Z</time></trkpt><trkpt lat="43.3457617" lon="11.7783117"><ele>268.0</ele><time>2026-04-27T15:11:57.476Z</time></trkpt><trkpt lat="43.3457767" lon="11.7784383"><ele>268.0</ele><time>2026-04-27T15:11:59.478Z</time></trkpt><trkpt lat="43.3457917" lon="11.7785683"><ele>268.0</ele><time>2026-04-27T15:12:01.472Z</time></trkpt><trkpt lat="43.3458083" lon="11.7786933"><ele>268.0</ele><time>2026-04-27T15:12:03.473Z</time></trkpt><trkpt lat="43.3458233" lon="11.7788217"><ele>268.0</ele><time>2026-04-27T15:12:05.476Z</time></trkpt><trkpt lat="43.3458383" lon="11.77893"><ele>268.0</ele><time>2026-04-27T15:12:07.473Z</time></trkpt><trkpt lat="43.3458433" lon="11.77904"><ele>268.0</ele><time>2026-04-27T15:12:09.475Z</time></trkpt><trkpt lat="43.34585" lon="11.7791533"><ele>268.0</ele><time>2026-04-27T15:12:11.473Z</time></trkpt><trkpt lat="43.3458583" lon="11.7792667"><ele>268.0</ele><time>2026-04-27T15:12:13.474Z</time></trkpt><trkpt lat="43.3458683" lon="11.77938"><ele>268.0</ele><time>2026-04-27T15:12:15.472Z</time></trkpt><trkpt lat="43.345875" lon="11.7794917"><ele>268.0</ele><time>2026-04-27T15:12:17.476Z</time></trkpt><trkpt lat="43.3458867" lon="11.7796"><ele>268.66666666666663</ele><time>2026-04-27T15:12:19.475Z</time></trkpt><trkpt lat="43.3459033" lon="11.7797017"><ele>269.3333333333333</ele><time>2026-04-27T15:12:21.475Z</time></trkpt><trkpt lat="43.3459083" lon="11.7797967"><ele>270.0</ele><time>2026-04-27T15:12:23.474Z</time></trkpt><trkpt lat="43.3459167" lon="11.7799167"><ele>270.6666666666667</ele><time>2026-04-27T15:12:25.473Z</time></trkpt><trkpt lat="43.3459317" lon="11.78004"><ele>271.33333333333337</ele><time>2026-04-27T15:12:27.478Z</time></trkpt><trkpt lat="43.34594" lon="11.7801567"><ele>272.0</ele><time>2026-04-27T15:12:29.474Z</time></trkpt><trkpt lat="43.3459517" lon="11.7802667"><ele>272.5</ele><time>2026-04-27T15:12:31.476Z</time></trkpt><trkpt lat="43.3459633" lon="11.7803683"><ele>273.0</ele><time>2026-04-27T15:12:33.474Z</time></trkpt><trkpt lat="43.3459767" lon="11.7804767"><ele>273.5</ele><time>2026-04-27T15:12:35.475Z</time></trkpt><trkpt lat="43.3459883" lon="11.7805833"><ele>274.0</ele><time>2026-04-27T15:12:37.475Z</time></trkpt><trkpt lat="43.346" lon="11.7806833"><ele>274.5</ele><time>2026-04-27T15:12:39.474Z</time></trkpt><trkpt lat="43.3460133" lon="11.780785"><ele>275.0</ele><time>2026-04-27T15:12:41.476Z</time></trkpt><trkpt lat="43.3460267" lon="11.78088"><ele>275.0</ele><time>2026-04-27T15:12:43.474Z</time></trkpt><trkpt lat="43.3460367" lon="11.780975"><ele>275.0</ele><time>2026-04-27T15:12:45.475Z</time></trkpt><trkpt lat="43.3460467" lon="11.7810683"><ele>275.0</ele><time>2026-04-27T15:12:47.472Z</time></trkpt><trkpt lat="43.3460583" lon="11.78116"><ele>275.0</ele><time>2026-04-27T15:12:49.477Z</time></trkpt><trkpt lat="43.3460717" lon="11.78126"><ele>275.0</ele><time>2026-04-27T15:12:51.474Z</time></trkpt><trkpt lat="43.34608" lon="11.78136"><ele>275.0</ele><time>2026-04-27T15:12:53.474Z</time></trkpt><trkpt lat="43.346085" lon="11.7814533"><ele>275.0</ele><time>2026-04-27T15:12:55.474Z</time></trkpt><trkpt lat="43.34609" lon="11.7815467"><ele>275.0</ele><time>2026-04-27T15:12:57.475Z</time></trkpt><trkpt lat="43.346105" lon="11.7816617"><ele>275.0</ele><time>2026-04-27T15:13:00.477Z</time></trkpt><trkpt lat="43.34612" lon="11.7817817"><ele>275.0</ele><time>2026-04-27T15:13:03.479Z</time></trkpt><trkpt lat="43.3461317" lon="11.7818683"><ele>275.0</ele><time>2026-04-27T15:13:05.479Z</time></trkpt><trkpt lat="43.346145" lon="11.781995"><ele>275.0</ele><time>2026-04-27T15:13:08.475Z</time></trkpt><trkpt lat="43.3461583" lon="11.7820817"><ele>275.0</ele><time>2026-04-27T15:13:11.477Z</time></trkpt><trkpt lat="43.3461767" lon="11.7821817"><ele>275.0</ele><time>2026-04-27T15:13:14.477Z</time></trkpt><trkpt lat="43.3461817" lon="11.7822767"><ele>275.0</ele><time>2026-04-27T15:13:17.473Z</time></trkpt><trkpt lat="43.3462067" lon="11.7823783"><ele>275.0</ele><time>2026-04-27T15:13:20.477Z</time></trkpt><trkpt lat="43.3462217" lon="11.782465"><ele>275.0</ele><time>2026-04-27T15:13:22.479Z</time></trkpt><trkpt lat="43.3462367" lon="11.7825583"><ele>275.0</ele><time>2026-04-27T15:13:24.477Z</time></trkpt><trkpt lat="43.3462467" lon="11.7826567"><ele>275.0</ele><time>2026-04-27T15:13:26.476Z</time></trkpt><trkpt lat="43.34626" lon="11.7827533"><ele>275.0</ele><time>2026-04-27T15:13:28.476Z</time></trkpt><trkpt lat="43.3462717" lon="11.7828483"><ele>275.0</ele><time>2026-04-27T15:13:30.475Z</time></trkpt><trkpt lat="43.34628" lon="11.7829417"><ele>275.0</ele><time>2026-04-27T15:13:32.475Z</time></trkpt><trkpt lat="43.3462933" lon="11.7830333"><ele>275.0</ele><time>2026-04-27T15:13:34.472Z</time></trkpt><trkpt lat="43.346305" lon="11.783125"><ele>275.0</ele><time>2026-04-27T15:13:36.474Z</time></trkpt><trkpt lat="43.3463167" lon="11.7832433"><ele>275.0</ele><time>2026-04-27T15:13:39.475Z</time></trkpt><trkpt lat="43.3463433" lon="11.7833683"><ele>275.0</ele><time>2026-04-27T15:13:42.475Z</time></trkpt><trkpt lat="43.3463567" lon="11.7834533"><ele>275.0</ele><time>2026-04-27T15:13:44.474Z</time></trkpt><trkpt lat="43.3463717" lon="11.7835733"><ele>274.5</ele><time>2026-04-27T15:13:47.473Z</time></trkpt><trkpt lat="43.3463933" lon="11.7836683"><ele>274.0</ele><time>2026-04-27T15:13:49.473Z</time></trkpt><trkpt lat="43.34642" lon="11.78377"><ele>273.5</ele><time>2026-04-27T15:13:51.474Z</time></trkpt><trkpt lat="43.3464583" lon="11.7838733"><ele>273.0</ele><time>2026-04-27T15:13:53.476Z</time></trkpt><trkpt lat="43.34651" lon="11.7839767"><ele>272.5</ele><time>2026-04-27T15:13:55.473Z</time></trkpt><trkpt lat="43.3465717" lon="11.7840733"><ele>272.0</ele><time>2026-04-27T15:13:57.474Z</time></trkpt><trkpt lat="43.3466233" lon="11.7841567"><ele>272.0</ele><time>2026-04-27T15:13:59.476Z</time></trkpt><trkpt lat="43.34668" lon="11.7842467"><ele>272.0</ele><time>2026-04-27T15:14:01.476Z</time></trkpt><trkpt lat="43.3467283" lon="11.7843333"><ele>272.0</ele><time>2026-04-27T15:14:03.472Z</time></trkpt><trkpt lat="43.3467833" lon="11.784405"><ele>272.0</ele><time>2026-04-27T15:14:05.472Z</time></trkpt><trkpt lat="43.346835" lon="11.7844783"><ele>272.0</ele><time>2026-04-27T15:14:07.475Z</time></trkpt><trkpt lat="43.34689" lon="11.7845517"><ele>272.0</ele><time>2026-04-27T15:14:09.478Z</time></trkpt><trkpt lat="43.3469467" lon="11.7846317"><ele>273.0</ele><time>2026-04-27T15:14:11.475Z</time></trkpt><trkpt lat="43.3470033" lon="11.7847117"><ele>274.0</ele><time>2026-04-27T15:14:13.479Z</time></trkpt><trkpt lat="43.347055" lon="11.784795"><ele>275.0</ele><time>2026-04-27T15:14:15.473Z</time></trkpt><trkpt lat="43.347115" lon="11.78487"><ele>276.0</ele><time>2026-04-27T15:14:17.476Z</time></trkpt><trkpt lat="43.347175" lon="11.784945"><ele>277.0</ele><time>2026-04-27T15:14:19.479Z</time></trkpt><trkpt lat="43.3472367" lon="11.785035"><ele>278.0</ele><time>2026-04-27T15:14:21.474Z</time></trkpt><trkpt lat="43.3472917" lon="11.7851267"><ele>278.6666666666667</ele><time>2026-04-27T15:14:23.473Z</time></trkpt><trkpt lat="43.3473433" lon="11.78521"><ele>279.33333333333337</ele><time>2026-04-27T15:14:25.475Z</time></trkpt><trkpt lat="43.3473933" lon="11.7852867"><ele>280.0</ele><time>2026-04-27T15:14:27.471Z</time></trkpt><trkpt lat="43.3474417" lon="11.7853667"><ele>280.6666666666667</ele><time>2026-04-27T15:14:29.476Z</time></trkpt><trkpt lat="43.3474917" lon="11.78544"><ele>281.3333333333333</ele><time>2026-04-27T15:14:31.473Z</time></trkpt><trkpt lat="43.347545" lon="11.7855117"><ele>282.0</ele><time>2026-04-27T15:14:33.473Z</time></trkpt><trkpt lat="43.3475933" lon="11.78559"><ele>282.0</ele><time>2026-04-27T15:14:35.473Z</time></trkpt><trkpt lat="43.3476467" lon="11.785665"><ele>282.0</ele><time>2026-04-27T15:14:37.478Z</time></trkpt><trkpt lat="43.347695" lon="11.7857367"><ele>282.0</ele><time>2026-04-27T15:14:39.475Z</time></trkpt><trkpt lat="43.3477367" lon="11.78581"><ele>282.0</ele><time>2026-04-27T15:14:41.475Z</time></trkpt><trkpt lat="43.3477817" lon="11.7858717"><ele>282.0</ele><time>2026-04-27T15:14:43.475Z</time></trkpt><trkpt lat="43.347825" lon="11.785935"><ele>282.0</ele><time>2026-04-27T15:14:45.477Z</time></trkpt><trkpt lat="43.3478933" lon="11.7860317"><ele>282.0</ele><time>2026-04-27T15:14:48.477Z</time></trkpt><trkpt lat="43.3479467" lon="11.78611"><ele>282.8571428571429</ele><time>2026-04-27T15:14:50.476Z</time></trkpt><trkpt lat="43.348" lon="11.7861867"><ele>283.7142857142857</ele><time>2026-04-27T15:14:52.473Z</time></trkpt><trkpt lat="43.3480517" lon="11.7862517"><ele>284.57142857142856</ele><time>2026-04-27T15:14:54.476Z</time></trkpt><trkpt lat="43.3481017" lon="11.7863133"><ele>285.42857142857144</ele><time>2026-04-27T15:14:56.477Z</time></trkpt><trkpt lat="43.3481667" lon="11.7863933"><ele>286.2857142857143</ele><time>2026-04-27T15:14:59.475Z</time></trkpt><trkpt lat="43.3482133" lon="11.7864583"><ele>287.14285714285717</ele><time>2026-04-27T15:15:01.473Z</time></trkpt><trkpt lat="43.34827" lon="11.7865333"><ele>288.0</ele><time>2026-04-27T15:15:03.474Z</time></trkpt><trkpt lat="43.3483183" lon="11.7865967"><ele>288.00000000000006</ele><time>2026-04-27T15:15:05.473Z</time></trkpt><trkpt lat="43.3483633" lon="11.7866617"><ele>288.0</ele><time>2026-04-27T15:15:07.475Z</time></trkpt><trkpt lat="43.3484083" lon="11.786725"><ele>288.0</ele><time>2026-04-27T15:15:09.474Z</time></trkpt><trkpt lat="43.348455" lon="11.786815"><ele>288.0</ele><time>2026-04-27T15:15:11.472Z</time></trkpt><trkpt lat="43.3485" lon="11.78689"><ele>288.0</ele><time>2026-04-27T15:15:13.474Z</time></trkpt><trkpt lat="43.348545" lon="11.786965"><ele>288.00000000000006</ele><time>2026-04-27T15:15:15.475Z</time></trkpt><trkpt lat="43.3485967" lon="11.7870367"><ele>288.0</ele><time>2026-04-27T15:15:17.476Z</time></trkpt><trkpt lat="43.3486483" lon="11.7871117"><ele>288.42857142857144</ele><time>2026-04-27T15:15:19.476Z</time></trkpt><trkpt lat="43.34869" lon="11.7871967"><ele>288.8571428571429</ele><time>2026-04-27T15:15:21.474Z</time></trkpt><trkpt lat="43.348735" lon="11.787275"><ele>289.2857142857143</ele><time>2026-04-27T15:15:23.476Z</time></trkpt><trkpt lat="43.3487867" lon="11.7873467"><ele>289.7142857142857</ele><time>2026-04-27T15:15:25.474Z</time></trkpt><trkpt lat="43.3488367" lon="11.7874183"><ele>290.1428571428571</ele><time>2026-04-27T15:15:27.472Z</time></trkpt><trkpt lat="43.3488867" lon="11.787505"><ele>290.57142857142856</ele><time>2026-04-27T15:15:30.475Z</time></trkpt><trkpt lat="43.34892" lon="11.7875983"><ele>291.0</ele><time>2026-04-27T15:15:33.473Z</time></trkpt><trkpt lat="43.3489367" lon="11.787695"><ele>291.0</ele><time>2026-04-27T15:15:37.473Z</time></trkpt><trkpt lat="43.3489583" lon="11.787785"><ele>291.0</ele><time>2026-04-27T15:15:42.476Z</time></trkpt><trkpt lat="43.349" lon="11.7878817"><ele>291.0</ele><time>2026-04-27T15:15:47.474Z</time></trkpt><trkpt lat="43.34904" lon="11.78797"><ele>291.0</ele><time>2026-04-27T15:15:49.473Z</time></trkpt><trkpt lat="43.3490817" lon="11.7880833"><ele>291.0</ele><time>2026-04-27T15:15:51.474Z</time></trkpt><trkpt lat="43.3491217" lon="11.7881783"><ele>291.0</ele><time>2026-04-27T15:15:53.475Z</time></trkpt><trkpt lat="43.3491783" lon="11.78832"><ele>291.0</ele><time>2026-04-27T15:15:55.473Z</time></trkpt><trkpt lat="43.3491933" lon="11.7884283"><ele>291.0</ele><time>2026-04-27T15:15:58.474Z</time></trkpt><trkpt lat="43.3491217" lon="11.7884883"><ele>291.0</ele><time>2026-04-27T15:16:04.474Z</time></trkpt><trkpt lat="43.3490283" lon="11.788475"><ele>291.0</ele><time>2026-04-27T15:16:07.476Z</time></trkpt><trkpt lat="43.3489367" lon="11.788445"><ele>291.0</ele><time>2026-04-27T15:16:10.476Z</time></trkpt><trkpt lat="43.348845" lon="11.7884333"><ele>291.0</ele><time>2026-04-27T15:16:12.475Z</time></trkpt><trkpt lat="43.34875" lon="11.7884167"><ele>291.1666666666667</ele><time>2026-04-27T15:16:14.474Z</time></trkpt><trkpt lat="43.3486633" lon="11.7883933"><ele>291.3333333333333</ele><time>2026-04-27T15:16:16.474Z</time></trkpt><trkpt lat="43.3485833" lon="11.7883733"><ele>291.5</ele><time>2026-04-27T15:16:18.476Z</time></trkpt><trkpt lat="43.3485067" lon="11.78836"><ele>291.66666666666663</ele><time>2026-04-27T15:16:20.477Z</time></trkpt><trkpt lat="43.3484383" lon="11.7883367"><ele>291.8333333333333</ele><time>2026-04-27T15:16:22.473Z</time></trkpt><trkpt lat="43.3483633" lon="11.7883117"><ele>292.0</ele><time>2026-04-27T15:16:24.474Z</time></trkpt><trkpt lat="43.348295" lon="11.7882983"><ele>292.0</ele><time>2026-04-27T15:16:26.473Z</time></trkpt><trkpt lat="43.348215" lon="11.7882833"><ele>292.0</ele><time>2026-04-27T15:16:28.471Z</time></trkpt><trkpt lat="43.3481367" lon="11.7882717"><ele>292.0</ele><time>2026-04-27T15:16:30.473Z</time></trkpt><trkpt lat="43.3480517" lon="11.7882533"><ele>292.0</ele><time>2026-04-27T15:16:32.474Z</time></trkpt><trkpt lat="43.3479683" lon="11.7882367"><ele>292.0</ele><time>2026-04-27T15:16:34.474Z</time></trkpt><trkpt lat="43.347875" lon="11.7882083"><ele>292.0</ele><time>2026-04-27T15:16:36.473Z</time></trkpt><trkpt lat="43.347765" lon="11.7881717"><ele>291.0</ele><time>2026-04-27T15:16:38.476Z</time></trkpt><trkpt lat="43.3476517" lon="11.7881333"><ele>290.0</ele><time>2026-04-27T15:16:40.473Z</time></trkpt><trkpt lat="43.3475833" lon="11.7881067"><ele>289.0</ele><time>2026-04-27T15:16:41.474Z</time></trkpt><trkpt lat="43.3475167" lon="11.7880767"><ele>288.0</ele><time>2026-04-27T15:16:42.476Z</time></trkpt><trkpt lat="43.347455" lon="11.7880467"><ele>287.0</ele><time>2026-04-27T15:16:43.473Z</time></trkpt><trkpt lat="43.347395" lon="11.7880167"><ele>286.0</ele><time>2026-04-27T15:16:44.474Z</time></trkpt><trkpt lat="43.34733" lon="11.78799"><ele>285.99999999999994</ele><time>2026-04-27T15:16:45.475Z</time></trkpt><trkpt lat="43.3472633" lon="11.7879617"><ele>286.0</ele><time>2026-04-27T15:16:46.474Z</time></trkpt><trkpt lat="43.3471967" lon="11.7879383"><ele>286.0</ele><time>2026-04-27T15:16:47.472Z</time></trkpt><trkpt lat="43.34713" lon="11.7879133"><ele>286.0</ele><time>2026-04-27T15:16:48.474Z</time></trkpt><trkpt lat="43.347065" lon="11.787885"><ele>286.0</ele><time>2026-04-27T15:16:49.472Z</time></trkpt><trkpt lat="43.3470017" lon="11.787865"><ele>285.99999999999994</ele><time>2026-04-27T15:16:50.477Z</time></trkpt><trkpt lat="43.34694" lon="11.7878433"><ele>286.0</ele><time>2026-04-27T15:16:51.476Z</time></trkpt><trkpt lat="43.3468217" lon="11.7878033"><ele>286.16666666666663</ele><time>2026-04-27T15:16:53.474Z</time></trkpt><trkpt lat="43.3467167" lon="11.7877767"><ele>286.3333333333333</ele><time>2026-04-27T15:16:55.479Z</time></trkpt><trkpt lat="43.3466267" lon="11.78775"><ele>286.5</ele><time>2026-04-27T15:16:57.474Z</time></trkpt><trkpt lat="43.34655" lon="11.787735"><ele>286.6666666666667</ele><time>2026-04-27T15:16:59.478Z</time></trkpt><trkpt lat="43.3464867" lon="11.7877233"><ele>286.83333333333337</ele><time>2026-04-27T15:17:01.476Z</time></trkpt><trkpt lat="43.3464083" lon="11.7876983"><ele>287.0</ele><time>2026-04-27T15:17:03.478Z</time></trkpt><trkpt lat="43.346345" lon="11.7876833"><ele>287.6666666666667</ele><time>2026-04-27T15:17:05.474Z</time></trkpt><trkpt lat="43.34626" lon="11.78767"><ele>288.33333333333337</ele><time>2026-04-27T15:17:08.475Z</time></trkpt><trkpt lat="43.3461867" lon="11.7876467"><ele>289.0</ele><time>2026-04-27T15:17:10.473Z</time></trkpt><trkpt lat="43.3461133" lon="11.7876133"><ele>289.6666666666667</ele><time>2026-04-27T15:17:12.477Z</time></trkpt><trkpt lat="43.3460333" lon="11.7875817"><ele>290.3333333333333</ele><time>2026-04-27T15:17:15.473Z</time></trkpt><trkpt lat="43.3459433" lon="11.78755"><ele>291.0</ele><time>2026-04-27T15:17:18.476Z</time></trkpt><trkpt lat="43.3458533" lon="11.7875383"><ele>291.0</ele><time>2026-04-27T15:17:21.476Z</time></trkpt><trkpt lat="43.34579" lon="11.7875167"><ele>291.0</ele><time>2026-04-27T15:17:23.474Z</time></trkpt><trkpt lat="43.3457167" lon="11.7874967"><ele>291.0</ele><time>2026-04-27T15:17:25.478Z</time></trkpt><trkpt lat="43.3456433" lon="11.78748"><ele>291.0</ele><time>2026-04-27T15:17:27.474Z</time></trkpt><trkpt lat="43.3455683" lon="11.787465"><ele>291.0</ele><time>2026-04-27T15:17:29.475Z</time></trkpt><trkpt lat="43.3454817" lon="11.7874433"><ele>291.0</ele><time>2026-04-27T15:17:31.473Z</time></trkpt><trkpt lat="43.3454083" lon="11.7874183"><ele>291.5</ele><time>2026-04-27T15:17:33.473Z</time></trkpt><trkpt lat="43.34534" lon="11.7873983"><ele>292.0</ele><time>2026-04-27T15:17:35.475Z</time></trkpt><trkpt lat="43.34527" lon="11.7873817"><ele>292.5</ele><time>2026-04-27T15:17:37.476Z</time></trkpt><trkpt lat="43.3451817" lon="11.7873583"><ele>293.0</ele><time>2026-04-27T15:17:40.474Z</time></trkpt><trkpt lat="43.3451" lon="11.7873367"><ele>293.5</ele><time>2026-04-27T15:17:43.476Z</time></trkpt><trkpt lat="43.3450267" lon="11.7873383"><ele>294.0</ele><time>2026-04-27T15:17:46.477Z</time></trkpt><trkpt lat="43.3449317" lon="11.7873583"><ele>294.0</ele><time>2026-04-27T15:17:49.474Z</time></trkpt><trkpt lat="43.3448617" lon="11.7873867"><ele>294.0</ele><time>2026-04-27T15:17:51.473Z</time></trkpt><trkpt lat="43.3447833" lon="11.7874083"><ele>294.0</ele><time>2026-04-27T15:17:53.474Z</time></trkpt><trkpt lat="43.34471" lon="11.7874283"><ele>294.0</ele><time>2026-04-27T15:17:55.474Z</time></trkpt><trkpt lat="43.3446417" lon="11.787445"><ele>294.0</ele><time>2026-04-27T15:17:57.477Z</time></trkpt><trkpt lat="43.3445767" lon="11.787465"><ele>294.0</ele><time>2026-04-27T15:17:59.474Z</time></trkpt><trkpt lat="43.3444883" lon="11.78748"><ele>294.3333333333333</ele><time>2026-04-27T15:18:02.474Z</time></trkpt><trkpt lat="43.3443933" lon="11.7874983"><ele>294.6666666666667</ele><time>2026-04-27T15:18:05.476Z</time></trkpt><trkpt lat="43.3443233" lon="11.7875117"><ele>295.0</ele><time>2026-04-27T15:18:07.475Z</time></trkpt><trkpt lat="43.3442333" lon="11.7875383"><ele>295.33333333333337</ele><time>2026-04-27T15:18:09.477Z</time></trkpt><trkpt lat="43.344145" lon="11.78755"><ele>295.6666666666667</ele><time>2026-04-27T15:18:11.477Z</time></trkpt><trkpt lat="43.3440617" lon="11.78757"><ele>296.0</ele><time>2026-04-27T15:18:13.472Z</time></trkpt><trkpt lat="43.3439783" lon="11.78759"><ele>296.0</ele><time>2026-04-27T15:18:15.476Z</time></trkpt><trkpt lat="43.3439017" lon="11.7876083"><ele>296.0</ele><time>2026-04-27T15:18:17.475Z</time></trkpt><trkpt lat="43.34383" lon="11.7876217"><ele>296.0</ele><time>2026-04-27T15:18:19.475Z</time></trkpt><trkpt lat="43.3437567" lon="11.787645"><ele>296.0</ele><time>2026-04-27T15:18:21.475Z</time></trkpt><trkpt lat="43.3436817" lon="11.7876633"><ele>296.0</ele><time>2026-04-27T15:18:23.476Z</time></trkpt><trkpt lat="43.3436017" lon="11.7876883"><ele>296.0</ele><time>2026-04-27T15:18:25.475Z</time></trkpt><trkpt lat="43.343535" lon="11.7877"><ele>296.0</ele><time>2026-04-27T15:18:27.475Z</time></trkpt><trkpt lat="43.3434683" lon="11.787705"><ele>296.0</ele><time>2026-04-27T15:18:29.475Z</time></trkpt><trkpt lat="43.34337" lon="11.7877133"><ele>296.0</ele><time>2026-04-27T15:18:32.474Z</time></trkpt><trkpt lat="43.3433" lon="11.7877133"><ele>296.0</ele><time>2026-04-27T15:18:34.473Z</time></trkpt><trkpt lat="43.3432233" lon="11.7876967"><ele>296.0</ele><time>2026-04-27T15:18:36.475Z</time></trkpt><trkpt lat="43.3431383" lon="11.7876733"><ele>296.0</ele><time>2026-04-27T15:18:39.475Z</time></trkpt><trkpt lat="43.3430683" lon="11.7876633"><ele>295.83333333333337</ele><time>2026-04-27T15:18:41.474Z</time></trkpt><trkpt lat="43.34298" lon="11.78766"><ele>295.6666666666667</ele><time>2026-04-27T15:18:43.471Z</time></trkpt><trkpt lat="43.3429067" lon="11.7876333"><ele>295.5</ele><time>2026-04-27T15:18:45.472Z</time></trkpt><trkpt lat="43.3428367" lon="11.7876067"><ele>295.3333333333333</ele><time>2026-04-27T15:18:47.472Z</time></trkpt><trkpt lat="43.3427667" lon="11.7875817"><ele>295.16666666666663</ele><time>2026-04-27T15:18:49.474Z</time></trkpt><trkpt lat="43.3426933" lon="11.7875483"><ele>295.0</ele><time>2026-04-27T15:18:51.472Z</time></trkpt><trkpt lat="43.3425767" lon="11.7875317"><ele>295.0</ele><time>2026-04-27T15:18:53.473Z</time></trkpt><trkpt lat="43.3424767" lon="11.7875017"><ele>295.0</ele><time>2026-04-27T15:18:55.473Z</time></trkpt><trkpt lat="43.3423917" lon="11.7874683"><ele>295.0</ele><time>2026-04-27T15:18:57.473Z</time></trkpt><trkpt lat="43.3423083" lon="11.7874467"><ele>295.0</ele><time>2026-04-27T15:18:59.475Z</time></trkpt><trkpt lat="43.3422283" lon="11.7874117"><ele>295.0</ele><time>2026-04-27T15:19:01.475Z</time></trkpt><trkpt lat="43.3421467" lon="11.7873817"><ele>295.0</ele><time>2026-04-27T15:19:03.478Z</time></trkpt><trkpt lat="43.3420633" lon="11.7873583"><ele>295.0</ele><time>2026-04-27T15:19:05.475Z</time></trkpt><trkpt lat="43.3419883" lon="11.7873333"><ele>295.0</ele><time>2026-04-27T15:19:07.481Z</time></trkpt><trkpt lat="43.3419117" lon="11.787275"><ele>295.0</ele><time>2026-04-27T15:19:09.475Z</time></trkpt><trkpt lat="43.3418883" lon="11.7871867"><ele>295.0</ele><time>2026-04-27T15:19:11.473Z</time></trkpt><trkpt lat="43.3419217" lon="11.787075"><ele>295.0</ele><time>2026-04-27T15:19:14.475Z</time></trkpt><trkpt lat="43.341935" lon="11.786985"><ele>295.0</ele><time>2026-04-27T15:19:16.474Z</time></trkpt><trkpt lat="43.3419433" lon="11.7868917"><ele>295.0</ele><time>2026-04-27T15:19:18.474Z</time></trkpt><trkpt lat="43.3419533" lon="11.7867917"><ele>295.0</ele><time>2026-04-27T15:19:20.474Z</time></trkpt><trkpt lat="43.3419683" lon="11.7866817"><ele>295.0</ele><time>2026-04-27T15:19:22.474Z</time></trkpt><trkpt lat="43.34198" lon="11.7865667"><ele>295.0</ele><time>2026-04-27T15:19:24.473Z</time></trkpt><trkpt lat="43.3419933" lon="11.78644"><ele>295.0</ele><time>2026-04-27T15:19:26.476Z</time></trkpt><trkpt lat="43.34201" lon="11.7863017"><ele>295.0</ele><time>2026-04-27T15:19:28.473Z</time></trkpt><trkpt lat="43.34203" lon="11.7861583"><ele>295.0</ele><time>2026-04-27T15:19:30.476Z</time></trkpt><trkpt lat="43.3420483" lon="11.7860167"><ele>295.0</ele><time>2026-04-27T15:19:32.474Z</time></trkpt><trkpt lat="43.3420667" lon="11.7858733"><ele>295.0</ele><time>2026-04-27T15:19:34.476Z</time></trkpt><trkpt lat="43.342085" lon="11.785735"><ele>295.0</ele><time>2026-04-27T15:19:36.472Z</time></trkpt><trkpt lat="43.3421017" lon="11.7855983"><ele>295.0</ele><time>2026-04-27T15:19:38.472Z</time></trkpt><trkpt lat="43.34212" lon="11.7854633"><ele>294.3333333333333</ele><time>2026-04-27T15:19:40.476Z</time></trkpt><trkpt lat="43.342135" lon="11.785345"><ele>293.66666666666663</ele><time>2026-04-27T15:19:42.477Z</time></trkpt><trkpt lat="43.3421467" lon="11.7852283"><ele>293.0</ele><time>2026-04-27T15:19:44.474Z</time></trkpt><trkpt lat="43.34216" lon="11.78511"><ele>292.3333333333333</ele><time>2026-04-27T15:19:46.473Z</time></trkpt><trkpt lat="43.342175" lon="11.7849967"><ele>291.6666666666667</ele><time>2026-04-27T15:19:48.473Z</time></trkpt><trkpt lat="43.3421883" lon="11.7848817"><ele>291.0</ele><time>2026-04-27T15:19:50.472Z</time></trkpt><trkpt lat="43.3422" lon="11.7847633"><ele>290.5</ele><time>2026-04-27T15:19:52.474Z</time></trkpt><trkpt lat="43.3422083" lon="11.7846383"><ele>290.0</ele><time>2026-04-27T15:19:54.475Z</time></trkpt><trkpt lat="43.3422233" lon="11.7845267"><ele>289.5</ele><time>2026-04-27T15:19:56.476Z</time></trkpt><trkpt lat="43.3422367" lon="11.78442"><ele>289.0</ele><time>2026-04-27T15:19:58.476Z</time></trkpt><trkpt lat="43.3422483" lon="11.7843217"><ele>288.5</ele><time>2026-04-27T15:20:00.474Z</time></trkpt><trkpt lat="43.3422583" lon="11.7842233"><ele>288.0</ele><time>2026-04-27T15:20:02.477Z</time></trkpt><trkpt lat="43.342265" lon="11.784135"><ele>289.0</ele><time>2026-04-27T15:20:04.474Z</time></trkpt><trkpt lat="43.342275" lon="11.7840433"><ele>290.0</ele><time>2026-04-27T15:20:06.473Z</time></trkpt><trkpt lat="43.3422817" lon="11.7839517"><ele>291.0</ele><time>2026-04-27T15:20:08.476Z</time></trkpt><trkpt lat="43.3422933" lon="11.7838583"><ele>292.0</ele><time>2026-04-27T15:20:10.474Z</time></trkpt><trkpt lat="43.3422983" lon="11.7837633"><ele>293.0</ele><time>2026-04-27T15:20:12.474Z</time></trkpt><trkpt lat="43.3423017" lon="11.78364"><ele>294.0</ele><time>2026-04-27T15:20:15.476Z</time></trkpt><trkpt lat="43.3423083" lon="11.78352"><ele>294.5</ele><time>2026-04-27T15:20:18.474Z</time></trkpt><trkpt lat="43.3423183" lon="11.7834"><ele>295.0</ele><time>2026-04-27T15:20:21.474Z</time></trkpt><trkpt lat="43.3423517" lon="11.7832733"><ele>295.5</ele><time>2026-04-27T15:20:24.474Z</time></trkpt><trkpt lat="43.34239" lon="11.7831733"><ele>296.0</ele><time>2026-04-27T15:20:27.473Z</time></trkpt><trkpt lat="43.3424233" lon="11.783095"><ele>296.5</ele><time>2026-04-27T15:20:30.475Z</time></trkpt><trkpt lat="43.3424517" lon="11.783005"><ele>297.0</ele><time>2026-04-27T15:20:33.473Z</time></trkpt><trkpt lat="43.3424967" lon="11.78291"><ele>297.0</ele><time>2026-04-27T15:20:36.474Z</time></trkpt><trkpt lat="43.3425367" lon="11.7828317"><ele>297.0</ele><time>2026-04-27T15:20:38.473Z</time></trkpt><trkpt lat="43.3425817" lon="11.7827467"><ele>297.0</ele><time>2026-04-27T15:20:40.473Z</time></trkpt><trkpt lat="43.3426267" lon="11.7826417"><ele>297.0</ele><time>2026-04-27T15:20:43.472Z</time></trkpt><trkpt lat="43.3426733" lon="11.7825433"><ele>297.0</ele><time>2026-04-27T15:20:46.475Z</time></trkpt><trkpt lat="43.3427067" lon="11.782445"><ele>297.0</ele><time>2026-04-27T15:20:49.473Z</time></trkpt><trkpt lat="43.3427467" lon="11.7823333"><ele>297.0</ele><time>2026-04-27T15:20:52.473Z</time></trkpt><trkpt lat="43.342785" lon="11.7822133"><ele>297.0</ele><time>2026-04-27T15:20:55.473Z</time></trkpt><trkpt lat="43.34283" lon="11.7821167"><ele>297.0</ele><time>2026-04-27T15:20:58.475Z</time></trkpt><trkpt lat="43.3427683" lon="11.7821917"><ele>297.0</ele><time>2026-04-27T15:21:25.474Z</time></trkpt><trkpt lat="43.3427283" lon="11.782285"><ele>297.0</ele><time>2026-04-27T15:21:29.473Z</time></trkpt><trkpt lat="43.3426933" lon="11.78238"><ele>297.0</ele><time>2026-04-27T15:21:33.475Z</time></trkpt><trkpt lat="43.3426367" lon="11.78245"><ele>297.0</ele><time>2026-04-27T15:21:38.477Z</time></trkpt><trkpt lat="43.3425667" lon="11.7824233"><ele>297.0</ele><time>2026-04-27T15:21:43.479Z</time></trkpt><trkpt lat="43.342495" lon="11.7823717"><ele>297.0</ele><time>2026-04-27T15:21:47.473Z</time></trkpt><trkpt lat="43.3424367" lon="11.7823183"><ele>297.0</ele><time>2026-04-27T15:21:50.474Z</time></trkpt><trkpt lat="43.342375" lon="11.7822667"><ele>297.0</ele><time>2026-04-27T15:21:53.472Z</time></trkpt><trkpt lat="43.3423083" lon="11.7822183"><ele>297.0</ele><time>2026-04-27T15:21:56.474Z</time></trkpt><trkpt lat="43.3422267" lon="11.7821583"><ele>296.0</ele><time>2026-04-27T15:21:59.473Z</time></trkpt><trkpt lat="43.342165" lon="11.7821167"><ele>295.0</ele><time>2026-04-27T15:22:01.476Z</time></trkpt><trkpt lat="43.3420817" lon="11.7820683"><ele>294.0</ele><time>2026-04-27T15:22:03.475Z</time></trkpt><trkpt lat="43.3419917" lon="11.7820267"><ele>293.0</ele><time>2026-04-27T15:22:05.472Z</time></trkpt><trkpt lat="43.3419217" lon="11.781985"><ele>292.0</ele><time>2026-04-27T15:22:08.478Z</time></trkpt><trkpt lat="43.341845" lon="11.781925"><ele>291.0</ele><time>2026-04-27T15:22:11.473Z</time></trkpt><trkpt lat="43.3418233" lon="11.78182"><ele>290.85714285714283</ele><time>2026-04-27T15:22:15.473Z</time></trkpt><trkpt lat="43.34185" lon="11.78173"><ele>290.71428571428567</ele><time>2026-04-27T15:22:18.475Z</time></trkpt><trkpt lat="43.34188" lon="11.7816467"><ele>290.57142857142856</ele><time>2026-04-27T15:22:21.476Z</time></trkpt><trkpt lat="43.3419133" lon="11.7815567"><ele>290.42857142857144</ele><time>2026-04-27T15:22:24.473Z</time></trkpt><trkpt lat="43.3419383" lon="11.7814617"><ele>290.28571428571433</ele><time>2026-04-27T15:22:27.475Z</time></trkpt><trkpt lat="43.3419683" lon="11.781385"><ele>290.14285714285717</ele><time>2026-04-27T15:22:30.472Z</time></trkpt><trkpt lat="43.3420017" lon="11.7812967"><ele>290.0</ele><time>2026-04-27T15:22:33.475Z</time></trkpt><trkpt lat="43.34204" lon="11.7812133"><ele>290.0</ele><time>2026-04-27T15:22:36.475Z</time></trkpt><trkpt lat="43.342075" lon="11.7811183"><ele>290.0</ele><time>2026-04-27T15:22:40.474Z</time></trkpt><trkpt lat="43.3420867" lon="11.7810083"><ele>290.0</ele><time>2026-04-27T15:22:44.474Z</time></trkpt><trkpt lat="43.3420567" lon="11.7809067"><ele>290.0</ele><time>2026-04-27T15:22:47.476Z</time></trkpt><trkpt lat="43.3419667" lon="11.7807983"><ele>290.0</ele><time>2026-04-27T15:24:04.473Z</time></trkpt><trkpt lat="43.341915" lon="11.78074"><ele>290.0</ele><time>2026-04-27T15:24:06.473Z</time></trkpt><trkpt lat="43.3418667" lon="11.7806783"><ele>289.6666666666667</ele><time>2026-04-27T15:24:08.473Z</time></trkpt><trkpt lat="43.3418117" lon="11.7806117"><ele>289.33333333333337</ele><time>2026-04-27T15:24:10.474Z</time></trkpt><trkpt lat="43.34176" lon="11.7805417"><ele>289.0</ele><time>2026-04-27T15:24:12.477Z</time></trkpt><trkpt lat="43.3417067" lon="11.7804633"><ele>288.6666666666667</ele><time>2026-04-27T15:24:14.473Z</time></trkpt><trkpt lat="43.3416517" lon="11.780385"><ele>288.3333333333333</ele><time>2026-04-27T15:24:16.474Z</time></trkpt><trkpt lat="43.341585" lon="11.7802967"><ele>288.0</ele><time>2026-04-27T15:24:18.475Z</time></trkpt><trkpt lat="43.341525" lon="11.7802283"><ele>288.0</ele><time>2026-04-27T15:24:20.472Z</time></trkpt><trkpt lat="43.341465" lon="11.780155"><ele>288.0</ele><time>2026-04-27T15:24:22.474Z</time></trkpt><trkpt lat="43.3414033" lon="11.7800783"><ele>288.0</ele><time>2026-04-27T15:24:24.48Z</time></trkpt><trkpt lat="43.3413417" lon="11.78"><ele>288.0</ele><time>2026-04-27T15:24:26.478Z</time></trkpt><trkpt lat="43.3412733" lon="11.7799233"><ele>288.0</ele><time>2026-04-27T15:24:28.474Z</time></trkpt><trkpt lat="43.34121" lon="11.7798433"><ele>288.0</ele><time>2026-04-27T15:24:30.476Z</time></trkpt><trkpt lat="43.341145" lon="11.7797683"><ele>287.1666666666667</ele><time>2026-04-27T15:24:32.475Z</time></trkpt><trkpt lat="43.3410867" lon="11.7796917"><ele>286.3333333333333</ele><time>2026-04-27T15:24:34.476Z</time></trkpt><trkpt lat="43.3410283" lon="11.7796317"><ele>285.5</ele><time>2026-04-27T15:24:36.473Z</time></trkpt><trkpt lat="43.3409533" lon="11.7795433"><ele>284.66666666666663</ele><time>2026-04-27T15:24:39.475Z</time></trkpt><trkpt lat="43.34088" lon="11.7794717"><ele>283.8333333333333</ele><time>2026-04-27T15:24:42.477Z</time></trkpt><trkpt lat="43.34081" lon="11.7793917"><ele>283.0</ele><time>2026-04-27T15:24:45.473Z</time></trkpt><trkpt lat="43.34075" lon="11.7793083"><ele>283.0</ele><time>2026-04-27T15:24:48.476Z</time></trkpt><trkpt lat="43.3406783" lon="11.7792217"><ele>283.0</ele><time>2026-04-27T15:24:51.478Z</time></trkpt><trkpt lat="43.3406117" lon="11.7791317"><ele>283.0</ele><time>2026-04-27T15:24:54.479Z</time></trkpt><trkpt lat="43.340565" lon="11.7790683"><ele>283.0</ele><time>2026-04-27T15:24:56.474Z</time></trkpt><trkpt lat="43.3405083" lon="11.7790067"><ele>283.0</ele><time>2026-04-27T15:24:58.475Z</time></trkpt><trkpt lat="43.34044" lon="11.7789383"><ele>283.0</ele><time>2026-04-27T15:25:00.475Z</time></trkpt><trkpt lat="43.34038" lon="11.7788717"><ele>282.5</ele><time>2026-04-27T15:25:02.478Z</time></trkpt><trkpt lat="43.340325" lon="11.7788"><ele>282.0</ele><time>2026-04-27T15:25:04.474Z</time></trkpt><trkpt lat="43.3402617" lon="11.778725"><ele>281.5</ele><time>2026-04-27T15:25:06.474Z</time></trkpt><trkpt lat="43.3402133" lon="11.7786633"><ele>281.0</ele><time>2026-04-27T15:25:09.476Z</time></trkpt><trkpt lat="43.3401683" lon="11.77879"><ele>280.5</ele><time>2026-04-27T15:25:30.472Z</time></trkpt><trkpt lat="43.3402017" lon="11.7786783"><ele>280.0</ele><time>2026-04-27T15:26:58.471Z</time></trkpt><trkpt lat="43.340145" lon="11.7786083"><ele>279.0</ele><time>2026-04-27T15:27:11.471Z</time></trkpt><trkpt lat="43.3400767" lon="11.7785133"><ele>278.0</ele><time>2026-04-27T15:27:14.475Z</time></trkpt><trkpt lat="43.3400167" lon="11.7784217"><ele>277.0</ele><time>2026-04-27T15:27:17.477Z</time></trkpt><trkpt lat="43.3399667" lon="11.77836"><ele>276.0</ele><time>2026-04-27T15:27:19.477Z</time></trkpt><trkpt lat="43.3399067" lon="11.7782983"><ele>275.0</ele><time>2026-04-27T15:27:21.472Z</time></trkpt><trkpt lat="43.33985" lon="11.77823"><ele>274.0</ele><time>2026-04-27T15:27:23.479Z</time></trkpt><trkpt lat="43.3397933" lon="11.778155"><ele>274.0</ele><time>2026-04-27T15:27:25.476Z</time></trkpt><trkpt lat="43.33973" lon="11.7780717"><ele>274.0</ele><time>2026-04-27T15:27:27.473Z</time></trkpt><trkpt lat="43.3396583" lon="11.7779933"><ele>274.0</ele><time>2026-04-27T15:27:29.474Z</time></trkpt><trkpt lat="43.3395917" lon="11.7779183"><ele>274.0</ele><time>2026-04-27T15:27:31.476Z</time></trkpt><trkpt lat="43.339535" lon="11.77785"><ele>274.0</ele><time>2026-04-27T15:27:33.477Z</time></trkpt><trkpt lat="43.33948" lon="11.7777883"><ele>274.0</ele><time>2026-04-27T15:27:35.479Z</time></trkpt><trkpt lat="43.3394267" lon="11.77772"><ele>273.16666666666663</ele><time>2026-04-27T15:27:37.476Z</time></trkpt><trkpt lat="43.3393717" lon="11.7776517"><ele>272.3333333333333</ele><time>2026-04-27T15:27:39.477Z</time></trkpt><trkpt lat="43.3393133" lon="11.777585"><ele>271.5</ele><time>2026-04-27T15:27:41.478Z</time></trkpt><trkpt lat="43.339255" lon="11.7775167"><ele>270.6666666666667</ele><time>2026-04-27T15:27:43.473Z</time></trkpt><trkpt lat="43.339195" lon="11.7774467"><ele>269.83333333333337</ele><time>2026-04-27T15:27:45.476Z</time></trkpt><trkpt lat="43.3391317" lon="11.77737"><ele>269.0</ele><time>2026-04-27T15:27:47.474Z</time></trkpt><trkpt lat="43.3390667" lon="11.7772983"><ele>269.0</ele><time>2026-04-27T15:27:49.474Z</time></trkpt><trkpt lat="43.339005" lon="11.7772183"><ele>269.0</ele><time>2026-04-27T15:27:51.479Z</time></trkpt><trkpt lat="43.3389367" lon="11.7771333"><ele>269.0</ele><time>2026-04-27T15:27:53.475Z</time></trkpt><trkpt lat="43.3388667" lon="11.777055"><ele>269.0</ele><time>2026-04-27T15:27:55.475Z</time></trkpt><trkpt lat="43.3388017" lon="11.7769767"><ele>269.0</ele><time>2026-04-27T15:27:57.474Z</time></trkpt><trkpt lat="43.3387417" lon="11.7769067"><ele>269.0</ele><time>2026-04-27T15:27:59.473Z</time></trkpt><trkpt lat="43.3386867" lon="11.7768317"><ele>268.5</ele><time>2026-04-27T15:28:02.479Z</time></trkpt><trkpt lat="43.338615" lon="11.776805"><ele>268.0</ele><time>2026-04-27T15:29:02.475Z</time></trkpt><trkpt lat="43.3385467" lon="11.7768533"><ele>267.5</ele><time>2026-04-27T15:29:06.473Z</time></trkpt><trkpt lat="43.338475" lon="11.7769033"><ele>267.0</ele><time>2026-04-27T15:29:10.471Z</time></trkpt><trkpt lat="43.3384183" lon="11.77695"><ele>266.5</ele><time>2026-04-27T15:29:14.474Z</time></trkpt><trkpt lat="43.338345" lon="11.7769833"><ele>266.0</ele><time>2026-04-27T15:29:19.475Z</time></trkpt><trkpt lat="43.3382733" lon="11.7770167"><ele>266.0</ele><time>2026-04-27T15:29:22.474Z</time></trkpt><trkpt lat="43.338195" lon="11.7770517"><ele>266.0</ele><time>2026-04-27T15:29:25.476Z</time></trkpt><trkpt lat="43.3381267" lon="11.7770833"><ele>266.0</ele><time>2026-04-27T15:29:28.476Z</time></trkpt><trkpt lat="43.338055" lon="11.7771133"><ele>266.0</ele><time>2026-04-27T15:29:31.475Z</time></trkpt><trkpt lat="43.3379767" lon="11.7771483"><ele>266.0</ele><time>2026-04-27T15:29:35.474Z</time></trkpt><trkpt lat="43.3379067" lon="11.7771833"><ele>266.0</ele><time>2026-04-27T15:29:38.476Z</time></trkpt><trkpt lat="43.3378267" lon="11.7772167"><ele>265.33333333333337</ele><time>2026-04-27T15:29:41.474Z</time></trkpt><trkpt lat="43.3377483" lon="11.77725"><ele>264.6666666666667</ele><time>2026-04-27T15:29:44.473Z</time></trkpt><trkpt lat="43.33768" lon="11.777275"><ele>264.0</ele><time>2026-04-27T15:29:47.476Z</time></trkpt><trkpt lat="43.337605" lon="11.77731"><ele>263.3333333333333</ele><time>2026-04-27T15:29:50.475Z</time></trkpt><trkpt lat="43.33753" lon="11.777345"><ele>262.66666666666663</ele><time>2026-04-27T15:29:53.476Z</time></trkpt><trkpt lat="43.33745" lon="11.7773867"><ele>262.0</ele><time>2026-04-27T15:29:56.477Z</time></trkpt><trkpt lat="43.3373683" lon="11.7774283"><ele>262.0</ele><time>2026-04-27T15:29:59.474Z</time></trkpt><trkpt lat="43.337295" lon="11.7774617"><ele>262.0</ele><time>2026-04-27T15:30:02.477Z</time></trkpt><trkpt lat="43.3372267" lon="11.7774983"><ele>262.0</ele><time>2026-04-27T15:30:05.473Z</time></trkpt><trkpt lat="43.3371517" lon="11.777535"><ele>262.0</ele><time>2026-04-27T15:30:09.477Z</time></trkpt><trkpt lat="43.337085" lon="11.7775683"><ele>262.0</ele><time>2026-04-27T15:30:12.477Z</time></trkpt><trkpt lat="43.33701" lon="11.7775917"><ele>262.0</ele><time>2026-04-27T15:30:15.477Z</time></trkpt><trkpt lat="43.3369467" lon="11.777615"><ele>262.0</ele><time>2026-04-27T15:30:18.472Z</time></trkpt><trkpt lat="43.3368733" lon="11.7776283"><ele>261.66666666666663</ele><time>2026-04-27T15:30:22.47Z</time></trkpt><trkpt lat="43.3367917" lon="11.7776433"><ele>261.3333333333333</ele><time>2026-04-27T15:30:26.475Z</time></trkpt><trkpt lat="43.33673" lon="11.7776233"><ele>261.0</ele><time>2026-04-27T15:30:29.478Z</time></trkpt><trkpt lat="43.3366667" lon="11.7776167"><ele>260.6666666666667</ele><time>2026-04-27T15:30:32.477Z</time></trkpt><trkpt lat="43.336575" lon="11.7776"><ele>260.33333333333337</ele><time>2026-04-27T15:30:35.476Z</time></trkpt><trkpt lat="43.3364867" lon="11.7776233"><ele>260.0</ele><time>2026-04-27T15:30:38.474Z</time></trkpt><trkpt lat="43.3364083" lon="11.7776433"><ele>260.1666666666667</ele><time>2026-04-27T15:30:42.476Z</time></trkpt><trkpt lat="43.33633" lon="11.7776433"><ele>260.33333333333337</ele><time>2026-04-27T15:30:45.481Z</time></trkpt><trkpt lat="43.3362633" lon="11.77765"><ele>260.5</ele><time>2026-04-27T15:30:47.475Z</time></trkpt><trkpt lat="43.3361733" lon="11.7776617"><ele>260.6666666666667</ele><time>2026-04-27T15:30:50.475Z</time></trkpt><trkpt lat="43.33609" lon="11.7776617"><ele>260.8333333333333</ele><time>2026-04-27T15:30:53.472Z</time></trkpt><trkpt lat="43.336005" lon="11.7776667"><ele>261.0</ele><time>2026-04-27T15:30:56.475Z</time></trkpt><trkpt lat="43.335915" lon="11.777675"><ele>261.0</ele><time>2026-04-27T15:30:59.473Z</time></trkpt><trkpt lat="43.3358367" lon="11.7776783"><ele>261.0</ele><time>2026-04-27T15:31:02.473Z</time></trkpt><trkpt lat="43.3357633" lon="11.7776767"><ele>261.0</ele><time>2026-04-27T15:31:05.474Z</time></trkpt><trkpt lat="43.335695" lon="11.77767"><ele>261.0</ele><time>2026-04-27T15:31:08.475Z</time></trkpt><trkpt lat="43.3356267" lon="11.777675"><ele>261.0</ele><time>2026-04-27T15:31:11.474Z</time></trkpt><trkpt lat="43.3355583" lon="11.77769"><ele>261.0</ele><time>2026-04-27T15:31:14.475Z</time></trkpt><trkpt lat="43.335485" lon="11.777695"><ele>261.0</ele><time>2026-04-27T15:31:17.477Z</time></trkpt><trkpt lat="43.335415" lon="11.7777033"><ele>262.0</ele><time>2026-04-27T15:31:20.481Z</time></trkpt><trkpt lat="43.3353433" lon="11.77771"><ele>263.0</ele><time>2026-04-27T15:31:23.479Z</time></trkpt><trkpt lat="43.3352717" lon="11.7777267"><ele>264.0</ele><time>2026-04-27T15:31:26.475Z</time></trkpt><trkpt lat="43.3352033" lon="11.777735"><ele>265.0</ele><time>2026-04-27T15:31:29.474Z</time></trkpt><trkpt lat="43.335135" lon="11.777745"><ele>266.0</ele><time>2026-04-27T15:31:32.476Z</time></trkpt><trkpt lat="43.335065" lon="11.777755"><ele>267.0</ele><time>2026-04-27T15:31:36.475Z</time></trkpt><trkpt lat="43.3349883" lon="11.7777467"><ele>268.0</ele><time>2026-04-27T15:31:40.476Z</time></trkpt><trkpt lat="43.33492" lon="11.7777567"><ele>268.0</ele><time>2026-04-27T15:31:44.473Z</time></trkpt><trkpt lat="43.3348367" lon="11.777765"><ele>268.0</ele><time>2026-04-27T15:31:48.475Z</time></trkpt><trkpt lat="43.334765" lon="11.7777733"><ele>268.0</ele><time>2026-04-27T15:31:51.478Z</time></trkpt><trkpt lat="43.33469" lon="11.7777817"><ele>268.0</ele><time>2026-04-27T15:31:54.474Z</time></trkpt><trkpt lat="43.3346167" lon="11.7778017"><ele>268.0</ele><time>2026-04-27T15:31:57.476Z</time></trkpt><trkpt lat="43.334545" lon="11.7778333"><ele>268.0</ele><time>2026-04-27T15:32:00.486Z</time></trkpt><trkpt lat="43.3344767" lon="11.7778583"><ele>267.8571428571429</ele><time>2026-04-27T15:32:03.476Z</time></trkpt><trkpt lat="43.3344183" lon="11.777895"><ele>267.7142857142857</ele><time>2026-04-27T15:32:06.477Z</time></trkpt><trkpt lat="43.334355" lon="11.77793"><ele>267.57142857142856</ele><time>2026-04-27T15:32:10.473Z</time></trkpt><trkpt lat="43.33428" lon="11.7779517"><ele>267.42857142857144</ele><time>2026-04-27T15:32:14.474Z</time></trkpt><trkpt lat="43.3342033" lon="11.777965"><ele>267.2857142857143</ele><time>2026-04-27T15:32:17.476Z</time></trkpt><trkpt lat="43.3341483" lon="11.778015"><ele>267.14285714285717</ele><time>2026-04-27T15:32:21.476Z</time></trkpt><trkpt lat="43.3340833" lon="11.7780583"><ele>267.0</ele><time>2026-04-27T15:36:27.476Z</time></trkpt><trkpt lat="43.334015" lon="11.778085"><ele>267.00000000000006</ele><time>2026-04-27T15:36:30.475Z</time></trkpt><trkpt lat="43.33395" lon="11.778105"><ele>267.0</ele><time>2026-04-27T15:36:33.476Z</time></trkpt><trkpt lat="43.3338817" lon="11.7781367"><ele>267.0</ele><time>2026-04-27T15:36:36.475Z</time></trkpt><trkpt lat="43.3338133" lon="11.7781667"><ele>267.0</ele><time>2026-04-27T15:36:39.48Z</time></trkpt><trkpt lat="43.3337333" lon="11.7782017"><ele>267.0</ele><time>2026-04-27T15:36:43.476Z</time></trkpt><trkpt lat="43.3336683" lon="11.778245"><ele>267.00000000000006</ele><time>2026-04-27T15:36:46.478Z</time></trkpt><trkpt lat="43.3336033" lon="11.7782867"><ele>267.0</ele><time>2026-04-27T15:36:49.479Z</time></trkpt><trkpt lat="43.3335317" lon="11.778345"><ele>266.8333333333333</ele><time>2026-04-27T15:36:52.471Z</time></trkpt><trkpt lat="43.333455" lon="11.778415"><ele>266.6666666666667</ele><time>2026-04-27T15:36:55.474Z</time></trkpt><trkpt lat="43.3333867" lon="11.778475"><ele>266.5</ele><time>2026-04-27T15:36:59.475Z</time></trkpt><trkpt lat="43.3333183" lon="11.7785267"><ele>266.33333333333337</ele><time>2026-04-27T15:37:03.475Z</time></trkpt><trkpt lat="43.33326" lon="11.77857"><ele>266.1666666666667</ele><time>2026-04-27T15:37:06.474Z</time></trkpt><trkpt lat="43.3332033" lon="11.7786133"><ele>266.0</ele><time>2026-04-27T15:37:09.477Z</time></trkpt><trkpt lat="43.3331417" lon="11.7786683"><ele>266.0</ele><time>2026-04-27T15:37:13.474Z</time></trkpt><trkpt lat="43.3331033" lon="11.7787483"><ele>266.0</ele><time>2026-04-27T15:37:42.472Z</time></trkpt><trkpt lat="43.3330483" lon="11.7788083"><ele>266.0</ele><time>2026-04-27T15:37:46.474Z</time></trkpt><trkpt lat="43.3329917" lon="11.7788567"><ele>266.0</ele><time>2026-04-27T15:37:50.469Z</time></trkpt><trkpt lat="43.3329283" lon="11.77891"><ele>266.0</ele><time>2026-04-27T15:37:54.472Z</time></trkpt><trkpt lat="43.3328733" lon="11.77897"><ele>266.0</ele><time>2026-04-27T15:37:57.475Z</time></trkpt><trkpt lat="43.3328267" lon="11.7790483"><ele>266.0</ele><time>2026-04-27T15:38:01.474Z</time></trkpt><trkpt lat="43.3327783" lon="11.77911"><ele>265.85714285714283</ele><time>2026-04-27T15:38:04.475Z</time></trkpt><trkpt lat="43.3327183" lon="11.779185"><ele>265.7142857142857</ele><time>2026-04-27T15:38:08.475Z</time></trkpt><trkpt lat="43.3326633" lon="11.7792317"><ele>265.57142857142856</ele><time>2026-04-27T15:38:11.474Z</time></trkpt><trkpt lat="43.3325933" lon="11.7792767"><ele>265.42857142857144</ele><time>2026-04-27T15:38:15.477Z</time></trkpt><trkpt lat="43.3325317" lon="11.7793283"><ele>265.2857142857143</ele><time>2026-04-27T15:38:19.476Z</time></trkpt><trkpt lat="43.3324717" lon="11.7793667"><ele>265.1428571428571</ele><time>2026-04-27T15:38:22.48Z</time></trkpt><trkpt lat="43.3323917" lon="11.7794067"><ele>265.0</ele><time>2026-04-27T15:38:26.48Z</time></trkpt><trkpt lat="43.3323267" lon="11.7794367"><ele>265.2857142857143</ele><time>2026-04-27T15:38:29.476Z</time></trkpt><trkpt lat="43.332265" lon="11.7794833"><ele>265.57142857142856</ele><time>2026-04-27T15:38:32.475Z</time></trkpt><trkpt lat="43.33219" lon="11.7795233"><ele>265.8571428571429</ele><time>2026-04-27T15:38:36.476Z</time></trkpt><trkpt lat="43.33213" lon="11.7795717"><ele>266.1428571428571</ele><time>2026-04-27T15:38:39.475Z</time></trkpt><trkpt lat="43.332075" lon="11.77962"><ele>266.42857142857144</ele><time>2026-04-27T15:38:42.476Z</time></trkpt><trkpt lat="43.3320133" lon="11.7796567"><ele>266.7142857142857</ele><time>2026-04-27T15:38:45.475Z</time></trkpt><trkpt lat="43.3319517" lon="11.7796933"><ele>267.0</ele><time>2026-04-27T15:38:48.477Z</time></trkpt><trkpt lat="43.3318883" lon="11.77973"><ele>267.00000000000006</ele><time>2026-04-27T15:38:51.48Z</time></trkpt><trkpt lat="43.331825" lon="11.7797717"><ele>267.0</ele><time>2026-04-27T15:38:54.475Z</time></trkpt><trkpt lat="43.3317667" lon="11.779805"><ele>267.0</ele><time>2026-04-27T15:38:57.474Z</time></trkpt><trkpt lat="43.3316933" lon="11.7798383"><ele>267.0</ele><time>2026-04-27T15:39:01.475Z</time></trkpt><trkpt lat="43.331625" lon="11.779855"><ele>267.0</ele><time>2026-04-27T15:39:05.475Z</time></trkpt><trkpt lat="43.331565" lon="11.7798833"><ele>267.00000000000006</ele><time>2026-04-27T15:39:08.476Z</time></trkpt><trkpt lat="43.3314967" lon="11.7799133"><ele>267.0</ele><time>2026-04-27T15:39:11.478Z</time></trkpt><trkpt lat="43.3314283" lon="11.779925"><ele>267.14285714285717</ele><time>2026-04-27T15:39:14.477Z</time></trkpt><trkpt lat="43.3313417" lon="11.7799433"><ele>267.2857142857143</ele><time>2026-04-27T15:39:18.474Z</time></trkpt><trkpt lat="43.3312767" lon="11.77995"><ele>267.42857142857144</ele><time>2026-04-27T15:39:21.484Z</time></trkpt><trkpt lat="43.3312" lon="11.77996"><ele>267.57142857142856</ele><time>2026-04-27T15:39:25.477Z</time></trkpt><trkpt lat="43.331135" lon="11.7799667"><ele>267.7142857142857</ele><time>2026-04-27T15:39:28.472Z</time></trkpt><trkpt lat="43.3310633" lon="11.7799667"><ele>267.8571428571429</ele><time>2026-04-27T15:39:32.476Z</time></trkpt><trkpt lat="43.3310017" lon="11.779935"><ele>268.0</ele><time>2026-04-27T15:39:36.474Z</time></trkpt><trkpt lat="43.330935" lon="11.7798933"><ele>268.0</ele><time>2026-04-27T15:39:39.474Z</time></trkpt><trkpt lat="43.3308733" lon="11.779865"><ele>268.0</ele><time>2026-04-27T15:39:42.475Z</time></trkpt><trkpt lat="43.3308033" lon="11.779825"><ele>268.0</ele><time>2026-04-27T15:39:46.476Z</time></trkpt><trkpt lat="43.33073" lon="11.779785"><ele>268.0</ele><time>2026-04-27T15:39:50.477Z</time></trkpt><trkpt lat="43.3306617" lon="11.7797483"><ele>268.0</ele><time>2026-04-27T15:39:54.479Z</time></trkpt><trkpt lat="43.33059" lon="11.7797133"><ele>268.0</ele><time>2026-04-27T15:39:58.475Z</time></trkpt><trkpt lat="43.3305283" lon="11.7796817"><ele>268.0</ele><time>2026-04-27T15:40:02.476Z</time></trkpt><trkpt lat="43.33047" lon="11.7796483"><ele>268.57142857142856</ele><time>2026-04-27T15:40:12.48Z</time></trkpt><trkpt lat="43.3304067" lon="11.7796583"><ele>269.1428571428571</ele><time>2026-04-27T15:40:19.477Z</time></trkpt><trkpt lat="43.3303717" lon="11.7797317"><ele>269.71428571428567</ele><time>2026-04-27T15:40:26.477Z</time></trkpt><trkpt lat="43.33038" lon="11.7796317"><ele>270.2857142857143</ele><time>2026-04-27T15:41:09.477Z</time></trkpt><trkpt lat="43.33032" lon="11.7795717"><ele>270.85714285714283</ele><time>2026-04-27T15:41:13.472Z</time></trkpt><trkpt lat="43.3302383" lon="11.7795517"><ele>271.4285714285714</ele><time>2026-04-27T15:41:17.474Z</time></trkpt><trkpt lat="43.330165" lon="11.7795383"><ele>272.0</ele><time>2026-04-27T15:41:21.477Z</time></trkpt><trkpt lat="43.3300933" lon="11.7795317"><ele>271.99999999999994</ele><time>2026-04-27T15:41:24.476Z</time></trkpt><trkpt lat="43.3300267" lon="11.7795233"><ele>272.0</ele><time>2026-04-27T15:41:27.473Z</time></trkpt><trkpt lat="43.32996" lon="11.7795117"><ele>272.0</ele><time>2026-04-27T15:41:30.479Z</time></trkpt><trkpt lat="43.3298767" lon="11.779495"><ele>272.0</ele><time>2026-04-27T15:41:34.479Z</time></trkpt><trkpt lat="43.3298017" lon="11.779485"><ele>272.0</ele><time>2026-04-27T15:41:38.473Z</time></trkpt><trkpt lat="43.3297317" lon="11.7794817"><ele>271.99999999999994</ele><time>2026-04-27T15:41:41.472Z</time></trkpt><trkpt lat="43.3296683" lon="11.7794667"><ele>272.0</ele><time>2026-04-27T15:41:44.477Z</time></trkpt><trkpt lat="43.3295933" lon="11.7794417"><ele>272.83333333333337</ele><time>2026-04-27T15:41:48.477Z</time></trkpt><trkpt lat="43.3295167" lon="11.7794033"><ele>273.6666666666667</ele><time>2026-04-27T15:41:52.474Z</time></trkpt><trkpt lat="43.329445" lon="11.7793767"><ele>274.5</ele><time>2026-04-27T15:41:56.477Z</time></trkpt><trkpt lat="43.3293733" lon="11.7793517"><ele>275.3333333333333</ele><time>2026-04-27T15:42:00.475Z</time></trkpt><trkpt lat="43.3293067" lon="11.7793267"><ele>276.16666666666663</ele><time>2026-04-27T15:42:04.475Z</time></trkpt><trkpt lat="43.32924" lon="11.7792933"><ele>277.0</ele><time>2026-04-27T15:42:08.475Z</time></trkpt><trkpt lat="43.3291633" lon="11.7792567"><ele>277.42857142857144</ele><time>2026-04-27T15:42:12.474Z</time></trkpt><trkpt lat="43.3291017" lon="11.7792267"><ele>277.85714285714283</ele><time>2026-04-27T15:42:15.476Z</time></trkpt><trkpt lat="43.3290317" lon="11.7791917"><ele>278.2857142857143</ele><time>2026-04-27T15:42:19.477Z</time></trkpt><trkpt lat="43.32896" lon="11.7791467"><ele>278.7142857142857</ele><time>2026-04-27T15:42:23.476Z</time></trkpt><trkpt lat="43.32889" lon="11.779095"><ele>279.1428571428571</ele><time>2026-04-27T15:42:27.473Z</time></trkpt><trkpt lat="43.3288317" lon="11.779045"><ele>279.57142857142856</ele><time>2026-04-27T15:42:31.479Z</time></trkpt><trkpt lat="43.32876" lon="11.7790217"><ele>280.0</ele><time>2026-04-27T15:42:35.472Z</time></trkpt><trkpt lat="43.3286917" lon="11.778985"><ele>281.2857142857143</ele><time>2026-04-27T15:42:39.475Z</time></trkpt><trkpt lat="43.32862" lon="11.7789483"><ele>282.57142857142856</ele><time>2026-04-27T15:42:43.476Z</time></trkpt><trkpt lat="43.3285517" lon="11.7789183"><ele>283.8571428571429</ele><time>2026-04-27T15:42:47.473Z</time></trkpt><trkpt lat="43.3284867" lon="11.7788783"><ele>285.1428571428571</ele><time>2026-04-27T15:42:51.477Z</time></trkpt><trkpt lat="43.3284183" lon="11.778845"><ele>286.42857142857144</ele><time>2026-04-27T15:42:55.478Z</time></trkpt><trkpt lat="43.3283533" lon="11.7788033"><ele>287.7142857142857</ele><time>2026-04-27T15:42:59.477Z</time></trkpt><trkpt lat="43.3282917" lon="11.778755"><ele>289.0</ele><time>2026-04-27T15:43:03.475Z</time></trkpt><trkpt lat="43.328235" lon="11.7787117"><ele>289.0</ele><time>2026-04-27T15:43:07.474Z</time></trkpt><trkpt lat="43.32817" lon="11.7786867"><ele>289.0</ele><time>2026-04-27T15:43:11.473Z</time></trkpt><trkpt lat="43.3280917" lon="11.77867"><ele>289.0</ele><time>2026-04-27T15:43:16.473Z</time></trkpt><trkpt lat="43.3280217" lon="11.7786617"><ele>289.0</ele><time>2026-04-27T15:43:20.477Z</time></trkpt><trkpt lat="43.32796" lon="11.7786383"><ele>289.0</ele><time>2026-04-27T15:43:24.477Z</time></trkpt><trkpt lat="43.3278983" lon="11.7785883"><ele>289.0</ele><time>2026-04-27T15:43:30.477Z</time></trkpt><trkpt lat="43.32784" lon="11.77853"><ele>289.0</ele><time>2026-04-27T15:43:35.475Z</time></trkpt><trkpt lat="43.327765" lon="11.7785367"><ele>290.0</ele><time>2026-04-27T15:43:39.477Z</time></trkpt><trkpt lat="43.3277017" lon="11.77855"><ele>291.0</ele><time>2026-04-27T15:43:42.477Z</time></trkpt><trkpt lat="43.3276317" lon="11.778595"><ele>292.0</ele><time>2026-04-27T15:43:46.473Z</time></trkpt><trkpt lat="43.32758" lon="11.7786533"><ele>293.0</ele><time>2026-04-27T15:43:50.477Z</time></trkpt><trkpt lat="43.327525" lon="11.7786967"><ele>294.0</ele><time>2026-04-27T15:43:54.479Z</time></trkpt><trkpt lat="43.3274483" lon="11.77873"><ele>295.0</ele><time>2026-04-27T15:43:59.476Z</time></trkpt><trkpt lat="43.3273767" lon="11.7787717"><ele>296.0</ele><time>2026-04-27T15:44:03.473Z</time></trkpt><trkpt lat="43.3273183" lon="11.7788167"><ele>296.0</ele><time>2026-04-27T15:44:07.473Z</time></trkpt><trkpt lat="43.327265" lon="11.7788817"><ele>296.0</ele><time>2026-04-27T15:44:11.473Z</time></trkpt><trkpt lat="43.3272183" lon="11.778985"><ele>296.0</ele><time>2026-04-27T15:44:15.478Z</time></trkpt><trkpt lat="43.3271767" lon="11.7790983"><ele>296.0</ele><time>2026-04-27T15:44:18.476Z</time></trkpt><trkpt lat="43.327145" lon="11.7791783"><ele>296.0</ele><time>2026-04-27T15:44:20.476Z</time></trkpt><trkpt lat="43.3271133" lon="11.7792733"><ele>296.0</ele><time>2026-04-27T15:44:22.476Z</time></trkpt><trkpt lat="43.32708" lon="11.7793883"><ele>295.6666666666667</ele><time>2026-04-27T15:44:24.474Z</time></trkpt><trkpt lat="43.327045" lon="11.7794967"><ele>295.33333333333337</ele><time>2026-04-27T15:44:26.478Z</time></trkpt><trkpt lat="43.327025" lon="11.7796017"><ele>295.0</ele><time>2026-04-27T15:44:28.473Z</time></trkpt><trkpt lat="43.3270033" lon="11.7797"><ele>294.6666666666667</ele><time>2026-04-27T15:44:30.477Z</time></trkpt><trkpt lat="43.326985" lon="11.77981"><ele>294.3333333333333</ele><time>2026-04-27T15:44:32.476Z</time></trkpt><trkpt lat="43.3269867" lon="11.7799233"><ele>294.0</ele><time>2026-04-27T15:44:34.475Z</time></trkpt><trkpt lat="43.3269833" lon="11.7800317"><ele>294.0</ele><time>2026-04-27T15:44:36.475Z</time></trkpt><trkpt lat="43.3269733" lon="11.7801433"><ele>294.0</ele><time>2026-04-27T15:44:38.476Z</time></trkpt><trkpt lat="43.32697" lon="11.780255"><ele>294.0</ele><time>2026-04-27T15:44:40.474Z</time></trkpt><trkpt lat="43.3269617" lon="11.7803733"><ele>294.0</ele><time>2026-04-27T15:44:42.477Z</time></trkpt><trkpt lat="43.3269467" lon="11.78049"><ele>294.0</ele><time>2026-04-27T15:44:44.476Z</time></trkpt><trkpt lat="43.3269483" lon="11.780615"><ele>294.0</ele><time>2026-04-27T15:44:46.472Z</time></trkpt><trkpt lat="43.3269633" lon="11.7807417"><ele>294.2</ele><time>2026-04-27T15:44:48.471Z</time></trkpt><trkpt lat="43.32698" lon="11.78087"><ele>294.4</ele><time>2026-04-27T15:44:50.477Z</time></trkpt><trkpt lat="43.3269783" lon="11.7810117"><ele>294.6</ele><time>2026-04-27T15:44:52.473Z</time></trkpt><trkpt lat="43.3269633" lon="11.7811467"><ele>294.8</ele><time>2026-04-27T15:44:54.476Z</time></trkpt><trkpt lat="43.326945" lon="11.781275"><ele>295.0</ele><time>2026-04-27T15:44:56.474Z</time></trkpt><trkpt lat="43.3269233" lon="11.781385"><ele>295.7142857142857</ele><time>2026-04-27T15:44:58.476Z</time></trkpt><trkpt lat="43.326895" lon="11.7814883"><ele>296.42857142857144</ele><time>2026-04-27T15:45:00.474Z</time></trkpt><trkpt lat="43.326875" lon="11.781575"><ele>297.1428571428571</ele><time>2026-04-27T15:45:02.48Z</time></trkpt><trkpt lat="43.3268717" lon="11.7816617"><ele>297.8571428571429</ele><time>2026-04-27T15:45:04.474Z</time></trkpt><trkpt lat="43.32688" lon="11.7817583"><ele>298.57142857142856</ele><time>2026-04-27T15:45:06.477Z</time></trkpt><trkpt lat="43.3268933" lon="11.781885"><ele>299.2857142857143</ele><time>2026-04-27T15:45:09.475Z</time></trkpt><trkpt lat="43.3269167" lon="11.78198"><ele>300.0</ele><time>2026-04-27T15:45:11.476Z</time></trkpt><trkpt lat="43.3269433" lon="11.7820767"><ele>300.0</ele><time>2026-04-27T15:45:13.473Z</time></trkpt><trkpt lat="43.3269783" lon="11.782165"><ele>300.0</ele><time>2026-04-27T15:45:15.474Z</time></trkpt><trkpt lat="43.3270067" lon="11.7822483"><ele>300.0</ele><time>2026-04-27T15:45:17.477Z</time></trkpt><trkpt lat="43.327025" lon="11.7823717"><ele>300.0</ele><time>2026-04-27T15:45:20.478Z</time></trkpt><trkpt lat="43.3270383" lon="11.782495"><ele>300.0</ele><time>2026-04-27T15:45:23.474Z</time></trkpt><trkpt lat="43.3270417" lon="11.7825867"><ele>300.0</ele><time>2026-04-27T15:45:25.476Z</time></trkpt><trkpt lat="43.3270383" lon="11.7826733"><ele>299.8333333333333</ele><time>2026-04-27T15:45:27.474Z</time></trkpt><trkpt lat="43.3270267" lon="11.782775"><ele>299.6666666666667</ele><time>2026-04-27T15:45:30.476Z</time></trkpt><trkpt lat="43.32701" lon="11.782875"><ele>299.5</ele><time>2026-04-27T15:45:33.475Z</time></trkpt><trkpt lat="43.3269933" lon="11.782985"><ele>299.33333333333337</ele><time>2026-04-27T15:45:36.476Z</time></trkpt><trkpt lat="43.326975" lon="11.7830983"><ele>299.1666666666667</ele><time>2026-04-27T15:45:39.475Z</time></trkpt><trkpt lat="43.3269583" lon="11.7832"><ele>299.0</ele><time>2026-04-27T15:45:42.478Z</time></trkpt><trkpt lat="43.3269583" lon="11.7833417"><ele>299.0</ele><time>2026-04-27T15:45:45.474Z</time></trkpt><trkpt lat="43.3269633" lon="11.7834533"><ele>299.0</ele><time>2026-04-27T15:45:47.474Z</time></trkpt><trkpt lat="43.3269717" lon="11.7835683"><ele>299.0</ele><time>2026-04-27T15:45:49.478Z</time></trkpt><trkpt lat="43.32698" lon="11.78369"><ele>299.0</ele><time>2026-04-27T15:45:51.48Z</time></trkpt><trkpt lat="43.326975" lon="11.7837983"><ele>299.0</ele><time>2026-04-27T15:45:53.476Z</time></trkpt><trkpt lat="43.3269617" lon="11.7839033"><ele>299.0</ele><time>2026-04-27T15:45:55.475Z</time></trkpt><trkpt lat="43.32696" lon="11.7839967"><ele>299.0</ele><time>2026-04-27T15:45:57.474Z</time></trkpt><trkpt lat="43.3269683" lon="11.7840833"><ele>299.0</ele><time>2026-04-27T15:45:59.474Z</time></trkpt><trkpt lat="43.3269883" lon="11.7842017"><ele>299.0</ele><time>2026-04-27T15:46:02.476Z</time></trkpt><trkpt lat="43.327" lon="11.7843"><ele>299.0</ele><time>2026-04-27T15:46:04.475Z</time></trkpt><trkpt lat="43.3270183" lon="11.7844067"><ele>299.0</ele><time>2026-04-27T15:46:06.475Z</time></trkpt><trkpt lat="43.3270467" lon="11.78452"><ele>299.0</ele><time>2026-04-27T15:46:08.476Z</time></trkpt><trkpt lat="43.3271133" lon="11.7846317"><ele>298.4</ele><time>2026-04-27T15:46:10.474Z</time></trkpt><trkpt lat="43.327205" lon="11.7847067"><ele>297.79999999999995</ele><time>2026-04-27T15:46:12.475Z</time></trkpt><trkpt lat="43.327305" lon="11.7847533"><ele>297.20000000000005</ele><time>2026-04-27T15:46:14.476Z</time></trkpt><trkpt lat="43.327405" lon="11.7847867"><ele>296.6</ele><time>2026-04-27T15:46:16.475Z</time></trkpt><trkpt lat="43.3275017" lon="11.784815"><ele>296.0</ele><time>2026-04-27T15:46:18.474Z</time></trkpt><trkpt lat="43.3276" lon="11.7848283"><ele>296.0</ele><time>2026-04-27T15:46:20.478Z</time></trkpt><trkpt lat="43.3277" lon="11.7848483"><ele>296.0</ele><time>2026-04-27T15:46:22.473Z</time></trkpt><trkpt lat="43.3278233" lon="11.7848317"><ele>296.0</ele><time>2026-04-27T15:46:24.476Z</time></trkpt><trkpt lat="43.3279367" lon="11.78485"><ele>296.0</ele><time>2026-04-27T15:46:26.476Z</time></trkpt><trkpt lat="43.3280417" lon="11.7848617"><ele>296.0</ele><time>2026-04-27T15:46:28.472Z</time></trkpt><trkpt lat="43.328155" lon="11.7848633"><ele>295.6</ele><time>2026-04-27T15:46:30.474Z</time></trkpt><trkpt lat="43.3282617" lon="11.7848533"><ele>295.20000000000005</ele><time>2026-04-27T15:46:32.474Z</time></trkpt><trkpt lat="43.3283667" lon="11.784855"><ele>294.79999999999995</ele><time>2026-04-27T15:46:34.472Z</time></trkpt><trkpt lat="43.3284567" lon="11.7848683"><ele>294.4</ele><time>2026-04-27T15:46:36.476Z</time></trkpt><trkpt lat="43.32855" lon="11.7848867"><ele>294.0</ele><time>2026-04-27T15:46:38.477Z</time></trkpt><trkpt lat="43.3286383" lon="11.784895"><ele>294.0</ele><time>2026-04-27T15:46:40.474Z</time></trkpt><trkpt lat="43.3287317" lon="11.7849133"><ele>294.0</ele><time>2026-04-27T15:46:42.473Z</time></trkpt><trkpt lat="43.3288367" lon="11.7849"><ele>294.0</ele><time>2026-04-27T15:46:44.476Z</time></trkpt><trkpt lat="43.3289383" lon="11.7849"><ele>294.0</ele><time>2026-04-27T15:46:46.473Z</time></trkpt><trkpt lat="43.329035" lon="11.7849017"><ele>294.0</ele><time>2026-04-27T15:46:48.475Z</time></trkpt><trkpt lat="43.32913" lon="11.7849"><ele>294.0</ele><time>2026-04-27T15:46:50.476Z</time></trkpt><trkpt lat="43.3292267" lon="11.7848917"><ele>294.0</ele><time>2026-04-27T15:46:52.476Z</time></trkpt><trkpt lat="43.3293233" lon="11.7848867"><ele>294.0</ele><time>2026-04-27T15:46:54.474Z</time></trkpt><trkpt lat="43.3294183" lon="11.784885"><ele>294.0</ele><time>2026-04-27T15:46:56.476Z</time></trkpt><trkpt lat="43.3295133" lon="11.78488"><ele>294.0</ele><time>2026-04-27T15:46:58.474Z</time></trkpt><trkpt lat="43.3296183" lon="11.7848767"><ele>294.0</ele><time>2026-04-27T15:47:00.475Z</time></trkpt><trkpt lat="43.3297217" lon="11.7848867"><ele>294.0</ele><time>2026-04-27T15:47:02.474Z</time></trkpt><trkpt lat="43.32982" lon="11.784905"><ele>294.0</ele><time>2026-04-27T15:47:04.472Z</time></trkpt><trkpt lat="43.3299083" lon="11.7849433"><ele>294.0</ele><time>2026-04-27T15:47:06.475Z</time></trkpt><trkpt lat="43.3299883" lon="11.7849917"><ele>294.0</ele><time>2026-04-27T15:47:08.474Z</time></trkpt><trkpt lat="43.3300667" lon="11.7850467"><ele>294.1666666666667</ele><time>2026-04-27T15:47:10.475Z</time></trkpt><trkpt lat="43.330145" lon="11.7851067"><ele>294.3333333333333</ele><time>2026-04-27T15:47:12.476Z</time></trkpt><trkpt lat="43.3302267" lon="11.7851583"><ele>294.5</ele><time>2026-04-27T15:47:14.474Z</time></trkpt><trkpt lat="43.33031" lon="11.7851883"><ele>294.66666666666663</ele><time>2026-04-27T15:47:16.473Z</time></trkpt><trkpt lat="43.3303917" lon="11.7851983"><ele>294.8333333333333</ele><time>2026-04-27T15:47:18.475Z</time></trkpt><trkpt lat="43.3304717" lon="11.7851983"><ele>295.0</ele><time>2026-04-27T15:47:20.478Z</time></trkpt><trkpt lat="43.330545" lon="11.7852"><ele>295.00000000000006</ele><time>2026-04-27T15:47:22.475Z</time></trkpt><trkpt lat="43.3306133" lon="11.7852033"><ele>295.0</ele><time>2026-04-27T15:47:24.475Z</time></trkpt><trkpt lat="43.3306867" lon="11.7851883"><ele>295.0</ele><time>2026-04-27T15:47:26.477Z</time></trkpt><trkpt lat="43.330755" lon="11.7851867"><ele>295.0</ele><time>2026-04-27T15:47:28.475Z</time></trkpt><trkpt lat="43.3308467" lon="11.785195"><ele>295.0</ele><time>2026-04-27T15:47:31.473Z</time></trkpt><trkpt lat="43.3309117" lon="11.7851983"><ele>295.00000000000006</ele><time>2026-04-27T15:47:33.476Z</time></trkpt><trkpt lat="43.3309767" lon="11.7852017"><ele>295.0</ele><time>2026-04-27T15:47:35.474Z</time></trkpt><trkpt lat="43.3310483" lon="11.78521"><ele>295.0</ele><time>2026-04-27T15:47:37.479Z</time></trkpt><trkpt lat="43.331115" lon="11.7852233"><ele>295.0</ele><time>2026-04-27T15:47:39.471Z</time></trkpt><trkpt lat="43.3311833" lon="11.7852383"><ele>295.0</ele><time>2026-04-27T15:47:41.475Z</time></trkpt><trkpt lat="43.331265" lon="11.7852567"><ele>295.0</ele><time>2026-04-27T15:47:43.476Z</time></trkpt><trkpt lat="43.3313417" lon="11.7852683"><ele>295.0</ele><time>2026-04-27T15:47:45.471Z</time></trkpt><trkpt lat="43.3314333" lon="11.7853033"><ele>295.0</ele><time>2026-04-27T15:47:48.476Z</time></trkpt><trkpt lat="43.3314967" lon="11.7853083"><ele>296.5</ele><time>2026-04-27T15:47:50.48Z</time></trkpt><trkpt lat="43.331565" lon="11.7853117"><ele>298.0</ele><time>2026-04-27T15:47:52.479Z</time></trkpt><trkpt lat="43.331655" lon="11.7853133"><ele>299.5</ele><time>2026-04-27T15:47:55.476Z</time></trkpt><trkpt lat="43.3317317" lon="11.7853333"><ele>301.0</ele><time>2026-04-27T15:47:58.474Z</time></trkpt><trkpt lat="43.3318" lon="11.7853667"><ele>302.5</ele><time>2026-04-27T15:48:02.474Z</time></trkpt><trkpt lat="43.3318633" lon="11.785395"><ele>304.0</ele><time>2026-04-27T15:48:05.477Z</time></trkpt><trkpt lat="43.3319617" lon="11.7853833"><ele>304.0</ele><time>2026-04-27T15:48:08.476Z</time></trkpt><trkpt lat="43.33206" lon="11.7853467"><ele>304.0</ele><time>2026-04-27T15:48:10.47Z</time></trkpt><trkpt lat="43.3321733" lon="11.7852983"><ele>304.0</ele><time>2026-04-27T15:48:12.476Z</time></trkpt><trkpt lat="43.3322517" lon="11.785255"><ele>304.0</ele><time>2026-04-27T15:48:13.475Z</time></trkpt><trkpt lat="43.3323317" lon="11.7852117"><ele>304.0</ele><time>2026-04-27T15:48:14.475Z</time></trkpt><trkpt lat="43.3324167" lon="11.7851633"><ele>303.59999999999997</ele><time>2026-04-27T15:48:15.473Z</time></trkpt><trkpt lat="43.3325067" lon="11.785115"><ele>303.2</ele><time>2026-04-27T15:48:16.472Z</time></trkpt><trkpt lat="43.332605" lon="11.78506"><ele>302.79999999999995</ele><time>2026-04-27T15:48:17.475Z</time></trkpt><trkpt lat="43.3326967" lon="11.7850133"><ele>302.4</ele><time>2026-04-27T15:48:18.472Z</time></trkpt><trkpt lat="43.3327783" lon="11.784985"><ele>302.0</ele><time>2026-04-27T15:48:19.472Z</time></trkpt><trkpt lat="43.332855" lon="11.7849517"><ele>302.0</ele><time>2026-04-27T15:48:20.473Z</time></trkpt><trkpt lat="43.3329317" lon="11.7849133"><ele>302.0</ele><time>2026-04-27T15:48:21.475Z</time></trkpt><trkpt lat="43.3330133" lon="11.7848683"><ele>302.0</ele><time>2026-04-27T15:48:22.473Z</time></trkpt><trkpt lat="43.3330967" lon="11.784825"><ele>302.0</ele><time>2026-04-27T15:48:23.473Z</time></trkpt><trkpt lat="43.3331833" lon="11.7847833"><ele>302.0</ele><time>2026-04-27T15:48:24.474Z</time></trkpt><trkpt lat="43.333275" lon="11.78475"><ele>302.0</ele><time>2026-04-27T15:48:25.473Z</time></trkpt><trkpt lat="43.33337" lon="11.78472"><ele>299.8</ele><time>2026-04-27T15:48:26.473Z</time></trkpt><trkpt lat="43.3334633" lon="11.7846917"><ele>297.6</ele><time>2026-04-27T15:48:27.472Z</time></trkpt><trkpt lat="43.333555" lon="11.784665"><ele>295.40000000000003</ele><time>2026-04-27T15:48:28.476Z</time></trkpt><trkpt lat="43.333645" lon="11.7846417"><ele>293.2</ele><time>2026-04-27T15:48:29.472Z</time></trkpt><trkpt lat="43.3337333" lon="11.7846217"><ele>291.0</ele><time>2026-04-27T15:48:30.475Z</time></trkpt><trkpt lat="43.33382" lon="11.7846017"><ele>290.6666666666667</ele><time>2026-04-27T15:48:31.476Z</time></trkpt><trkpt lat="43.333905" lon="11.7845883"><ele>290.3333333333333</ele><time>2026-04-27T15:48:32.475Z</time></trkpt><trkpt lat="43.3339883" lon="11.784575"><ele>290.0</ele><time>2026-04-27T15:48:33.471Z</time></trkpt><trkpt lat="43.3340683" lon="11.784565"><ele>289.66666666666663</ele><time>2026-04-27T15:48:34.475Z</time></trkpt><trkpt lat="43.3341433" lon="11.784565"><ele>289.3333333333333</ele><time>2026-04-27T15:48:35.474Z</time></trkpt><trkpt lat="43.3342133" lon="11.7845817"><ele>289.0</ele><time>2026-04-27T15:48:36.475Z</time></trkpt><trkpt lat="43.3342817" lon="11.7845917"><ele>289.0</ele><time>2026-04-27T15:48:37.473Z</time></trkpt><trkpt lat="43.33435" lon="11.78459"><ele>289.0</ele><time>2026-04-27T15:48:38.475Z</time></trkpt><trkpt lat="43.3344133" lon="11.7845883"><ele>289.0</ele><time>2026-04-27T15:48:39.473Z</time></trkpt><trkpt lat="43.3344767" lon="11.7845867"><ele>289.0</ele><time>2026-04-27T15:48:40.474Z</time></trkpt><trkpt lat="43.33454" lon="11.7845883"><ele>289.0</ele><time>2026-04-27T15:48:41.473Z</time></trkpt><trkpt lat="43.334605" lon="11.7845933"><ele>289.0</ele><time>2026-04-27T15:48:42.474Z</time></trkpt><trkpt lat="43.3346683" lon="11.7846033"><ele>289.0</ele><time>2026-04-27T15:48:43.476Z</time></trkpt><trkpt lat="43.3347333" lon="11.784615"><ele>288.66666666666663</ele><time>2026-04-27T15:48:44.476Z</time></trkpt><trkpt lat="43.3347983" lon="11.7846283"><ele>288.3333333333333</ele><time>2026-04-27T15:48:45.474Z</time></trkpt><trkpt lat="43.3349233" lon="11.7846517"><ele>288.0</ele><time>2026-04-27T15:48:47.475Z</time></trkpt><trkpt lat="43.3349883" lon="11.7846583"><ele>287.6666666666667</ele><time>2026-04-27T15:48:48.475Z</time></trkpt><trkpt lat="43.3350517" lon="11.784665"><ele>287.33333333333337</ele><time>2026-04-27T15:48:49.473Z</time></trkpt><trkpt lat="43.3351167" lon="11.784675"><ele>287.0</ele><time>2026-04-27T15:48:50.473Z</time></trkpt><trkpt lat="43.3352417" lon="11.7846817"><ele>287.0</ele><time>2026-04-27T15:48:52.472Z</time></trkpt><trkpt lat="43.335365" lon="11.7846867"><ele>287.0</ele><time>2026-04-27T15:48:54.472Z</time></trkpt><trkpt lat="43.3354867" lon="11.78471"><ele>287.0</ele><time>2026-04-27T15:48:56.471Z</time></trkpt><trkpt lat="43.3356067" lon="11.7847383"><ele>287.0</ele><time>2026-04-27T15:48:58.472Z</time></trkpt><trkpt lat="43.3357283" lon="11.7847633"><ele>287.0</ele><time>2026-04-27T15:49:00.476Z</time></trkpt><trkpt lat="43.3357917" lon="11.78477"><ele>287.0</ele><time>2026-04-27T15:49:01.472Z</time></trkpt><trkpt lat="43.3358567" lon="11.7847767"><ele>287.0</ele><time>2026-04-27T15:49:02.473Z</time></trkpt><trkpt lat="43.33592" lon="11.7847883"><ele>287.0</ele><time>2026-04-27T15:49:03.476Z</time></trkpt><trkpt lat="43.3360483" lon="11.7848"><ele>287.0</ele><time>2026-04-27T15:49:05.475Z</time></trkpt><trkpt lat="43.336115" lon="11.7848067"><ele>287.0</ele><time>2026-04-27T15:49:06.471Z</time></trkpt><trkpt lat="43.33624" lon="11.78483"><ele>287.0</ele><time>2026-04-27T15:49:08.473Z</time></trkpt><trkpt lat="43.3363633" lon="11.78485"><ele>287.0</ele><time>2026-04-27T15:49:10.475Z</time></trkpt><trkpt lat="43.336485" lon="11.784895"><ele>287.0</ele><time>2026-04-27T15:49:12.472Z</time></trkpt><trkpt lat="43.33659" lon="11.78499"><ele>287.0</ele><time>2026-04-27T15:49:14.48Z</time></trkpt><trkpt lat="43.3366383" lon="11.7850467"><ele>287.0</ele><time>2026-04-27T15:49:15.474Z</time></trkpt><trkpt lat="43.3367283" lon="11.7851617"><ele>286.5</ele><time>2026-04-27T15:49:17.472Z</time></trkpt><trkpt lat="43.3368317" lon="11.7852567"><ele>286.0</ele><time>2026-04-27T15:49:19.475Z</time></trkpt><trkpt lat="43.3369467" lon="11.7853333"><ele>285.5</ele><time>2026-04-27T15:49:21.476Z</time></trkpt><trkpt lat="43.33706" lon="11.7853983"><ele>285.0</ele><time>2026-04-27T15:49:23.473Z</time></trkpt><trkpt lat="43.3371683" lon="11.7854583"><ele>285.8</ele><time>2026-04-27T15:49:25.473Z</time></trkpt><trkpt lat="43.3372717" lon="11.7855117"><ele>286.6</ele><time>2026-04-27T15:49:27.474Z</time></trkpt><trkpt lat="43.3373733" lon="11.7855633"><ele>287.4</ele><time>2026-04-27T15:49:29.476Z</time></trkpt><trkpt lat="43.3374683" lon="11.7856083"><ele>288.2</ele><time>2026-04-27T15:49:31.472Z</time></trkpt><trkpt lat="43.3375617" lon="11.7856733"><ele>289.0</ele><time>2026-04-27T15:49:33.475Z</time></trkpt><trkpt lat="43.337655" lon="11.785735"><ele>289.0</ele><time>2026-04-27T15:49:35.475Z</time></trkpt><trkpt lat="43.3377417" lon="11.785795"><ele>289.0</ele><time>2026-04-27T15:49:37.475Z</time></trkpt><trkpt lat="43.3378283" lon="11.7858467"><ele>289.0</ele><time>2026-04-27T15:49:39.477Z</time></trkpt><trkpt lat="43.3379133" lon="11.7858983"><ele>289.0</ele><time>2026-04-27T15:49:41.475Z</time></trkpt><trkpt lat="43.337995" lon="11.7859433"><ele>289.0</ele><time>2026-04-27T15:49:43.476Z</time></trkpt><trkpt lat="43.3380783" lon="11.7859867"><ele>290.0</ele><time>2026-04-27T15:49:45.473Z</time></trkpt><trkpt lat="43.33816" lon="11.786025"><ele>291.0</ele><time>2026-04-27T15:49:47.475Z</time></trkpt><trkpt lat="43.3382283" lon="11.78607"><ele>292.0</ele><time>2026-04-27T15:49:49.473Z</time></trkpt><trkpt lat="43.3383" lon="11.7861167"><ele>293.0</ele><time>2026-04-27T15:49:51.476Z</time></trkpt><trkpt lat="43.33837" lon="11.7861483"><ele>294.0</ele><time>2026-04-27T15:49:53.475Z</time></trkpt><trkpt lat="43.3384367" lon="11.7861783"><ele>295.0</ele><time>2026-04-27T15:49:55.474Z</time></trkpt><trkpt lat="43.3385017" lon="11.786215"><ele>295.00000000000006</ele><time>2026-04-27T15:49:57.475Z</time></trkpt><trkpt lat="43.33857" lon="11.7862433"><ele>295.0</ele><time>2026-04-27T15:49:59.476Z</time></trkpt><trkpt lat="43.338635" lon="11.786275"><ele>295.0</ele><time>2026-04-27T15:50:01.474Z</time></trkpt><trkpt lat="43.3386983" lon="11.7863067"><ele>295.0</ele><time>2026-04-27T15:50:03.474Z</time></trkpt><trkpt lat="43.3387583" lon="11.7863367"><ele>295.0</ele><time>2026-04-27T15:50:05.476Z</time></trkpt><trkpt lat="43.33882" lon="11.7863733"><ele>295.00000000000006</ele><time>2026-04-27T15:50:07.473Z</time></trkpt><trkpt lat="43.338875" lon="11.78642"><ele>295.0</ele><time>2026-04-27T15:50:09.476Z</time></trkpt><trkpt lat="43.3389483" lon="11.7864917"><ele>295.5</ele><time>2026-04-27T15:50:12.475Z</time></trkpt><trkpt lat="43.3390267" lon="11.786555"><ele>296.0</ele><time>2026-04-27T15:50:15.472Z</time></trkpt><trkpt lat="43.3390983" lon="11.7866267"><ele>296.5</ele><time>2026-04-27T15:50:18.472Z</time></trkpt><trkpt lat="43.3391783" lon="11.7866933"><ele>297.0</ele><time>2026-04-27T15:50:21.474Z</time></trkpt><trkpt lat="43.3392383" lon="11.7867367"><ele>297.5</ele><time>2026-04-27T15:50:23.474Z</time></trkpt><trkpt lat="43.339305" lon="11.7867767"><ele>298.0</ele><time>2026-04-27T15:50:25.473Z</time></trkpt><trkpt lat="43.3393667" lon="11.78682"><ele>298.3333333333333</ele><time>2026-04-27T15:50:27.477Z</time></trkpt><trkpt lat="43.3394367" lon="11.78686"><ele>298.66666666666663</ele><time>2026-04-27T15:50:29.477Z</time></trkpt><trkpt lat="43.33951" lon="11.78689"><ele>299.0</ele><time>2026-04-27T15:50:31.476Z</time></trkpt><trkpt lat="43.3395867" lon="11.7869117"><ele>299.3333333333333</ele><time>2026-04-27T15:50:33.472Z</time></trkpt><trkpt lat="43.33966" lon="11.786945"><ele>299.6666666666667</ele><time>2026-04-27T15:50:35.476Z</time></trkpt><trkpt lat="43.3397383" lon="11.7869733"><ele>300.0</ele><time>2026-04-27T15:50:37.473Z</time></trkpt><trkpt lat="43.33982" lon="11.7869917"><ele>300.0</ele><time>2026-04-27T15:50:39.474Z</time></trkpt><trkpt lat="43.3399017" lon="11.7870017"><ele>300.0</ele><time>2026-04-27T15:50:41.472Z</time></trkpt><trkpt lat="43.3399867" lon="11.787005"><ele>300.0</ele><time>2026-04-27T15:50:43.472Z</time></trkpt><trkpt lat="43.3400733" lon="11.78701"><ele>300.0</ele><time>2026-04-27T15:50:45.473Z</time></trkpt><trkpt lat="43.340165" lon="11.7870117"><ele>300.0</ele><time>2026-04-27T15:50:47.475Z</time></trkpt><trkpt lat="43.340255" lon="11.7870067"><ele>300.0</ele><time>2026-04-27T15:50:49.475Z</time></trkpt><trkpt lat="43.3403417" lon="11.7870217"><ele>300.0</ele><time>2026-04-27T15:50:51.476Z</time></trkpt><trkpt lat="43.3404367" lon="11.7870267"><ele>300.0</ele><time>2026-04-27T15:50:53.474Z</time></trkpt><trkpt lat="43.3405367" lon="11.787025"><ele>300.0</ele><time>2026-04-27T15:50:55.473Z</time></trkpt><trkpt lat="43.3406417" lon="11.78703"><ele>300.0</ele><time>2026-04-27T15:50:57.472Z</time></trkpt><trkpt lat="43.3407517" lon="11.787035"><ele>300.0</ele><time>2026-04-27T15:50:59.472Z</time></trkpt><trkpt lat="43.3408683" lon="11.7870333"><ele>299.25</ele><time>2026-04-27T15:51:01.477Z</time></trkpt><trkpt lat="43.340985" lon="11.7870267"><ele>298.5</ele><time>2026-04-27T15:51:03.475Z</time></trkpt><trkpt lat="43.3411033" lon="11.7870333"><ele>297.75</ele><time>2026-04-27T15:51:05.473Z</time></trkpt><trkpt lat="43.3412183" lon="11.7870617"><ele>297.0</ele><time>2026-04-27T15:51:07.476Z</time></trkpt><trkpt lat="43.341335" lon="11.78709"><ele>296.6666666666667</ele><time>2026-04-27T15:51:09.474Z</time></trkpt><trkpt lat="43.3414467" lon="11.7871417"><ele>296.3333333333333</ele><time>2026-04-27T15:51:11.475Z</time></trkpt><trkpt lat="43.3415083" lon="11.7871733"><ele>296.0</ele><time>2026-04-27T15:51:12.475Z</time></trkpt><trkpt lat="43.34157" lon="11.7872017"><ele>295.66666666666663</ele><time>2026-04-27T15:51:13.473Z</time></trkpt><trkpt lat="43.3416367" lon="11.7872267"><ele>295.3333333333333</ele><time>2026-04-27T15:51:14.475Z</time></trkpt><trkpt lat="43.341705" lon="11.78725"><ele>295.0</ele><time>2026-04-27T15:51:15.474Z</time></trkpt><trkpt lat="43.341775" lon="11.7872733"><ele>295.00000000000006</ele><time>2026-04-27T15:51:16.472Z</time></trkpt><trkpt lat="43.3418433" lon="11.7872967"><ele>295.0</ele><time>2026-04-27T15:51:17.475Z</time></trkpt><trkpt lat="43.3419117" lon="11.787325"><ele>295.0</ele><time>2026-04-27T15:51:18.473Z</time></trkpt><trkpt lat="43.34198" lon="11.7873517"><ele>295.0</ele><time>2026-04-27T15:51:19.475Z</time></trkpt><trkpt lat="43.3420517" lon="11.78738"><ele>295.0</ele><time>2026-04-27T15:51:20.477Z</time></trkpt><trkpt lat="43.3421233" lon="11.787405"><ele>295.00000000000006</ele><time>2026-04-27T15:51:21.476Z</time></trkpt><trkpt lat="43.342195" lon="11.7874333"><ele>295.0</ele><time>2026-04-27T15:51:22.474Z</time></trkpt><trkpt lat="43.3422667" lon="11.78746"><ele>295.0</ele><time>2026-04-27T15:51:23.48Z</time></trkpt><trkpt lat="43.3423367" lon="11.7874867"><ele>295.0</ele><time>2026-04-27T15:51:24.479Z</time></trkpt><trkpt lat="43.3424067" lon="11.7875117"><ele>295.0</ele><time>2026-04-27T15:51:25.477Z</time></trkpt><trkpt lat="43.3424767" lon="11.7875417"><ele>295.0</ele><time>2026-04-27T15:51:26.476Z</time></trkpt><trkpt lat="43.34254" lon="11.7875767"><ele>295.0</ele><time>2026-04-27T15:51:27.476Z</time></trkpt><trkpt lat="43.3426" lon="11.78761"><ele>295.0</ele><time>2026-04-27T15:51:28.477Z</time></trkpt><trkpt lat="43.3427083" lon="11.7876667"><ele>295.0</ele><time>2026-04-27T15:51:30.473Z</time></trkpt><trkpt lat="43.3428083" lon="11.78772"><ele>295.0</ele><time>2026-04-27T15:51:32.474Z</time></trkpt><trkpt lat="43.3429117" lon="11.78776"><ele>295.0</ele><time>2026-04-27T15:51:34.473Z</time></trkpt><trkpt lat="43.3430233" lon="11.7878"><ele>295.0</ele><time>2026-04-27T15:51:36.477Z</time></trkpt><trkpt lat="43.3431367" lon="11.787835"><ele>295.0</ele><time>2026-04-27T15:51:38.475Z</time></trkpt><trkpt lat="43.34326" lon="11.787845"><ele>295.0</ele><time>2026-04-27T15:51:40.472Z</time></trkpt><trkpt lat="43.3433833" lon="11.7878333"><ele>295.0</ele><time>2026-04-27T15:51:42.472Z</time></trkpt><trkpt lat="43.343505" lon="11.7878133"><ele>295.0</ele><time>2026-04-27T15:51:44.479Z</time></trkpt><trkpt lat="43.34363" lon="11.7877883"><ele>295.0</ele><time>2026-04-27T15:51:46.48Z</time></trkpt><trkpt lat="43.3437467" lon="11.7877583"><ele>295.0</ele><time>2026-04-27T15:51:48.479Z</time></trkpt><trkpt lat="43.34386" lon="11.7877233"><ele>295.0</ele><time>2026-04-27T15:51:50.477Z</time></trkpt><trkpt lat="43.3439717" lon="11.7876883"><ele>295.0</ele><time>2026-04-27T15:51:52.472Z</time></trkpt><trkpt lat="43.34408" lon="11.78765"><ele>295.0</ele><time>2026-04-27T15:51:54.475Z</time></trkpt><trkpt lat="43.34418" lon="11.7876133"><ele>295.0</ele><time>2026-04-27T15:51:56.476Z</time></trkpt><trkpt lat="43.34428" lon="11.7875783"><ele>295.2</ele><time>2026-04-27T15:51:58.477Z</time></trkpt><trkpt lat="43.3443733" lon="11.7875433"><ele>295.4</ele><time>2026-04-27T15:52:00.472Z</time></trkpt><trkpt lat="43.3444717" lon="11.7875167"><ele>295.6</ele><time>2026-04-27T15:52:02.475Z</time></trkpt><trkpt lat="43.3445833" lon="11.7874817"><ele>295.8</ele><time>2026-04-27T15:52:04.473Z</time></trkpt><trkpt lat="43.3446917" lon="11.7874267"><ele>296.0</ele><time>2026-04-27T15:52:06.471Z</time></trkpt><trkpt lat="43.344805" lon="11.787375"><ele>295.6666666666667</ele><time>2026-04-27T15:52:08.473Z</time></trkpt><trkpt lat="43.3449283" lon="11.78735"><ele>295.33333333333337</ele><time>2026-04-27T15:52:10.476Z</time></trkpt><trkpt lat="43.3449933" lon="11.78734"><ele>295.0</ele><time>2026-04-27T15:52:11.472Z</time></trkpt><trkpt lat="43.34506" lon="11.787345"><ele>294.6666666666667</ele><time>2026-04-27T15:52:12.474Z</time></trkpt><trkpt lat="43.3451267" lon="11.787365"><ele>294.3333333333333</ele><time>2026-04-27T15:52:13.473Z</time></trkpt><trkpt lat="43.3451933" lon="11.7873833"><ele>294.0</ele><time>2026-04-27T15:52:14.473Z</time></trkpt><trkpt lat="43.3452617" lon="11.7874"><ele>294.0</ele><time>2026-04-27T15:52:15.472Z</time></trkpt><trkpt lat="43.34533" lon="11.787415"><ele>294.0</ele><time>2026-04-27T15:52:16.476Z</time></trkpt><trkpt lat="43.3454" lon="11.7874317"><ele>294.0</ele><time>2026-04-27T15:52:17.475Z</time></trkpt><trkpt lat="43.3454733" lon="11.7874483"><ele>294.0</ele><time>2026-04-27T15:52:18.473Z</time></trkpt><trkpt lat="43.3455467" lon="11.7874683"><ele>294.0</ele><time>2026-04-27T15:52:19.476Z</time></trkpt><trkpt lat="43.3456233" lon="11.7874883"><ele>294.0</ele><time>2026-04-27T15:52:20.476Z</time></trkpt><trkpt lat="43.3457017" lon="11.7875117"><ele>294.0</ele><time>2026-04-27T15:52:21.475Z</time></trkpt><trkpt lat="43.3457833" lon="11.7875383"><ele>293.4</ele><time>2026-04-27T15:52:22.477Z</time></trkpt><trkpt lat="43.3458683" lon="11.7875667"><ele>292.79999999999995</ele><time>2026-04-27T15:52:23.476Z</time></trkpt><trkpt lat="43.3459567" lon="11.7875967"><ele>292.20000000000005</ele><time>2026-04-27T15:52:24.473Z</time></trkpt><trkpt lat="43.3460433" lon="11.78763"><ele>291.6</ele><time>2026-04-27T15:52:25.478Z</time></trkpt><trkpt lat="43.3461333" lon="11.7876633"><ele>291.0</ele><time>2026-04-27T15:52:26.478Z</time></trkpt><trkpt lat="43.346225" lon="11.787695"><ele>290.2</ele><time>2026-04-27T15:52:27.474Z</time></trkpt><trkpt lat="43.3463183" lon="11.787725"><ele>289.40000000000003</ele><time>2026-04-27T15:52:28.472Z</time></trkpt><trkpt lat="43.3464117" lon="11.7877533"><ele>288.6</ele><time>2026-04-27T15:52:29.475Z</time></trkpt><trkpt lat="43.346505" lon="11.7877783"><ele>287.8</ele><time>2026-04-27T15:52:30.472Z</time></trkpt><trkpt lat="43.3465967" lon="11.7878033"><ele>287.0</ele><time>2026-04-27T15:52:31.472Z</time></trkpt><trkpt lat="43.3466867" lon="11.7878283"><ele>286.5</ele><time>2026-04-27T15:52:32.475Z</time></trkpt><trkpt lat="43.346775" lon="11.787855"><ele>286.0</ele><time>2026-04-27T15:52:33.471Z</time></trkpt><trkpt lat="43.3468617" lon="11.7878783"><ele>285.5</ele><time>2026-04-27T15:52:34.475Z</time></trkpt><trkpt lat="43.34695" lon="11.787905"><ele>285.0</ele><time>2026-04-27T15:52:35.473Z</time></trkpt><trkpt lat="43.3470333" lon="11.78793"><ele>284.5</ele><time>2026-04-27T15:52:36.476Z</time></trkpt><trkpt lat="43.3471133" lon="11.787955"><ele>284.0</ele><time>2026-04-27T15:52:37.472Z</time></trkpt><trkpt lat="43.3471867" lon="11.7879833"><ele>284.4</ele><time>2026-04-27T15:52:38.476Z</time></trkpt><trkpt lat="43.3472567" lon="11.7880167"><ele>284.79999999999995</ele><time>2026-04-27T15:52:39.476Z</time></trkpt><trkpt lat="43.34732" lon="11.78805"><ele>285.20000000000005</ele><time>2026-04-27T15:52:40.475Z</time></trkpt><trkpt lat="43.3474383" lon="11.7881"><ele>285.6</ele><time>2026-04-27T15:52:42.472Z</time></trkpt><trkpt lat="43.3475417" lon="11.7881483"><ele>286.0</ele><time>2026-04-27T15:52:44.475Z</time></trkpt><trkpt lat="43.34764" lon="11.788195"><ele>286.0</ele><time>2026-04-27T15:52:46.474Z</time></trkpt><trkpt lat="43.3477317" lon="11.78823"><ele>286.0</ele><time>2026-04-27T15:52:48.477Z</time></trkpt><trkpt lat="43.347815" lon="11.7882633"><ele>286.0</ele><time>2026-04-27T15:52:50.478Z</time></trkpt><trkpt lat="43.34789" lon="11.7882867"><ele>286.0</ele><time>2026-04-27T15:52:52.472Z</time></trkpt><trkpt lat="43.3479583" lon="11.7883017"><ele>286.0</ele><time>2026-04-27T15:52:54.475Z</time></trkpt><trkpt lat="43.348025" lon="11.7883033"><ele>286.0</ele><time>2026-04-27T15:52:56.476Z</time></trkpt><trkpt lat="43.3480967" lon="11.7883233"><ele>287.2</ele><time>2026-04-27T15:52:59.476Z</time></trkpt><trkpt lat="43.348185" lon="11.7883283"><ele>288.40000000000003</ele><time>2026-04-27T15:53:02.476Z</time></trkpt><trkpt lat="43.3482733" lon="11.7883417"><ele>289.6</ele><time>2026-04-27T15:53:04.476Z</time></trkpt><trkpt lat="43.34836" lon="11.78837"><ele>290.8</ele><time>2026-04-27T15:53:06.477Z</time></trkpt><trkpt lat="43.3484567" lon="11.7883917"><ele>292.0</ele><time>2026-04-27T15:53:08.479Z</time></trkpt><trkpt lat="43.3485533" lon="11.7884167"><ele>292.0</ele><time>2026-04-27T15:53:10.475Z</time></trkpt><trkpt lat="43.348655" lon="11.788435"><ele>292.0</ele><time>2026-04-27T15:53:12.478Z</time></trkpt><trkpt lat="43.3487517" lon="11.788455"><ele>292.0</ele><time>2026-04-27T15:53:14.472Z</time></trkpt><trkpt lat="43.3488517" lon="11.78848"><ele>292.0</ele><time>2026-04-27T15:53:16.473Z</time></trkpt><trkpt lat="43.3489567" lon="11.7885017"><ele>292.0</ele><time>2026-04-27T15:53:18.474Z</time></trkpt><trkpt lat="43.3490517" lon="11.7885217"><ele>291.66666666666663</ele><time>2026-04-27T15:53:20.475Z</time></trkpt><trkpt lat="43.3491383" lon="11.7885483"><ele>291.3333333333333</ele><time>2026-04-27T15:53:22.474Z</time></trkpt><trkpt lat="43.3492117" lon="11.78856"><ele>291.0</ele><time>2026-04-27T15:53:24.477Z</time></trkpt><trkpt lat="43.349275" lon="11.7885617"><ele>290.6666666666667</ele><time>2026-04-27T15:53:26.475Z</time></trkpt><trkpt lat="43.3493467" lon="11.7885917"><ele>290.33333333333337</ele><time>2026-04-27T15:53:29.475Z</time></trkpt><trkpt lat="43.349405" lon="11.7886967"><ele>290.0</ele><time>2026-04-27T15:53:32.474Z</time></trkpt><trkpt lat="43.3494417" lon="11.7887967"><ele>290.0</ele><time>2026-04-27T15:53:34.477Z</time></trkpt><trkpt lat="43.3494733" lon="11.7889267"><ele>290.0</ele><time>2026-04-27T15:53:36.473Z</time></trkpt><trkpt lat="43.3494967" lon="11.7890683"><ele>290.0</ele><time>2026-04-27T15:53:38.477Z</time></trkpt><trkpt lat="43.3495" lon="11.7892233"><ele>290.0</ele><time>2026-04-27T15:53:40.476Z</time></trkpt><trkpt lat="43.3494867" lon="11.78938"><ele>290.0</ele><time>2026-04-27T15:53:42.478Z</time></trkpt><trkpt lat="43.3494483" lon="11.7895283"><ele>290.4</ele><time>2026-04-27T15:53:44.473Z</time></trkpt><trkpt lat="43.3494017" lon="11.7896633"><ele>290.8</ele><time>2026-04-27T15:53:46.473Z</time></trkpt><trkpt lat="43.3493667" lon="11.78979"><ele>291.2</ele><time>2026-04-27T15:53:48.474Z</time></trkpt><trkpt lat="43.34934" lon="11.789905"><ele>291.6</ele><time>2026-04-27T15:53:50.476Z</time></trkpt><trkpt lat="43.3493133" lon="11.790015"><ele>292.0</ele><time>2026-04-27T15:53:52.473Z</time></trkpt><trkpt lat="43.3492867" lon="11.7901267"><ele>292.3333333333333</ele><time>2026-04-27T15:53:54.475Z</time></trkpt><trkpt lat="43.3492567" lon="11.7902317"><ele>292.66666666666663</ele><time>2026-04-27T15:53:56.476Z</time></trkpt><trkpt lat="43.3492317" lon="11.790335"><ele>293.0</ele><time>2026-04-27T15:53:58.473Z</time></trkpt><trkpt lat="43.349205" lon="11.790445"><ele>293.3333333333333</ele><time>2026-04-27T15:54:00.473Z</time></trkpt><trkpt lat="43.3491833" lon="11.79055"><ele>293.6666666666667</ele><time>2026-04-27T15:54:02.475Z</time></trkpt><trkpt lat="43.3491633" lon="11.79065"><ele>294.0</ele><time>2026-04-27T15:54:04.474Z</time></trkpt><trkpt lat="43.34917" lon="11.7907617"><ele>294.0</ele><time>2026-04-27T15:54:06.478Z</time></trkpt><trkpt lat="43.3491533" lon="11.79088"><ele>294.0</ele><time>2026-04-27T15:54:08.477Z</time></trkpt><trkpt lat="43.3491317" lon="11.7909917"><ele>294.0</ele><time>2026-04-27T15:54:10.473Z</time></trkpt><trkpt lat="43.349125" lon="11.7911133"><ele>294.0</ele><time>2026-04-27T15:54:12.474Z</time></trkpt><trkpt lat="43.3491983" lon="11.7911667"><ele>294.0</ele><time>2026-04-27T15:54:14.477Z</time></trkpt><trkpt lat="43.3493067" lon="11.7911417"><ele>293.5</ele><time>2026-04-27T15:54:16.475Z</time></trkpt><trkpt lat="43.3494167" lon="11.79112"><ele>293.0</ele><time>2026-04-27T15:54:18.471Z</time></trkpt><trkpt lat="43.3495317" lon="11.7910867"><ele>292.5</ele><time>2026-04-27T15:54:20.472Z</time></trkpt><trkpt lat="43.3497017" lon="11.7910533"><ele>292.0</ele><time>2026-04-27T15:54:23.473Z</time></trkpt><trkpt lat="43.3498183" lon="11.7910367"><ele>292.0</ele><time>2026-04-27T15:54:25.472Z</time></trkpt><trkpt lat="43.34993" lon="11.7910217"><ele>292.0</ele><time>2026-04-27T15:54:27.475Z</time></trkpt><trkpt lat="43.3500383" lon="11.7910017"><ele>292.0</ele><time>2026-04-27T15:54:29.472Z</time></trkpt><trkpt lat="43.35015" lon="11.7909783"><ele>292.0</ele><time>2026-04-27T15:54:31.475Z</time></trkpt><trkpt lat="43.35026" lon="11.7909633"><ele>292.0</ele><time>2026-04-27T15:54:33.471Z</time></trkpt><trkpt lat="43.35037" lon="11.7909467"><ele>292.0</ele><time>2026-04-27T15:54:35.475Z</time></trkpt><trkpt lat="43.3504867" lon="11.7909283"><ele>292.0</ele><time>2026-04-27T15:54:37.472Z</time></trkpt><trkpt lat="43.350605" lon="11.7909183"><ele>292.0</ele><time>2026-04-27T15:54:39.471Z</time></trkpt><trkpt lat="43.3507283" lon="11.790905"><ele>292.0</ele><time>2026-04-27T15:54:41.471Z</time></trkpt><trkpt lat="43.35085" lon="11.7908833"><ele>291.6</ele><time>2026-04-27T15:54:43.472Z</time></trkpt><trkpt lat="43.3509683" lon="11.79087"><ele>291.2</ele><time>2026-04-27T15:54:45.473Z</time></trkpt><trkpt lat="43.3510317" lon="11.7908617"><ele>290.8</ele><time>2026-04-27T15:54:46.475Z</time></trkpt><trkpt lat="43.3511433" lon="11.790825"><ele>290.4</ele><time>2026-04-27T15:54:48.475Z</time></trkpt><trkpt lat="43.3512533" lon="11.79078"><ele>290.0</ele><time>2026-04-27T15:54:50.473Z</time></trkpt><trkpt lat="43.35136" lon="11.790695"><ele>289.83333333333337</ele><time>2026-04-27T15:54:52.474Z</time></trkpt><trkpt lat="43.3514117" lon="11.7906383"><ele>289.6666666666667</ele><time>2026-04-27T15:54:53.475Z</time></trkpt><trkpt lat="43.3514633" lon="11.7905833"><ele>289.5</ele><time>2026-04-27T15:54:54.474Z</time></trkpt><trkpt lat="43.351575" lon="11.7905083"><ele>289.3333333333333</ele><time>2026-04-27T15:54:56.474Z</time></trkpt><trkpt lat="43.3516383" lon="11.7904883"><ele>289.16666666666663</ele><time>2026-04-27T15:54:57.471Z</time></trkpt><trkpt lat="43.3517017" lon="11.790485"><ele>289.0</ele><time>2026-04-27T15:54:58.471Z</time></trkpt><trkpt lat="43.3518233" lon="11.79052"><ele>289.0</ele><time>2026-04-27T15:55:00.472Z</time></trkpt><trkpt lat="43.3518833" lon="11.7905517"><ele>289.0</ele><time>2026-04-27T15:55:01.473Z</time></trkpt><trkpt lat="43.3519433" lon="11.7905817"><ele>289.0</ele><time>2026-04-27T15:55:02.472Z</time></trkpt><trkpt lat="43.3520017" lon="11.790615"><ele>289.0</ele><time>2026-04-27T15:55:03.474Z</time></trkpt><trkpt lat="43.3520583" lon="11.7906533"><ele>289.0</ele><time>2026-04-27T15:55:04.475Z</time></trkpt><trkpt lat="43.352175" lon="11.7907183"><ele>289.0</ele><time>2026-04-27T15:55:06.477Z</time></trkpt><trkpt lat="43.35229" lon="11.79079"><ele>289.0</ele><time>2026-04-27T15:55:08.473Z</time></trkpt><trkpt lat="43.3523483" lon="11.7908267"><ele>289.0</ele><time>2026-04-27T15:55:09.473Z</time></trkpt><trkpt lat="43.3524067" lon="11.7908617"><ele>289.0</ele><time>2026-04-27T15:55:10.474Z</time></trkpt><trkpt lat="43.35252" lon="11.7909317"><ele>289.0</ele><time>2026-04-27T15:55:12.472Z</time></trkpt><trkpt lat="43.3525817" lon="11.7909717"><ele>289.0</ele><time>2026-04-27T15:55:13.472Z</time></trkpt><trkpt lat="43.3526433" lon="11.791005"><ele>289.0</ele><time>2026-04-27T15:55:14.473Z</time></trkpt><trkpt lat="43.3527083" lon="11.7910383"><ele>288.8571428571429</ele><time>2026-04-27T15:55:15.47Z</time></trkpt><trkpt lat="43.3527767" lon="11.7910667"><ele>288.7142857142857</ele><time>2026-04-27T15:55:16.472Z</time></trkpt><trkpt lat="43.3528467" lon="11.7910867"><ele>288.57142857142856</ele><time>2026-04-27T15:55:17.474Z</time></trkpt><trkpt lat="43.352915" lon="11.7911033"><ele>288.42857142857144</ele><time>2026-04-27T15:55:18.48Z</time></trkpt><trkpt lat="43.3529817" lon="11.791115"><ele>288.2857142857143</ele><time>2026-04-27T15:55:19.469Z</time></trkpt><trkpt lat="43.35305" lon="11.791125"><ele>288.14285714285717</ele><time>2026-04-27T15:55:20.474Z</time></trkpt><trkpt lat="43.3531167" lon="11.7911283"><ele>288.0</ele><time>2026-04-27T15:55:21.471Z</time></trkpt><trkpt lat="43.3531833" lon="11.7911317"><ele>287.6666666666667</ele><time>2026-04-27T15:55:22.476Z</time></trkpt><trkpt lat="43.35325" lon="11.7911383"><ele>287.3333333333333</ele><time>2026-04-27T15:55:23.47Z</time></trkpt><trkpt lat="43.3533133" lon="11.7911433"><ele>287.0</ele><time>2026-04-27T15:55:24.476Z</time></trkpt><trkpt lat="43.3533767" lon="11.7911433"><ele>286.66666666666663</ele><time>2026-04-27T15:55:25.473Z</time></trkpt><trkpt lat="43.35344" lon="11.7911383"><ele>286.3333333333333</ele><time>2026-04-27T15:55:26.475Z</time></trkpt><trkpt lat="43.353565" lon="11.79113"><ele>286.0</ele><time>2026-04-27T15:55:28.473Z</time></trkpt><trkpt lat="43.3536833" lon="11.7911317"><ele>286.0</ele><time>2026-04-27T15:55:30.469Z</time></trkpt><trkpt lat="43.3538017" lon="11.7911317"><ele>286.0</ele><time>2026-04-27T15:55:32.476Z</time></trkpt><trkpt lat="43.3539117" lon="11.791135"><ele>286.0</ele><time>2026-04-27T15:55:34.471Z</time></trkpt><trkpt lat="43.35402" lon="11.7911383"><ele>286.0</ele><time>2026-04-27T15:55:36.474Z</time></trkpt><trkpt lat="43.3541283" lon="11.7911283"><ele>286.0</ele><time>2026-04-27T15:55:38.476Z</time></trkpt><trkpt lat="43.3542433" lon="11.7911283"><ele>285.8</ele><time>2026-04-27T15:55:40.474Z</time></trkpt><trkpt lat="43.35436" lon="11.7911367"><ele>285.6</ele><time>2026-04-27T15:55:42.473Z</time></trkpt><trkpt lat="43.35448" lon="11.7911367"><ele>285.4</ele><time>2026-04-27T15:55:44.475Z</time></trkpt><trkpt lat="43.3545433" lon="11.7911367"><ele>285.2</ele><time>2026-04-27T15:55:45.473Z</time></trkpt><trkpt lat="43.3546633" lon="11.7911483"><ele>285.0</ele><time>2026-04-27T15:55:47.472Z</time></trkpt><trkpt lat="43.3547733" lon="11.791155"><ele>285.0</ele><time>2026-04-27T15:55:49.475Z</time></trkpt><trkpt lat="43.3548767" lon="11.7911517"><ele>285.0</ele><time>2026-04-27T15:55:51.473Z</time></trkpt><trkpt lat="43.3549867" lon="11.7911517"><ele>285.0</ele><time>2026-04-27T15:55:53.48Z</time></trkpt><trkpt lat="43.355095" lon="11.791165"><ele>285.0</ele><time>2026-04-27T15:55:55.474Z</time></trkpt><trkpt lat="43.3552033" lon="11.7911717"><ele>285.0</ele><time>2026-04-27T15:55:57.472Z</time></trkpt><trkpt lat="43.3553133" lon="11.79117"><ele>285.0</ele><time>2026-04-27T15:55:59.474Z</time></trkpt><trkpt lat="43.3554233" lon="11.79117"><ele>285.0</ele><time>2026-04-27T15:56:01.473Z</time></trkpt><trkpt lat="43.3555267" lon="11.791175"><ele>285.0</ele><time>2026-04-27T15:56:03.471Z</time></trkpt><trkpt lat="43.3556267" lon="11.791175"><ele>285.0</ele><time>2026-04-27T15:56:05.473Z</time></trkpt><trkpt lat="43.355725" lon="11.791175"><ele>285.0</ele><time>2026-04-27T15:56:07.471Z</time></trkpt><trkpt lat="43.35583" lon="11.791165"><ele>285.2</ele><time>2026-04-27T15:56:09.472Z</time></trkpt><trkpt lat="43.35593" lon="11.7911533"><ele>285.4</ele><time>2026-04-27T15:56:11.47Z</time></trkpt><trkpt lat="43.3560333" lon="11.7911483"><ele>285.6</ele><time>2026-04-27T15:56:13.472Z</time></trkpt><trkpt lat="43.35614" lon="11.791155"><ele>285.8</ele><time>2026-04-27T15:56:15.472Z</time></trkpt><trkpt lat="43.3562467" lon="11.7911633"><ele>286.0</ele><time>2026-04-27T15:56:17.472Z</time></trkpt><trkpt lat="43.3563483" lon="11.7911483"><ele>286.0</ele><time>2026-04-27T15:56:19.471Z</time></trkpt><trkpt lat="43.3564133" lon="11.7910467"><ele>286.0</ele><time>2026-04-27T15:56:21.471Z</time></trkpt><trkpt lat="43.3564183" lon="11.7909133"><ele>286.0</ele><time>2026-04-27T15:56:23.475Z</time></trkpt><trkpt lat="43.3564" lon="11.790795"><ele>286.0</ele><time>2026-04-27T15:56:25.473Z</time></trkpt><trkpt lat="43.356385" lon="11.7906617"><ele>286.0</ele><time>2026-04-27T15:56:27.474Z</time></trkpt><trkpt lat="43.3563683" lon="11.7905167"><ele>286.0</ele><time>2026-04-27T15:56:29.472Z</time></trkpt><trkpt lat="43.3563517" lon="11.7903617"><ele>286.0</ele><time>2026-04-27T15:56:31.473Z</time></trkpt><trkpt lat="43.3563233" lon="11.7902033"><ele>286.0</ele><time>2026-04-27T15:56:33.472Z</time></trkpt><trkpt lat="43.3562967" lon="11.7900467"><ele>286.0</ele><time>2026-04-27T15:56:35.471Z</time></trkpt><trkpt lat="43.35627" lon="11.789885"><ele>286.0</ele><time>2026-04-27T15:56:37.473Z</time></trkpt><trkpt lat="43.3562467" lon="11.78972"><ele>286.0</ele><time>2026-04-27T15:56:39.47Z</time></trkpt><trkpt lat="43.3562167" lon="11.78956"><ele>286.0</ele><time>2026-04-27T15:56:41.471Z</time></trkpt><trkpt lat="43.356195" lon="11.7893933"><ele>286.0</ele><time>2026-04-27T15:56:43.473Z</time></trkpt><trkpt lat="43.3561683" lon="11.7892283"><ele>285.5</ele><time>2026-04-27T15:56:45.471Z</time></trkpt><trkpt lat="43.3561367" lon="11.7890667"><ele>285.0</ele><time>2026-04-27T15:56:47.472Z</time></trkpt><trkpt lat="43.3561083" lon="11.7889117"><ele>284.5</ele><time>2026-04-27T15:56:49.473Z</time></trkpt><trkpt lat="43.35609" lon="11.7887517"><ele>284.0</ele><time>2026-04-27T15:56:51.472Z</time></trkpt><trkpt lat="43.3560667" lon="11.7885917"><ele>284.0</ele><time>2026-04-27T15:56:53.472Z</time></trkpt><trkpt lat="43.3560383" lon="11.7884333"><ele>284.0</ele><time>2026-04-27T15:56:55.474Z</time></trkpt><trkpt lat="43.356015" lon="11.7882767"><ele>284.0</ele><time>2026-04-27T15:56:57.476Z</time></trkpt><trkpt lat="43.3559983" lon="11.78811"><ele>284.0</ele><time>2026-04-27T15:56:59.471Z</time></trkpt><trkpt lat="43.356" lon="11.78794"><ele>284.0</ele><time>2026-04-27T15:57:01.472Z</time></trkpt><trkpt lat="43.3560033" lon="11.7877717"><ele>284.0</ele><time>2026-04-27T15:57:03.472Z</time></trkpt><trkpt lat="43.356" lon="11.78761"><ele>284.0</ele><time>2026-04-27T15:57:05.473Z</time></trkpt><trkpt lat="43.3559983" lon="11.7874483"><ele>284.0</ele><time>2026-04-27T15:57:07.475Z</time></trkpt><trkpt lat="43.355995" lon="11.7872917"><ele>284.0</ele><time>2026-04-27T15:57:09.472Z</time></trkpt><trkpt lat="43.35599" lon="11.7871367"><ele>284.0</ele><time>2026-04-27T15:57:11.474Z</time></trkpt><trkpt lat="43.3559867" lon="11.7869867"><ele>284.0</ele><time>2026-04-27T15:57:13.474Z</time></trkpt><trkpt lat="43.35598" lon="11.7868317"><ele>284.0</ele><time>2026-04-27T15:57:15.473Z</time></trkpt><trkpt lat="43.3559617" lon="11.786675"><ele>284.0</ele><time>2026-04-27T15:57:17.472Z</time></trkpt><trkpt lat="43.3559533" lon="11.7865233"><ele>284.0</ele><time>2026-04-27T15:57:19.473Z</time></trkpt><trkpt lat="43.3559483" lon="11.7863783"><ele>284.0</ele><time>2026-04-27T15:57:21.473Z</time></trkpt><trkpt lat="43.3559417" lon="11.7862383"><ele>284.0</ele><time>2026-04-27T15:57:23.472Z</time></trkpt><trkpt lat="43.3559333" lon="11.7861"><ele>284.0</ele><time>2026-04-27T15:57:25.472Z</time></trkpt><trkpt lat="43.3559333" lon="11.785965"><ele>284.0</ele><time>2026-04-27T15:57:27.474Z</time></trkpt><trkpt lat="43.3559333" lon="11.7858233"><ele>284.0</ele><time>2026-04-27T15:57:29.473Z</time></trkpt><trkpt lat="43.35594" lon="11.78568"><ele>284.0</ele><time>2026-04-27T15:57:31.475Z</time></trkpt><trkpt lat="43.35594" lon="11.78554"><ele>284.0</ele><time>2026-04-27T15:57:33.472Z</time></trkpt><trkpt lat="43.3559383" lon="11.7854017"><ele>284.0</ele><time>2026-04-27T15:57:35.473Z</time></trkpt><trkpt lat="43.3559417" lon="11.7852683"><ele>283.8</ele><time>2026-04-27T15:57:37.473Z</time></trkpt><trkpt lat="43.3559417" lon="11.7851267"><ele>283.59999999999997</ele><time>2026-04-27T15:57:39.473Z</time></trkpt><trkpt lat="43.35595" lon="11.784985"><ele>283.4</ele><time>2026-04-27T15:57:41.476Z</time></trkpt><trkpt lat="43.35596" lon="11.7848417"><ele>283.2</ele><time>2026-04-27T15:57:43.474Z</time></trkpt><trkpt lat="43.3559733" lon="11.7847"><ele>283.0</ele><time>2026-04-27T15:57:45.472Z</time></trkpt><trkpt lat="43.3559767" lon="11.7845483"><ele>283.0</ele><time>2026-04-27T15:57:47.475Z</time></trkpt><trkpt lat="43.3559833" lon="11.7843933"><ele>283.0</ele><time>2026-04-27T15:57:49.475Z</time></trkpt><trkpt lat="43.3559883" lon="11.7842267"><ele>283.0</ele><time>2026-04-27T15:57:51.476Z</time></trkpt><trkpt lat="43.35599" lon="11.7840633"><ele>283.0</ele><time>2026-04-27T15:57:53.477Z</time></trkpt><trkpt lat="43.3559867" lon="11.783905"><ele>283.0</ele><time>2026-04-27T15:57:55.473Z</time></trkpt><trkpt lat="43.3559817" lon="11.7837467"><ele>283.0</ele><time>2026-04-27T15:57:57.474Z</time></trkpt><trkpt lat="43.35597" lon="11.783595"><ele>283.0</ele><time>2026-04-27T15:57:59.472Z</time></trkpt><trkpt lat="43.3559583" lon="11.78345"><ele>283.0</ele><time>2026-04-27T15:58:01.474Z</time></trkpt><trkpt lat="43.3559417" lon="11.7832883"><ele>283.0</ele><time>2026-04-27T15:58:03.472Z</time></trkpt><trkpt lat="43.3559183" lon="11.7831433"><ele>283.0</ele><time>2026-04-27T15:58:05.475Z</time></trkpt><trkpt lat="43.355895" lon="11.7829967"><ele>283.0</ele><time>2026-04-27T15:58:07.472Z</time></trkpt><trkpt lat="43.3558683" lon="11.782855"><ele>283.0</ele><time>2026-04-27T15:58:09.474Z</time></trkpt><trkpt lat="43.3558383" lon="11.78272"><ele>283.0</ele><time>2026-04-27T15:58:11.471Z</time></trkpt><trkpt lat="43.3558133" lon="11.7825883"><ele>283.4</ele><time>2026-04-27T15:58:13.474Z</time></trkpt><trkpt lat="43.35579" lon="11.782455"><ele>283.8</ele><time>2026-04-27T15:58:15.475Z</time></trkpt><trkpt lat="43.355765" lon="11.7823283"><ele>284.2</ele><time>2026-04-27T15:58:17.473Z</time></trkpt><trkpt lat="43.3557417" lon="11.782205"><ele>284.6</ele><time>2026-04-27T15:58:19.473Z</time></trkpt><trkpt lat="43.3557183" lon="11.782085"><ele>285.0</ele><time>2026-04-27T15:58:21.472Z</time></trkpt><trkpt lat="43.3556917" lon="11.7819717"><ele>285.0</ele><time>2026-04-27T15:58:23.473Z</time></trkpt><trkpt lat="43.3556733" lon="11.78186"><ele>285.0</ele><time>2026-04-27T15:58:25.473Z</time></trkpt><trkpt lat="43.3556633" lon="11.7817533"><ele>285.0</ele><time>2026-04-27T15:58:27.473Z</time></trkpt><trkpt lat="43.3556467" lon="11.781655"><ele>285.0</ele><time>2026-04-27T15:58:29.475Z</time></trkpt><trkpt lat="43.3556267" lon="11.7815617"><ele>285.0</ele><time>2026-04-27T15:58:31.474Z</time></trkpt><trkpt lat="43.3556083" lon="11.7814667"><ele>285.0</ele><time>2026-04-27T15:58:33.475Z</time></trkpt><trkpt lat="43.3555933" lon="11.781375"><ele>285.0</ele><time>2026-04-27T15:58:35.472Z</time></trkpt><trkpt lat="43.3555717" lon="11.7812783"><ele>285.3333333333333</ele><time>2026-04-27T15:58:37.474Z</time></trkpt><trkpt lat="43.3555567" lon="11.7811717"><ele>285.6666666666667</ele><time>2026-04-27T15:58:39.474Z</time></trkpt><trkpt lat="43.3555567" lon="11.781075"><ele>286.0</ele><time>2026-04-27T15:58:41.474Z</time></trkpt><trkpt lat="43.3555833" lon="11.780995"><ele>286.33333333333337</ele><time>2026-04-27T15:58:43.473Z</time></trkpt><trkpt lat="43.35566" lon="11.78095"><ele>286.6666666666667</ele><time>2026-04-27T15:58:46.474Z</time></trkpt><trkpt lat="43.3557433" lon="11.78099"><ele>287.0</ele><time>2026-04-27T15:58:49.474Z</time></trkpt><trkpt lat="43.35583" lon="11.7810283"><ele>287.0</ele><time>2026-04-27T15:58:52.477Z</time></trkpt><trkpt lat="43.3558917" lon="11.7810583"><ele>287.0</ele><time>2026-04-27T15:58:54.475Z</time></trkpt><trkpt lat="43.3559733" lon="11.7810883"><ele>287.0</ele><time>2026-04-27T15:58:56.478Z</time></trkpt><trkpt lat="43.35607" lon="11.7811117"><ele>287.0</ele><time>2026-04-27T15:58:58.473Z</time></trkpt><trkpt lat="43.3561683" lon="11.7811267"><ele>287.0</ele><time>2026-04-27T15:59:00.475Z</time></trkpt><trkpt lat="43.3562733" lon="11.7811467"><ele>287.2</ele><time>2026-04-27T15:59:02.474Z</time></trkpt><trkpt lat="43.3563833" lon="11.7811683"><ele>287.4</ele><time>2026-04-27T15:59:04.474Z</time></trkpt><trkpt lat="43.3564933" lon="11.7811833"><ele>287.6</ele><time>2026-04-27T15:59:06.472Z</time></trkpt><trkpt lat="43.3566" lon="11.7812067"><ele>287.8</ele><time>2026-04-27T15:59:08.477Z</time></trkpt><trkpt lat="43.3567133" lon="11.7812283"><ele>288.0</ele><time>2026-04-27T15:59:10.473Z</time></trkpt><trkpt lat="43.3568267" lon="11.78125"><ele>288.0</ele><time>2026-04-27T15:59:12.475Z</time></trkpt><trkpt lat="43.3569367" lon="11.7812817"><ele>288.0</ele><time>2026-04-27T15:59:14.473Z</time></trkpt><trkpt lat="43.3570483" lon="11.7813217"><ele>288.0</ele><time>2026-04-27T15:59:16.473Z</time></trkpt><trkpt lat="43.357155" lon="11.7813583"><ele>288.0</ele><time>2026-04-27T15:59:18.475Z</time></trkpt><trkpt lat="43.35726" lon="11.781405"><ele>288.0</ele><time>2026-04-27T15:59:20.473Z</time></trkpt><trkpt lat="43.35736" lon="11.78145"><ele>288.0</ele><time>2026-04-27T15:59:22.473Z</time></trkpt><trkpt lat="43.3574567" lon="11.7814983"><ele>288.0</ele><time>2026-04-27T15:59:24.473Z</time></trkpt><trkpt lat="43.35756" lon="11.7815383"><ele>288.0</ele><time>2026-04-27T15:59:26.475Z</time></trkpt><trkpt lat="43.3576633" lon="11.7815817"><ele>288.0</ele><time>2026-04-27T15:59:28.475Z</time></trkpt><trkpt lat="43.3577683" lon="11.7816167"><ele>288.0</ele><time>2026-04-27T15:59:30.474Z</time></trkpt><trkpt lat="43.357855" lon="11.7816633"><ele>288.0</ele><time>2026-04-27T15:59:32.476Z</time></trkpt><trkpt lat="43.3579517" lon="11.7817017"><ele>288.0</ele><time>2026-04-27T15:59:34.479Z</time></trkpt><trkpt lat="43.358035" lon="11.781745"><ele>288.0</ele><time>2026-04-27T15:59:36.475Z</time></trkpt><trkpt lat="43.3581283" lon="11.7817933"><ele>288.0</ele><time>2026-04-27T15:59:38.48Z</time></trkpt><trkpt lat="43.3582133" lon="11.7818383"><ele>288.0</ele><time>2026-04-27T15:59:40.475Z</time></trkpt><trkpt lat="43.3583033" lon="11.7818767"><ele>288.25</ele><time>2026-04-27T15:59:42.475Z</time></trkpt><trkpt lat="43.3584583" lon="11.7819567"><ele>288.5</ele><time>2026-04-27T15:59:45.475Z</time></trkpt><trkpt lat="43.358525" lon="11.7819833"><ele>288.75</ele><time>2026-04-27T15:59:46.472Z</time></trkpt><trkpt lat="43.3586383" lon="11.782025"><ele>289.0</ele><time>2026-04-27T15:59:48.473Z</time></trkpt><trkpt lat="43.3587567" lon="11.78207"><ele>288.42857142857144</ele><time>2026-04-27T15:59:50.477Z</time></trkpt><trkpt lat="43.3588717" lon="11.78213"><ele>287.85714285714283</ele><time>2026-04-27T15:59:52.475Z</time></trkpt><trkpt lat="43.3589317" lon="11.7821633"><ele>287.2857142857143</ele><time>2026-04-27T15:59:53.474Z</time></trkpt><trkpt lat="43.3589917" lon="11.7821967"><ele>286.7142857142857</ele><time>2026-04-27T15:59:54.473Z</time></trkpt><trkpt lat="43.35905" lon="11.7822317"><ele>286.14285714285717</ele><time>2026-04-27T15:59:55.475Z</time></trkpt><trkpt lat="43.3591083" lon="11.78227"><ele>285.57142857142856</ele><time>2026-04-27T15:59:56.473Z</time></trkpt><trkpt lat="43.359165" lon="11.78231"><ele>285.0</ele><time>2026-04-27T15:59:57.473Z</time></trkpt><trkpt lat="43.35922" lon="11.7823533"><ele>285.0</ele><time>2026-04-27T15:59:58.482Z</time></trkpt><trkpt lat="43.3592783" lon="11.7823933"><ele>285.0</ele><time>2026-04-27T15:59:59.474Z</time></trkpt><trkpt lat="43.3593383" lon="11.7824267"><ele>285.0</ele><time>2026-04-27T16:00:00.473Z</time></trkpt><trkpt lat="43.3594" lon="11.78246"><ele>285.0</ele><time>2026-04-27T16:00:01.472Z</time></trkpt><trkpt lat="43.35946" lon="11.7824917"><ele>285.0</ele><time>2026-04-27T16:00:02.476Z</time></trkpt><trkpt lat="43.35952" lon="11.7825233"><ele>285.0</ele><time>2026-04-27T16:00:03.476Z</time></trkpt><trkpt lat="43.35958" lon="11.7825517"><ele>285.0</ele><time>2026-04-27T16:00:04.476Z</time></trkpt><trkpt lat="43.3596417" lon="11.78258"><ele>285.0</ele><time>2026-04-27T16:00:05.476Z</time></trkpt><trkpt lat="43.359755" lon="11.7826417"><ele>285.0</ele><time>2026-04-27T16:00:07.475Z</time></trkpt><trkpt lat="43.3598633" lon="11.7827167"><ele>285.0</ele><time>2026-04-27T16:00:09.473Z</time></trkpt><trkpt lat="43.3599633" lon="11.7827983"><ele>285.0</ele><time>2026-04-27T16:00:11.477Z</time></trkpt><trkpt lat="43.3600583" lon="11.7828833"><ele>285.0</ele><time>2026-04-27T16:00:13.473Z</time></trkpt><trkpt lat="43.3601417" lon="11.7829783"><ele>285.0</ele><time>2026-04-27T16:00:15.474Z</time></trkpt><trkpt lat="43.3602233" lon="11.78308"><ele>285.0</ele><time>2026-04-27T16:00:17.474Z</time></trkpt><trkpt lat="43.3602983" lon="11.78318"><ele>285.0</ele><time>2026-04-27T16:00:19.475Z</time></trkpt><trkpt lat="43.36037" lon="11.7832883"><ele>285.0</ele><time>2026-04-27T16:00:21.475Z</time></trkpt><trkpt lat="43.3604433" lon="11.7834017"><ele>285.0</ele><time>2026-04-27T16:00:23.475Z</time></trkpt><trkpt lat="43.3605183" lon="11.7835167"><ele>285.0</ele><time>2026-04-27T16:00:25.472Z</time></trkpt><trkpt lat="43.3605917" lon="11.7836417"><ele>285.0</ele><time>2026-04-27T16:00:27.472Z</time></trkpt><trkpt lat="43.3606633" lon="11.783765"><ele>285.0</ele><time>2026-04-27T16:00:29.474Z</time></trkpt><trkpt lat="43.36074" lon="11.7838933"><ele>285.0</ele><time>2026-04-27T16:00:31.474Z</time></trkpt><trkpt lat="43.3608133" lon="11.7840217"><ele>285.0</ele><time>2026-04-27T16:00:33.473Z</time></trkpt><trkpt lat="43.3608833" lon="11.7841433"><ele>285.0</ele><time>2026-04-27T16:00:35.473Z</time></trkpt><trkpt lat="43.3609633" lon="11.7842517"><ele>285.0</ele><time>2026-04-27T16:00:37.475Z</time></trkpt><trkpt lat="43.3610717" lon="11.7843033"><ele>285.0</ele><time>2026-04-27T16:00:39.475Z</time></trkpt><trkpt lat="43.3611833" lon="11.7842917"><ele>285.0</ele><time>2026-04-27T16:00:41.474Z</time></trkpt><trkpt lat="43.3612967" lon="11.7842617"><ele>285.0</ele><time>2026-04-27T16:00:43.477Z</time></trkpt><trkpt lat="43.3614183" lon="11.78423"><ele>285.0</ele><time>2026-04-27T16:00:45.475Z</time></trkpt><trkpt lat="43.3615417" lon="11.78421"><ele>284.5</ele><time>2026-04-27T16:00:47.471Z</time></trkpt><trkpt lat="43.3616633" lon="11.7841917"><ele>284.0</ele><time>2026-04-27T16:00:49.476Z</time></trkpt><trkpt lat="43.361785" lon="11.7841883"><ele>283.5</ele><time>2026-04-27T16:00:51.476Z</time></trkpt><trkpt lat="43.3619067" lon="11.784185"><ele>283.0</ele><time>2026-04-27T16:00:53.476Z</time></trkpt><trkpt lat="43.3620183" lon="11.7842133"><ele>283.0</ele><time>2026-04-27T16:00:55.472Z</time></trkpt><trkpt lat="43.3621233" lon="11.78426"><ele>283.0</ele><time>2026-04-27T16:00:57.473Z</time></trkpt><trkpt lat="43.3622233" lon="11.7843"><ele>283.0</ele><time>2026-04-27T16:00:59.475Z</time></trkpt><trkpt lat="43.3623233" lon="11.784345"><ele>283.0</ele><time>2026-04-27T16:01:01.471Z</time></trkpt><trkpt lat="43.3624267" lon="11.78439"><ele>283.0</ele><time>2026-04-27T16:01:03.476Z</time></trkpt><trkpt lat="43.3625283" lon="11.7844283"><ele>283.0</ele><time>2026-04-27T16:01:05.471Z</time></trkpt><trkpt lat="43.3626267" lon="11.78447"><ele>283.0</ele><time>2026-04-27T16:01:07.474Z</time></trkpt><trkpt lat="43.3627367" lon="11.7845167"><ele>283.0</ele><time>2026-04-27T16:01:09.472Z</time></trkpt><trkpt lat="43.362845" lon="11.784555"><ele>283.0</ele><time>2026-04-27T16:01:11.473Z</time></trkpt><trkpt lat="43.3629617" lon="11.7845883"><ele>283.0</ele><time>2026-04-27T16:01:13.473Z</time></trkpt><trkpt lat="43.3630783" lon="11.7846167"><ele>282.5</ele><time>2026-04-27T16:01:15.476Z</time></trkpt><trkpt lat="43.3631967" lon="11.7846533"><ele>282.0</ele><time>2026-04-27T16:01:17.474Z</time></trkpt><trkpt lat="43.3633133" lon="11.7846817"><ele>281.5</ele><time>2026-04-27T16:01:19.476Z</time></trkpt><trkpt lat="43.3634233" lon="11.78472"><ele>281.0</ele><time>2026-04-27T16:01:21.476Z</time></trkpt><trkpt lat="43.3635317" lon="11.7847667"><ele>281.0</ele><time>2026-04-27T16:01:23.477Z</time></trkpt><trkpt lat="43.36364" lon="11.7848183"><ele>281.0</ele><time>2026-04-27T16:01:25.474Z</time></trkpt><trkpt lat="43.3637567" lon="11.7848683"><ele>281.0</ele><time>2026-04-27T16:01:27.474Z</time></trkpt><trkpt lat="43.3638667" lon="11.784925"><ele>281.0</ele><time>2026-04-27T16:01:29.477Z</time></trkpt><trkpt lat="43.3639783" lon="11.784995"><ele>280.8571428571429</ele><time>2026-04-27T16:01:31.472Z</time></trkpt><trkpt lat="43.3640383" lon="11.7850333"><ele>280.7142857142857</ele><time>2026-04-27T16:01:32.476Z</time></trkpt><trkpt lat="43.3640983" lon="11.7850683"><ele>280.57142857142856</ele><time>2026-04-27T16:01:33.474Z</time></trkpt><trkpt lat="43.3641583" lon="11.7851067"><ele>280.42857142857144</ele><time>2026-04-27T16:01:34.473Z</time></trkpt><trkpt lat="43.3642183" lon="11.7851467"><ele>280.2857142857143</ele><time>2026-04-27T16:01:35.472Z</time></trkpt><trkpt lat="43.3642783" lon="11.78519"><ele>280.14285714285717</ele><time>2026-04-27T16:01:36.478Z</time></trkpt><trkpt lat="43.36434" lon="11.7852317"><ele>280.0</ele><time>2026-04-27T16:01:37.474Z</time></trkpt><trkpt lat="43.3644017" lon="11.7852717"><ele>279.85714285714283</ele><time>2026-04-27T16:01:38.479Z</time></trkpt><trkpt lat="43.3644667" lon="11.7853067"><ele>279.7142857142857</ele><time>2026-04-27T16:01:39.481Z</time></trkpt><trkpt lat="43.3645317" lon="11.7853383"><ele>279.57142857142856</ele><time>2026-04-27T16:01:40.478Z</time></trkpt><trkpt lat="43.3645983" lon="11.78536"><ele>279.42857142857144</ele><time>2026-04-27T16:01:41.475Z</time></trkpt><trkpt lat="43.3646667" lon="11.7853767"><ele>279.2857142857143</ele><time>2026-04-27T16:01:42.474Z</time></trkpt><trkpt lat="43.3647367" lon="11.7853867"><ele>279.1428571428571</ele><time>2026-04-27T16:01:43.472Z</time></trkpt><trkpt lat="43.364805" lon="11.785395"><ele>279.0</ele><time>2026-04-27T16:01:44.474Z</time></trkpt><trkpt lat="43.364875" lon="11.7854033"><ele>278.71428571428567</ele><time>2026-04-27T16:01:45.475Z</time></trkpt><trkpt lat="43.3649467" lon="11.7854067"><ele>278.42857142857144</ele><time>2026-04-27T16:01:46.475Z</time></trkpt><trkpt lat="43.3650217" lon="11.7854033"><ele>278.1428571428571</ele><time>2026-04-27T16:01:47.476Z</time></trkpt><trkpt lat="43.3650917" lon="11.7853983"><ele>277.85714285714283</ele><time>2026-04-27T16:01:48.474Z</time></trkpt><trkpt lat="43.3651567" lon="11.7853933"><ele>277.57142857142856</ele><time>2026-04-27T16:01:49.475Z</time></trkpt><trkpt lat="43.365225" lon="11.785385"><ele>277.2857142857143</ele><time>2026-04-27T16:01:50.475Z</time></trkpt><trkpt lat="43.3652917" lon="11.7853767"><ele>277.0</ele><time>2026-04-27T16:01:51.471Z</time></trkpt><trkpt lat="43.3653567" lon="11.7853717"><ele>277.0</ele><time>2026-04-27T16:01:52.473Z</time></trkpt><trkpt lat="43.36542" lon="11.7853683"><ele>277.0</ele><time>2026-04-27T16:01:53.474Z</time></trkpt><trkpt lat="43.3654867" lon="11.7853633"><ele>277.0</ele><time>2026-04-27T16:01:54.477Z</time></trkpt><trkpt lat="43.3656117" lon="11.7853567"><ele>277.0</ele><time>2026-04-27T16:01:56.474Z</time></trkpt><trkpt lat="43.365675" lon="11.78535"><ele>277.0</ele><time>2026-04-27T16:01:57.473Z</time></trkpt><trkpt lat="43.3657417" lon="11.7853467"><ele>277.0</ele><time>2026-04-27T16:01:58.477Z</time></trkpt><trkpt lat="43.365805" lon="11.7853467"><ele>277.0</ele><time>2026-04-27T16:01:59.473Z</time></trkpt><trkpt lat="43.36587" lon="11.785345"><ele>277.2857142857143</ele><time>2026-04-27T16:02:00.48Z</time></trkpt><trkpt lat="43.365935" lon="11.7853467"><ele>277.57142857142856</ele><time>2026-04-27T16:02:01.478Z</time></trkpt><trkpt lat="43.366" lon="11.78535"><ele>277.85714285714283</ele><time>2026-04-27T16:02:02.476Z</time></trkpt><trkpt lat="43.366065" lon="11.7853567"><ele>278.1428571428571</ele><time>2026-04-27T16:02:03.476Z</time></trkpt><trkpt lat="43.36613" lon="11.7853633"><ele>278.42857142857144</ele><time>2026-04-27T16:02:04.473Z</time></trkpt><trkpt lat="43.3661967" lon="11.7853717"><ele>278.71428571428567</ele><time>2026-04-27T16:02:05.476Z</time></trkpt><trkpt lat="43.3662617" lon="11.78538"><ele>279.0</ele><time>2026-04-27T16:02:06.476Z</time></trkpt><trkpt lat="43.3663267" lon="11.7853917"><ele>279.1428571428571</ele><time>2026-04-27T16:02:07.476Z</time></trkpt><trkpt lat="43.3663917" lon="11.7854067"><ele>279.2857142857143</ele><time>2026-04-27T16:02:08.473Z</time></trkpt><trkpt lat="43.366455" lon="11.785425"><ele>279.42857142857144</ele><time>2026-04-27T16:02:09.474Z</time></trkpt><trkpt lat="43.36652" lon="11.785445"><ele>279.57142857142856</ele><time>2026-04-27T16:02:10.477Z</time></trkpt><trkpt lat="43.3665833" lon="11.7854683"><ele>279.7142857142857</ele><time>2026-04-27T16:02:11.474Z</time></trkpt><trkpt lat="43.3666467" lon="11.785495"><ele>279.85714285714283</ele><time>2026-04-27T16:02:12.474Z</time></trkpt><trkpt lat="43.3667067" lon="11.7855217"><ele>280.0</ele><time>2026-04-27T16:02:13.477Z</time></trkpt><trkpt lat="43.3667667" lon="11.7855517"><ele>280.0</ele><time>2026-04-27T16:02:14.476Z</time></trkpt><trkpt lat="43.366885" lon="11.7856067"><ele>280.0</ele><time>2026-04-27T16:02:16.474Z</time></trkpt><trkpt lat="43.3669983" lon="11.7856567"><ele>280.0</ele><time>2026-04-27T16:02:18.476Z</time></trkpt><trkpt lat="43.3671067" lon="11.7857117"><ele>280.0</ele><time>2026-04-27T16:02:20.475Z</time></trkpt><trkpt lat="43.367215" lon="11.78576"><ele>279.5</ele><time>2026-04-27T16:02:22.476Z</time></trkpt><trkpt lat="43.36733" lon="11.7858033"><ele>279.0</ele><time>2026-04-27T16:02:24.477Z</time></trkpt><trkpt lat="43.3674483" lon="11.785845"><ele>278.5</ele><time>2026-04-27T16:02:26.475Z</time></trkpt><trkpt lat="43.367565" lon="11.785895"><ele>278.0</ele><time>2026-04-27T16:02:28.475Z</time></trkpt><trkpt lat="43.3676867" lon="11.785935"><ele>278.0</ele><time>2026-04-27T16:02:30.472Z</time></trkpt><trkpt lat="43.3678067" lon="11.7859683"><ele>278.0</ele><time>2026-04-27T16:02:32.472Z</time></trkpt><trkpt lat="43.36793" lon="11.7859917"><ele>278.0</ele><time>2026-04-27T16:02:34.472Z</time></trkpt><trkpt lat="43.3680483" lon="11.786015"><ele>278.0</ele><time>2026-04-27T16:02:36.477Z</time></trkpt><trkpt lat="43.36811" lon="11.7860333"><ele>278.0</ele><time>2026-04-27T16:02:37.474Z</time></trkpt><trkpt lat="43.368175" lon="11.7860483"><ele>278.0</ele><time>2026-04-27T16:02:38.475Z</time></trkpt><trkpt lat="43.3682383" lon="11.7860617"><ele>278.0</ele><time>2026-04-27T16:02:39.473Z</time></trkpt><trkpt lat="43.3683583" lon="11.7860917"><ele>278.0</ele><time>2026-04-27T16:02:41.474Z</time></trkpt><trkpt lat="43.36847" lon="11.7861183"><ele>278.0</ele><time>2026-04-27T16:02:43.474Z</time></trkpt><trkpt lat="43.368585" lon="11.786145"><ele>278.0</ele><time>2026-04-27T16:02:45.474Z</time></trkpt><trkpt lat="43.3687017" lon="11.7861633"><ele>278.0</ele><time>2026-04-27T16:02:47.472Z</time></trkpt><trkpt lat="43.3688167" lon="11.7861817"><ele>278.0</ele><time>2026-04-27T16:02:49.477Z</time></trkpt><trkpt lat="43.368935" lon="11.786205"><ele>278.0</ele><time>2026-04-27T16:02:51.475Z</time></trkpt><trkpt lat="43.3690583" lon="11.78623"><ele>278.0</ele><time>2026-04-27T16:02:53.473Z</time></trkpt><trkpt lat="43.3691783" lon="11.7862583"><ele>278.0</ele><time>2026-04-27T16:02:55.474Z</time></trkpt><trkpt lat="43.3692917" lon="11.7862817"><ele>278.0</ele><time>2026-04-27T16:02:57.474Z</time></trkpt><trkpt lat="43.3694" lon="11.7863067"><ele>278.0</ele><time>2026-04-27T16:02:59.476Z</time></trkpt><trkpt lat="43.3695067" lon="11.786325"><ele>278.0</ele><time>2026-04-27T16:03:01.474Z</time></trkpt><trkpt lat="43.369615" lon="11.7863483"><ele>278.0</ele><time>2026-04-27T16:03:03.472Z</time></trkpt><trkpt lat="43.3697217" lon="11.786375"><ele>278.0</ele><time>2026-04-27T16:03:05.475Z</time></trkpt><trkpt lat="43.36983" lon="11.786405"><ele>278.0</ele><time>2026-04-27T16:03:07.472Z</time></trkpt><trkpt lat="43.3699417" lon="11.7864433"><ele>278.0</ele><time>2026-04-27T16:03:09.483Z</time></trkpt><trkpt lat="43.37005" lon="11.7864867"><ele>278.0</ele><time>2026-04-27T16:03:11.473Z</time></trkpt><trkpt lat="43.3701567" lon="11.78653"><ele>278.0</ele><time>2026-04-27T16:03:13.472Z</time></trkpt><trkpt lat="43.370255" lon="11.7865783"><ele>278.0</ele><time>2026-04-27T16:03:15.475Z</time></trkpt><trkpt lat="43.3703533" lon="11.78663"><ele>278.0</ele><time>2026-04-27T16:03:17.472Z</time></trkpt><trkpt lat="43.370445" lon="11.78668"><ele>278.0</ele><time>2026-04-27T16:03:19.473Z</time></trkpt><trkpt lat="43.3705317" lon="11.7867283"><ele>278.0</ele><time>2026-04-27T16:03:21.475Z</time></trkpt><trkpt lat="43.3706183" lon="11.7867733"><ele>277.8</ele><time>2026-04-27T16:03:23.474Z</time></trkpt><trkpt lat="43.3707083" lon="11.7868117"><ele>277.6</ele><time>2026-04-27T16:03:25.476Z</time></trkpt><trkpt lat="43.3707967" lon="11.7868467"><ele>277.4</ele><time>2026-04-27T16:03:27.475Z</time></trkpt><trkpt lat="43.3708867" lon="11.7868667"><ele>277.2</ele><time>2026-04-27T16:03:29.478Z</time></trkpt><trkpt lat="43.370975" lon="11.78689"><ele>277.0</ele><time>2026-04-27T16:03:31.475Z</time></trkpt><trkpt lat="43.3710667" lon="11.7868967"><ele>276.8333333333333</ele><time>2026-04-27T16:03:33.474Z</time></trkpt><trkpt lat="43.3711567" lon="11.7869017"><ele>276.66666666666663</ele><time>2026-04-27T16:03:35.475Z</time></trkpt><trkpt lat="43.37125" lon="11.7869133"><ele>276.5</ele><time>2026-04-27T16:03:37.473Z</time></trkpt><trkpt lat="43.3713383" lon="11.7869267"><ele>276.3333333333333</ele><time>2026-04-27T16:03:39.475Z</time></trkpt><trkpt lat="43.3714217" lon="11.7869417"><ele>276.1666666666667</ele><time>2026-04-27T16:03:41.478Z</time></trkpt><trkpt lat="43.3715067" lon="11.7869517"><ele>276.0</ele><time>2026-04-27T16:03:43.475Z</time></trkpt><trkpt lat="43.3715933" lon="11.786965"><ele>276.3333333333333</ele><time>2026-04-27T16:03:45.474Z</time></trkpt><trkpt lat="43.3716783" lon="11.786975"><ele>276.6666666666667</ele><time>2026-04-27T16:03:47.475Z</time></trkpt><trkpt lat="43.37176" lon="11.7869867"><ele>277.0</ele><time>2026-04-27T16:03:49.479Z</time></trkpt><trkpt lat="43.3718417" lon="11.786995"><ele>277.33333333333337</ele><time>2026-04-27T16:03:51.481Z</time></trkpt><trkpt lat="43.371925" lon="11.7869967"><ele>277.6666666666667</ele><time>2026-04-27T16:03:53.474Z</time></trkpt><trkpt lat="43.372005" lon="11.7870083"><ele>278.0</ele><time>2026-04-27T16:03:55.474Z</time></trkpt><trkpt lat="43.3720933" lon="11.7870167"><ele>278.0</ele><time>2026-04-27T16:03:57.473Z</time></trkpt><trkpt lat="43.372185" lon="11.7870233"><ele>278.0</ele><time>2026-04-27T16:03:59.472Z</time></trkpt><trkpt lat="43.3722783" lon="11.7870383"><ele>278.0</ele><time>2026-04-27T16:04:01.475Z</time></trkpt><trkpt lat="43.372375" lon="11.787055"><ele>278.0</ele><time>2026-04-27T16:04:03.471Z</time></trkpt><trkpt lat="43.3724733" lon="11.78707"><ele>278.0</ele><time>2026-04-27T16:04:05.476Z</time></trkpt><trkpt lat="43.3725633" lon="11.787085"><ele>277.6</ele><time>2026-04-27T16:04:07.475Z</time></trkpt><trkpt lat="43.372655" lon="11.7871017"><ele>277.20000000000005</ele><time>2026-04-27T16:04:09.477Z</time></trkpt><trkpt lat="43.3727483" lon="11.7871133"><ele>276.8</ele><time>2026-04-27T16:04:11.474Z</time></trkpt><trkpt lat="43.372835" lon="11.7871233"><ele>276.40000000000003</ele><time>2026-04-27T16:04:13.479Z</time></trkpt><trkpt lat="43.3729283" lon="11.7871367"><ele>276.0</ele><time>2026-04-27T16:04:15.476Z</time></trkpt><trkpt lat="43.3730217" lon="11.7871517"><ele>275.8</ele><time>2026-04-27T16:04:17.478Z</time></trkpt><trkpt lat="43.3731167" lon="11.7871667"><ele>275.6</ele><time>2026-04-27T16:04:19.474Z</time></trkpt><trkpt lat="43.37321" lon="11.7871867"><ele>275.4</ele><time>2026-04-27T16:04:21.476Z</time></trkpt><trkpt lat="43.3733" lon="11.7872"><ele>275.2</ele><time>2026-04-27T16:04:23.476Z</time></trkpt><trkpt lat="43.3734" lon="11.7872067"><ele>275.0</ele><time>2026-04-27T16:04:25.478Z</time></trkpt><trkpt lat="43.3735033" lon="11.7872167"><ele>275.0</ele><time>2026-04-27T16:04:27.477Z</time></trkpt><trkpt lat="43.373605" lon="11.7872267"><ele>275.0</ele><time>2026-04-27T16:04:29.472Z</time></trkpt><trkpt lat="43.3737067" lon="11.7872367"><ele>275.0</ele><time>2026-04-27T16:04:31.474Z</time></trkpt><trkpt lat="43.37381" lon="11.7872517"><ele>275.0</ele><time>2026-04-27T16:04:33.472Z</time></trkpt><trkpt lat="43.3739167" lon="11.787265"><ele>275.0</ele><time>2026-04-27T16:04:35.478Z</time></trkpt><trkpt lat="43.3740117" lon="11.7872767"><ele>275.2</ele><time>2026-04-27T16:04:37.473Z</time></trkpt><trkpt lat="43.37411" lon="11.7872917"><ele>275.4</ele><time>2026-04-27T16:04:39.476Z</time></trkpt><trkpt lat="43.3742017" lon="11.7873117"><ele>275.6</ele><time>2026-04-27T16:04:41.472Z</time></trkpt><trkpt lat="43.3742933" lon="11.78732"><ele>275.8</ele><time>2026-04-27T16:04:43.474Z</time></trkpt><trkpt lat="43.3743767" lon="11.7873367"><ele>276.0</ele><time>2026-04-27T16:04:45.473Z</time></trkpt><trkpt lat="43.37446" lon="11.7873417"><ele>276.0</ele><time>2026-04-27T16:04:47.475Z</time></trkpt><trkpt lat="43.3745483" lon="11.7873417"><ele>276.0</ele><time>2026-04-27T16:04:49.476Z</time></trkpt><trkpt lat="43.3746367" lon="11.7873333"><ele>276.0</ele><time>2026-04-27T16:04:51.48Z</time></trkpt><trkpt lat="43.3747317" lon="11.7873067"><ele>276.0</ele><time>2026-04-27T16:04:53.478Z</time></trkpt><trkpt lat="43.3748217" lon="11.7872583"><ele>276.0</ele><time>2026-04-27T16:04:55.484Z</time></trkpt><trkpt lat="43.3749067" lon="11.7872"><ele>276.0</ele><time>2026-04-27T16:04:57.476Z</time></trkpt><trkpt lat="43.3749833" lon="11.7871317"><ele>276.0</ele><time>2026-04-27T16:04:59.473Z</time></trkpt><trkpt lat="43.37505" lon="11.7870583"><ele>276.0</ele><time>2026-04-27T16:05:01.478Z</time></trkpt><trkpt lat="43.3751183" lon="11.786985"><ele>276.0</ele><time>2026-04-27T16:05:03.476Z</time></trkpt><trkpt lat="43.3751833" lon="11.786905"><ele>276.0</ele><time>2026-04-27T16:05:05.474Z</time></trkpt><trkpt lat="43.3752467" lon="11.7868267"><ele>276.0</ele><time>2026-04-27T16:05:07.477Z</time></trkpt><trkpt lat="43.3753117" lon="11.7867517"><ele>276.0</ele><time>2026-04-27T16:05:09.475Z</time></trkpt><trkpt lat="43.375365" lon="11.7866883"><ele>276.0</ele><time>2026-04-27T16:05:11.475Z</time></trkpt><trkpt lat="43.37542" lon="11.78676"><ele>276.0</ele><time>2026-04-27T16:05:14.474Z</time></trkpt><trkpt lat="43.3754233" lon="11.7868617"><ele>276.0</ele><time>2026-04-27T16:05:16.476Z</time></trkpt><trkpt lat="43.3754233" lon="11.786965"><ele>276.0</ele><time>2026-04-27T16:05:18.477Z</time></trkpt><trkpt lat="43.3754283" lon="11.7870717"><ele>276.0</ele><time>2026-04-27T16:05:20.475Z</time></trkpt><trkpt lat="43.3754367" lon="11.7871767"><ele>275.8333333333333</ele><time>2026-04-27T16:05:22.478Z</time></trkpt><trkpt lat="43.375445" lon="11.7872733"><ele>275.6666666666667</ele><time>2026-04-27T16:05:24.475Z</time></trkpt><trkpt lat="43.375425" lon="11.7873983"><ele>275.5</ele><time>2026-04-27T16:05:27.475Z</time></trkpt><trkpt lat="43.3754417" lon="11.7874983"><ele>275.33333333333337</ele><time>2026-04-27T16:05:30.473Z</time></trkpt><trkpt lat="43.3755" lon="11.78756"><ele>275.1666666666667</ele><time>2026-04-27T16:05:33.474Z</time></trkpt><trkpt lat="43.3755817" lon="11.7876683"><ele>275.0</ele><time>2026-04-27T16:05:57.474Z</time></trkpt><trkpt lat="43.3756567" lon="11.7877"><ele>274.57142857142856</ele><time>2026-04-27T16:06:01.475Z</time></trkpt><trkpt lat="43.3757317" lon="11.7877417"><ele>274.1428571428571</ele><time>2026-04-27T16:06:05.475Z</time></trkpt><trkpt lat="43.3757967" lon="11.787755"><ele>273.71428571428567</ele><time>2026-04-27T16:06:08.473Z</time></trkpt><trkpt lat="43.37586" lon="11.7877567"><ele>273.2857142857143</ele><time>2026-04-27T16:06:11.474Z</time></trkpt><trkpt lat="43.37594" lon="11.7877717"><ele>272.85714285714283</ele><time>2026-04-27T16:06:15.475Z</time></trkpt><trkpt lat="43.376" lon="11.7878067"><ele>272.4285714285714</ele><time>2026-04-27T16:06:18.472Z</time></trkpt><trkpt lat="43.3760017" lon="11.7878967"><ele>272.0</ele><time>2026-04-27T16:06:22.473Z</time></trkpt><trkpt lat="43.3760667" lon="11.78816"><ele>272.0</ele><time>2026-04-27T16:06:40.471Z</time></trkpt></trkseg></trk></gpx>